<?xml version="1.0" encoding="UTF-8" standalone="no" ?>
<gpx xmlns="http://www.topografix.com/GPX/1/1" xmlns:xsi="http://www.w3.org/2001/XMLSchema-instance" xsi:schemaLocation="http://www.topografix.com/GPX/1/1 http://www.topografix.com/GPX/1/1/gpx.xsd" version="1.1" creator="VisuGPX - https://www.visugpx.com">
  <metadata>
    <name>08/09/2022 08:48</name>
  </metadata>
  <trk>
    <name><![CDATA[08/09/2022 08:48]]></name>
    <trkseg>
      <trkpt lat="42.99963" lon="0.67139">
        <ele>548</ele>
        <time>2022-09-08T06:50:58Z</time>
      </trkpt>
      <trkpt lat="42.9996" lon="0.6714">
        <ele>548</ele>
        <time>2022-09-08T06:51:01Z</time>
      </trkpt>
      <trkpt lat="42.99958" lon="0.67139">
        <ele>548</ele>
        <time>2022-09-08T06:51:07Z</time>
      </trkpt>
      <trkpt lat="42.99956" lon="0.67138">
        <ele>548</ele>
        <time>2022-09-08T06:51:10Z</time>
      </trkpt>
      <trkpt lat="42.99954" lon="0.67136">
        <ele>546</ele>
        <time>2022-09-08T06:51:33Z</time>
      </trkpt>
      <trkpt lat="42.99953" lon="0.67133">
        <ele>545</ele>
        <time>2022-09-08T06:51:45Z</time>
      </trkpt>
      <trkpt lat="42.99955" lon="0.67133">
        <ele>547</ele>
        <time>2022-09-08T06:51:59Z</time>
      </trkpt>
      <trkpt lat="42.99954" lon="0.67136">
        <ele>546</ele>
        <time>2022-09-08T06:52:54Z</time>
      </trkpt>
      <trkpt lat="42.99954" lon="0.67133">
        <ele>546</ele>
        <time>2022-09-08T06:52:57Z</time>
      </trkpt>
      <trkpt lat="42.99954" lon="0.67131">
        <ele>546</ele>
        <time>2022-09-08T06:53:01Z</time>
      </trkpt>
      <trkpt lat="42.99954" lon="0.67133">
        <ele>548</ele>
        <time>2022-09-08T06:54:01Z</time>
      </trkpt>
      <trkpt lat="42.99954" lon="0.67136">
        <ele>546</ele>
        <time>2022-09-08T06:54:24Z</time>
      </trkpt>
      <trkpt lat="42.99952" lon="0.67127">
        <ele>548</ele>
        <time>2022-09-08T06:55:34Z</time>
      </trkpt>
      <trkpt lat="42.99954" lon="0.67125">
        <ele>548</ele>
        <time>2022-09-08T06:55:48Z</time>
      </trkpt>
      <trkpt lat="42.99955" lon="0.67128">
        <ele>548</ele>
        <time>2022-09-08T06:55:59Z</time>
      </trkpt>
      <trkpt lat="42.99956" lon="0.67131">
        <ele>548</ele>
        <time>2022-09-08T06:56:06Z</time>
      </trkpt>
      <trkpt lat="42.99953" lon="0.67132">
        <ele>548</ele>
        <time>2022-09-08T06:56:11Z</time>
      </trkpt>
      <trkpt lat="42.99951" lon="0.67131">
        <ele>548</ele>
        <time>2022-09-08T06:56:17Z</time>
      </trkpt>
      <trkpt lat="42.99949" lon="0.67131">
        <ele>547</ele>
        <time>2022-09-08T06:56:21Z</time>
      </trkpt>
      <trkpt lat="42.99947" lon="0.67131">
        <ele>546</ele>
        <time>2022-09-08T06:56:31Z</time>
      </trkpt>
      <trkpt lat="42.99946" lon="0.6713">
        <ele>546</ele>
        <time>2022-09-08T06:56:35Z</time>
      </trkpt>
      <trkpt lat="42.99944" lon="0.67128">
        <ele>546</ele>
        <time>2022-09-08T06:56:39Z</time>
      </trkpt>
      <trkpt lat="42.99942" lon="0.67125">
        <ele>546</ele>
        <time>2022-09-08T06:56:42Z</time>
      </trkpt>
      <trkpt lat="42.9994" lon="0.67124">
        <ele>546</ele>
        <time>2022-09-08T06:56:45Z</time>
      </trkpt>
      <trkpt lat="42.99938" lon="0.67123">
        <ele>546</ele>
        <time>2022-09-08T06:56:47Z</time>
      </trkpt>
      <trkpt lat="42.99936" lon="0.67122">
        <ele>546</ele>
        <time>2022-09-08T06:56:49Z</time>
      </trkpt>
      <trkpt lat="42.99934" lon="0.6712">
        <ele>546</ele>
        <time>2022-09-08T06:56:51Z</time>
      </trkpt>
      <trkpt lat="42.99932" lon="0.67119">
        <ele>546</ele>
        <time>2022-09-08T06:56:54Z</time>
      </trkpt>
      <trkpt lat="42.9993" lon="0.6712">
        <ele>546</ele>
        <time>2022-09-08T06:57:03Z</time>
      </trkpt>
      <trkpt lat="42.99929" lon="0.67122">
        <ele>547</ele>
        <time>2022-09-08T06:57:31Z</time>
      </trkpt>
      <trkpt lat="42.99927" lon="0.67124">
        <ele>547</ele>
        <time>2022-09-08T06:57:37Z</time>
      </trkpt>
      <trkpt lat="42.99926" lon="0.67122">
        <ele>546</ele>
        <time>2022-09-08T06:57:57Z</time>
      </trkpt>
      <trkpt lat="42.99926" lon="0.67119">
        <ele>546</ele>
        <time>2022-09-08T06:58:00Z</time>
      </trkpt>
      <trkpt lat="42.99924" lon="0.67117">
        <ele>546</ele>
        <time>2022-09-08T06:58:04Z</time>
      </trkpt>
      <trkpt lat="42.99923" lon="0.67114">
        <ele>546</ele>
        <time>2022-09-08T06:58:06Z</time>
      </trkpt>
      <trkpt lat="42.99923" lon="0.67112">
        <ele>546</ele>
        <time>2022-09-08T06:58:08Z</time>
      </trkpt>
      <trkpt lat="42.99921" lon="0.67109">
        <ele>546</ele>
        <time>2022-09-08T06:58:11Z</time>
      </trkpt>
      <trkpt lat="42.99921" lon="0.67106">
        <ele>546</ele>
        <time>2022-09-08T06:58:13Z</time>
      </trkpt>
      <trkpt lat="42.9992" lon="0.67104">
        <ele>546</ele>
        <time>2022-09-08T06:58:16Z</time>
      </trkpt>
      <trkpt lat="42.99919" lon="0.671">
        <ele>546</ele>
        <time>2022-09-08T06:58:19Z</time>
      </trkpt>
      <trkpt lat="42.99919" lon="0.67096">
        <ele>546</ele>
        <time>2022-09-08T06:58:21Z</time>
      </trkpt>
      <trkpt lat="42.99919" lon="0.67093">
        <ele>545</ele>
        <time>2022-09-08T06:58:23Z</time>
      </trkpt>
      <trkpt lat="42.99918" lon="0.6709">
        <ele>545</ele>
        <time>2022-09-08T06:58:25Z</time>
      </trkpt>
      <trkpt lat="42.99918" lon="0.67088">
        <ele>545</ele>
        <time>2022-09-08T06:58:31Z</time>
      </trkpt>
      <trkpt lat="42.99917" lon="0.67085">
        <ele>546</ele>
        <time>2022-09-08T06:58:34Z</time>
      </trkpt>
      <trkpt lat="42.99916" lon="0.67082">
        <ele>546</ele>
        <time>2022-09-08T06:58:38Z</time>
      </trkpt>
      <trkpt lat="42.99915" lon="0.6708">
        <ele>546</ele>
        <time>2022-09-08T06:58:40Z</time>
      </trkpt>
      <trkpt lat="42.99914" lon="0.67076">
        <ele>546</ele>
        <time>2022-09-08T06:58:43Z</time>
      </trkpt>
      <trkpt lat="42.99912" lon="0.67074">
        <ele>546</ele>
        <time>2022-09-08T06:58:45Z</time>
      </trkpt>
      <trkpt lat="42.99911" lon="0.67071">
        <ele>546</ele>
        <time>2022-09-08T06:58:47Z</time>
      </trkpt>
      <trkpt lat="42.99909" lon="0.67069">
        <ele>546</ele>
        <time>2022-09-08T06:58:49Z</time>
      </trkpt>
      <trkpt lat="42.99908" lon="0.67066">
        <ele>546</ele>
        <time>2022-09-08T06:58:51Z</time>
      </trkpt>
      <trkpt lat="42.99907" lon="0.67064">
        <ele>546</ele>
        <time>2022-09-08T06:58:53Z</time>
      </trkpt>
      <trkpt lat="42.99906" lon="0.67061">
        <ele>546</ele>
        <time>2022-09-08T06:58:55Z</time>
      </trkpt>
      <trkpt lat="42.99904" lon="0.67059">
        <ele>546</ele>
        <time>2022-09-08T06:58:58Z</time>
      </trkpt>
      <trkpt lat="42.99903" lon="0.67057">
        <ele>546</ele>
        <time>2022-09-08T06:59:00Z</time>
      </trkpt>
      <trkpt lat="42.99902" lon="0.67055">
        <ele>547</ele>
        <time>2022-09-08T06:59:02Z</time>
      </trkpt>
      <trkpt lat="42.99901" lon="0.67052">
        <ele>547</ele>
        <time>2022-09-08T06:59:05Z</time>
      </trkpt>
      <trkpt lat="42.99901" lon="0.67049">
        <ele>547</ele>
        <time>2022-09-08T06:59:07Z</time>
      </trkpt>
      <trkpt lat="42.99899" lon="0.67046">
        <ele>547</ele>
        <time>2022-09-08T06:59:11Z</time>
      </trkpt>
      <trkpt lat="42.99899" lon="0.67043">
        <ele>548</ele>
        <time>2022-09-08T06:59:14Z</time>
      </trkpt>
      <trkpt lat="42.99899" lon="0.67041">
        <ele>548</ele>
        <time>2022-09-08T06:59:16Z</time>
      </trkpt>
      <trkpt lat="42.99899" lon="0.67036">
        <ele>548</ele>
        <time>2022-09-08T06:59:19Z</time>
      </trkpt>
      <trkpt lat="42.999" lon="0.67033">
        <ele>549</ele>
        <time>2022-09-08T06:59:21Z</time>
      </trkpt>
      <trkpt lat="42.999" lon="0.6703">
        <ele>549</ele>
        <time>2022-09-08T06:59:23Z</time>
      </trkpt>
      <trkpt lat="42.999" lon="0.67027">
        <ele>549</ele>
        <time>2022-09-08T06:59:25Z</time>
      </trkpt>
      <trkpt lat="42.99899" lon="0.67024">
        <ele>549</ele>
        <time>2022-09-08T06:59:28Z</time>
      </trkpt>
      <trkpt lat="42.99898" lon="0.67021">
        <ele>549</ele>
        <time>2022-09-08T06:59:31Z</time>
      </trkpt>
      <trkpt lat="42.99897" lon="0.67019">
        <ele>551</ele>
        <time>2022-09-08T06:59:34Z</time>
      </trkpt>
      <trkpt lat="42.99896" lon="0.67016">
        <ele>551</ele>
        <time>2022-09-08T06:59:37Z</time>
      </trkpt>
      <trkpt lat="42.99895" lon="0.67014">
        <ele>551</ele>
        <time>2022-09-08T06:59:40Z</time>
      </trkpt>
      <trkpt lat="42.99893" lon="0.67011">
        <ele>552</ele>
        <time>2022-09-08T06:59:44Z</time>
      </trkpt>
      <trkpt lat="42.99893" lon="0.67008">
        <ele>552</ele>
        <time>2022-09-08T06:59:47Z</time>
      </trkpt>
      <trkpt lat="42.99893" lon="0.67005">
        <ele>552</ele>
        <time>2022-09-08T06:59:49Z</time>
      </trkpt>
      <trkpt lat="42.99892" lon="0.67002">
        <ele>553</ele>
        <time>2022-09-08T06:59:54Z</time>
      </trkpt>
      <trkpt lat="42.99891" lon="0.66999">
        <ele>553</ele>
        <time>2022-09-08T06:59:56Z</time>
      </trkpt>
      <trkpt lat="42.99888" lon="0.66997">
        <ele>553</ele>
        <time>2022-09-08T06:59:59Z</time>
      </trkpt>
      <trkpt lat="42.99886" lon="0.66994">
        <ele>554</ele>
        <time>2022-09-08T07:00:02Z</time>
      </trkpt>
      <trkpt lat="42.99884" lon="0.66991">
        <ele>554</ele>
        <time>2022-09-08T07:00:04Z</time>
      </trkpt>
      <trkpt lat="42.99882" lon="0.66988">
        <ele>554</ele>
        <time>2022-09-08T07:00:05Z</time>
      </trkpt>
      <trkpt lat="42.99881" lon="0.66986">
        <ele>554</ele>
        <time>2022-09-08T07:00:07Z</time>
      </trkpt>
      <trkpt lat="42.99879" lon="0.66983">
        <ele>554</ele>
        <time>2022-09-08T07:00:09Z</time>
      </trkpt>
      <trkpt lat="42.99878" lon="0.66981">
        <ele>557</ele>
        <time>2022-09-08T07:00:13Z</time>
      </trkpt>
      <trkpt lat="42.99876" lon="0.66978">
        <ele>557</ele>
        <time>2022-09-08T07:00:15Z</time>
      </trkpt>
      <trkpt lat="42.99873" lon="0.66975">
        <ele>557</ele>
        <time>2022-09-08T07:00:17Z</time>
      </trkpt>
      <trkpt lat="42.99871" lon="0.66972">
        <ele>557</ele>
        <time>2022-09-08T07:00:19Z</time>
      </trkpt>
      <trkpt lat="42.99869" lon="0.6697">
        <ele>557</ele>
        <time>2022-09-08T07:00:21Z</time>
      </trkpt>
      <trkpt lat="42.99867" lon="0.66969">
        <ele>558</ele>
        <time>2022-09-08T07:00:23Z</time>
      </trkpt>
      <trkpt lat="42.99864" lon="0.66966">
        <ele>558</ele>
        <time>2022-09-08T07:00:27Z</time>
      </trkpt>
      <trkpt lat="42.99862" lon="0.66966">
        <ele>558</ele>
        <time>2022-09-08T07:00:29Z</time>
      </trkpt>
      <trkpt lat="42.9986" lon="0.66963">
        <ele>558</ele>
        <time>2022-09-08T07:00:31Z</time>
      </trkpt>
      <trkpt lat="42.99858" lon="0.66962">
        <ele>557</ele>
        <time>2022-09-08T07:00:33Z</time>
      </trkpt>
      <trkpt lat="42.99857" lon="0.66964">
        <ele>558</ele>
        <time>2022-09-08T07:01:01Z</time>
      </trkpt>
      <trkpt lat="42.99855" lon="0.66963">
        <ele>558</ele>
        <time>2022-09-08T07:01:07Z</time>
      </trkpt>
      <trkpt lat="42.99856" lon="0.66966">
        <ele>558</ele>
        <time>2022-09-08T07:01:40Z</time>
      </trkpt>
      <trkpt lat="42.99854" lon="0.66965">
        <ele>558</ele>
        <time>2022-09-08T07:02:26Z</time>
      </trkpt>
      <trkpt lat="42.99853" lon="0.66963">
        <ele>558</ele>
        <time>2022-09-08T07:02:29Z</time>
      </trkpt>
      <trkpt lat="42.99852" lon="0.6696">
        <ele>558</ele>
        <time>2022-09-08T07:02:33Z</time>
      </trkpt>
      <trkpt lat="42.99851" lon="0.66958">
        <ele>558</ele>
        <time>2022-09-08T07:02:36Z</time>
      </trkpt>
      <trkpt lat="42.9985" lon="0.66955">
        <ele>558</ele>
        <time>2022-09-08T07:02:43Z</time>
      </trkpt>
      <trkpt lat="42.99848" lon="0.66953">
        <ele>558</ele>
        <time>2022-09-08T07:02:46Z</time>
      </trkpt>
      <trkpt lat="42.99847" lon="0.6695">
        <ele>558</ele>
        <time>2022-09-08T07:02:49Z</time>
      </trkpt>
      <trkpt lat="42.99845" lon="0.66948">
        <ele>558</ele>
        <time>2022-09-08T07:02:51Z</time>
      </trkpt>
      <trkpt lat="42.99844" lon="0.66947">
        <ele>558</ele>
        <time>2022-09-08T07:02:53Z</time>
      </trkpt>
      <trkpt lat="42.99843" lon="0.66944">
        <ele>558</ele>
        <time>2022-09-08T07:02:56Z</time>
      </trkpt>
      <trkpt lat="42.99842" lon="0.66941">
        <ele>558</ele>
        <time>2022-09-08T07:02:59Z</time>
      </trkpt>
      <trkpt lat="42.99842" lon="0.66938">
        <ele>558</ele>
        <time>2022-09-08T07:03:01Z</time>
      </trkpt>
      <trkpt lat="42.99843" lon="0.66935">
        <ele>558</ele>
        <time>2022-09-08T07:03:03Z</time>
      </trkpt>
      <trkpt lat="42.99843" lon="0.66932">
        <ele>558</ele>
        <time>2022-09-08T07:03:05Z</time>
      </trkpt>
      <trkpt lat="42.99844" lon="0.66929">
        <ele>558</ele>
        <time>2022-09-08T07:03:07Z</time>
      </trkpt>
      <trkpt lat="42.99844" lon="0.66926">
        <ele>558</ele>
        <time>2022-09-08T07:03:09Z</time>
      </trkpt>
      <trkpt lat="42.99844" lon="0.66923">
        <ele>558</ele>
        <time>2022-09-08T07:03:12Z</time>
      </trkpt>
      <trkpt lat="42.99844" lon="0.6692">
        <ele>558</ele>
        <time>2022-09-08T07:03:15Z</time>
      </trkpt>
      <trkpt lat="42.99844" lon="0.66917">
        <ele>558</ele>
        <time>2022-09-08T07:03:17Z</time>
      </trkpt>
      <trkpt lat="42.99843" lon="0.66915">
        <ele>560</ele>
        <time>2022-09-08T07:03:22Z</time>
      </trkpt>
      <trkpt lat="42.99841" lon="0.66913">
        <ele>560</ele>
        <time>2022-09-08T07:03:30Z</time>
      </trkpt>
      <trkpt lat="42.9984" lon="0.66911">
        <ele>562</ele>
        <time>2022-09-08T07:03:33Z</time>
      </trkpt>
      <trkpt lat="42.99839" lon="0.66908">
        <ele>562</ele>
        <time>2022-09-08T07:03:35Z</time>
      </trkpt>
      <trkpt lat="42.99838" lon="0.66905">
        <ele>562</ele>
        <time>2022-09-08T07:03:38Z</time>
      </trkpt>
      <trkpt lat="42.99836" lon="0.66906">
        <ele>562</ele>
        <time>2022-09-08T07:03:46Z</time>
      </trkpt>
      <trkpt lat="42.99836" lon="0.66903">
        <ele>563</ele>
        <time>2022-09-08T07:03:53Z</time>
      </trkpt>
      <trkpt lat="42.99836" lon="0.66901">
        <ele>563</ele>
        <time>2022-09-08T07:03:56Z</time>
      </trkpt>
      <trkpt lat="42.99835" lon="0.66897">
        <ele>563</ele>
        <time>2022-09-08T07:03:59Z</time>
      </trkpt>
      <trkpt lat="42.99834" lon="0.66894">
        <ele>563</ele>
        <time>2022-09-08T07:04:01Z</time>
      </trkpt>
      <trkpt lat="42.99833" lon="0.66891">
        <ele>563</ele>
        <time>2022-09-08T07:04:04Z</time>
      </trkpt>
      <trkpt lat="42.99833" lon="0.66888">
        <ele>563</ele>
        <time>2022-09-08T07:04:06Z</time>
      </trkpt>
      <trkpt lat="42.99833" lon="0.66884">
        <ele>563</ele>
        <time>2022-09-08T07:04:09Z</time>
      </trkpt>
      <trkpt lat="42.99833" lon="0.66881">
        <ele>563</ele>
        <time>2022-09-08T07:04:11Z</time>
      </trkpt>
      <trkpt lat="42.99833" lon="0.66878">
        <ele>565</ele>
        <time>2022-09-08T07:04:13Z</time>
      </trkpt>
      <trkpt lat="42.99832" lon="0.66876">
        <ele>565</ele>
        <time>2022-09-08T07:04:16Z</time>
      </trkpt>
      <trkpt lat="42.99831" lon="0.66874">
        <ele>565</ele>
        <time>2022-09-08T07:04:18Z</time>
      </trkpt>
      <trkpt lat="42.99829" lon="0.66872">
        <ele>565</ele>
        <time>2022-09-08T07:04:21Z</time>
      </trkpt>
      <trkpt lat="42.99828" lon="0.66869">
        <ele>567</ele>
        <time>2022-09-08T07:04:24Z</time>
      </trkpt>
      <trkpt lat="42.99827" lon="0.66867">
        <ele>569</ele>
        <time>2022-09-08T07:04:44Z</time>
      </trkpt>
      <trkpt lat="42.99827" lon="0.66864">
        <ele>569</ele>
        <time>2022-09-08T07:05:03Z</time>
      </trkpt>
      <trkpt lat="42.99825" lon="0.66863">
        <ele>569</ele>
        <time>2022-09-08T07:05:11Z</time>
      </trkpt>
      <trkpt lat="42.99823" lon="0.66863">
        <ele>569</ele>
        <time>2022-09-08T07:05:30Z</time>
      </trkpt>
      <trkpt lat="42.99823" lon="0.6686">
        <ele>569</ele>
        <time>2022-09-08T07:05:58Z</time>
      </trkpt>
      <trkpt lat="42.99823" lon="0.66857">
        <ele>569</ele>
        <time>2022-09-08T07:06:17Z</time>
      </trkpt>
      <trkpt lat="42.99823" lon="0.66855">
        <ele>569</ele>
        <time>2022-09-08T07:06:29Z</time>
      </trkpt>
      <trkpt lat="42.99824" lon="0.66852">
        <ele>570</ele>
        <time>2022-09-08T07:06:43Z</time>
      </trkpt>
      <trkpt lat="42.99822" lon="0.66851">
        <ele>571</ele>
        <time>2022-09-08T07:08:08Z</time>
      </trkpt>
      <trkpt lat="42.99823" lon="0.66848">
        <ele>571</ele>
        <time>2022-09-08T07:08:14Z</time>
      </trkpt>
      <trkpt lat="42.99822" lon="0.66845">
        <ele>571</ele>
        <time>2022-09-08T07:08:18Z</time>
      </trkpt>
      <trkpt lat="42.99822" lon="0.66843">
        <ele>572</ele>
        <time>2022-09-08T07:08:26Z</time>
      </trkpt>
      <trkpt lat="42.9982" lon="0.66842">
        <ele>573</ele>
        <time>2022-09-08T07:08:41Z</time>
      </trkpt>
      <trkpt lat="42.9982" lon="0.66839">
        <ele>573</ele>
        <time>2022-09-08T07:08:58Z</time>
      </trkpt>
      <trkpt lat="42.99821" lon="0.66836">
        <ele>574</ele>
        <time>2022-09-08T07:09:16Z</time>
      </trkpt>
      <trkpt lat="42.99821" lon="0.66834">
        <ele>574</ele>
        <time>2022-09-08T07:09:42Z</time>
      </trkpt>
      <trkpt lat="42.99821" lon="0.66831">
        <ele>574</ele>
        <time>2022-09-08T07:09:52Z</time>
      </trkpt>
      <trkpt lat="42.9982" lon="0.66828">
        <ele>575</ele>
        <time>2022-09-08T07:09:57Z</time>
      </trkpt>
      <trkpt lat="42.99819" lon="0.66828">
        <ele>576</ele>
        <time>2022-09-08T07:10:52Z</time>
      </trkpt>
      <trkpt lat="42.99819" lon="0.66826">
        <ele>576</ele>
        <time>2022-09-08T07:11:45Z</time>
      </trkpt>
      <trkpt lat="42.99817" lon="0.66828">
        <ele>576</ele>
        <time>2022-09-08T07:13:04Z</time>
      </trkpt>
      <trkpt lat="42.99815" lon="0.66827">
        <ele>576</ele>
        <time>2022-09-08T07:13:11Z</time>
      </trkpt>
      <trkpt lat="42.99813" lon="0.66826">
        <ele>576</ele>
        <time>2022-09-08T07:13:42Z</time>
      </trkpt>
      <trkpt lat="42.99812" lon="0.66824">
        <ele>576</ele>
        <time>2022-09-08T07:13:47Z</time>
      </trkpt>
      <trkpt lat="42.99811" lon="0.66822">
        <ele>576</ele>
        <time>2022-09-08T07:13:52Z</time>
      </trkpt>
      <trkpt lat="42.9981" lon="0.6682">
        <ele>576</ele>
        <time>2022-09-08T07:13:57Z</time>
      </trkpt>
      <trkpt lat="42.9981" lon="0.66817">
        <ele>576</ele>
        <time>2022-09-08T07:14:09Z</time>
      </trkpt>
      <trkpt lat="42.9981" lon="0.66814">
        <ele>577</ele>
        <time>2022-09-08T07:14:16Z</time>
      </trkpt>
      <trkpt lat="42.9981" lon="0.66811">
        <ele>577</ele>
        <time>2022-09-08T07:14:21Z</time>
      </trkpt>
      <trkpt lat="42.99811" lon="0.66809">
        <ele>578</ele>
        <time>2022-09-08T07:14:25Z</time>
      </trkpt>
      <trkpt lat="42.99812" lon="0.66806">
        <ele>579</ele>
        <time>2022-09-08T07:14:36Z</time>
      </trkpt>
      <trkpt lat="42.99811" lon="0.66803">
        <ele>580</ele>
        <time>2022-09-08T07:14:54Z</time>
      </trkpt>
      <trkpt lat="42.99812" lon="0.66801">
        <ele>580</ele>
        <time>2022-09-08T07:14:58Z</time>
      </trkpt>
      <trkpt lat="42.99811" lon="0.66799">
        <ele>581</ele>
        <time>2022-09-08T07:15:21Z</time>
      </trkpt>
      <trkpt lat="42.9981" lon="0.66796">
        <ele>581</ele>
        <time>2022-09-08T07:15:55Z</time>
      </trkpt>
      <trkpt lat="42.99809" lon="0.66794">
        <ele>582</ele>
        <time>2022-09-08T07:16:19Z</time>
      </trkpt>
      <trkpt lat="42.99809" lon="0.66792">
        <ele>583</ele>
        <time>2022-09-08T07:16:56Z</time>
      </trkpt>
      <trkpt lat="42.99808" lon="0.66789">
        <ele>583</ele>
        <time>2022-09-08T07:17:12Z</time>
      </trkpt>
      <trkpt lat="42.99807" lon="0.66787">
        <ele>583</ele>
        <time>2022-09-08T07:17:22Z</time>
      </trkpt>
      <trkpt lat="42.99806" lon="0.66784">
        <ele>583</ele>
        <time>2022-09-08T07:17:26Z</time>
      </trkpt>
      <trkpt lat="42.99804" lon="0.66782">
        <ele>583</ele>
        <time>2022-09-08T07:17:34Z</time>
      </trkpt>
      <trkpt lat="42.99804" lon="0.66779">
        <ele>583</ele>
        <time>2022-09-08T07:17:39Z</time>
      </trkpt>
      <trkpt lat="42.99803" lon="0.66776">
        <ele>584</ele>
        <time>2022-09-08T07:17:47Z</time>
      </trkpt>
      <trkpt lat="42.99802" lon="0.66773">
        <ele>584</ele>
        <time>2022-09-08T07:17:50Z</time>
      </trkpt>
      <trkpt lat="42.99802" lon="0.6677">
        <ele>584</ele>
        <time>2022-09-08T07:17:53Z</time>
      </trkpt>
      <trkpt lat="42.99803" lon="0.66768">
        <ele>584</ele>
        <time>2022-09-08T07:17:56Z</time>
      </trkpt>
      <trkpt lat="42.99804" lon="0.66765">
        <ele>584</ele>
        <time>2022-09-08T07:17:59Z</time>
      </trkpt>
      <trkpt lat="42.99803" lon="0.66762">
        <ele>585</ele>
        <time>2022-09-08T07:18:02Z</time>
      </trkpt>
      <trkpt lat="42.99802" lon="0.6676">
        <ele>585</ele>
        <time>2022-09-08T07:18:04Z</time>
      </trkpt>
      <trkpt lat="42.99802" lon="0.66757">
        <ele>585</ele>
        <time>2022-09-08T07:18:07Z</time>
      </trkpt>
      <trkpt lat="42.99801" lon="0.66755">
        <ele>585</ele>
        <time>2022-09-08T07:18:11Z</time>
      </trkpt>
      <trkpt lat="42.99801" lon="0.66753">
        <ele>588</ele>
        <time>2022-09-08T07:18:21Z</time>
      </trkpt>
      <trkpt lat="42.998" lon="0.6675">
        <ele>589</ele>
        <time>2022-09-08T07:18:34Z</time>
      </trkpt>
      <trkpt lat="42.998" lon="0.66747">
        <ele>589</ele>
        <time>2022-09-08T07:18:37Z</time>
      </trkpt>
      <trkpt lat="42.99798" lon="0.66745">
        <ele>590</ele>
        <time>2022-09-08T07:20:05Z</time>
      </trkpt>
      <trkpt lat="42.99797" lon="0.66744">
        <ele>590</ele>
        <time>2022-09-08T07:20:10Z</time>
      </trkpt>
      <trkpt lat="42.99796" lon="0.66741">
        <ele>590</ele>
        <time>2022-09-08T07:20:15Z</time>
      </trkpt>
      <trkpt lat="42.99796" lon="0.66739">
        <ele>590</ele>
        <time>2022-09-08T07:20:21Z</time>
      </trkpt>
      <trkpt lat="42.99796" lon="0.66735">
        <ele>590</ele>
        <time>2022-09-08T07:20:27Z</time>
      </trkpt>
      <trkpt lat="42.99796" lon="0.66733">
        <ele>590</ele>
        <time>2022-09-08T07:20:36Z</time>
      </trkpt>
      <trkpt lat="42.99796" lon="0.6673">
        <ele>590</ele>
        <time>2022-09-08T07:20:39Z</time>
      </trkpt>
      <trkpt lat="42.99796" lon="0.66727">
        <ele>593</ele>
        <time>2022-09-08T07:21:02Z</time>
      </trkpt>
      <trkpt lat="42.99796" lon="0.66725">
        <ele>593</ele>
        <time>2022-09-08T07:21:05Z</time>
      </trkpt>
      <trkpt lat="42.99795" lon="0.66722">
        <ele>593</ele>
        <time>2022-09-08T07:21:08Z</time>
      </trkpt>
      <trkpt lat="42.99795" lon="0.66719">
        <ele>593</ele>
        <time>2022-09-08T07:21:11Z</time>
      </trkpt>
      <trkpt lat="42.99795" lon="0.66716">
        <ele>593</ele>
        <time>2022-09-08T07:21:14Z</time>
      </trkpt>
      <trkpt lat="42.99795" lon="0.66713">
        <ele>593</ele>
        <time>2022-09-08T07:21:17Z</time>
      </trkpt>
      <trkpt lat="42.99794" lon="0.6671">
        <ele>594</ele>
        <time>2022-09-08T07:21:24Z</time>
      </trkpt>
      <trkpt lat="42.99793" lon="0.66707">
        <ele>594</ele>
        <time>2022-09-08T07:21:27Z</time>
      </trkpt>
      <trkpt lat="42.99792" lon="0.66705">
        <ele>595</ele>
        <time>2022-09-08T07:21:38Z</time>
      </trkpt>
      <trkpt lat="42.99791" lon="0.66703">
        <ele>595</ele>
        <time>2022-09-08T07:21:41Z</time>
      </trkpt>
      <trkpt lat="42.9979" lon="0.667">
        <ele>596</ele>
        <time>2022-09-08T07:21:49Z</time>
      </trkpt>
      <trkpt lat="42.9979" lon="0.66698">
        <ele>597</ele>
        <time>2022-09-08T07:21:53Z</time>
      </trkpt>
      <trkpt lat="42.99789" lon="0.66696">
        <ele>598</ele>
        <time>2022-09-08T07:22:18Z</time>
      </trkpt>
      <trkpt lat="42.99788" lon="0.66693">
        <ele>598</ele>
        <time>2022-09-08T07:22:30Z</time>
      </trkpt>
      <trkpt lat="42.99786" lon="0.66692">
        <ele>598</ele>
        <time>2022-09-08T07:22:35Z</time>
      </trkpt>
      <trkpt lat="42.99785" lon="0.66689">
        <ele>598</ele>
        <time>2022-09-08T07:22:43Z</time>
      </trkpt>
      <trkpt lat="42.99785" lon="0.66686">
        <ele>598</ele>
        <time>2022-09-08T07:22:48Z</time>
      </trkpt>
      <trkpt lat="42.99785" lon="0.66684">
        <ele>598</ele>
        <time>2022-09-08T07:22:55Z</time>
      </trkpt>
      <trkpt lat="42.99785" lon="0.66681">
        <ele>598</ele>
        <time>2022-09-08T07:23:00Z</time>
      </trkpt>
      <trkpt lat="42.99785" lon="0.66678">
        <ele>598</ele>
        <time>2022-09-08T07:23:05Z</time>
      </trkpt>
      <trkpt lat="42.99784" lon="0.66675">
        <ele>598</ele>
        <time>2022-09-08T07:23:09Z</time>
      </trkpt>
      <trkpt lat="42.99783" lon="0.66674">
        <ele>598</ele>
        <time>2022-09-08T07:23:12Z</time>
      </trkpt>
      <trkpt lat="42.99781" lon="0.66672">
        <ele>600</ele>
        <time>2022-09-08T07:23:16Z</time>
      </trkpt>
      <trkpt lat="42.99779" lon="0.6667">
        <ele>603</ele>
        <time>2022-09-08T07:23:23Z</time>
      </trkpt>
      <trkpt lat="42.99778" lon="0.66668">
        <ele>603</ele>
        <time>2022-09-08T07:23:32Z</time>
      </trkpt>
      <trkpt lat="42.99776" lon="0.66666">
        <ele>603</ele>
        <time>2022-09-08T07:23:36Z</time>
      </trkpt>
      <trkpt lat="42.99775" lon="0.66664">
        <ele>603</ele>
        <time>2022-09-08T07:23:40Z</time>
      </trkpt>
      <trkpt lat="42.99774" lon="0.66662">
        <ele>604</ele>
        <time>2022-09-08T07:23:59Z</time>
      </trkpt>
      <trkpt lat="42.99773" lon="0.66659">
        <ele>604</ele>
        <time>2022-09-08T07:24:04Z</time>
      </trkpt>
      <trkpt lat="42.99773" lon="0.66657">
        <ele>604</ele>
        <time>2022-09-08T07:24:10Z</time>
      </trkpt>
      <trkpt lat="42.99772" lon="0.66654">
        <ele>605</ele>
        <time>2022-09-08T07:24:18Z</time>
      </trkpt>
      <trkpt lat="42.99771" lon="0.66652">
        <ele>606</ele>
        <time>2022-09-08T07:24:23Z</time>
      </trkpt>
      <trkpt lat="42.9977" lon="0.66649">
        <ele>606</ele>
        <time>2022-09-08T07:24:36Z</time>
      </trkpt>
      <trkpt lat="42.9977" lon="0.66646">
        <ele>608</ele>
        <time>2022-09-08T07:25:02Z</time>
      </trkpt>
      <trkpt lat="42.99769" lon="0.66645">
        <ele>608</ele>
        <time>2022-09-08T07:25:10Z</time>
      </trkpt>
      <trkpt lat="42.99767" lon="0.66643">
        <ele>608</ele>
        <time>2022-09-08T07:25:16Z</time>
      </trkpt>
      <trkpt lat="42.99765" lon="0.66641">
        <ele>608</ele>
        <time>2022-09-08T07:25:20Z</time>
      </trkpt>
      <trkpt lat="42.99765" lon="0.66639">
        <ele>608</ele>
        <time>2022-09-08T07:25:23Z</time>
      </trkpt>
      <trkpt lat="42.99765" lon="0.66636">
        <ele>609</ele>
        <time>2022-09-08T07:25:36Z</time>
      </trkpt>
      <trkpt lat="42.99765" lon="0.66633">
        <ele>610</ele>
        <time>2022-09-08T07:25:46Z</time>
      </trkpt>
      <trkpt lat="42.99764" lon="0.66631">
        <ele>610</ele>
        <time>2022-09-08T07:25:49Z</time>
      </trkpt>
      <trkpt lat="42.99763" lon="0.66628">
        <ele>610</ele>
        <time>2022-09-08T07:25:51Z</time>
      </trkpt>
      <trkpt lat="42.99763" lon="0.66625">
        <ele>610</ele>
        <time>2022-09-08T07:25:54Z</time>
      </trkpt>
      <trkpt lat="42.99762" lon="0.66622">
        <ele>610</ele>
        <time>2022-09-08T07:25:58Z</time>
      </trkpt>
      <trkpt lat="42.99761" lon="0.66619">
        <ele>610</ele>
        <time>2022-09-08T07:26:01Z</time>
      </trkpt>
      <trkpt lat="42.9976" lon="0.66617">
        <ele>611</ele>
        <time>2022-09-08T07:26:03Z</time>
      </trkpt>
      <trkpt lat="42.9976" lon="0.66614">
        <ele>611</ele>
        <time>2022-09-08T07:26:07Z</time>
      </trkpt>
      <trkpt lat="42.99759" lon="0.66611">
        <ele>611</ele>
        <time>2022-09-08T07:26:10Z</time>
      </trkpt>
      <trkpt lat="42.99758" lon="0.66608">
        <ele>612</ele>
        <time>2022-09-08T07:26:13Z</time>
      </trkpt>
      <trkpt lat="42.99757" lon="0.66605">
        <ele>612</ele>
        <time>2022-09-08T07:26:17Z</time>
      </trkpt>
      <trkpt lat="42.99757" lon="0.66602">
        <ele>612</ele>
        <time>2022-09-08T07:26:20Z</time>
      </trkpt>
      <trkpt lat="42.99756" lon="0.666">
        <ele>614</ele>
        <time>2022-09-08T07:26:23Z</time>
      </trkpt>
      <trkpt lat="42.99755" lon="0.66597">
        <ele>614</ele>
        <time>2022-09-08T07:26:25Z</time>
      </trkpt>
      <trkpt lat="42.99754" lon="0.66595">
        <ele>614</ele>
        <time>2022-09-08T07:26:28Z</time>
      </trkpt>
      <trkpt lat="42.99754" lon="0.66592">
        <ele>615</ele>
        <time>2022-09-08T07:26:32Z</time>
      </trkpt>
      <trkpt lat="42.99753" lon="0.6659">
        <ele>615</ele>
        <time>2022-09-08T07:26:40Z</time>
      </trkpt>
      <trkpt lat="42.99754" lon="0.66592">
        <ele>616</ele>
        <time>2022-09-08T07:27:04Z</time>
      </trkpt>
      <trkpt lat="42.99753" lon="0.66595">
        <ele>616</ele>
        <time>2022-09-08T07:27:08Z</time>
      </trkpt>
      <trkpt lat="42.99753" lon="0.66597">
        <ele>616</ele>
        <time>2022-09-08T07:27:46Z</time>
      </trkpt>
      <trkpt lat="42.99756" lon="0.66591">
        <ele>617</ele>
        <time>2022-09-08T07:28:35Z</time>
      </trkpt>
      <trkpt lat="42.9976" lon="0.66588">
        <ele>617</ele>
        <time>2022-09-08T07:28:49Z</time>
      </trkpt>
      <trkpt lat="42.99762" lon="0.66585">
        <ele>617</ele>
        <time>2022-09-08T07:28:54Z</time>
      </trkpt>
      <trkpt lat="42.99758" lon="0.66583">
        <ele>616</ele>
        <time>2022-09-08T07:29:16Z</time>
      </trkpt>
      <trkpt lat="42.99756" lon="0.66583">
        <ele>616</ele>
        <time>2022-09-08T07:29:19Z</time>
      </trkpt>
      <trkpt lat="42.99754" lon="0.66582">
        <ele>616</ele>
        <time>2022-09-08T07:29:21Z</time>
      </trkpt>
      <trkpt lat="42.99753" lon="0.6658">
        <ele>617</ele>
        <time>2022-09-08T07:29:27Z</time>
      </trkpt>
      <trkpt lat="42.99749" lon="0.66572">
        <ele>618</ele>
        <time>2022-09-08T07:29:38Z</time>
      </trkpt>
      <trkpt lat="42.99749" lon="0.66566">
        <ele>621</ele>
        <time>2022-09-08T07:29:43Z</time>
      </trkpt>
      <trkpt lat="42.99751" lon="0.66554">
        <ele>622</ele>
        <time>2022-09-08T07:29:54Z</time>
      </trkpt>
      <trkpt lat="42.99751" lon="0.66543">
        <ele>623</ele>
        <time>2022-09-08T07:30:05Z</time>
      </trkpt>
      <trkpt lat="42.99747" lon="0.66532">
        <ele>624</ele>
        <time>2022-09-08T07:30:14Z</time>
      </trkpt>
      <trkpt lat="42.99744" lon="0.66518">
        <ele>626</ele>
        <time>2022-09-08T07:30:25Z</time>
      </trkpt>
      <trkpt lat="42.99742" lon="0.66515">
        <ele>626</ele>
        <time>2022-09-08T07:30:26Z</time>
      </trkpt>
      <trkpt lat="42.99741" lon="0.66503">
        <ele>630</ele>
        <time>2022-09-08T07:30:42Z</time>
      </trkpt>
      <trkpt lat="42.99739" lon="0.66501">
        <ele>630</ele>
        <time>2022-09-08T07:30:45Z</time>
      </trkpt>
      <trkpt lat="42.99737" lon="0.66499">
        <ele>630</ele>
        <time>2022-09-08T07:30:51Z</time>
      </trkpt>
      <trkpt lat="42.99737" lon="0.66497">
        <ele>631</ele>
        <time>2022-09-08T07:31:14Z</time>
      </trkpt>
      <trkpt lat="42.99736" lon="0.66499">
        <ele>632</ele>
        <time>2022-09-08T07:31:29Z</time>
      </trkpt>
      <trkpt lat="42.99732" lon="0.66502">
        <ele>632</ele>
        <time>2022-09-08T07:31:35Z</time>
      </trkpt>
      <trkpt lat="42.9973" lon="0.66503">
        <ele>632</ele>
        <time>2022-09-08T07:31:38Z</time>
      </trkpt>
      <trkpt lat="42.99728" lon="0.66504">
        <ele>632</ele>
        <time>2022-09-08T07:31:40Z</time>
      </trkpt>
      <trkpt lat="42.99726" lon="0.66505">
        <ele>632</ele>
        <time>2022-09-08T07:31:43Z</time>
      </trkpt>
      <trkpt lat="42.99724" lon="0.66505">
        <ele>632</ele>
        <time>2022-09-08T07:31:46Z</time>
      </trkpt>
      <trkpt lat="42.99721" lon="0.66505">
        <ele>632</ele>
        <time>2022-09-08T07:31:50Z</time>
      </trkpt>
      <trkpt lat="42.99719" lon="0.66505">
        <ele>633</ele>
        <time>2022-09-08T07:31:54Z</time>
      </trkpt>
      <trkpt lat="42.99717" lon="0.66504">
        <ele>633</ele>
        <time>2022-09-08T07:31:57Z</time>
      </trkpt>
      <trkpt lat="42.99715" lon="0.66504">
        <ele>633</ele>
        <time>2022-09-08T07:32:00Z</time>
      </trkpt>
      <trkpt lat="42.99713" lon="0.66502">
        <ele>635</ele>
        <time>2022-09-08T07:32:07Z</time>
      </trkpt>
      <trkpt lat="42.99711" lon="0.66502">
        <ele>637</ele>
        <time>2022-09-08T07:32:12Z</time>
      </trkpt>
      <trkpt lat="42.99709" lon="0.665">
        <ele>637</ele>
        <time>2022-09-08T07:32:15Z</time>
      </trkpt>
      <trkpt lat="42.99704" lon="0.66501">
        <ele>640</ele>
        <time>2022-09-08T07:32:23Z</time>
      </trkpt>
      <trkpt lat="42.99703" lon="0.66499">
        <ele>640</ele>
        <time>2022-09-08T07:32:26Z</time>
      </trkpt>
      <trkpt lat="42.99694" lon="0.66496">
        <ele>640</ele>
        <time>2022-09-08T07:32:41Z</time>
      </trkpt>
      <trkpt lat="42.99695" lon="0.66499">
        <ele>640</ele>
        <time>2022-09-08T07:32:50Z</time>
      </trkpt>
      <trkpt lat="42.99696" lon="0.66498">
        <ele>640</ele>
        <time>2022-09-08T07:34:04Z</time>
      </trkpt>
      <trkpt lat="42.99696" lon="0.66488">
        <ele>640</ele>
        <time>2022-09-08T07:34:12Z</time>
      </trkpt>
      <trkpt lat="42.99696" lon="0.66484">
        <ele>640</ele>
        <time>2022-09-08T07:34:14Z</time>
      </trkpt>
      <trkpt lat="42.99695" lon="0.66482">
        <ele>640</ele>
        <time>2022-09-08T07:34:18Z</time>
      </trkpt>
      <trkpt lat="42.99695" lon="0.66478">
        <ele>641</ele>
        <time>2022-09-08T07:34:22Z</time>
      </trkpt>
      <trkpt lat="42.99697" lon="0.66476">
        <ele>641</ele>
        <time>2022-09-08T07:34:25Z</time>
      </trkpt>
      <trkpt lat="42.99698" lon="0.66473">
        <ele>641</ele>
        <time>2022-09-08T07:34:27Z</time>
      </trkpt>
      <trkpt lat="42.99699" lon="0.66471">
        <ele>641</ele>
        <time>2022-09-08T07:34:29Z</time>
      </trkpt>
      <trkpt lat="42.99702" lon="0.66468">
        <ele>641</ele>
        <time>2022-09-08T07:34:31Z</time>
      </trkpt>
      <trkpt lat="42.99703" lon="0.66466">
        <ele>642</ele>
        <time>2022-09-08T07:34:33Z</time>
      </trkpt>
      <trkpt lat="42.99704" lon="0.66463">
        <ele>642</ele>
        <time>2022-09-08T07:34:36Z</time>
      </trkpt>
      <trkpt lat="42.99702" lon="0.66451">
        <ele>647</ele>
        <time>2022-09-08T07:34:53Z</time>
      </trkpt>
      <trkpt lat="42.997" lon="0.66451">
        <ele>647</ele>
        <time>2022-09-08T07:34:55Z</time>
      </trkpt>
      <trkpt lat="42.99698" lon="0.66452">
        <ele>647</ele>
        <time>2022-09-08T07:35:01Z</time>
      </trkpt>
      <trkpt lat="42.99696" lon="0.66453">
        <ele>649</ele>
        <time>2022-09-08T07:35:04Z</time>
      </trkpt>
      <trkpt lat="42.99694" lon="0.66452">
        <ele>649</ele>
        <time>2022-09-08T07:35:06Z</time>
      </trkpt>
      <trkpt lat="42.99692" lon="0.66452">
        <ele>649</ele>
        <time>2022-09-08T07:35:11Z</time>
      </trkpt>
      <trkpt lat="42.99689" lon="0.66449">
        <ele>651</ele>
        <time>2022-09-08T07:35:16Z</time>
      </trkpt>
      <trkpt lat="42.99687" lon="0.66449">
        <ele>651</ele>
        <time>2022-09-08T07:35:18Z</time>
      </trkpt>
      <trkpt lat="42.99685" lon="0.66449">
        <ele>653</ele>
        <time>2022-09-08T07:35:28Z</time>
      </trkpt>
      <trkpt lat="42.99683" lon="0.66448">
        <ele>653</ele>
        <time>2022-09-08T07:35:32Z</time>
      </trkpt>
      <trkpt lat="42.99681" lon="0.66448">
        <ele>655</ele>
        <time>2022-09-08T07:35:46Z</time>
      </trkpt>
      <trkpt lat="42.99679" lon="0.66447">
        <ele>655</ele>
        <time>2022-09-08T07:36:04Z</time>
      </trkpt>
      <trkpt lat="42.99682" lon="0.66445">
        <ele>657</ele>
        <time>2022-09-08T07:37:20Z</time>
      </trkpt>
      <trkpt lat="42.99686" lon="0.66443">
        <ele>656</ele>
        <time>2022-09-08T07:37:26Z</time>
      </trkpt>
      <trkpt lat="42.99689" lon="0.66442">
        <ele>655</ele>
        <time>2022-09-08T07:37:33Z</time>
      </trkpt>
      <trkpt lat="42.99692" lon="0.66444">
        <ele>655</ele>
        <time>2022-09-08T07:37:43Z</time>
      </trkpt>
      <trkpt lat="42.99696" lon="0.66444">
        <ele>655</ele>
        <time>2022-09-08T07:37:46Z</time>
      </trkpt>
      <trkpt lat="42.99695" lon="0.66442">
        <ele>655</ele>
        <time>2022-09-08T07:38:17Z</time>
      </trkpt>
      <trkpt lat="42.99695" lon="0.66428">
        <ele>655</ele>
        <time>2022-09-08T07:39:50Z</time>
      </trkpt>
      <trkpt lat="42.99696" lon="0.66416">
        <ele>656</ele>
        <time>2022-09-08T07:39:59Z</time>
      </trkpt>
      <trkpt lat="42.99693" lon="0.66404">
        <ele>658</ele>
        <time>2022-09-08T07:40:14Z</time>
      </trkpt>
      <trkpt lat="42.99693" lon="0.66391">
        <ele>659</ele>
        <time>2022-09-08T07:40:31Z</time>
      </trkpt>
      <trkpt lat="42.99697" lon="0.6638">
        <ele>664</ele>
        <time>2022-09-08T07:40:46Z</time>
      </trkpt>
      <trkpt lat="42.99695" lon="0.66367">
        <ele>667</ele>
        <time>2022-09-08T07:41:07Z</time>
      </trkpt>
      <trkpt lat="42.99699" lon="0.66355">
        <ele>668</ele>
        <time>2022-09-08T07:41:20Z</time>
      </trkpt>
      <trkpt lat="42.99707" lon="0.66349">
        <ele>671</ele>
        <time>2022-09-08T07:41:41Z</time>
      </trkpt>
      <trkpt lat="42.99705" lon="0.66347">
        <ele>672</ele>
        <time>2022-09-08T07:41:57Z</time>
      </trkpt>
      <trkpt lat="42.99703" lon="0.66347">
        <ele>672</ele>
        <time>2022-09-08T07:42:00Z</time>
      </trkpt>
      <trkpt lat="42.99699" lon="0.66351">
        <ele>673</ele>
        <time>2022-09-08T07:42:21Z</time>
      </trkpt>
      <trkpt lat="42.997" lon="0.66353">
        <ele>674</ele>
        <time>2022-09-08T07:42:24Z</time>
      </trkpt>
      <trkpt lat="42.99702" lon="0.66354">
        <ele>674</ele>
        <time>2022-09-08T07:42:28Z</time>
      </trkpt>
      <trkpt lat="42.99702" lon="0.66356">
        <ele>674</ele>
        <time>2022-09-08T07:43:07Z</time>
      </trkpt>
      <trkpt lat="42.99704" lon="0.6635">
        <ele>673</ele>
        <time>2022-09-08T07:43:23Z</time>
      </trkpt>
      <trkpt lat="42.997" lon="0.66341">
        <ele>673</ele>
        <time>2022-09-08T07:43:34Z</time>
      </trkpt>
      <trkpt lat="42.99698" lon="0.6634">
        <ele>673</ele>
        <time>2022-09-08T07:43:36Z</time>
      </trkpt>
      <trkpt lat="42.99694" lon="0.66335">
        <ele>675</ele>
        <time>2022-09-08T07:43:42Z</time>
      </trkpt>
      <trkpt lat="42.99691" lon="0.66335">
        <ele>675</ele>
        <time>2022-09-08T07:43:47Z</time>
      </trkpt>
      <trkpt lat="42.99686" lon="0.6634">
        <ele>678</ele>
        <time>2022-09-08T07:43:54Z</time>
      </trkpt>
      <trkpt lat="42.99684" lon="0.6634">
        <ele>678</ele>
        <time>2022-09-08T07:44:00Z</time>
      </trkpt>
      <trkpt lat="42.99682" lon="0.66338">
        <ele>681</ele>
        <time>2022-09-08T07:44:20Z</time>
      </trkpt>
      <trkpt lat="42.99685" lon="0.66325">
        <ele>681</ele>
        <time>2022-09-08T07:44:58Z</time>
      </trkpt>
      <trkpt lat="42.99675" lon="0.66328">
        <ele>682</ele>
        <time>2022-09-08T07:45:15Z</time>
      </trkpt>
      <trkpt lat="42.99673" lon="0.66327">
        <ele>682</ele>
        <time>2022-09-08T07:45:25Z</time>
      </trkpt>
      <trkpt lat="42.99675" lon="0.66326">
        <ele>682</ele>
        <time>2022-09-08T07:45:28Z</time>
      </trkpt>
      <trkpt lat="42.99686" lon="0.66328">
        <ele>682</ele>
        <time>2022-09-08T07:45:33Z</time>
      </trkpt>
      <trkpt lat="42.99695" lon="0.66332">
        <ele>681</ele>
        <time>2022-09-08T07:45:42Z</time>
      </trkpt>
      <trkpt lat="42.99691" lon="0.66319">
        <ele>678</ele>
        <time>2022-09-08T07:46:03Z</time>
      </trkpt>
      <trkpt lat="42.99687" lon="0.66316">
        <ele>677</ele>
        <time>2022-09-08T07:46:15Z</time>
      </trkpt>
      <trkpt lat="42.99685" lon="0.66317">
        <ele>677</ele>
        <time>2022-09-08T07:46:19Z</time>
      </trkpt>
      <trkpt lat="42.99684" lon="0.66318">
        <ele>679</ele>
        <time>2022-09-08T07:46:25Z</time>
      </trkpt>
      <trkpt lat="42.99685" lon="0.66319">
        <ele>679</ele>
        <time>2022-09-08T07:46:32Z</time>
      </trkpt>
      <trkpt lat="42.99682" lon="0.66322">
        <ele>679</ele>
        <time>2022-09-08T07:47:28Z</time>
      </trkpt>
      <trkpt lat="42.99678" lon="0.6631">
        <ele>679</ele>
        <time>2022-09-08T07:47:37Z</time>
      </trkpt>
      <trkpt lat="42.99672" lon="0.663">
        <ele>679</ele>
        <time>2022-09-08T07:47:47Z</time>
      </trkpt>
      <trkpt lat="42.99666" lon="0.66287">
        <ele>680</ele>
        <time>2022-09-08T07:47:58Z</time>
      </trkpt>
      <trkpt lat="42.99663" lon="0.66276">
        <ele>680</ele>
        <time>2022-09-08T07:48:09Z</time>
      </trkpt>
      <trkpt lat="42.99659" lon="0.66262">
        <ele>681</ele>
        <time>2022-09-08T07:48:14Z</time>
      </trkpt>
      <trkpt lat="42.99658" lon="0.66249">
        <ele>685</ele>
        <time>2022-09-08T07:48:39Z</time>
      </trkpt>
      <trkpt lat="42.99653" lon="0.66239">
        <ele>686</ele>
        <time>2022-09-08T07:48:48Z</time>
      </trkpt>
      <trkpt lat="42.99649" lon="0.66234">
        <ele>686</ele>
        <time>2022-09-08T07:48:57Z</time>
      </trkpt>
      <trkpt lat="42.99646" lon="0.66227">
        <ele>688</ele>
        <time>2022-09-08T07:49:06Z</time>
      </trkpt>
      <trkpt lat="42.99643" lon="0.66225">
        <ele>688</ele>
        <time>2022-09-08T07:49:09Z</time>
      </trkpt>
      <trkpt lat="42.99641" lon="0.66224">
        <ele>689</ele>
        <time>2022-09-08T07:49:14Z</time>
      </trkpt>
      <trkpt lat="42.99635" lon="0.66215">
        <ele>693</ele>
        <time>2022-09-08T07:49:23Z</time>
      </trkpt>
      <trkpt lat="42.99633" lon="0.66213">
        <ele>693</ele>
        <time>2022-09-08T07:49:27Z</time>
      </trkpt>
      <trkpt lat="42.99631" lon="0.66211">
        <ele>694</ele>
        <time>2022-09-08T07:49:36Z</time>
      </trkpt>
      <trkpt lat="42.99629" lon="0.66209">
        <ele>694</ele>
        <time>2022-09-08T07:49:39Z</time>
      </trkpt>
      <trkpt lat="42.99623" lon="0.66208">
        <ele>695</ele>
        <time>2022-09-08T07:49:59Z</time>
      </trkpt>
      <trkpt lat="42.99623" lon="0.66211">
        <ele>696</ele>
        <time>2022-09-08T07:50:43Z</time>
      </trkpt>
      <trkpt lat="42.99622" lon="0.66208">
        <ele>696</ele>
        <time>2022-09-08T07:50:51Z</time>
      </trkpt>
      <trkpt lat="42.99622" lon="0.66206">
        <ele>696</ele>
        <time>2022-09-08T07:51:01Z</time>
      </trkpt>
      <trkpt lat="42.99621" lon="0.66203">
        <ele>696</ele>
        <time>2022-09-08T07:51:04Z</time>
      </trkpt>
      <trkpt lat="42.99618" lon="0.66199">
        <ele>696</ele>
        <time>2022-09-08T07:51:08Z</time>
      </trkpt>
      <trkpt lat="42.99616" lon="0.66198">
        <ele>696</ele>
        <time>2022-09-08T07:51:10Z</time>
      </trkpt>
      <trkpt lat="42.99615" lon="0.66196">
        <ele>696</ele>
        <time>2022-09-08T07:51:13Z</time>
      </trkpt>
      <trkpt lat="42.99614" lon="0.66193">
        <ele>696</ele>
        <time>2022-09-08T07:51:26Z</time>
      </trkpt>
      <trkpt lat="42.99613" lon="0.66191">
        <ele>696</ele>
        <time>2022-09-08T07:51:29Z</time>
      </trkpt>
      <trkpt lat="42.9961" lon="0.66187">
        <ele>696</ele>
        <time>2022-09-08T07:51:33Z</time>
      </trkpt>
      <trkpt lat="42.99608" lon="0.66187">
        <ele>696</ele>
        <time>2022-09-08T07:51:37Z</time>
      </trkpt>
      <trkpt lat="42.996" lon="0.66179">
        <ele>697</ele>
        <time>2022-09-08T07:51:50Z</time>
      </trkpt>
      <trkpt lat="42.99597" lon="0.66175">
        <ele>698</ele>
        <time>2022-09-08T07:51:56Z</time>
      </trkpt>
      <trkpt lat="42.99595" lon="0.66171">
        <ele>698</ele>
        <time>2022-09-08T07:52:00Z</time>
      </trkpt>
      <trkpt lat="42.99592" lon="0.6617">
        <ele>700</ele>
        <time>2022-09-08T07:52:05Z</time>
      </trkpt>
      <trkpt lat="42.9959" lon="0.66168">
        <ele>700</ele>
        <time>2022-09-08T07:52:09Z</time>
      </trkpt>
      <trkpt lat="42.99588" lon="0.66169">
        <ele>701</ele>
        <time>2022-09-08T07:52:12Z</time>
      </trkpt>
      <trkpt lat="42.99586" lon="0.66167">
        <ele>701</ele>
        <time>2022-09-08T07:52:16Z</time>
      </trkpt>
      <trkpt lat="42.99584" lon="0.66166">
        <ele>702</ele>
        <time>2022-09-08T07:52:24Z</time>
      </trkpt>
      <trkpt lat="42.99582" lon="0.66161">
        <ele>702</ele>
        <time>2022-09-08T07:52:30Z</time>
      </trkpt>
      <trkpt lat="42.9958" lon="0.66163">
        <ele>702</ele>
        <time>2022-09-08T07:52:33Z</time>
      </trkpt>
      <trkpt lat="42.99578" lon="0.66161">
        <ele>702</ele>
        <time>2022-09-08T07:52:38Z</time>
      </trkpt>
      <trkpt lat="42.99577" lon="0.66159">
        <ele>702</ele>
        <time>2022-09-08T07:52:43Z</time>
      </trkpt>
      <trkpt lat="42.99576" lon="0.66157">
        <ele>702</ele>
        <time>2022-09-08T07:52:49Z</time>
      </trkpt>
      <trkpt lat="42.99574" lon="0.66156">
        <ele>703</ele>
        <time>2022-09-08T07:52:52Z</time>
      </trkpt>
      <trkpt lat="42.99573" lon="0.66153">
        <ele>703</ele>
        <time>2022-09-08T07:52:58Z</time>
      </trkpt>
      <trkpt lat="42.99572" lon="0.66151">
        <ele>704</ele>
        <time>2022-09-08T07:53:02Z</time>
      </trkpt>
      <trkpt lat="42.9957" lon="0.66149">
        <ele>704</ele>
        <time>2022-09-08T07:53:05Z</time>
      </trkpt>
      <trkpt lat="42.99568" lon="0.66146">
        <ele>704</ele>
        <time>2022-09-08T07:53:07Z</time>
      </trkpt>
      <trkpt lat="42.99567" lon="0.66145">
        <ele>704</ele>
        <time>2022-09-08T07:53:11Z</time>
      </trkpt>
      <trkpt lat="42.99565" lon="0.66142">
        <ele>706</ele>
        <time>2022-09-08T07:53:15Z</time>
      </trkpt>
      <trkpt lat="42.99565" lon="0.66139">
        <ele>706</ele>
        <time>2022-09-08T07:53:17Z</time>
      </trkpt>
      <trkpt lat="42.99563" lon="0.66138">
        <ele>706</ele>
        <time>2022-09-08T07:53:20Z</time>
      </trkpt>
      <trkpt lat="42.9956" lon="0.66133">
        <ele>706</ele>
        <time>2022-09-08T07:53:26Z</time>
      </trkpt>
      <trkpt lat="42.99558" lon="0.66131">
        <ele>706</ele>
        <time>2022-09-08T07:53:29Z</time>
      </trkpt>
      <trkpt lat="42.99556" lon="0.66129">
        <ele>707</ele>
        <time>2022-09-08T07:53:32Z</time>
      </trkpt>
      <trkpt lat="42.99549" lon="0.66117">
        <ele>707</ele>
        <time>2022-09-08T07:53:41Z</time>
      </trkpt>
      <trkpt lat="42.99541" lon="0.66108">
        <ele>711</ele>
        <time>2022-09-08T07:54:03Z</time>
      </trkpt>
      <trkpt lat="42.99537" lon="0.66103">
        <ele>712</ele>
        <time>2022-09-08T07:54:14Z</time>
      </trkpt>
      <trkpt lat="42.99535" lon="0.66091">
        <ele>713</ele>
        <time>2022-09-08T07:54:27Z</time>
      </trkpt>
      <trkpt lat="42.9953" lon="0.6608">
        <ele>713</ele>
        <time>2022-09-08T07:54:42Z</time>
      </trkpt>
      <trkpt lat="42.99526" lon="0.66068">
        <ele>714</ele>
        <time>2022-09-08T07:54:52Z</time>
      </trkpt>
      <trkpt lat="42.9952" lon="0.66057">
        <ele>715</ele>
        <time>2022-09-08T07:54:56Z</time>
      </trkpt>
      <trkpt lat="42.99523" lon="0.66059">
        <ele>717</ele>
        <time>2022-09-08T07:55:06Z</time>
      </trkpt>
      <trkpt lat="42.99525" lon="0.6606">
        <ele>718</ele>
        <time>2022-09-08T07:55:14Z</time>
      </trkpt>
      <trkpt lat="42.99527" lon="0.66061">
        <ele>718</ele>
        <time>2022-09-08T07:55:16Z</time>
      </trkpt>
      <trkpt lat="42.9953" lon="0.66059">
        <ele>719</ele>
        <time>2022-09-08T07:56:17Z</time>
      </trkpt>
      <trkpt lat="42.99529" lon="0.66056">
        <ele>719</ele>
        <time>2022-09-08T07:56:20Z</time>
      </trkpt>
      <trkpt lat="42.99527" lon="0.66054">
        <ele>719</ele>
        <time>2022-09-08T07:56:22Z</time>
      </trkpt>
      <trkpt lat="42.99525" lon="0.66053">
        <ele>719</ele>
        <time>2022-09-08T07:56:25Z</time>
      </trkpt>
      <trkpt lat="42.99524" lon="0.66051">
        <ele>719</ele>
        <time>2022-09-08T07:56:27Z</time>
      </trkpt>
      <trkpt lat="42.99522" lon="0.6605">
        <ele>719</ele>
        <time>2022-09-08T07:56:29Z</time>
      </trkpt>
      <trkpt lat="42.99525" lon="0.66038">
        <ele>719</ele>
        <time>2022-09-08T07:56:42Z</time>
      </trkpt>
      <trkpt lat="42.99522" lon="0.66031">
        <ele>719</ele>
        <time>2022-09-08T07:56:51Z</time>
      </trkpt>
      <trkpt lat="42.99521" lon="0.66027">
        <ele>720</ele>
        <time>2022-09-08T07:56:55Z</time>
      </trkpt>
      <trkpt lat="42.99519" lon="0.66014">
        <ele>721</ele>
        <time>2022-09-08T07:57:09Z</time>
      </trkpt>
      <trkpt lat="42.99517" lon="0.66002">
        <ele>723</ele>
        <time>2022-09-08T07:57:18Z</time>
      </trkpt>
      <trkpt lat="42.99523" lon="0.65994">
        <ele>723</ele>
        <time>2022-09-08T07:57:24Z</time>
      </trkpt>
      <trkpt lat="42.99522" lon="0.65988">
        <ele>723</ele>
        <time>2022-09-08T07:57:28Z</time>
      </trkpt>
      <trkpt lat="42.99519" lon="0.65976">
        <ele>725</ele>
        <time>2022-09-08T07:57:41Z</time>
      </trkpt>
      <trkpt lat="42.99518" lon="0.65974">
        <ele>729</ele>
        <time>2022-09-08T07:57:44Z</time>
      </trkpt>
      <trkpt lat="42.99518" lon="0.65971">
        <ele>729</ele>
        <time>2022-09-08T07:57:48Z</time>
      </trkpt>
      <trkpt lat="42.99517" lon="0.65968">
        <ele>729</ele>
        <time>2022-09-08T07:57:52Z</time>
      </trkpt>
      <trkpt lat="42.99518" lon="0.65968">
        <ele>730</ele>
        <time>2022-09-08T07:57:57Z</time>
      </trkpt>
      <trkpt lat="42.99525" lon="0.65967">
        <ele>731</ele>
        <time>2022-09-08T07:58:11Z</time>
      </trkpt>
      <trkpt lat="42.99528" lon="0.65966">
        <ele>732</ele>
        <time>2022-09-08T07:58:17Z</time>
      </trkpt>
      <trkpt lat="42.9953" lon="0.65966">
        <ele>732</ele>
        <time>2022-09-08T07:58:19Z</time>
      </trkpt>
      <trkpt lat="42.99535" lon="0.65967">
        <ele>732</ele>
        <time>2022-09-08T07:58:22Z</time>
      </trkpt>
      <trkpt lat="42.99537" lon="0.65967">
        <ele>732</ele>
        <time>2022-09-08T07:58:23Z</time>
      </trkpt>
      <trkpt lat="42.99535" lon="0.65968">
        <ele>733</ele>
        <time>2022-09-08T07:59:23Z</time>
      </trkpt>
      <trkpt lat="42.99533" lon="0.65969">
        <ele>733</ele>
        <time>2022-09-08T07:59:24Z</time>
      </trkpt>
      <trkpt lat="42.99533" lon="0.65972">
        <ele>734</ele>
        <time>2022-09-08T07:59:32Z</time>
      </trkpt>
      <trkpt lat="42.99532" lon="0.65969">
        <ele>734</ele>
        <time>2022-09-08T07:59:40Z</time>
      </trkpt>
      <trkpt lat="42.99534" lon="0.65967">
        <ele>734</ele>
        <time>2022-09-08T07:59:44Z</time>
      </trkpt>
      <trkpt lat="42.99534" lon="0.65963">
        <ele>735</ele>
        <time>2022-09-08T07:59:52Z</time>
      </trkpt>
      <trkpt lat="42.99534" lon="0.6596">
        <ele>735</ele>
        <time>2022-09-08T07:59:55Z</time>
      </trkpt>
      <trkpt lat="42.99534" lon="0.65958">
        <ele>735</ele>
        <time>2022-09-08T08:00:00Z</time>
      </trkpt>
      <trkpt lat="42.99536" lon="0.65957">
        <ele>733</ele>
        <time>2022-09-08T08:00:04Z</time>
      </trkpt>
      <trkpt lat="42.99536" lon="0.65943">
        <ele>732</ele>
        <time>2022-09-08T08:00:16Z</time>
      </trkpt>
      <trkpt lat="42.99544" lon="0.65934">
        <ele>733</ele>
        <time>2022-09-08T08:00:24Z</time>
      </trkpt>
      <trkpt lat="42.99552" lon="0.65928">
        <ele>734</ele>
        <time>2022-09-08T08:00:32Z</time>
      </trkpt>
      <trkpt lat="42.99561" lon="0.65918">
        <ele>735</ele>
        <time>2022-09-08T08:00:47Z</time>
      </trkpt>
      <trkpt lat="42.9956" lon="0.65911">
        <ele>737</ele>
        <time>2022-09-08T08:00:55Z</time>
      </trkpt>
      <trkpt lat="42.99558" lon="0.65911">
        <ele>737</ele>
        <time>2022-09-08T08:00:58Z</time>
      </trkpt>
      <trkpt lat="42.99556" lon="0.65909">
        <ele>737</ele>
        <time>2022-09-08T08:01:01Z</time>
      </trkpt>
      <trkpt lat="42.99554" lon="0.65908">
        <ele>738</ele>
        <time>2022-09-08T08:01:04Z</time>
      </trkpt>
      <trkpt lat="42.99553" lon="0.65906">
        <ele>738</ele>
        <time>2022-09-08T08:01:09Z</time>
      </trkpt>
      <trkpt lat="42.99554" lon="0.65903">
        <ele>740</ele>
        <time>2022-09-08T08:01:13Z</time>
      </trkpt>
      <trkpt lat="42.99553" lon="0.65901">
        <ele>744</ele>
        <time>2022-09-08T08:01:31Z</time>
      </trkpt>
      <trkpt lat="42.99556" lon="0.65902">
        <ele>745</ele>
        <time>2022-09-08T08:02:17Z</time>
      </trkpt>
      <trkpt lat="42.99556" lon="0.65899">
        <ele>744</ele>
        <time>2022-09-08T08:02:29Z</time>
      </trkpt>
      <trkpt lat="42.99555" lon="0.65896">
        <ele>744</ele>
        <time>2022-09-08T08:02:33Z</time>
      </trkpt>
      <trkpt lat="42.9955" lon="0.65886">
        <ele>744</ele>
        <time>2022-09-08T08:02:44Z</time>
      </trkpt>
      <trkpt lat="42.99548" lon="0.65882">
        <ele>746</ele>
        <time>2022-09-08T08:02:53Z</time>
      </trkpt>
      <trkpt lat="42.99546" lon="0.65879">
        <ele>746</ele>
        <time>2022-09-08T08:02:59Z</time>
      </trkpt>
      <trkpt lat="42.99545" lon="0.65877">
        <ele>748</ele>
        <time>2022-09-08T08:03:03Z</time>
      </trkpt>
      <trkpt lat="42.99543" lon="0.65876">
        <ele>748</ele>
        <time>2022-09-08T08:03:07Z</time>
      </trkpt>
      <trkpt lat="42.99541" lon="0.65874">
        <ele>748</ele>
        <time>2022-09-08T08:03:11Z</time>
      </trkpt>
      <trkpt lat="42.9954" lon="0.65871">
        <ele>753</ele>
        <time>2022-09-08T08:03:14Z</time>
      </trkpt>
      <trkpt lat="42.99539" lon="0.65868">
        <ele>753</ele>
        <time>2022-09-08T08:03:17Z</time>
      </trkpt>
      <trkpt lat="42.99538" lon="0.65865">
        <ele>753</ele>
        <time>2022-09-08T08:03:22Z</time>
      </trkpt>
      <trkpt lat="42.99537" lon="0.65862">
        <ele>753</ele>
        <time>2022-09-08T08:03:24Z</time>
      </trkpt>
      <trkpt lat="42.99535" lon="0.65859">
        <ele>753</ele>
        <time>2022-09-08T08:03:27Z</time>
      </trkpt>
      <trkpt lat="42.99534" lon="0.65856">
        <ele>753</ele>
        <time>2022-09-08T08:03:31Z</time>
      </trkpt>
      <trkpt lat="42.99534" lon="0.65854">
        <ele>754</ele>
        <time>2022-09-08T08:03:36Z</time>
      </trkpt>
      <trkpt lat="42.99534" lon="0.65851">
        <ele>754</ele>
        <time>2022-09-08T08:03:40Z</time>
      </trkpt>
      <trkpt lat="42.99535" lon="0.65849">
        <ele>757</ele>
        <time>2022-09-08T08:03:44Z</time>
      </trkpt>
      <trkpt lat="42.99536" lon="0.65845">
        <ele>757</ele>
        <time>2022-09-08T08:03:51Z</time>
      </trkpt>
      <trkpt lat="42.99535" lon="0.65842">
        <ele>759</ele>
        <time>2022-09-08T08:03:57Z</time>
      </trkpt>
      <trkpt lat="42.99534" lon="0.65843">
        <ele>760</ele>
        <time>2022-09-08T08:04:17Z</time>
      </trkpt>
      <trkpt lat="42.99534" lon="0.6585">
        <ele>761</ele>
        <time>2022-09-08T08:05:23Z</time>
      </trkpt>
      <trkpt lat="42.99533" lon="0.65852">
        <ele>760</ele>
        <time>2022-09-08T08:05:33Z</time>
      </trkpt>
      <trkpt lat="42.99535" lon="0.65854">
        <ele>760</ele>
        <time>2022-09-08T08:05:35Z</time>
      </trkpt>
      <trkpt lat="42.99536" lon="0.65852">
        <ele>760</ele>
        <time>2022-09-08T08:05:44Z</time>
      </trkpt>
      <trkpt lat="42.99537" lon="0.6585">
        <ele>760</ele>
        <time>2022-09-08T08:05:50Z</time>
      </trkpt>
      <trkpt lat="42.99536" lon="0.65848">
        <ele>759</ele>
        <time>2022-09-08T08:06:00Z</time>
      </trkpt>
      <trkpt lat="42.99528" lon="0.65842">
        <ele>760</ele>
        <time>2022-09-08T08:06:14Z</time>
      </trkpt>
      <trkpt lat="42.99528" lon="0.65846">
        <ele>760</ele>
        <time>2022-09-08T08:06:21Z</time>
      </trkpt>
      <trkpt lat="42.99526" lon="0.65847">
        <ele>761</ele>
        <time>2022-09-08T08:06:26Z</time>
      </trkpt>
      <trkpt lat="42.99527" lon="0.65844">
        <ele>761</ele>
        <time>2022-09-08T08:06:31Z</time>
      </trkpt>
      <trkpt lat="42.99527" lon="0.65842">
        <ele>761</ele>
        <time>2022-09-08T08:06:35Z</time>
      </trkpt>
      <trkpt lat="42.99526" lon="0.65839">
        <ele>761</ele>
        <time>2022-09-08T08:06:38Z</time>
      </trkpt>
      <trkpt lat="42.99526" lon="0.65836">
        <ele>761</ele>
        <time>2022-09-08T08:06:41Z</time>
      </trkpt>
      <trkpt lat="42.99528" lon="0.65834">
        <ele>762</ele>
        <time>2022-09-08T08:06:45Z</time>
      </trkpt>
      <trkpt lat="42.99529" lon="0.65833">
        <ele>762</ele>
        <time>2022-09-08T08:06:49Z</time>
      </trkpt>
      <trkpt lat="42.9953" lon="0.6583">
        <ele>764</ele>
        <time>2022-09-08T08:06:53Z</time>
      </trkpt>
      <trkpt lat="42.99531" lon="0.65828">
        <ele>764</ele>
        <time>2022-09-08T08:06:56Z</time>
      </trkpt>
      <trkpt lat="42.99533" lon="0.65827">
        <ele>764</ele>
        <time>2022-09-08T08:06:59Z</time>
      </trkpt>
      <trkpt lat="42.99535" lon="0.65827">
        <ele>764</ele>
        <time>2022-09-08T08:07:02Z</time>
      </trkpt>
      <trkpt lat="42.99537" lon="0.65825">
        <ele>766</ele>
        <time>2022-09-08T08:07:08Z</time>
      </trkpt>
      <trkpt lat="42.99538" lon="0.65822">
        <ele>768</ele>
        <time>2022-09-08T08:07:12Z</time>
      </trkpt>
      <trkpt lat="42.9954" lon="0.65821">
        <ele>768</ele>
        <time>2022-09-08T08:07:15Z</time>
      </trkpt>
      <trkpt lat="42.99542" lon="0.65819">
        <ele>768</ele>
        <time>2022-09-08T08:07:18Z</time>
      </trkpt>
      <trkpt lat="42.99544" lon="0.65816">
        <ele>768</ele>
        <time>2022-09-08T08:07:21Z</time>
      </trkpt>
      <trkpt lat="42.99546" lon="0.65816">
        <ele>770</ele>
        <time>2022-09-08T08:07:24Z</time>
      </trkpt>
      <trkpt lat="42.99548" lon="0.65815">
        <ele>770</ele>
        <time>2022-09-08T08:07:28Z</time>
      </trkpt>
      <trkpt lat="42.99551" lon="0.65816">
        <ele>770</ele>
        <time>2022-09-08T08:07:30Z</time>
      </trkpt>
      <trkpt lat="42.99553" lon="0.65816">
        <ele>770</ele>
        <time>2022-09-08T08:07:31Z</time>
      </trkpt>
      <trkpt lat="42.99556" lon="0.65816">
        <ele>771</ele>
        <time>2022-09-08T08:07:33Z</time>
      </trkpt>
      <trkpt lat="42.99559" lon="0.65815">
        <ele>771</ele>
        <time>2022-09-08T08:07:36Z</time>
      </trkpt>
      <trkpt lat="42.9956" lon="0.65813">
        <ele>771</ele>
        <time>2022-09-08T08:07:39Z</time>
      </trkpt>
      <trkpt lat="42.99562" lon="0.65811">
        <ele>771</ele>
        <time>2022-09-08T08:07:41Z</time>
      </trkpt>
      <trkpt lat="42.99565" lon="0.6581">
        <ele>771</ele>
        <time>2022-09-08T08:07:44Z</time>
      </trkpt>
      <trkpt lat="42.99566" lon="0.65809">
        <ele>771</ele>
        <time>2022-09-08T08:07:48Z</time>
      </trkpt>
      <trkpt lat="42.99565" lon="0.65811">
        <ele>773</ele>
        <time>2022-09-08T08:08:01Z</time>
      </trkpt>
      <trkpt lat="42.99562" lon="0.6581">
        <ele>773</ele>
        <time>2022-09-08T08:08:07Z</time>
      </trkpt>
      <trkpt lat="42.9956" lon="0.65808">
        <ele>773</ele>
        <time>2022-09-08T08:08:12Z</time>
      </trkpt>
      <trkpt lat="42.99558" lon="0.65809">
        <ele>773</ele>
        <time>2022-09-08T08:08:20Z</time>
      </trkpt>
      <trkpt lat="42.99557" lon="0.65811">
        <ele>773</ele>
        <time>2022-09-08T08:08:22Z</time>
      </trkpt>
      <trkpt lat="42.99557" lon="0.65815">
        <ele>773</ele>
        <time>2022-09-08T08:08:25Z</time>
      </trkpt>
      <trkpt lat="42.99558" lon="0.65816">
        <ele>772</ele>
        <time>2022-09-08T08:08:49Z</time>
      </trkpt>
      <trkpt lat="42.99559" lon="0.65814">
        <ele>772</ele>
        <time>2022-09-08T08:09:02Z</time>
      </trkpt>
      <trkpt lat="42.99561" lon="0.65811">
        <ele>772</ele>
        <time>2022-09-08T08:09:06Z</time>
      </trkpt>
      <trkpt lat="42.99561" lon="0.65809">
        <ele>773</ele>
        <time>2022-09-08T08:09:23Z</time>
      </trkpt>
      <trkpt lat="42.99563" lon="0.65808">
        <ele>773</ele>
        <time>2022-09-08T08:09:46Z</time>
      </trkpt>
      <trkpt lat="42.99572" lon="0.65805">
        <ele>775</ele>
        <time>2022-09-08T08:10:18Z</time>
      </trkpt>
      <trkpt lat="42.99571" lon="0.65817">
        <ele>775</ele>
        <time>2022-09-08T08:10:57Z</time>
      </trkpt>
      <trkpt lat="42.99578" lon="0.65808">
        <ele>775</ele>
        <time>2022-09-08T08:11:08Z</time>
      </trkpt>
      <trkpt lat="42.99587" lon="0.65803">
        <ele>776</ele>
        <time>2022-09-08T08:11:22Z</time>
      </trkpt>
      <trkpt lat="42.99579" lon="0.65795">
        <ele>776</ele>
        <time>2022-09-08T08:12:30Z</time>
      </trkpt>
      <trkpt lat="42.99589" lon="0.65796">
        <ele>776</ele>
        <time>2022-09-08T08:12:36Z</time>
      </trkpt>
      <trkpt lat="42.99598" lon="0.65794">
        <ele>778</ele>
        <time>2022-09-08T08:12:56Z</time>
      </trkpt>
      <trkpt lat="42.99608" lon="0.65789">
        <ele>779</ele>
        <time>2022-09-08T08:13:07Z</time>
      </trkpt>
      <trkpt lat="42.99616" lon="0.65782">
        <ele>779</ele>
        <time>2022-09-08T08:13:19Z</time>
      </trkpt>
      <trkpt lat="42.99606" lon="0.65777">
        <ele>781</ele>
        <time>2022-09-08T08:13:58Z</time>
      </trkpt>
      <trkpt lat="42.99598" lon="0.65769">
        <ele>780</ele>
        <time>2022-09-08T08:14:03Z</time>
      </trkpt>
      <trkpt lat="42.99608" lon="0.65766">
        <ele>780</ele>
        <time>2022-09-08T08:14:25Z</time>
      </trkpt>
      <trkpt lat="42.99617" lon="0.65773">
        <ele>780</ele>
        <time>2022-09-08T08:14:33Z</time>
      </trkpt>
      <trkpt lat="42.99624" lon="0.65761">
        <ele>782</ele>
        <time>2022-09-08T08:14:44Z</time>
      </trkpt>
      <trkpt lat="42.99633" lon="0.6575">
        <ele>784</ele>
        <time>2022-09-08T08:14:54Z</time>
      </trkpt>
      <trkpt lat="42.99636" lon="0.65737">
        <ele>785</ele>
        <time>2022-09-08T08:15:08Z</time>
      </trkpt>
      <trkpt lat="42.99641" lon="0.65727">
        <ele>787</ele>
        <time>2022-09-08T08:15:24Z</time>
      </trkpt>
      <trkpt lat="42.99643" lon="0.65715">
        <ele>787</ele>
        <time>2022-09-08T08:15:33Z</time>
      </trkpt>
      <trkpt lat="42.99652" lon="0.65716">
        <ele>788</ele>
        <time>2022-09-08T08:15:57Z</time>
      </trkpt>
      <trkpt lat="42.99653" lon="0.65704">
        <ele>788</ele>
        <time>2022-09-08T08:16:10Z</time>
      </trkpt>
      <trkpt lat="42.99661" lon="0.65696">
        <ele>789</ele>
        <time>2022-09-08T08:16:26Z</time>
      </trkpt>
      <trkpt lat="42.99656" lon="0.65708">
        <ele>795</ele>
        <time>2022-09-08T08:17:26Z</time>
      </trkpt>
      <trkpt lat="42.99654" lon="0.65721">
        <ele>794</ele>
        <time>2022-09-08T08:18:02Z</time>
      </trkpt>
      <trkpt lat="42.99661" lon="0.6571">
        <ele>795</ele>
        <time>2022-09-08T08:18:13Z</time>
      </trkpt>
      <trkpt lat="42.99667" lon="0.657">
        <ele>794</ele>
        <time>2022-09-08T08:18:23Z</time>
      </trkpt>
      <trkpt lat="42.99672" lon="0.65711">
        <ele>794</ele>
        <time>2022-09-08T08:18:46Z</time>
      </trkpt>
      <trkpt lat="42.99681" lon="0.65715">
        <ele>795</ele>
        <time>2022-09-08T08:19:00Z</time>
      </trkpt>
      <trkpt lat="42.99687" lon="0.65725">
        <ele>798</ele>
        <time>2022-09-08T08:19:19Z</time>
      </trkpt>
      <trkpt lat="42.99696" lon="0.65729">
        <ele>802</ele>
        <time>2022-09-08T08:21:39Z</time>
      </trkpt>
      <trkpt lat="42.99705" lon="0.65734">
        <ele>801</ele>
        <time>2022-09-08T08:21:52Z</time>
      </trkpt>
      <trkpt lat="42.997" lon="0.65745">
        <ele>802</ele>
        <time>2022-09-08T08:22:12Z</time>
      </trkpt>
      <trkpt lat="42.99702" lon="0.65732">
        <ele>801</ele>
        <time>2022-09-08T08:22:37Z</time>
      </trkpt>
      <trkpt lat="42.9971" lon="0.65721">
        <ele>800</ele>
        <time>2022-09-08T08:22:47Z</time>
      </trkpt>
      <trkpt lat="42.99722" lon="0.65716">
        <ele>799</ele>
        <time>2022-09-08T08:22:58Z</time>
      </trkpt>
      <trkpt lat="42.99731" lon="0.65715">
        <ele>800</ele>
        <time>2022-09-08T08:23:07Z</time>
      </trkpt>
      <trkpt lat="42.99738" lon="0.65705">
        <ele>800</ele>
        <time>2022-09-08T08:23:16Z</time>
      </trkpt>
      <trkpt lat="42.99745" lon="0.65695">
        <ele>801</ele>
        <time>2022-09-08T08:23:26Z</time>
      </trkpt>
      <trkpt lat="42.99737" lon="0.65704">
        <ele>801</ele>
        <time>2022-09-08T08:25:17Z</time>
      </trkpt>
      <trkpt lat="42.99743" lon="0.65695">
        <ele>801</ele>
        <time>2022-09-08T08:25:29Z</time>
      </trkpt>
      <trkpt lat="42.99749" lon="0.65684">
        <ele>801</ele>
        <time>2022-09-08T08:25:37Z</time>
      </trkpt>
      <trkpt lat="42.99747" lon="0.65672">
        <ele>804</ele>
        <time>2022-09-08T08:27:07Z</time>
      </trkpt>
      <trkpt lat="42.99754" lon="0.65661">
        <ele>805</ele>
        <time>2022-09-08T08:27:27Z</time>
      </trkpt>
      <trkpt lat="42.99765" lon="0.65658">
        <ele>805</ele>
        <time>2022-09-08T08:27:41Z</time>
      </trkpt>
      <trkpt lat="42.99757" lon="0.65653">
        <ele>805</ele>
        <time>2022-09-08T08:28:05Z</time>
      </trkpt>
      <trkpt lat="42.99758" lon="0.6564">
        <ele>805</ele>
        <time>2022-09-08T08:28:20Z</time>
      </trkpt>
      <trkpt lat="42.99763" lon="0.65629">
        <ele>808</ele>
        <time>2022-09-08T08:28:50Z</time>
      </trkpt>
      <trkpt lat="42.99754" lon="0.65628">
        <ele>807</ele>
        <time>2022-09-08T08:29:58Z</time>
      </trkpt>
      <trkpt lat="42.99752" lon="0.65615">
        <ele>807</ele>
        <time>2022-09-08T08:30:08Z</time>
      </trkpt>
      <trkpt lat="42.99747" lon="0.65603">
        <ele>808</ele>
        <time>2022-09-08T08:30:16Z</time>
      </trkpt>
      <trkpt lat="42.99742" lon="0.6559">
        <ele>808</ele>
        <time>2022-09-08T08:30:28Z</time>
      </trkpt>
      <trkpt lat="42.99744" lon="0.65578">
        <ele>809</ele>
        <time>2022-09-08T08:30:53Z</time>
      </trkpt>
      <trkpt lat="42.99736" lon="0.65573">
        <ele>812</ele>
        <time>2022-09-08T08:31:39Z</time>
      </trkpt>
      <trkpt lat="42.99743" lon="0.65566">
        <ele>812</ele>
        <time>2022-09-08T08:31:49Z</time>
      </trkpt>
      <trkpt lat="42.99752" lon="0.65571">
        <ele>813</ele>
        <time>2022-09-08T08:32:40Z</time>
      </trkpt>
      <trkpt lat="42.9976" lon="0.65577">
        <ele>813</ele>
        <time>2022-09-08T08:33:10Z</time>
      </trkpt>
      <trkpt lat="42.99769" lon="0.65576">
        <ele>814</ele>
        <time>2022-09-08T08:33:39Z</time>
      </trkpt>
      <trkpt lat="42.9978" lon="0.65587">
        <ele>814</ele>
        <time>2022-09-08T08:33:42Z</time>
      </trkpt>
      <trkpt lat="42.9979" lon="0.65586">
        <ele>814</ele>
        <time>2022-09-08T08:33:46Z</time>
      </trkpt>
      <trkpt lat="42.99779" lon="0.65582">
        <ele>815</ele>
        <time>2022-09-08T08:33:55Z</time>
      </trkpt>
      <trkpt lat="42.99768" lon="0.65584">
        <ele>815</ele>
        <time>2022-09-08T08:33:57Z</time>
      </trkpt>
      <trkpt lat="42.99759" lon="0.65583">
        <ele>815</ele>
        <time>2022-09-08T08:34:14Z</time>
      </trkpt>
      <trkpt lat="42.99771" lon="0.65585">
        <ele>815</ele>
        <time>2022-09-08T08:34:19Z</time>
      </trkpt>
      <trkpt lat="42.99762" lon="0.65581">
        <ele>814</ele>
        <time>2022-09-08T08:34:32Z</time>
      </trkpt>
      <trkpt lat="42.99752" lon="0.65578">
        <ele>815</ele>
        <time>2022-09-08T08:34:48Z</time>
      </trkpt>
      <trkpt lat="42.99753" lon="0.65565">
        <ele>814</ele>
        <time>2022-09-08T08:34:58Z</time>
      </trkpt>
      <trkpt lat="42.99752" lon="0.65553">
        <ele>813</ele>
        <time>2022-09-08T08:35:04Z</time>
      </trkpt>
      <trkpt lat="42.99751" lon="0.65539">
        <ele>815</ele>
        <time>2022-09-08T08:35:14Z</time>
      </trkpt>
      <trkpt lat="42.99746" lon="0.6555">
        <ele>815</ele>
        <time>2022-09-08T08:35:26Z</time>
      </trkpt>
      <trkpt lat="42.99741" lon="0.65539">
        <ele>815</ele>
        <time>2022-09-08T08:35:43Z</time>
      </trkpt>
      <trkpt lat="42.99749" lon="0.65545">
        <ele>816</ele>
        <time>2022-09-08T08:36:01Z</time>
      </trkpt>
      <trkpt lat="42.99748" lon="0.65532">
        <ele>814</ele>
        <time>2022-09-08T08:36:26Z</time>
      </trkpt>
      <trkpt lat="42.99748" lon="0.65519">
        <ele>813</ele>
        <time>2022-09-08T08:36:37Z</time>
      </trkpt>
      <trkpt lat="42.99746" lon="0.65506">
        <ele>812</ele>
        <time>2022-09-08T08:36:48Z</time>
      </trkpt>
      <trkpt lat="42.99745" lon="0.65493">
        <ele>812</ele>
        <time>2022-09-08T08:36:55Z</time>
      </trkpt>
      <trkpt lat="42.99741" lon="0.65481">
        <ele>810</ele>
        <time>2022-09-08T08:37:05Z</time>
      </trkpt>
      <trkpt lat="42.99737" lon="0.65469">
        <ele>810</ele>
        <time>2022-09-08T08:37:11Z</time>
      </trkpt>
      <trkpt lat="42.99731" lon="0.65459">
        <ele>810</ele>
        <time>2022-09-08T08:37:19Z</time>
      </trkpt>
      <trkpt lat="42.99724" lon="0.65449">
        <ele>810</ele>
        <time>2022-09-08T08:37:27Z</time>
      </trkpt>
      <trkpt lat="42.99714" lon="0.65447">
        <ele>810</ele>
        <time>2022-09-08T08:37:32Z</time>
      </trkpt>
      <trkpt lat="42.99705" lon="0.65444">
        <ele>810</ele>
        <time>2022-09-08T08:37:38Z</time>
      </trkpt>
      <trkpt lat="42.99696" lon="0.65448">
        <ele>809</ele>
        <time>2022-09-08T08:37:46Z</time>
      </trkpt>
      <trkpt lat="42.99686" lon="0.65449">
        <ele>809</ele>
        <time>2022-09-08T08:37:53Z</time>
      </trkpt>
      <trkpt lat="42.99678" lon="0.65441">
        <ele>810</ele>
        <time>2022-09-08T08:38:03Z</time>
      </trkpt>
      <trkpt lat="42.99669" lon="0.6544">
        <ele>810</ele>
        <time>2022-09-08T08:38:10Z</time>
      </trkpt>
      <trkpt lat="42.99659" lon="0.65442">
        <ele>810</ele>
        <time>2022-09-08T08:38:16Z</time>
      </trkpt>
      <trkpt lat="42.9965" lon="0.65447">
        <ele>810</ele>
        <time>2022-09-08T08:38:22Z</time>
      </trkpt>
      <trkpt lat="42.99641" lon="0.65448">
        <ele>810</ele>
        <time>2022-09-08T08:38:29Z</time>
      </trkpt>
      <trkpt lat="42.99633" lon="0.65455">
        <ele>810</ele>
        <time>2022-09-08T08:38:36Z</time>
      </trkpt>
      <trkpt lat="42.99623" lon="0.65455">
        <ele>810</ele>
        <time>2022-09-08T08:38:44Z</time>
      </trkpt>
      <trkpt lat="42.99614" lon="0.65454">
        <ele>809</ele>
        <time>2022-09-08T08:38:52Z</time>
      </trkpt>
      <trkpt lat="42.99604" lon="0.65452">
        <ele>809</ele>
        <time>2022-09-08T08:39:00Z</time>
      </trkpt>
      <trkpt lat="42.99595" lon="0.65452">
        <ele>808</ele>
        <time>2022-09-08T08:39:18Z</time>
      </trkpt>
      <trkpt lat="42.99586" lon="0.65456">
        <ele>808</ele>
        <time>2022-09-08T08:39:32Z</time>
      </trkpt>
      <trkpt lat="42.99576" lon="0.65453">
        <ele>808</ele>
        <time>2022-09-08T08:39:40Z</time>
      </trkpt>
      <trkpt lat="42.99567" lon="0.65449">
        <ele>806</ele>
        <time>2022-09-08T08:39:49Z</time>
      </trkpt>
      <trkpt lat="42.99558" lon="0.65447">
        <ele>804</ele>
        <time>2022-09-08T08:40:04Z</time>
      </trkpt>
      <trkpt lat="42.99555" lon="0.65434">
        <ele>804</ele>
        <time>2022-09-08T08:40:19Z</time>
      </trkpt>
      <trkpt lat="42.99545" lon="0.65433">
        <ele>803</ele>
        <time>2022-09-08T08:40:29Z</time>
      </trkpt>
      <trkpt lat="42.99536" lon="0.65429">
        <ele>802</ele>
        <time>2022-09-08T08:42:07Z</time>
      </trkpt>
      <trkpt lat="42.99543" lon="0.65419">
        <ele>802</ele>
        <time>2022-09-08T08:43:20Z</time>
      </trkpt>
      <trkpt lat="42.99552" lon="0.6542">
        <ele>801</ele>
        <time>2022-09-08T08:43:29Z</time>
      </trkpt>
      <trkpt lat="42.99558" lon="0.6543">
        <ele>801</ele>
        <time>2022-09-08T08:43:38Z</time>
      </trkpt>
      <trkpt lat="42.99566" lon="0.65436">
        <ele>803</ele>
        <time>2022-09-08T08:43:50Z</time>
      </trkpt>
      <trkpt lat="42.99566" lon="0.65448">
        <ele>805</ele>
        <time>2022-09-08T08:44:09Z</time>
      </trkpt>
      <trkpt lat="42.99557" lon="0.65452">
        <ele>805</ele>
        <time>2022-09-08T08:45:02Z</time>
      </trkpt>
      <trkpt lat="42.99561" lon="0.6544">
        <ele>805</ele>
        <time>2022-09-08T08:46:31Z</time>
      </trkpt>
      <trkpt lat="42.9956" lon="0.65428">
        <ele>806</ele>
        <time>2022-09-08T08:48:00Z</time>
      </trkpt>
      <trkpt lat="42.99558" lon="0.65416">
        <ele>806</ele>
        <time>2022-09-08T08:48:28Z</time>
      </trkpt>
      <trkpt lat="42.99568" lon="0.65418">
        <ele>808</ele>
        <time>2022-09-08T08:50:01Z</time>
      </trkpt>
      <trkpt lat="42.99577" lon="0.65413">
        <ele>810</ele>
        <time>2022-09-08T08:50:18Z</time>
      </trkpt>
      <trkpt lat="42.99587" lon="0.65414">
        <ele>812</ele>
        <time>2022-09-08T08:50:28Z</time>
      </trkpt>
      <trkpt lat="42.99596" lon="0.65413">
        <ele>814</ele>
        <time>2022-09-08T08:50:38Z</time>
      </trkpt>
      <trkpt lat="42.99606" lon="0.65411">
        <ele>817</ele>
        <time>2022-09-08T08:50:50Z</time>
      </trkpt>
      <trkpt lat="42.99615" lon="0.6541">
        <ele>818</ele>
        <time>2022-09-08T08:50:59Z</time>
      </trkpt>
      <trkpt lat="42.99624" lon="0.65408">
        <ele>819</ele>
        <time>2022-09-08T08:51:07Z</time>
      </trkpt>
      <trkpt lat="42.99624" lon="0.65396">
        <ele>821</ele>
        <time>2022-09-08T08:51:21Z</time>
      </trkpt>
      <trkpt lat="42.99621" lon="0.65384">
        <ele>826</ele>
        <time>2022-09-08T08:51:37Z</time>
      </trkpt>
      <trkpt lat="42.99621" lon="0.65371">
        <ele>828</ele>
        <time>2022-09-08T08:52:03Z</time>
      </trkpt>
      <trkpt lat="42.99624" lon="0.65355">
        <ele>832</ele>
        <time>2022-09-08T08:52:23Z</time>
      </trkpt>
      <trkpt lat="42.99625" lon="0.65342">
        <ele>833</ele>
        <time>2022-09-08T08:52:35Z</time>
      </trkpt>
      <trkpt lat="42.99615" lon="0.65337">
        <ele>835</ele>
        <time>2022-09-08T08:52:48Z</time>
      </trkpt>
      <trkpt lat="42.99608" lon="0.65329">
        <ele>836</ele>
        <time>2022-09-08T08:53:00Z</time>
      </trkpt>
      <trkpt lat="42.99603" lon="0.65318">
        <ele>839</ele>
        <time>2022-09-08T08:53:26Z</time>
      </trkpt>
      <trkpt lat="42.99603" lon="0.65306">
        <ele>841</ele>
        <time>2022-09-08T08:53:43Z</time>
      </trkpt>
      <trkpt lat="42.99608" lon="0.65295">
        <ele>842</ele>
        <time>2022-09-08T08:53:56Z</time>
      </trkpt>
      <trkpt lat="42.99609" lon="0.65283">
        <ele>844</ele>
        <time>2022-09-08T08:54:10Z</time>
      </trkpt>
      <trkpt lat="42.99616" lon="0.65273">
        <ele>847</ele>
        <time>2022-09-08T08:54:27Z</time>
      </trkpt>
      <trkpt lat="42.99621" lon="0.65262">
        <ele>849</ele>
        <time>2022-09-08T08:54:39Z</time>
      </trkpt>
      <trkpt lat="42.99631" lon="0.65258">
        <ele>853</ele>
        <time>2022-09-08T08:54:53Z</time>
      </trkpt>
      <trkpt lat="42.99636" lon="0.65247">
        <ele>855</ele>
        <time>2022-09-08T08:55:05Z</time>
      </trkpt>
      <trkpt lat="42.99642" lon="0.65238">
        <ele>857</ele>
        <time>2022-09-08T08:55:17Z</time>
      </trkpt>
      <trkpt lat="42.99651" lon="0.65233">
        <ele>858</ele>
        <time>2022-09-08T08:56:23Z</time>
      </trkpt>
      <trkpt lat="42.99658" lon="0.65224">
        <ele>858</ele>
        <time>2022-09-08T08:56:30Z</time>
      </trkpt>
      <trkpt lat="42.99666" lon="0.65218">
        <ele>858</ele>
        <time>2022-09-08T08:56:35Z</time>
      </trkpt>
      <trkpt lat="42.99674" lon="0.65212">
        <ele>858</ele>
        <time>2022-09-08T08:56:45Z</time>
      </trkpt>
      <trkpt lat="42.99684" lon="0.65209">
        <ele>859</ele>
        <time>2022-09-08T08:56:53Z</time>
      </trkpt>
      <trkpt lat="42.99692" lon="0.65202">
        <ele>860</ele>
        <time>2022-09-08T08:57:03Z</time>
      </trkpt>
      <trkpt lat="42.99702" lon="0.65208">
        <ele>860</ele>
        <time>2022-09-08T08:57:07Z</time>
      </trkpt>
      <trkpt lat="42.99714" lon="0.65199">
        <ele>862</ele>
        <time>2022-09-08T08:57:28Z</time>
      </trkpt>
      <trkpt lat="42.99723" lon="0.65202">
        <ele>863</ele>
        <time>2022-09-08T08:57:33Z</time>
      </trkpt>
      <trkpt lat="42.99732" lon="0.65207">
        <ele>863</ele>
        <time>2022-09-08T08:57:41Z</time>
      </trkpt>
      <trkpt lat="42.99742" lon="0.6521">
        <ele>866</ele>
        <time>2022-09-08T08:57:53Z</time>
      </trkpt>
      <trkpt lat="42.9975" lon="0.65204">
        <ele>867</ele>
        <time>2022-09-08T08:58:07Z</time>
      </trkpt>
      <trkpt lat="42.9976" lon="0.65201">
        <ele>867</ele>
        <time>2022-09-08T08:58:16Z</time>
      </trkpt>
      <trkpt lat="42.9977" lon="0.65197">
        <ele>869</ele>
        <time>2022-09-08T08:58:26Z</time>
      </trkpt>
      <trkpt lat="42.99763" lon="0.65188">
        <ele>870</ele>
        <time>2022-09-08T08:59:06Z</time>
      </trkpt>
      <trkpt lat="42.99772" lon="0.65188">
        <ele>870</ele>
        <time>2022-09-08T08:59:42Z</time>
      </trkpt>
      <trkpt lat="42.99773" lon="0.65175">
        <ele>869</ele>
        <time>2022-09-08T08:59:59Z</time>
      </trkpt>
      <trkpt lat="42.99769" lon="0.65161">
        <ele>871</ele>
        <time>2022-09-08T09:00:04Z</time>
      </trkpt>
      <trkpt lat="42.99772" lon="0.65174">
        <ele>872</ele>
        <time>2022-09-08T09:00:12Z</time>
      </trkpt>
      <trkpt lat="42.99764" lon="0.65168">
        <ele>872</ele>
        <time>2022-09-08T09:00:50Z</time>
      </trkpt>
      <trkpt lat="42.99758" lon="0.65155">
        <ele>872</ele>
        <time>2022-09-08T09:00:57Z</time>
      </trkpt>
      <trkpt lat="42.99754" lon="0.65141">
        <ele>874</ele>
        <time>2022-09-08T09:01:04Z</time>
      </trkpt>
      <trkpt lat="42.99753" lon="0.65127">
        <ele>874</ele>
        <time>2022-09-08T09:01:10Z</time>
      </trkpt>
      <trkpt lat="42.99757" lon="0.65116">
        <ele>874</ele>
        <time>2022-09-08T09:01:17Z</time>
      </trkpt>
      <trkpt lat="42.99754" lon="0.65103">
        <ele>871</ele>
        <time>2022-09-08T09:01:54Z</time>
      </trkpt>
      <trkpt lat="42.99748" lon="0.65092">
        <ele>871</ele>
        <time>2022-09-08T09:02:01Z</time>
      </trkpt>
      <trkpt lat="42.9974" lon="0.65074">
        <ele>869</ele>
        <time>2022-09-08T09:02:13Z</time>
      </trkpt>
      <trkpt lat="42.9974" lon="0.65061">
        <ele>870</ele>
        <time>2022-09-08T09:02:25Z</time>
      </trkpt>
      <trkpt lat="42.99739" lon="0.65047">
        <ele>870</ele>
        <time>2022-09-08T09:02:33Z</time>
      </trkpt>
      <trkpt lat="42.99742" lon="0.65034">
        <ele>869</ele>
        <time>2022-09-08T09:02:43Z</time>
      </trkpt>
      <trkpt lat="42.99747" lon="0.65021">
        <ele>869</ele>
        <time>2022-09-08T09:03:03Z</time>
      </trkpt>
      <trkpt lat="42.99754" lon="0.65013">
        <ele>869</ele>
        <time>2022-09-08T09:03:11Z</time>
      </trkpt>
      <trkpt lat="42.99762" lon="0.65005">
        <ele>870</ele>
        <time>2022-09-08T09:03:17Z</time>
      </trkpt>
      <trkpt lat="42.99771" lon="0.65">
        <ele>870</ele>
        <time>2022-09-08T09:03:25Z</time>
      </trkpt>
      <trkpt lat="42.99781" lon="0.64999">
        <ele>870</ele>
        <time>2022-09-08T09:03:35Z</time>
      </trkpt>
      <trkpt lat="42.9979" lon="0.64993">
        <ele>870</ele>
        <time>2022-09-08T09:03:44Z</time>
      </trkpt>
      <trkpt lat="42.99799" lon="0.64988">
        <ele>869</ele>
        <time>2022-09-08T09:03:53Z</time>
      </trkpt>
      <trkpt lat="42.99807" lon="0.64981">
        <ele>869</ele>
        <time>2022-09-08T09:04:01Z</time>
      </trkpt>
      <trkpt lat="42.99815" lon="0.64976">
        <ele>870</ele>
        <time>2022-09-08T09:04:10Z</time>
      </trkpt>
      <trkpt lat="42.99822" lon="0.64968">
        <ele>871</ele>
        <time>2022-09-08T09:04:18Z</time>
      </trkpt>
      <trkpt lat="42.9983" lon="0.64962">
        <ele>871</ele>
        <time>2022-09-08T09:04:26Z</time>
      </trkpt>
      <trkpt lat="42.99838" lon="0.64954">
        <ele>871</ele>
        <time>2022-09-08T09:04:34Z</time>
      </trkpt>
      <trkpt lat="42.99847" lon="0.64949">
        <ele>872</ele>
        <time>2022-09-08T09:04:43Z</time>
      </trkpt>
      <trkpt lat="42.99855" lon="0.64957">
        <ele>873</ele>
        <time>2022-09-08T09:04:56Z</time>
      </trkpt>
      <trkpt lat="42.99848" lon="0.6495">
        <ele>873</ele>
        <time>2022-09-08T09:05:07Z</time>
      </trkpt>
      <trkpt lat="42.99857" lon="0.64946">
        <ele>874</ele>
        <time>2022-09-08T09:06:07Z</time>
      </trkpt>
      <trkpt lat="42.99866" lon="0.64941">
        <ele>875</ele>
        <time>2022-09-08T09:06:15Z</time>
      </trkpt>
      <trkpt lat="42.99875" lon="0.64936">
        <ele>875</ele>
        <time>2022-09-08T09:06:23Z</time>
      </trkpt>
      <trkpt lat="42.99885" lon="0.64936">
        <ele>875</ele>
        <time>2022-09-08T09:06:28Z</time>
      </trkpt>
      <trkpt lat="42.99894" lon="0.64943">
        <ele>876</ele>
        <time>2022-09-08T09:06:39Z</time>
      </trkpt>
      <trkpt lat="42.99903" lon="0.64949">
        <ele>877</ele>
        <time>2022-09-08T09:06:47Z</time>
      </trkpt>
      <trkpt lat="42.99912" lon="0.64954">
        <ele>878</ele>
        <time>2022-09-08T09:06:54Z</time>
      </trkpt>
      <trkpt lat="42.99922" lon="0.64954">
        <ele>879</ele>
        <time>2022-09-08T09:07:03Z</time>
      </trkpt>
      <trkpt lat="42.9993" lon="0.64947">
        <ele>881</ele>
        <time>2022-09-08T09:07:14Z</time>
      </trkpt>
      <trkpt lat="42.9993" lon="0.6496">
        <ele>885</ele>
        <time>2022-09-08T09:08:01Z</time>
      </trkpt>
      <trkpt lat="42.99933" lon="0.64948">
        <ele>884</ele>
        <time>2022-09-08T09:08:49Z</time>
      </trkpt>
      <trkpt lat="42.99944" lon="0.64945">
        <ele>884</ele>
        <time>2022-09-08T09:09:16Z</time>
      </trkpt>
      <trkpt lat="42.99951" lon="0.64935">
        <ele>886</ele>
        <time>2022-09-08T09:09:27Z</time>
      </trkpt>
      <trkpt lat="42.99957" lon="0.64926">
        <ele>888</ele>
        <time>2022-09-08T09:09:38Z</time>
      </trkpt>
      <trkpt lat="42.99964" lon="0.64916">
        <ele>890</ele>
        <time>2022-09-08T09:09:48Z</time>
      </trkpt>
      <trkpt lat="42.99971" lon="0.64907">
        <ele>891</ele>
        <time>2022-09-08T09:09:57Z</time>
      </trkpt>
      <trkpt lat="42.99978" lon="0.64898">
        <ele>893</ele>
        <time>2022-09-08T09:10:06Z</time>
      </trkpt>
      <trkpt lat="42.99984" lon="0.64889">
        <ele>895</ele>
        <time>2022-09-08T09:10:14Z</time>
      </trkpt>
      <trkpt lat="42.99989" lon="0.64878">
        <ele>897</ele>
        <time>2022-09-08T09:10:24Z</time>
      </trkpt>
      <trkpt lat="42.99992" lon="0.64865">
        <ele>899</ele>
        <time>2022-09-08T09:10:32Z</time>
      </trkpt>
      <trkpt lat="42.99997" lon="0.64853">
        <ele>899</ele>
        <time>2022-09-08T09:10:40Z</time>
      </trkpt>
      <trkpt lat="43" lon="0.64839">
        <ele>899</ele>
        <time>2022-09-08T09:10:50Z</time>
      </trkpt>
      <trkpt lat="43.00002" lon="0.64827">
        <ele>900</ele>
        <time>2022-09-08T09:10:59Z</time>
      </trkpt>
      <trkpt lat="43.00011" lon="0.64819">
        <ele>902</ele>
        <time>2022-09-08T09:11:11Z</time>
      </trkpt>
      <trkpt lat="43.00016" lon="0.64806">
        <ele>904</ele>
        <time>2022-09-08T09:11:28Z</time>
      </trkpt>
      <trkpt lat="43.00019" lon="0.64794">
        <ele>904</ele>
        <time>2022-09-08T09:11:37Z</time>
      </trkpt>
      <trkpt lat="43.00023" lon="0.64783">
        <ele>904</ele>
        <time>2022-09-08T09:11:45Z</time>
      </trkpt>
      <trkpt lat="43.00029" lon="0.64772">
        <ele>904</ele>
        <time>2022-09-08T09:11:57Z</time>
      </trkpt>
      <trkpt lat="43.00026" lon="0.6476">
        <ele>904</ele>
        <time>2022-09-08T09:12:30Z</time>
      </trkpt>
      <trkpt lat="43.00022" lon="0.64746">
        <ele>903</ele>
        <time>2022-09-08T09:12:37Z</time>
      </trkpt>
      <trkpt lat="43.00015" lon="0.64737">
        <ele>902</ele>
        <time>2022-09-08T09:12:53Z</time>
      </trkpt>
      <trkpt lat="43.00011" lon="0.64727">
        <ele>902</ele>
        <time>2022-09-08T09:13:00Z</time>
      </trkpt>
      <trkpt lat="43.00006" lon="0.64716">
        <ele>899</ele>
        <time>2022-09-08T09:13:09Z</time>
      </trkpt>
      <trkpt lat="43.00003" lon="0.64703">
        <ele>898</ele>
        <time>2022-09-08T09:13:13Z</time>
      </trkpt>
      <trkpt lat="43" lon="0.64687">
        <ele>897</ele>
        <time>2022-09-08T09:13:22Z</time>
      </trkpt>
      <trkpt lat="42.99999" lon="0.64674">
        <ele>897</ele>
        <time>2022-09-08T09:13:31Z</time>
      </trkpt>
      <trkpt lat="42.99991" lon="0.64661">
        <ele>894</ele>
        <time>2022-09-08T09:13:42Z</time>
      </trkpt>
      <trkpt lat="42.99985" lon="0.64652">
        <ele>894</ele>
        <time>2022-09-08T09:13:49Z</time>
      </trkpt>
      <trkpt lat="42.99994" lon="0.64649">
        <ele>894</ele>
        <time>2022-09-08T09:14:03Z</time>
      </trkpt>
      <trkpt lat="42.99995" lon="0.64663">
        <ele>894</ele>
        <time>2022-09-08T09:14:14Z</time>
      </trkpt>
      <trkpt lat="42.99997" lon="0.64675">
        <ele>893</ele>
        <time>2022-09-08T09:14:24Z</time>
      </trkpt>
      <trkpt lat="43.00002" lon="0.64686">
        <ele>895</ele>
        <time>2022-09-08T09:14:39Z</time>
      </trkpt>
      <trkpt lat="42.99993" lon="0.64684">
        <ele>897</ele>
        <time>2022-09-08T09:15:18Z</time>
      </trkpt>
      <trkpt lat="43.00001" lon="0.6468">
        <ele>898</ele>
        <time>2022-09-08T09:15:37Z</time>
      </trkpt>
      <trkpt lat="43" lon="0.64693">
        <ele>897</ele>
        <time>2022-09-08T09:16:03Z</time>
      </trkpt>
      <trkpt lat="43.00003" lon="0.64706">
        <ele>897</ele>
        <time>2022-09-08T09:16:11Z</time>
      </trkpt>
      <trkpt lat="43.0001" lon="0.64715">
        <ele>898</ele>
        <time>2022-09-08T09:16:17Z</time>
      </trkpt>
      <trkpt lat="43.00017" lon="0.64724">
        <ele>900</ele>
        <time>2022-09-08T09:16:22Z</time>
      </trkpt>
      <trkpt lat="43.00023" lon="0.64736">
        <ele>901</ele>
        <time>2022-09-08T09:16:33Z</time>
      </trkpt>
      <trkpt lat="43.00028" lon="0.64747">
        <ele>901</ele>
        <time>2022-09-08T09:16:38Z</time>
      </trkpt>
      <trkpt lat="43.00031" lon="0.64759">
        <ele>902</ele>
        <time>2022-09-08T09:16:46Z</time>
      </trkpt>
      <trkpt lat="43.00035" lon="0.64772">
        <ele>903</ele>
        <time>2022-09-08T09:16:53Z</time>
      </trkpt>
      <trkpt lat="43.00032" lon="0.64785">
        <ele>904</ele>
        <time>2022-09-08T09:17:02Z</time>
      </trkpt>
      <trkpt lat="43.00027" lon="0.64797">
        <ele>904</ele>
        <time>2022-09-08T09:17:10Z</time>
      </trkpt>
      <trkpt lat="43.00021" lon="0.64809">
        <ele>906</ele>
        <time>2022-09-08T09:17:17Z</time>
      </trkpt>
      <trkpt lat="43.00021" lon="0.64821">
        <ele>906</ele>
        <time>2022-09-08T09:17:26Z</time>
      </trkpt>
      <trkpt lat="43.00013" lon="0.64828">
        <ele>906</ele>
        <time>2022-09-08T09:17:40Z</time>
      </trkpt>
      <trkpt lat="43.00004" lon="0.64827">
        <ele>905</ele>
        <time>2022-09-08T09:19:03Z</time>
      </trkpt>
      <trkpt lat="42.99997" lon="0.64836">
        <ele>905</ele>
        <time>2022-09-08T09:19:10Z</time>
      </trkpt>
      <trkpt lat="42.9999" lon="0.64844">
        <ele>906</ele>
        <time>2022-09-08T09:19:24Z</time>
      </trkpt>
      <trkpt lat="42.99996" lon="0.64834">
        <ele>907</ele>
        <time>2022-09-08T09:19:58Z</time>
      </trkpt>
      <trkpt lat="43.00002" lon="0.64824">
        <ele>907</ele>
        <time>2022-09-08T09:20:42Z</time>
      </trkpt>
      <trkpt lat="43.00006" lon="0.64835">
        <ele>905</ele>
        <time>2022-09-08T09:20:53Z</time>
      </trkpt>
      <trkpt lat="43" lon="0.64847">
        <ele>905</ele>
        <time>2022-09-08T09:20:58Z</time>
      </trkpt>
      <trkpt lat="42.99997" lon="0.6486">
        <ele>901</ele>
        <time>2022-09-08T09:21:05Z</time>
      </trkpt>
      <trkpt lat="42.99995" lon="0.64872">
        <ele>901</ele>
        <time>2022-09-08T09:21:17Z</time>
      </trkpt>
      <trkpt lat="42.99988" lon="0.64884">
        <ele>900</ele>
        <time>2022-09-08T09:21:25Z</time>
      </trkpt>
      <trkpt lat="42.99982" lon="0.64898">
        <ele>898</ele>
        <time>2022-09-08T09:21:37Z</time>
      </trkpt>
      <trkpt lat="42.99975" lon="0.64908">
        <ele>895</ele>
        <time>2022-09-08T09:21:47Z</time>
      </trkpt>
      <trkpt lat="42.9997" lon="0.64919">
        <ele>893</ele>
        <time>2022-09-08T09:21:53Z</time>
      </trkpt>
      <trkpt lat="42.99961" lon="0.64929">
        <ele>893</ele>
        <time>2022-09-08T09:22:00Z</time>
      </trkpt>
      <trkpt lat="42.99956" lon="0.6494">
        <ele>891</ele>
        <time>2022-09-08T09:22:08Z</time>
      </trkpt>
      <trkpt lat="42.99947" lon="0.64943">
        <ele>887</ele>
        <time>2022-09-08T09:22:25Z</time>
      </trkpt>
      <trkpt lat="42.99937" lon="0.64949">
        <ele>885</ele>
        <time>2022-09-08T09:22:40Z</time>
      </trkpt>
      <trkpt lat="42.99927" lon="0.64948">
        <ele>884</ele>
        <time>2022-09-08T09:23:46Z</time>
      </trkpt>
      <trkpt lat="42.99919" lon="0.64955">
        <ele>882</ele>
        <time>2022-09-08T09:23:52Z</time>
      </trkpt>
      <trkpt lat="42.9991" lon="0.6496">
        <ele>882</ele>
        <time>2022-09-08T09:23:58Z</time>
      </trkpt>
      <trkpt lat="42.99901" lon="0.64959">
        <ele>880</ele>
        <time>2022-09-08T09:24:07Z</time>
      </trkpt>
      <trkpt lat="42.99893" lon="0.64954">
        <ele>879</ele>
        <time>2022-09-08T09:24:16Z</time>
      </trkpt>
      <trkpt lat="42.99882" lon="0.64945">
        <ele>878</ele>
        <time>2022-09-08T09:24:24Z</time>
      </trkpt>
      <trkpt lat="42.99874" lon="0.64941">
        <ele>876</ele>
        <time>2022-09-08T09:24:33Z</time>
      </trkpt>
      <trkpt lat="42.99865" lon="0.64947">
        <ele>875</ele>
        <time>2022-09-08T09:24:43Z</time>
      </trkpt>
      <trkpt lat="42.99855" lon="0.64951">
        <ele>875</ele>
        <time>2022-09-08T09:24:50Z</time>
      </trkpt>
      <trkpt lat="42.99847" lon="0.64958">
        <ele>874</ele>
        <time>2022-09-08T09:24:57Z</time>
      </trkpt>
      <trkpt lat="42.99838" lon="0.64962">
        <ele>873</ele>
        <time>2022-09-08T09:25:04Z</time>
      </trkpt>
      <trkpt lat="42.99829" lon="0.64965">
        <ele>873</ele>
        <time>2022-09-08T09:25:11Z</time>
      </trkpt>
      <trkpt lat="42.99822" lon="0.64974">
        <ele>873</ele>
        <time>2022-09-08T09:25:18Z</time>
      </trkpt>
      <trkpt lat="42.99815" lon="0.64983">
        <ele>873</ele>
        <time>2022-09-08T09:25:23Z</time>
      </trkpt>
      <trkpt lat="42.99806" lon="0.64983">
        <ele>873</ele>
        <time>2022-09-08T09:25:32Z</time>
      </trkpt>
      <trkpt lat="42.99796" lon="0.64989">
        <ele>873</ele>
        <time>2022-09-08T09:25:38Z</time>
      </trkpt>
      <trkpt lat="42.99787" lon="0.64991">
        <ele>872</ele>
        <time>2022-09-08T09:25:44Z</time>
      </trkpt>
      <trkpt lat="42.99778" lon="0.64997">
        <ele>872</ele>
        <time>2022-09-08T09:25:51Z</time>
      </trkpt>
      <trkpt lat="42.99773" lon="0.65008">
        <ele>872</ele>
        <time>2022-09-08T09:25:59Z</time>
      </trkpt>
      <trkpt lat="42.99776" lon="0.64994">
        <ele>872</ele>
        <time>2022-09-08T09:26:18Z</time>
      </trkpt>
      <trkpt lat="42.99766" lon="0.64995">
        <ele>872</ele>
        <time>2022-09-08T09:27:05Z</time>
      </trkpt>
      <trkpt lat="42.99758" lon="0.65001">
        <ele>872</ele>
        <time>2022-09-08T09:27:11Z</time>
      </trkpt>
      <trkpt lat="42.99749" lon="0.65011">
        <ele>872</ele>
        <time>2022-09-08T09:27:14Z</time>
      </trkpt>
      <trkpt lat="42.99743" lon="0.6502">
        <ele>872</ele>
        <time>2022-09-08T09:27:18Z</time>
      </trkpt>
      <trkpt lat="42.99741" lon="0.65033">
        <ele>872</ele>
        <time>2022-09-08T09:27:29Z</time>
      </trkpt>
      <trkpt lat="42.99741" lon="0.65049">
        <ele>872</ele>
        <time>2022-09-08T09:27:33Z</time>
      </trkpt>
      <trkpt lat="42.99741" lon="0.65063">
        <ele>872</ele>
        <time>2022-09-08T09:27:39Z</time>
      </trkpt>
      <trkpt lat="42.99743" lon="0.65076">
        <ele>871</ele>
        <time>2022-09-08T09:27:48Z</time>
      </trkpt>
      <trkpt lat="42.99747" lon="0.65089">
        <ele>871</ele>
        <time>2022-09-08T09:28:02Z</time>
      </trkpt>
      <trkpt lat="42.99753" lon="0.65099">
        <ele>872</ele>
        <time>2022-09-08T09:28:12Z</time>
      </trkpt>
      <trkpt lat="42.99751" lon="0.65112">
        <ele>873</ele>
        <time>2022-09-08T09:29:03Z</time>
      </trkpt>
      <trkpt lat="42.99752" lon="0.65125">
        <ele>874</ele>
        <time>2022-09-08T09:29:14Z</time>
      </trkpt>
      <trkpt lat="42.99755" lon="0.65139">
        <ele>874</ele>
        <time>2022-09-08T09:29:23Z</time>
      </trkpt>
      <trkpt lat="42.99761" lon="0.65147">
        <ele>874</ele>
        <time>2022-09-08T09:29:38Z</time>
      </trkpt>
      <trkpt lat="42.99767" lon="0.65157">
        <ele>874</ele>
        <time>2022-09-08T09:29:50Z</time>
      </trkpt>
      <trkpt lat="42.99773" lon="0.65168">
        <ele>873</ele>
        <time>2022-09-08T09:30:05Z</time>
      </trkpt>
      <trkpt lat="42.99781" lon="0.65174">
        <ele>873</ele>
        <time>2022-09-08T09:30:25Z</time>
      </trkpt>
      <trkpt lat="42.99789" lon="0.65181">
        <ele>871</ele>
        <time>2022-09-08T09:30:47Z</time>
      </trkpt>
      <trkpt lat="42.9978" lon="0.65184">
        <ele>872</ele>
        <time>2022-09-08T09:31:23Z</time>
      </trkpt>
      <trkpt lat="42.99776" lon="0.65173">
        <ele>871</ele>
        <time>2022-09-08T09:31:46Z</time>
      </trkpt>
      <trkpt lat="42.99783" lon="0.65187">
        <ele>871</ele>
        <time>2022-09-08T09:32:32Z</time>
      </trkpt>
      <trkpt lat="42.99785" lon="0.65199">
        <ele>871</ele>
        <time>2022-09-08T09:32:37Z</time>
      </trkpt>
      <trkpt lat="42.99775" lon="0.65202">
        <ele>870</ele>
        <time>2022-09-08T09:32:47Z</time>
      </trkpt>
      <trkpt lat="42.99767" lon="0.65195">
        <ele>869</ele>
        <time>2022-09-08T09:33:15Z</time>
      </trkpt>
      <trkpt lat="42.99777" lon="0.65195">
        <ele>870</ele>
        <time>2022-09-08T09:33:45Z</time>
      </trkpt>
      <trkpt lat="42.9977" lon="0.65203">
        <ele>870</ele>
        <time>2022-09-08T09:34:23Z</time>
      </trkpt>
      <trkpt lat="42.99758" lon="0.65205">
        <ele>870</ele>
        <time>2022-09-08T09:34:35Z</time>
      </trkpt>
      <trkpt lat="42.99749" lon="0.65208">
        <ele>868</ele>
        <time>2022-09-08T09:34:42Z</time>
      </trkpt>
      <trkpt lat="42.99741" lon="0.65218">
        <ele>868</ele>
        <time>2022-09-08T09:34:50Z</time>
      </trkpt>
      <trkpt lat="42.99731" lon="0.65219">
        <ele>868</ele>
        <time>2022-09-08T09:34:58Z</time>
      </trkpt>
      <trkpt lat="42.9972" lon="0.65216">
        <ele>867</ele>
        <time>2022-09-08T09:35:09Z</time>
      </trkpt>
      <trkpt lat="42.99709" lon="0.65213">
        <ele>865</ele>
        <time>2022-09-08T09:35:17Z</time>
      </trkpt>
      <trkpt lat="42.997" lon="0.65218">
        <ele>864</ele>
        <time>2022-09-08T09:35:27Z</time>
      </trkpt>
      <trkpt lat="42.99691" lon="0.65219">
        <ele>862</ele>
        <time>2022-09-08T09:35:36Z</time>
      </trkpt>
      <trkpt lat="42.99682" lon="0.65223">
        <ele>860</ele>
        <time>2022-09-08T09:35:47Z</time>
      </trkpt>
      <trkpt lat="42.99674" lon="0.65228">
        <ele>859</ele>
        <time>2022-09-08T09:35:52Z</time>
      </trkpt>
      <trkpt lat="42.99665" lon="0.65231">
        <ele>859</ele>
        <time>2022-09-08T09:35:59Z</time>
      </trkpt>
      <trkpt lat="42.99656" lon="0.65235">
        <ele>858</ele>
        <time>2022-09-08T09:36:10Z</time>
      </trkpt>
      <trkpt lat="42.99649" lon="0.65243">
        <ele>858</ele>
        <time>2022-09-08T09:36:19Z</time>
      </trkpt>
      <trkpt lat="42.99641" lon="0.65251">
        <ele>858</ele>
        <time>2022-09-08T09:36:28Z</time>
      </trkpt>
      <trkpt lat="42.99633" lon="0.65258">
        <ele>857</ele>
        <time>2022-09-08T09:36:34Z</time>
      </trkpt>
      <trkpt lat="42.99627" lon="0.65267">
        <ele>854</ele>
        <time>2022-09-08T09:36:42Z</time>
      </trkpt>
      <trkpt lat="42.9962" lon="0.65277">
        <ele>851</ele>
        <time>2022-09-08T09:36:53Z</time>
      </trkpt>
      <trkpt lat="42.99618" lon="0.65291">
        <ele>848</ele>
        <time>2022-09-08T09:37:03Z</time>
      </trkpt>
      <trkpt lat="42.99611" lon="0.65299">
        <ele>845</ele>
        <time>2022-09-08T09:37:19Z</time>
      </trkpt>
      <trkpt lat="42.99607" lon="0.65312">
        <ele>840</ele>
        <time>2022-09-08T09:37:33Z</time>
      </trkpt>
      <trkpt lat="42.9961" lon="0.65324">
        <ele>840</ele>
        <time>2022-09-08T09:37:41Z</time>
      </trkpt>
      <trkpt lat="42.99617" lon="0.65334">
        <ele>839</ele>
        <time>2022-09-08T09:37:48Z</time>
      </trkpt>
      <trkpt lat="42.99626" lon="0.6534">
        <ele>837</ele>
        <time>2022-09-08T09:37:56Z</time>
      </trkpt>
      <trkpt lat="42.99632" lon="0.6535">
        <ele>835</ele>
        <time>2022-09-08T09:38:03Z</time>
      </trkpt>
      <trkpt lat="42.99633" lon="0.65362">
        <ele>834</ele>
        <time>2022-09-08T09:38:15Z</time>
      </trkpt>
      <trkpt lat="42.99628" lon="0.65373">
        <ele>832</ele>
        <time>2022-09-08T09:38:25Z</time>
      </trkpt>
      <trkpt lat="42.99629" lon="0.65386">
        <ele>828</ele>
        <time>2022-09-08T09:38:49Z</time>
      </trkpt>
      <trkpt lat="42.99623" lon="0.65375">
        <ele>827</ele>
        <time>2022-09-08T09:39:18Z</time>
      </trkpt>
      <trkpt lat="42.99632" lon="0.6537">
        <ele>827</ele>
        <time>2022-09-08T09:39:42Z</time>
      </trkpt>
      <trkpt lat="42.99628" lon="0.65382">
        <ele>827</ele>
        <time>2022-09-08T09:39:47Z</time>
      </trkpt>
      <trkpt lat="42.99627" lon="0.65395">
        <ele>827</ele>
        <time>2022-09-08T09:40:01Z</time>
      </trkpt>
      <trkpt lat="42.99628" lon="0.65408">
        <ele>825</ele>
        <time>2022-09-08T09:40:16Z</time>
      </trkpt>
      <trkpt lat="42.99618" lon="0.65411">
        <ele>822</ele>
        <time>2022-09-08T09:40:23Z</time>
      </trkpt>
      <trkpt lat="42.99608" lon="0.65411">
        <ele>822</ele>
        <time>2022-09-08T09:40:28Z</time>
      </trkpt>
      <trkpt lat="42.99597" lon="0.65409">
        <ele>820</ele>
        <time>2022-09-08T09:40:37Z</time>
      </trkpt>
      <trkpt lat="42.99589" lon="0.65415">
        <ele>817</ele>
        <time>2022-09-08T09:40:50Z</time>
      </trkpt>
      <trkpt lat="42.9958" lon="0.65411">
        <ele>816</ele>
        <time>2022-09-08T09:40:59Z</time>
      </trkpt>
      <trkpt lat="42.9957" lon="0.65414">
        <ele>813</ele>
        <time>2022-09-08T09:41:20Z</time>
      </trkpt>
      <trkpt lat="42.99563" lon="0.65426">
        <ele>810</ele>
        <time>2022-09-08T09:41:35Z</time>
      </trkpt>
      <trkpt lat="42.99559" lon="0.65438">
        <ele>809</ele>
        <time>2022-09-08T09:44:48Z</time>
      </trkpt>
      <trkpt lat="42.9957" lon="0.65434">
        <ele>807</ele>
        <time>2022-09-08T09:44:59Z</time>
      </trkpt>
      <trkpt lat="42.99579" lon="0.65436">
        <ele>807</ele>
        <time>2022-09-08T09:45:09Z</time>
      </trkpt>
      <trkpt lat="42.99587" lon="0.65431">
        <ele>809</ele>
        <time>2022-09-08T09:45:25Z</time>
      </trkpt>
      <trkpt lat="42.99596" lon="0.65434">
        <ele>810</ele>
        <time>2022-09-08T09:45:34Z</time>
      </trkpt>
      <trkpt lat="42.99605" lon="0.6544">
        <ele>810</ele>
        <time>2022-09-08T09:45:42Z</time>
      </trkpt>
      <trkpt lat="42.99616" lon="0.65447">
        <ele>812</ele>
        <time>2022-09-08T09:46:05Z</time>
      </trkpt>
      <trkpt lat="42.99628" lon="0.65442">
        <ele>813</ele>
        <time>2022-09-08T09:46:16Z</time>
      </trkpt>
      <trkpt lat="42.99637" lon="0.6544">
        <ele>814</ele>
        <time>2022-09-08T09:46:23Z</time>
      </trkpt>
      <trkpt lat="42.99646" lon="0.65438">
        <ele>814</ele>
        <time>2022-09-08T09:46:31Z</time>
      </trkpt>
      <trkpt lat="42.99655" lon="0.65433">
        <ele>814</ele>
        <time>2022-09-08T09:46:37Z</time>
      </trkpt>
      <trkpt lat="42.99664" lon="0.6543">
        <ele>814</ele>
        <time>2022-09-08T09:46:48Z</time>
      </trkpt>
      <trkpt lat="42.99674" lon="0.65433">
        <ele>814</ele>
        <time>2022-09-08T09:46:55Z</time>
      </trkpt>
      <trkpt lat="42.99685" lon="0.65436">
        <ele>813</ele>
        <time>2022-09-08T09:47:03Z</time>
      </trkpt>
      <trkpt lat="42.99693" lon="0.65429">
        <ele>813</ele>
        <time>2022-09-08T09:47:10Z</time>
      </trkpt>
      <trkpt lat="42.99702" lon="0.65432">
        <ele>813</ele>
        <time>2022-09-08T09:47:18Z</time>
      </trkpt>
      <trkpt lat="42.99711" lon="0.65433">
        <ele>814</ele>
        <time>2022-09-08T09:47:30Z</time>
      </trkpt>
      <trkpt lat="42.99722" lon="0.65435">
        <ele>814</ele>
        <time>2022-09-08T09:47:37Z</time>
      </trkpt>
      <trkpt lat="42.99731" lon="0.6544">
        <ele>814</ele>
        <time>2022-09-08T09:47:45Z</time>
      </trkpt>
      <trkpt lat="42.99739" lon="0.65448">
        <ele>813</ele>
        <time>2022-09-08T09:47:52Z</time>
      </trkpt>
      <trkpt lat="42.99745" lon="0.65457">
        <ele>813</ele>
        <time>2022-09-08T09:47:57Z</time>
      </trkpt>
      <trkpt lat="42.99753" lon="0.65466">
        <ele>814</ele>
        <time>2022-09-08T09:48:03Z</time>
      </trkpt>
      <trkpt lat="42.99759" lon="0.6548">
        <ele>814</ele>
        <time>2022-09-08T09:48:10Z</time>
      </trkpt>
      <trkpt lat="42.9976" lon="0.65493">
        <ele>815</ele>
        <time>2022-09-08T09:48:19Z</time>
      </trkpt>
      <trkpt lat="42.99759" lon="0.65506">
        <ele>815</ele>
        <time>2022-09-08T09:48:28Z</time>
      </trkpt>
      <trkpt lat="42.9976" lon="0.65519">
        <ele>816</ele>
        <time>2022-09-08T09:48:37Z</time>
      </trkpt>
      <trkpt lat="42.99762" lon="0.65531">
        <ele>816</ele>
        <time>2022-09-08T09:48:44Z</time>
      </trkpt>
      <trkpt lat="42.99759" lon="0.65545">
        <ele>816</ele>
        <time>2022-09-08T09:48:52Z</time>
      </trkpt>
      <trkpt lat="42.99759" lon="0.65558">
        <ele>817</ele>
        <time>2022-09-08T09:49:03Z</time>
      </trkpt>
      <trkpt lat="42.99753" lon="0.65568">
        <ele>816</ele>
        <time>2022-09-08T09:50:28Z</time>
      </trkpt>
      <trkpt lat="42.99758" lon="0.65556">
        <ele>817</ele>
        <time>2022-09-08T09:50:47Z</time>
      </trkpt>
      <trkpt lat="42.99763" lon="0.65568">
        <ele>817</ele>
        <time>2022-09-08T09:51:09Z</time>
      </trkpt>
      <trkpt lat="42.99756" lon="0.65576">
        <ele>817</ele>
        <time>2022-09-08T09:51:34Z</time>
      </trkpt>
      <trkpt lat="42.99747" lon="0.65578">
        <ele>816</ele>
        <time>2022-09-08T09:52:23Z</time>
      </trkpt>
      <trkpt lat="42.99742" lon="0.65589">
        <ele>814</ele>
        <time>2022-09-08T09:52:35Z</time>
      </trkpt>
      <trkpt lat="42.99745" lon="0.65602">
        <ele>814</ele>
        <time>2022-09-08T09:52:41Z</time>
      </trkpt>
      <trkpt lat="42.99749" lon="0.65615">
        <ele>812</ele>
        <time>2022-09-08T09:52:46Z</time>
      </trkpt>
      <trkpt lat="42.99754" lon="0.65626">
        <ele>811</ele>
        <time>2022-09-08T09:52:52Z</time>
      </trkpt>
      <trkpt lat="42.99762" lon="0.65633">
        <ele>811</ele>
        <time>2022-09-08T09:52:58Z</time>
      </trkpt>
      <trkpt lat="42.99762" lon="0.65645">
        <ele>809</ele>
        <time>2022-09-08T09:53:09Z</time>
      </trkpt>
      <trkpt lat="42.99758" lon="0.65657">
        <ele>808</ele>
        <time>2022-09-08T09:53:22Z</time>
      </trkpt>
      <trkpt lat="42.99767" lon="0.65664">
        <ele>808</ele>
        <time>2022-09-08T09:53:35Z</time>
      </trkpt>
      <trkpt lat="42.99758" lon="0.65662">
        <ele>810</ele>
        <time>2022-09-08T09:53:54Z</time>
      </trkpt>
      <trkpt lat="42.99755" lon="0.65676">
        <ele>810</ele>
        <time>2022-09-08T09:54:36Z</time>
      </trkpt>
      <trkpt lat="42.99753" lon="0.65688">
        <ele>808</ele>
        <time>2022-09-08T09:54:43Z</time>
      </trkpt>
      <trkpt lat="42.99746" lon="0.65698">
        <ele>805</ele>
        <time>2022-09-08T09:56:06Z</time>
      </trkpt>
      <trkpt lat="42.99738" lon="0.65708">
        <ele>805</ele>
        <time>2022-09-08T09:56:15Z</time>
      </trkpt>
      <trkpt lat="42.99731" lon="0.65717">
        <ele>804</ele>
        <time>2022-09-08T09:56:24Z</time>
      </trkpt>
      <trkpt lat="42.99724" lon="0.65725">
        <ele>804</ele>
        <time>2022-09-08T09:56:32Z</time>
      </trkpt>
      <trkpt lat="42.99713" lon="0.65733">
        <ele>803</ele>
        <time>2022-09-08T09:56:44Z</time>
      </trkpt>
      <trkpt lat="42.99704" lon="0.65736">
        <ele>803</ele>
        <time>2022-09-08T09:56:49Z</time>
      </trkpt>
      <trkpt lat="42.99694" lon="0.65732">
        <ele>803</ele>
        <time>2022-09-08T09:56:58Z</time>
      </trkpt>
      <trkpt lat="42.99685" lon="0.6573">
        <ele>804</ele>
        <time>2022-09-08T09:57:13Z</time>
      </trkpt>
      <trkpt lat="42.99684" lon="0.65717">
        <ele>803</ele>
        <time>2022-09-08T09:58:22Z</time>
      </trkpt>
      <trkpt lat="42.99673" lon="0.65712">
        <ele>803</ele>
        <time>2022-09-08T09:59:17Z</time>
      </trkpt>
      <trkpt lat="42.99666" lon="0.65701">
        <ele>800</ele>
        <time>2022-09-08T09:59:27Z</time>
      </trkpt>
      <trkpt lat="42.99657" lon="0.65704">
        <ele>798</ele>
        <time>2022-09-08T09:59:37Z</time>
      </trkpt>
      <trkpt lat="42.99651" lon="0.65714">
        <ele>794</ele>
        <time>2022-09-08T09:59:43Z</time>
      </trkpt>
      <trkpt lat="42.99647" lon="0.65728">
        <ele>791</ele>
        <time>2022-09-08T09:59:52Z</time>
      </trkpt>
      <trkpt lat="42.99642" lon="0.65739">
        <ele>791</ele>
        <time>2022-09-08T09:59:57Z</time>
      </trkpt>
      <trkpt lat="42.99639" lon="0.65751">
        <ele>789</ele>
        <time>2022-09-08T10:00:05Z</time>
      </trkpt>
      <trkpt lat="42.99634" lon="0.65763">
        <ele>788</ele>
        <time>2022-09-08T10:00:14Z</time>
      </trkpt>
      <trkpt lat="42.99627" lon="0.65773">
        <ele>788</ele>
        <time>2022-09-08T10:00:18Z</time>
      </trkpt>
      <trkpt lat="42.99619" lon="0.65784">
        <ele>786</ele>
        <time>2022-09-08T10:00:28Z</time>
      </trkpt>
      <trkpt lat="42.99611" lon="0.65791">
        <ele>785</ele>
        <time>2022-09-08T10:00:40Z</time>
      </trkpt>
      <trkpt lat="42.99603" lon="0.658">
        <ele>783</ele>
        <time>2022-09-08T10:00:49Z</time>
      </trkpt>
      <trkpt lat="42.99595" lon="0.65805">
        <ele>782</ele>
        <time>2022-09-08T10:01:00Z</time>
      </trkpt>
      <trkpt lat="42.99586" lon="0.6581">
        <ele>780</ele>
        <time>2022-09-08T10:01:16Z</time>
      </trkpt>
      <trkpt lat="42.99577" lon="0.65812">
        <ele>779</ele>
        <time>2022-09-08T10:01:23Z</time>
      </trkpt>
      <trkpt lat="42.99568" lon="0.65815">
        <ele>777</ele>
        <time>2022-09-08T10:01:33Z</time>
      </trkpt>
      <trkpt lat="42.9956" lon="0.65822">
        <ele>776</ele>
        <time>2022-09-08T10:01:44Z</time>
      </trkpt>
      <trkpt lat="42.99553" lon="0.6583">
        <ele>775</ele>
        <time>2022-09-08T10:02:25Z</time>
      </trkpt>
      <trkpt lat="42.9956" lon="0.6582">
        <ele>774</ele>
        <time>2022-09-08T10:03:08Z</time>
      </trkpt>
      <trkpt lat="42.99549" lon="0.65813">
        <ele>775</ele>
        <time>2022-09-08T10:03:57Z</time>
      </trkpt>
      <trkpt lat="42.9954" lon="0.65819">
        <ele>775</ele>
        <time>2022-09-08T10:04:15Z</time>
      </trkpt>
      <trkpt lat="42.99533" lon="0.6583">
        <ele>773</ele>
        <time>2022-09-08T10:04:24Z</time>
      </trkpt>
      <trkpt lat="42.9953" lon="0.65842">
        <ele>770</ele>
        <time>2022-09-08T10:04:36Z</time>
      </trkpt>
      <trkpt lat="42.99542" lon="0.6585">
        <ele>764</ele>
        <time>2022-09-08T10:04:54Z</time>
      </trkpt>
      <trkpt lat="42.9955" lon="0.65859">
        <ele>762</ele>
        <time>2022-09-08T10:05:03Z</time>
      </trkpt>
      <trkpt lat="42.99552" lon="0.65873">
        <ele>760</ele>
        <time>2022-09-08T10:05:12Z</time>
      </trkpt>
      <trkpt lat="42.99561" lon="0.65881">
        <ele>757</ele>
        <time>2022-09-08T10:05:22Z</time>
      </trkpt>
      <trkpt lat="42.99566" lon="0.65893">
        <ele>754</ele>
        <time>2022-09-08T10:05:41Z</time>
      </trkpt>
      <trkpt lat="42.99571" lon="0.65905">
        <ele>751</ele>
        <time>2022-09-08T10:05:45Z</time>
      </trkpt>
      <trkpt lat="42.99575" lon="0.65893">
        <ele>749</ele>
        <time>2022-09-08T10:05:59Z</time>
      </trkpt>
      <trkpt lat="42.99571" lon="0.65881">
        <ele>748</ele>
        <time>2022-09-08T10:06:06Z</time>
      </trkpt>
      <trkpt lat="42.9958" lon="0.65876">
        <ele>749</ele>
        <time>2022-09-08T10:06:13Z</time>
      </trkpt>
      <trkpt lat="42.99571" lon="0.65889">
        <ele>749</ele>
        <time>2022-09-08T10:06:24Z</time>
      </trkpt>
      <trkpt lat="42.99563" lon="0.65899">
        <ele>749</ele>
        <time>2022-09-08T10:06:31Z</time>
      </trkpt>
      <trkpt lat="42.99561" lon="0.65911">
        <ele>749</ele>
        <time>2022-09-08T10:06:41Z</time>
      </trkpt>
      <trkpt lat="42.99562" lon="0.65925">
        <ele>744</ele>
        <time>2022-09-08T10:06:55Z</time>
      </trkpt>
      <trkpt lat="42.99559" lon="0.65938">
        <ele>740</ele>
        <time>2022-09-08T10:07:13Z</time>
      </trkpt>
      <trkpt lat="42.99551" lon="0.65947">
        <ele>740</ele>
        <time>2022-09-08T10:07:27Z</time>
      </trkpt>
      <trkpt lat="42.99551" lon="0.6596">
        <ele>738</ele>
        <time>2022-09-08T10:07:42Z</time>
      </trkpt>
      <trkpt lat="42.99546" lon="0.65971">
        <ele>737</ele>
        <time>2022-09-08T10:07:59Z</time>
      </trkpt>
      <trkpt lat="42.99537" lon="0.65986">
        <ele>734</ele>
        <time>2022-09-08T10:08:07Z</time>
      </trkpt>
      <trkpt lat="42.99523" lon="0.65984">
        <ele>734</ele>
        <time>2022-09-08T10:08:22Z</time>
      </trkpt>
      <trkpt lat="42.99533" lon="0.65989">
        <ele>734</ele>
        <time>2022-09-08T10:08:39Z</time>
      </trkpt>
      <trkpt lat="42.99541" lon="0.65984">
        <ele>735</ele>
        <time>2022-09-08T10:09:17Z</time>
      </trkpt>
      <trkpt lat="42.9955" lon="0.6598">
        <ele>735</ele>
        <time>2022-09-08T10:09:40Z</time>
      </trkpt>
      <trkpt lat="42.99541" lon="0.65978">
        <ele>735</ele>
        <time>2022-09-08T10:10:00Z</time>
      </trkpt>
      <trkpt lat="42.99549" lon="0.65969">
        <ele>735</ele>
        <time>2022-09-08T10:10:24Z</time>
      </trkpt>
      <trkpt lat="42.99562" lon="0.65969">
        <ele>735</ele>
        <time>2022-09-08T10:10:29Z</time>
      </trkpt>
      <trkpt lat="42.99572" lon="0.65963">
        <ele>735</ele>
        <time>2022-09-08T10:10:32Z</time>
      </trkpt>
      <trkpt lat="42.99582" lon="0.65969">
        <ele>735</ele>
        <time>2022-09-08T10:10:36Z</time>
      </trkpt>
      <trkpt lat="42.99572" lon="0.65972">
        <ele>736</ele>
        <time>2022-09-08T10:11:14Z</time>
      </trkpt>
      <trkpt lat="42.99559" lon="0.65976">
        <ele>736</ele>
        <time>2022-09-08T10:11:17Z</time>
      </trkpt>
      <trkpt lat="42.99551" lon="0.65982">
        <ele>735</ele>
        <time>2022-09-08T10:11:22Z</time>
      </trkpt>
      <trkpt lat="42.99542" lon="0.65989">
        <ele>735</ele>
        <time>2022-09-08T10:11:28Z</time>
      </trkpt>
      <trkpt lat="42.99539" lon="0.66002">
        <ele>734</ele>
        <time>2022-09-08T10:11:45Z</time>
      </trkpt>
      <trkpt lat="42.99537" lon="0.66014">
        <ele>733</ele>
        <time>2022-09-08T10:11:58Z</time>
      </trkpt>
      <trkpt lat="42.99534" lon="0.66028">
        <ele>730</ele>
        <time>2022-09-08T10:12:06Z</time>
      </trkpt>
      <trkpt lat="42.99535" lon="0.66043">
        <ele>730</ele>
        <time>2022-09-08T10:12:18Z</time>
      </trkpt>
      <trkpt lat="42.9954" lon="0.66054">
        <ele>727</ele>
        <time>2022-09-08T10:12:24Z</time>
      </trkpt>
      <trkpt lat="42.99541" lon="0.66068">
        <ele>723</ele>
        <time>2022-09-08T10:12:45Z</time>
      </trkpt>
      <trkpt lat="42.99546" lon="0.66079">
        <ele>722</ele>
        <time>2022-09-08T10:12:53Z</time>
      </trkpt>
      <trkpt lat="42.99551" lon="0.66089">
        <ele>720</ele>
        <time>2022-09-08T10:13:02Z</time>
      </trkpt>
      <trkpt lat="42.99558" lon="0.66099">
        <ele>720</ele>
        <time>2022-09-08T10:13:08Z</time>
      </trkpt>
      <trkpt lat="42.99559" lon="0.66112">
        <ele>719</ele>
        <time>2022-09-08T10:13:15Z</time>
      </trkpt>
      <trkpt lat="42.99565" lon="0.66123">
        <ele>717</ele>
        <time>2022-09-08T10:13:24Z</time>
      </trkpt>
      <trkpt lat="42.99571" lon="0.66132">
        <ele>714</ele>
        <time>2022-09-08T10:13:34Z</time>
      </trkpt>
      <trkpt lat="42.99572" lon="0.66145">
        <ele>714</ele>
        <time>2022-09-08T10:14:39Z</time>
      </trkpt>
      <trkpt lat="42.99562" lon="0.66142">
        <ele>714</ele>
        <time>2022-09-08T10:15:25Z</time>
      </trkpt>
      <trkpt lat="42.99554" lon="0.66132">
        <ele>714</ele>
        <time>2022-09-08T10:15:28Z</time>
      </trkpt>
      <trkpt lat="42.99552" lon="0.6612">
        <ele>714</ele>
        <time>2022-09-08T10:16:15Z</time>
      </trkpt>
      <trkpt lat="42.99543" lon="0.66118">
        <ele>714</ele>
        <time>2022-09-08T10:16:28Z</time>
      </trkpt>
      <trkpt lat="42.9955" lon="0.66129">
        <ele>714</ele>
        <time>2022-09-08T10:16:39Z</time>
      </trkpt>
      <trkpt lat="42.99558" lon="0.66135">
        <ele>714</ele>
        <time>2022-09-08T10:16:49Z</time>
      </trkpt>
      <trkpt lat="42.99567" lon="0.66133">
        <ele>714</ele>
        <time>2022-09-08T10:16:52Z</time>
      </trkpt>
      <trkpt lat="42.99573" lon="0.66144">
        <ele>713</ele>
        <time>2022-09-08T10:17:06Z</time>
      </trkpt>
      <trkpt lat="42.99582" lon="0.66151">
        <ele>712</ele>
        <time>2022-09-08T10:17:12Z</time>
      </trkpt>
      <trkpt lat="42.9959" lon="0.66158">
        <ele>712</ele>
        <time>2022-09-08T10:17:18Z</time>
      </trkpt>
      <trkpt lat="42.99596" lon="0.66166">
        <ele>710</ele>
        <time>2022-09-08T10:17:27Z</time>
      </trkpt>
      <trkpt lat="42.99605" lon="0.66172">
        <ele>707</ele>
        <time>2022-09-08T10:17:43Z</time>
      </trkpt>
      <trkpt lat="42.99611" lon="0.66181">
        <ele>707</ele>
        <time>2022-09-08T10:17:50Z</time>
      </trkpt>
      <trkpt lat="42.99619" lon="0.66188">
        <ele>705</ele>
        <time>2022-09-08T10:18:01Z</time>
      </trkpt>
      <trkpt lat="42.99628" lon="0.66194">
        <ele>704</ele>
        <time>2022-09-08T10:18:07Z</time>
      </trkpt>
      <trkpt lat="42.99633" lon="0.66207">
        <ele>702</ele>
        <time>2022-09-08T10:18:13Z</time>
      </trkpt>
      <trkpt lat="42.99643" lon="0.66213">
        <ele>702</ele>
        <time>2022-09-08T10:18:20Z</time>
      </trkpt>
      <trkpt lat="42.99651" lon="0.66221">
        <ele>700</ele>
        <time>2022-09-08T10:19:12Z</time>
      </trkpt>
      <trkpt lat="42.99657" lon="0.66232">
        <ele>697</ele>
        <time>2022-09-08T10:19:28Z</time>
      </trkpt>
      <trkpt lat="42.99664" lon="0.66241">
        <ele>695</ele>
        <time>2022-09-08T10:19:36Z</time>
      </trkpt>
      <trkpt lat="42.9967" lon="0.66253">
        <ele>693</ele>
        <time>2022-09-08T10:19:42Z</time>
      </trkpt>
      <trkpt lat="42.99679" lon="0.66258">
        <ele>693</ele>
        <time>2022-09-08T10:19:45Z</time>
      </trkpt>
      <trkpt lat="42.99673" lon="0.66269">
        <ele>691</ele>
        <time>2022-09-08T10:19:54Z</time>
      </trkpt>
      <trkpt lat="42.99677" lon="0.66283">
        <ele>688</ele>
        <time>2022-09-08T10:20:03Z</time>
      </trkpt>
      <trkpt lat="42.99684" lon="0.66292">
        <ele>688</ele>
        <time>2022-09-08T10:20:09Z</time>
      </trkpt>
      <trkpt lat="42.99693" lon="0.66301">
        <ele>687</ele>
        <time>2022-09-08T10:20:18Z</time>
      </trkpt>
      <trkpt lat="42.997" lon="0.66311">
        <ele>686</ele>
        <time>2022-09-08T10:20:24Z</time>
      </trkpt>
      <trkpt lat="42.99705" lon="0.66321">
        <ele>685</ele>
        <time>2022-09-08T10:20:36Z</time>
      </trkpt>
      <trkpt lat="42.99711" lon="0.66331">
        <ele>683</ele>
        <time>2022-09-08T10:20:42Z</time>
      </trkpt>
      <trkpt lat="42.99709" lon="0.66344">
        <ele>681</ele>
        <time>2022-09-08T10:20:54Z</time>
      </trkpt>
      <trkpt lat="42.99709" lon="0.66356">
        <ele>679</ele>
        <time>2022-09-08T10:21:08Z</time>
      </trkpt>
      <trkpt lat="42.99704" lon="0.66367">
        <ele>677</ele>
        <time>2022-09-08T10:21:26Z</time>
      </trkpt>
      <trkpt lat="42.99704" lon="0.6638">
        <ele>674</ele>
        <time>2022-09-08T10:21:46Z</time>
      </trkpt>
      <trkpt lat="42.99713" lon="0.66378">
        <ele>672</ele>
        <time>2022-09-08T10:23:54Z</time>
      </trkpt>
      <trkpt lat="42.99705" lon="0.66384">
        <ele>672</ele>
        <time>2022-09-08T10:24:15Z</time>
      </trkpt>
      <trkpt lat="42.99706" lon="0.66396">
        <ele>671</ele>
        <time>2022-09-08T10:24:25Z</time>
      </trkpt>
      <trkpt lat="42.99703" lon="0.66408">
        <ele>669</ele>
        <time>2022-09-08T10:24:38Z</time>
      </trkpt>
      <trkpt lat="42.99705" lon="0.66422">
        <ele>666</ele>
        <time>2022-09-08T10:24:48Z</time>
      </trkpt>
      <trkpt lat="42.99702" lon="0.66435">
        <ele>664</ele>
        <time>2022-09-08T10:24:56Z</time>
      </trkpt>
      <trkpt lat="42.99696" lon="0.66447">
        <ele>661</ele>
        <time>2022-09-08T10:25:06Z</time>
      </trkpt>
      <trkpt lat="42.99685" lon="0.66447">
        <ele>659</ele>
        <time>2022-09-08T10:25:58Z</time>
      </trkpt>
      <trkpt lat="42.99692" lon="0.66438">
        <ele>659</ele>
        <time>2022-09-08T10:26:07Z</time>
      </trkpt>
      <trkpt lat="42.99703" lon="0.6644">
        <ele>659</ele>
        <time>2022-09-08T10:26:09Z</time>
      </trkpt>
      <trkpt lat="42.9971" lon="0.66449">
        <ele>658</ele>
        <time>2022-09-08T10:26:40Z</time>
      </trkpt>
      <trkpt lat="42.99713" lon="0.6646">
        <ele>657</ele>
        <time>2022-09-08T10:26:50Z</time>
      </trkpt>
      <trkpt lat="42.99708" lon="0.66472">
        <ele>655</ele>
        <time>2022-09-08T10:26:56Z</time>
      </trkpt>
      <trkpt lat="42.99705" lon="0.66483">
        <ele>653</ele>
        <time>2022-09-08T10:27:09Z</time>
      </trkpt>
      <trkpt lat="42.99711" lon="0.66493">
        <ele>650</ele>
        <time>2022-09-08T10:27:19Z</time>
      </trkpt>
      <trkpt lat="42.9972" lon="0.66496">
        <ele>644</ele>
        <time>2022-09-08T10:27:34Z</time>
      </trkpt>
      <trkpt lat="42.9973" lon="0.66492">
        <ele>642</ele>
        <time>2022-09-08T10:27:49Z</time>
      </trkpt>
      <trkpt lat="42.9974" lon="0.66497">
        <ele>640</ele>
        <time>2022-09-08T10:27:57Z</time>
      </trkpt>
      <trkpt lat="42.99745" lon="0.66508">
        <ele>639</ele>
        <time>2022-09-08T10:28:07Z</time>
      </trkpt>
      <trkpt lat="42.99753" lon="0.6653">
        <ele>639</ele>
        <time>2022-09-08T10:28:27Z</time>
      </trkpt>
      <trkpt lat="42.99756" lon="0.66543">
        <ele>635</ele>
        <time>2022-09-08T10:28:34Z</time>
      </trkpt>
      <trkpt lat="42.99757" lon="0.66548">
        <ele>635</ele>
        <time>2022-09-08T10:28:37Z</time>
      </trkpt>
      <trkpt lat="42.99758" lon="0.66551">
        <ele>635</ele>
        <time>2022-09-08T10:28:41Z</time>
      </trkpt>
      <trkpt lat="42.99759" lon="0.66554">
        <ele>634</ele>
        <time>2022-09-08T10:28:44Z</time>
      </trkpt>
      <trkpt lat="42.99758" lon="0.6656">
        <ele>634</ele>
        <time>2022-09-08T10:28:48Z</time>
      </trkpt>
      <trkpt lat="42.99759" lon="0.66563">
        <ele>634</ele>
        <time>2022-09-08T10:28:50Z</time>
      </trkpt>
      <trkpt lat="42.99758" lon="0.66566">
        <ele>630</ele>
        <time>2022-09-08T10:28:52Z</time>
      </trkpt>
      <trkpt lat="42.99758" lon="0.66569">
        <ele>630</ele>
        <time>2022-09-08T10:28:55Z</time>
      </trkpt>
      <trkpt lat="42.99758" lon="0.66572">
        <ele>630</ele>
        <time>2022-09-08T10:28:57Z</time>
      </trkpt>
      <trkpt lat="42.99758" lon="0.66575">
        <ele>630</ele>
        <time>2022-09-08T10:28:59Z</time>
      </trkpt>
      <trkpt lat="42.99758" lon="0.66579">
        <ele>627</ele>
        <time>2022-09-08T10:29:02Z</time>
      </trkpt>
      <trkpt lat="42.99757" lon="0.66582">
        <ele>627</ele>
        <time>2022-09-08T10:29:04Z</time>
      </trkpt>
      <trkpt lat="42.99756" lon="0.66585">
        <ele>627</ele>
        <time>2022-09-08T10:29:06Z</time>
      </trkpt>
      <trkpt lat="42.99756" lon="0.66588">
        <ele>627</ele>
        <time>2022-09-08T10:29:08Z</time>
      </trkpt>
      <trkpt lat="42.99756" lon="0.66591">
        <ele>627</ele>
        <time>2022-09-08T10:29:10Z</time>
      </trkpt>
      <trkpt lat="42.99756" lon="0.66595">
        <ele>627</ele>
        <time>2022-09-08T10:29:13Z</time>
      </trkpt>
      <trkpt lat="42.99757" lon="0.66597">
        <ele>627</ele>
        <time>2022-09-08T10:29:15Z</time>
      </trkpt>
      <trkpt lat="42.99758" lon="0.666">
        <ele>627</ele>
        <time>2022-09-08T10:29:17Z</time>
      </trkpt>
      <trkpt lat="42.99759" lon="0.66602">
        <ele>627</ele>
        <time>2022-09-08T10:29:19Z</time>
      </trkpt>
      <trkpt lat="42.9976" lon="0.66604">
        <ele>627</ele>
        <time>2022-09-08T10:29:21Z</time>
      </trkpt>
      <trkpt lat="42.99761" lon="0.66607">
        <ele>625</ele>
        <time>2022-09-08T10:29:23Z</time>
      </trkpt>
      <trkpt lat="42.99762" lon="0.6661">
        <ele>625</ele>
        <time>2022-09-08T10:29:25Z</time>
      </trkpt>
      <trkpt lat="42.99763" lon="0.66612">
        <ele>625</ele>
        <time>2022-09-08T10:29:27Z</time>
      </trkpt>
      <trkpt lat="42.99764" lon="0.66614">
        <ele>625</ele>
        <time>2022-09-08T10:29:29Z</time>
      </trkpt>
      <trkpt lat="42.99766" lon="0.66616">
        <ele>625</ele>
        <time>2022-09-08T10:29:31Z</time>
      </trkpt>
      <trkpt lat="42.99766" lon="0.66618">
        <ele>623</ele>
        <time>2022-09-08T10:29:33Z</time>
      </trkpt>
      <trkpt lat="42.99768" lon="0.6662">
        <ele>623</ele>
        <time>2022-09-08T10:29:35Z</time>
      </trkpt>
      <trkpt lat="42.99769" lon="0.66623">
        <ele>623</ele>
        <time>2022-09-08T10:29:38Z</time>
      </trkpt>
      <trkpt lat="42.99769" lon="0.66625">
        <ele>623</ele>
        <time>2022-09-08T10:29:40Z</time>
      </trkpt>
      <trkpt lat="42.99769" lon="0.66628">
        <ele>621</ele>
        <time>2022-09-08T10:29:43Z</time>
      </trkpt>
      <trkpt lat="42.99769" lon="0.66631">
        <ele>621</ele>
        <time>2022-09-08T10:29:45Z</time>
      </trkpt>
      <trkpt lat="42.9977" lon="0.66633">
        <ele>621</ele>
        <time>2022-09-08T10:29:47Z</time>
      </trkpt>
      <trkpt lat="42.9977" lon="0.66636">
        <ele>621</ele>
        <time>2022-09-08T10:29:50Z</time>
      </trkpt>
      <trkpt lat="42.9977" lon="0.66639">
        <ele>618</ele>
        <time>2022-09-08T10:29:52Z</time>
      </trkpt>
      <trkpt lat="42.99772" lon="0.66641">
        <ele>618</ele>
        <time>2022-09-08T10:29:55Z</time>
      </trkpt>
      <trkpt lat="42.99773" lon="0.66643">
        <ele>618</ele>
        <time>2022-09-08T10:29:57Z</time>
      </trkpt>
      <trkpt lat="42.99773" lon="0.66646">
        <ele>618</ele>
        <time>2022-09-08T10:30:00Z</time>
      </trkpt>
      <trkpt lat="42.99774" lon="0.66649">
        <ele>618</ele>
        <time>2022-09-08T10:30:03Z</time>
      </trkpt>
      <trkpt lat="42.99774" lon="0.66652">
        <ele>618</ele>
        <time>2022-09-08T10:30:06Z</time>
      </trkpt>
      <trkpt lat="42.99775" lon="0.66654">
        <ele>618</ele>
        <time>2022-09-08T10:30:08Z</time>
      </trkpt>
      <trkpt lat="42.99777" lon="0.66657">
        <ele>618</ele>
        <time>2022-09-08T10:30:11Z</time>
      </trkpt>
      <trkpt lat="42.99778" lon="0.6666">
        <ele>616</ele>
        <time>2022-09-08T10:30:14Z</time>
      </trkpt>
      <trkpt lat="42.9978" lon="0.66662">
        <ele>616</ele>
        <time>2022-09-08T10:30:15Z</time>
      </trkpt>
      <trkpt lat="42.99782" lon="0.66663">
        <ele>616</ele>
        <time>2022-09-08T10:30:17Z</time>
      </trkpt>
      <trkpt lat="42.99783" lon="0.66666">
        <ele>616</ele>
        <time>2022-09-08T10:30:20Z</time>
      </trkpt>
      <trkpt lat="42.99784" lon="0.66668">
        <ele>615</ele>
        <time>2022-09-08T10:30:23Z</time>
      </trkpt>
      <trkpt lat="42.99785" lon="0.66671">
        <ele>615</ele>
        <time>2022-09-08T10:30:31Z</time>
      </trkpt>
      <trkpt lat="42.99786" lon="0.66672">
        <ele>611</ele>
        <time>2022-09-08T10:30:34Z</time>
      </trkpt>
      <trkpt lat="42.99788" lon="0.66674">
        <ele>611</ele>
        <time>2022-09-08T10:30:37Z</time>
      </trkpt>
      <trkpt lat="42.9979" lon="0.66677">
        <ele>611</ele>
        <time>2022-09-08T10:30:39Z</time>
      </trkpt>
      <trkpt lat="42.99791" lon="0.66679">
        <ele>611</ele>
        <time>2022-09-08T10:30:41Z</time>
      </trkpt>
      <trkpt lat="42.99791" lon="0.66682">
        <ele>612</ele>
        <time>2022-09-08T10:30:43Z</time>
      </trkpt>
      <trkpt lat="42.99792" lon="0.66684">
        <ele>612</ele>
        <time>2022-09-08T10:30:45Z</time>
      </trkpt>
      <trkpt lat="42.99792" lon="0.66687">
        <ele>612</ele>
        <time>2022-09-08T10:30:47Z</time>
      </trkpt>
      <trkpt lat="42.99792" lon="0.6669">
        <ele>612</ele>
        <time>2022-09-08T10:30:50Z</time>
      </trkpt>
      <trkpt lat="42.99794" lon="0.66693">
        <ele>610</ele>
        <time>2022-09-08T10:30:52Z</time>
      </trkpt>
      <trkpt lat="42.99794" lon="0.66696">
        <ele>610</ele>
        <time>2022-09-08T10:30:55Z</time>
      </trkpt>
      <trkpt lat="42.99794" lon="0.66699">
        <ele>610</ele>
        <time>2022-09-08T10:30:58Z</time>
      </trkpt>
      <trkpt lat="42.99794" lon="0.66702">
        <ele>610</ele>
        <time>2022-09-08T10:31:01Z</time>
      </trkpt>
      <trkpt lat="42.99795" lon="0.66706">
        <ele>608</ele>
        <time>2022-09-08T10:31:04Z</time>
      </trkpt>
      <trkpt lat="42.99796" lon="0.66708">
        <ele>608</ele>
        <time>2022-09-08T10:31:06Z</time>
      </trkpt>
      <trkpt lat="42.99796" lon="0.66711">
        <ele>608</ele>
        <time>2022-09-08T10:31:08Z</time>
      </trkpt>
      <trkpt lat="42.99797" lon="0.66713">
        <ele>608</ele>
        <time>2022-09-08T10:31:11Z</time>
      </trkpt>
      <trkpt lat="42.99797" lon="0.66716">
        <ele>607</ele>
        <time>2022-09-08T10:31:12Z</time>
      </trkpt>
      <trkpt lat="42.99798" lon="0.66719">
        <ele>607</ele>
        <time>2022-09-08T10:31:14Z</time>
      </trkpt>
      <trkpt lat="42.99799" lon="0.66722">
        <ele>607</ele>
        <time>2022-09-08T10:31:16Z</time>
      </trkpt>
      <trkpt lat="42.99799" lon="0.66725">
        <ele>607</ele>
        <time>2022-09-08T10:31:18Z</time>
      </trkpt>
      <trkpt lat="42.99799" lon="0.66728">
        <ele>607</ele>
        <time>2022-09-08T10:31:20Z</time>
      </trkpt>
      <trkpt lat="42.99799" lon="0.66731">
        <ele>604</ele>
        <time>2022-09-08T10:31:22Z</time>
      </trkpt>
      <trkpt lat="42.998" lon="0.66734">
        <ele>604</ele>
        <time>2022-09-08T10:31:24Z</time>
      </trkpt>
      <trkpt lat="42.998" lon="0.66737">
        <ele>604</ele>
        <time>2022-09-08T10:31:26Z</time>
      </trkpt>
      <trkpt lat="42.99801" lon="0.66739">
        <ele>604</ele>
        <time>2022-09-08T10:31:28Z</time>
      </trkpt>
      <trkpt lat="42.99802" lon="0.66742">
        <ele>604</ele>
        <time>2022-09-08T10:31:30Z</time>
      </trkpt>
      <trkpt lat="42.99803" lon="0.66744">
        <ele>601</ele>
        <time>2022-09-08T10:31:32Z</time>
      </trkpt>
      <trkpt lat="42.99803" lon="0.66747">
        <ele>601</ele>
        <time>2022-09-08T10:31:34Z</time>
      </trkpt>
      <trkpt lat="42.99804" lon="0.66751">
        <ele>601</ele>
        <time>2022-09-08T10:31:37Z</time>
      </trkpt>
      <trkpt lat="42.99804" lon="0.66753">
        <ele>601</ele>
        <time>2022-09-08T10:31:39Z</time>
      </trkpt>
      <trkpt lat="42.99805" lon="0.66756">
        <ele>599</ele>
        <time>2022-09-08T10:31:42Z</time>
      </trkpt>
      <trkpt lat="42.99805" lon="0.66759">
        <ele>599</ele>
        <time>2022-09-08T10:31:44Z</time>
      </trkpt>
      <trkpt lat="42.99806" lon="0.66762">
        <ele>599</ele>
        <time>2022-09-08T10:31:47Z</time>
      </trkpt>
      <trkpt lat="42.99806" lon="0.66765">
        <ele>599</ele>
        <time>2022-09-08T10:31:50Z</time>
      </trkpt>
      <trkpt lat="42.99807" lon="0.66768">
        <ele>598</ele>
        <time>2022-09-08T10:31:52Z</time>
      </trkpt>
      <trkpt lat="42.99807" lon="0.66771">
        <ele>598</ele>
        <time>2022-09-08T10:31:54Z</time>
      </trkpt>
      <trkpt lat="42.99807" lon="0.66773">
        <ele>598</ele>
        <time>2022-09-08T10:31:56Z</time>
      </trkpt>
      <trkpt lat="42.99809" lon="0.66775">
        <ele>598</ele>
        <time>2022-09-08T10:31:58Z</time>
      </trkpt>
      <trkpt lat="42.99811" lon="0.66779">
        <ele>598</ele>
        <time>2022-09-08T10:32:01Z</time>
      </trkpt>
      <trkpt lat="42.99812" lon="0.66782">
        <ele>595</ele>
        <time>2022-09-08T10:32:03Z</time>
      </trkpt>
      <trkpt lat="42.99812" lon="0.66784">
        <ele>595</ele>
        <time>2022-09-08T10:32:06Z</time>
      </trkpt>
      <trkpt lat="42.9981" lon="0.66785">
        <ele>595</ele>
        <time>2022-09-08T10:33:03Z</time>
      </trkpt>
      <trkpt lat="42.99808" lon="0.66783">
        <ele>594</ele>
        <time>2022-09-08T10:33:32Z</time>
      </trkpt>
      <trkpt lat="42.99808" lon="0.66786">
        <ele>594</ele>
        <time>2022-09-08T10:33:45Z</time>
      </trkpt>
      <trkpt lat="42.99809" lon="0.66789">
        <ele>594</ele>
        <time>2022-09-08T10:33:48Z</time>
      </trkpt>
      <trkpt lat="42.9981" lon="0.66792">
        <ele>594</ele>
        <time>2022-09-08T10:33:50Z</time>
      </trkpt>
      <trkpt lat="42.9981" lon="0.66794">
        <ele>594</ele>
        <time>2022-09-08T10:33:52Z</time>
      </trkpt>
      <trkpt lat="42.99812" lon="0.66797">
        <ele>594</ele>
        <time>2022-09-08T10:33:54Z</time>
      </trkpt>
      <trkpt lat="42.99812" lon="0.66801">
        <ele>594</ele>
        <time>2022-09-08T10:33:56Z</time>
      </trkpt>
      <trkpt lat="42.99813" lon="0.66804">
        <ele>594</ele>
        <time>2022-09-08T10:33:58Z</time>
      </trkpt>
      <trkpt lat="42.99813" lon="0.66807">
        <ele>594</ele>
        <time>2022-09-08T10:34:00Z</time>
      </trkpt>
      <trkpt lat="42.99812" lon="0.66811">
        <ele>591</ele>
        <time>2022-09-08T10:34:03Z</time>
      </trkpt>
      <trkpt lat="42.99811" lon="0.66814">
        <ele>591</ele>
        <time>2022-09-08T10:34:05Z</time>
      </trkpt>
      <trkpt lat="42.99811" lon="0.66817">
        <ele>591</ele>
        <time>2022-09-08T10:34:07Z</time>
      </trkpt>
      <trkpt lat="42.99811" lon="0.66819">
        <ele>591</ele>
        <time>2022-09-08T10:34:09Z</time>
      </trkpt>
      <trkpt lat="42.99813" lon="0.66822">
        <ele>591</ele>
        <time>2022-09-08T10:34:11Z</time>
      </trkpt>
      <trkpt lat="42.99814" lon="0.66824">
        <ele>590</ele>
        <time>2022-09-08T10:34:14Z</time>
      </trkpt>
      <trkpt lat="42.99815" lon="0.66826">
        <ele>590</ele>
        <time>2022-09-08T10:34:16Z</time>
      </trkpt>
      <trkpt lat="42.99817" lon="0.66827">
        <ele>590</ele>
        <time>2022-09-08T10:34:18Z</time>
      </trkpt>
      <trkpt lat="42.99819" lon="0.66829">
        <ele>590</ele>
        <time>2022-09-08T10:34:20Z</time>
      </trkpt>
      <trkpt lat="42.9982" lon="0.66832">
        <ele>587</ele>
        <time>2022-09-08T10:34:22Z</time>
      </trkpt>
      <trkpt lat="42.99821" lon="0.66834">
        <ele>587</ele>
        <time>2022-09-08T10:34:24Z</time>
      </trkpt>
      <trkpt lat="42.99821" lon="0.66837">
        <ele>587</ele>
        <time>2022-09-08T10:34:26Z</time>
      </trkpt>
      <trkpt lat="42.99822" lon="0.6684">
        <ele>587</ele>
        <time>2022-09-08T10:34:29Z</time>
      </trkpt>
      <trkpt lat="42.99823" lon="0.66843">
        <ele>586</ele>
        <time>2022-09-08T10:34:32Z</time>
      </trkpt>
      <trkpt lat="42.99824" lon="0.66846">
        <ele>586</ele>
        <time>2022-09-08T10:34:35Z</time>
      </trkpt>
      <trkpt lat="42.99824" lon="0.6685">
        <ele>586</ele>
        <time>2022-09-08T10:34:38Z</time>
      </trkpt>
      <trkpt lat="42.99825" lon="0.66853">
        <ele>586</ele>
        <time>2022-09-08T10:34:40Z</time>
      </trkpt>
      <trkpt lat="42.99825" lon="0.66856">
        <ele>585</ele>
        <time>2022-09-08T10:34:42Z</time>
      </trkpt>
      <trkpt lat="42.99825" lon="0.66859">
        <ele>585</ele>
        <time>2022-09-08T10:34:44Z</time>
      </trkpt>
      <trkpt lat="42.99826" lon="0.66862">
        <ele>585</ele>
        <time>2022-09-08T10:34:47Z</time>
      </trkpt>
      <trkpt lat="42.99826" lon="0.66865">
        <ele>585</ele>
        <time>2022-09-08T10:34:50Z</time>
      </trkpt>
      <trkpt lat="42.99826" lon="0.66868">
        <ele>582</ele>
        <time>2022-09-08T10:34:54Z</time>
      </trkpt>
      <trkpt lat="42.99828" lon="0.6687">
        <ele>582</ele>
        <time>2022-09-08T10:34:56Z</time>
      </trkpt>
      <trkpt lat="42.99829" lon="0.66872">
        <ele>582</ele>
        <time>2022-09-08T10:34:58Z</time>
      </trkpt>
      <trkpt lat="42.9983" lon="0.66875">
        <ele>582</ele>
        <time>2022-09-08T10:35:00Z</time>
      </trkpt>
      <trkpt lat="42.9983" lon="0.66878">
        <ele>580</ele>
        <time>2022-09-08T10:35:03Z</time>
      </trkpt>
      <trkpt lat="42.99831" lon="0.66881">
        <ele>580</ele>
        <time>2022-09-08T10:35:05Z</time>
      </trkpt>
      <trkpt lat="42.99832" lon="0.66884">
        <ele>580</ele>
        <time>2022-09-08T10:35:08Z</time>
      </trkpt>
      <trkpt lat="42.99834" lon="0.66887">
        <ele>580</ele>
        <time>2022-09-08T10:35:10Z</time>
      </trkpt>
      <trkpt lat="42.99834" lon="0.6689">
        <ele>578</ele>
        <time>2022-09-08T10:35:15Z</time>
      </trkpt>
      <trkpt lat="42.99832" lon="0.66889">
        <ele>577</ele>
        <time>2022-09-08T10:35:26Z</time>
      </trkpt>
      <trkpt lat="42.9983" lon="0.66888">
        <ele>577</ele>
        <time>2022-09-08T10:35:44Z</time>
      </trkpt>
      <trkpt lat="42.9983" lon="0.66885">
        <ele>576</ele>
        <time>2022-09-08T10:35:55Z</time>
      </trkpt>
      <trkpt lat="42.99832" lon="0.66887">
        <ele>576</ele>
        <time>2022-09-08T10:36:10Z</time>
      </trkpt>
      <trkpt lat="42.99834" lon="0.66889">
        <ele>577</ele>
        <time>2022-09-08T10:36:13Z</time>
      </trkpt>
      <trkpt lat="42.99835" lon="0.66893">
        <ele>577</ele>
        <time>2022-09-08T10:36:16Z</time>
      </trkpt>
      <trkpt lat="42.99836" lon="0.66896">
        <ele>577</ele>
        <time>2022-09-08T10:36:19Z</time>
      </trkpt>
      <trkpt lat="42.99837" lon="0.66899">
        <ele>577</ele>
        <time>2022-09-08T10:36:21Z</time>
      </trkpt>
      <trkpt lat="42.99837" lon="0.66901">
        <ele>577</ele>
        <time>2022-09-08T10:36:23Z</time>
      </trkpt>
      <trkpt lat="42.99838" lon="0.66905">
        <ele>577</ele>
        <time>2022-09-08T10:36:26Z</time>
      </trkpt>
      <trkpt lat="42.9984" lon="0.66908">
        <ele>577</ele>
        <time>2022-09-08T10:36:29Z</time>
      </trkpt>
      <trkpt lat="42.99841" lon="0.66911">
        <ele>577</ele>
        <time>2022-09-08T10:36:30Z</time>
      </trkpt>
      <trkpt lat="42.99842" lon="0.66913">
        <ele>576</ele>
        <time>2022-09-08T10:36:32Z</time>
      </trkpt>
      <trkpt lat="42.99842" lon="0.66916">
        <ele>576</ele>
        <time>2022-09-08T10:36:37Z</time>
      </trkpt>
      <trkpt lat="42.99842" lon="0.66919">
        <ele>576</ele>
        <time>2022-09-08T10:36:40Z</time>
      </trkpt>
      <trkpt lat="42.99843" lon="0.66922">
        <ele>574</ele>
        <time>2022-09-08T10:36:43Z</time>
      </trkpt>
      <trkpt lat="42.99843" lon="0.66925">
        <ele>574</ele>
        <time>2022-09-08T10:36:45Z</time>
      </trkpt>
      <trkpt lat="42.99843" lon="0.66928">
        <ele>574</ele>
        <time>2022-09-08T10:36:48Z</time>
      </trkpt>
      <trkpt lat="42.99844" lon="0.6693">
        <ele>574</ele>
        <time>2022-09-08T10:36:49Z</time>
      </trkpt>
      <trkpt lat="42.99845" lon="0.66932">
        <ele>574</ele>
        <time>2022-09-08T10:36:51Z</time>
      </trkpt>
      <trkpt lat="42.99846" lon="0.66934">
        <ele>572</ele>
        <time>2022-09-08T10:36:53Z</time>
      </trkpt>
      <trkpt lat="42.99846" lon="0.66937">
        <ele>572</ele>
        <time>2022-09-08T10:36:55Z</time>
      </trkpt>
      <trkpt lat="42.99846" lon="0.6694">
        <ele>572</ele>
        <time>2022-09-08T10:36:57Z</time>
      </trkpt>
      <trkpt lat="42.99847" lon="0.66944">
        <ele>572</ele>
        <time>2022-09-08T10:37:00Z</time>
      </trkpt>
      <trkpt lat="42.99849" lon="0.66946">
        <ele>570</ele>
        <time>2022-09-08T10:37:08Z</time>
      </trkpt>
      <trkpt lat="42.9985" lon="0.66948">
        <ele>570</ele>
        <time>2022-09-08T10:37:10Z</time>
      </trkpt>
      <trkpt lat="42.99851" lon="0.6695">
        <ele>570</ele>
        <time>2022-09-08T10:37:12Z</time>
      </trkpt>
      <trkpt lat="42.99853" lon="0.66953">
        <ele>570</ele>
        <time>2022-09-08T10:37:14Z</time>
      </trkpt>
      <trkpt lat="42.99854" lon="0.66955">
        <ele>570</ele>
        <time>2022-09-08T10:37:16Z</time>
      </trkpt>
      <trkpt lat="42.99856" lon="0.66957">
        <ele>570</ele>
        <time>2022-09-08T10:37:18Z</time>
      </trkpt>
      <trkpt lat="42.99854" lon="0.66954">
        <ele>569</ele>
        <time>2022-09-08T10:37:27Z</time>
      </trkpt>
      <trkpt lat="42.99852" lon="0.66952">
        <ele>569</ele>
        <time>2022-09-08T10:37:30Z</time>
      </trkpt>
      <trkpt lat="42.9985" lon="0.6695">
        <ele>568</ele>
        <time>2022-09-08T10:37:32Z</time>
      </trkpt>
      <trkpt lat="42.99851" lon="0.66953">
        <ele>568</ele>
        <time>2022-09-08T10:37:41Z</time>
      </trkpt>
      <trkpt lat="42.99853" lon="0.66955">
        <ele>569</ele>
        <time>2022-09-08T10:37:43Z</time>
      </trkpt>
      <trkpt lat="42.99854" lon="0.66957">
        <ele>569</ele>
        <time>2022-09-08T10:37:45Z</time>
      </trkpt>
      <trkpt lat="42.99855" lon="0.66959">
        <ele>569</ele>
        <time>2022-09-08T10:37:47Z</time>
      </trkpt>
      <trkpt lat="42.99858" lon="0.66962">
        <ele>569</ele>
        <time>2022-09-08T10:37:49Z</time>
      </trkpt>
      <trkpt lat="42.9986" lon="0.66964">
        <ele>568</ele>
        <time>2022-09-08T10:37:53Z</time>
      </trkpt>
      <trkpt lat="42.99861" lon="0.66966">
        <ele>568</ele>
        <time>2022-09-08T10:37:55Z</time>
      </trkpt>
      <trkpt lat="42.99863" lon="0.66968">
        <ele>568</ele>
        <time>2022-09-08T10:37:57Z</time>
      </trkpt>
      <trkpt lat="42.99866" lon="0.66969">
        <ele>568</ele>
        <time>2022-09-08T10:38:00Z</time>
      </trkpt>
      <trkpt lat="42.99868" lon="0.66971">
        <ele>568</ele>
        <time>2022-09-08T10:38:02Z</time>
      </trkpt>
      <trkpt lat="42.9987" lon="0.66972">
        <ele>568</ele>
        <time>2022-09-08T10:38:03Z</time>
      </trkpt>
      <trkpt lat="42.99872" lon="0.66974">
        <ele>568</ele>
        <time>2022-09-08T10:38:05Z</time>
      </trkpt>
      <trkpt lat="42.99875" lon="0.66977">
        <ele>568</ele>
        <time>2022-09-08T10:38:07Z</time>
      </trkpt>
      <trkpt lat="42.99877" lon="0.6698">
        <ele>568</ele>
        <time>2022-09-08T10:38:10Z</time>
      </trkpt>
      <trkpt lat="42.99879" lon="0.66982">
        <ele>568</ele>
        <time>2022-09-08T10:38:12Z</time>
      </trkpt>
      <trkpt lat="42.99881" lon="0.66983">
        <ele>568</ele>
        <time>2022-09-08T10:38:14Z</time>
      </trkpt>
      <trkpt lat="42.99883" lon="0.66986">
        <ele>568</ele>
        <time>2022-09-08T10:38:16Z</time>
      </trkpt>
      <trkpt lat="42.99885" lon="0.66988">
        <ele>568</ele>
        <time>2022-09-08T10:38:18Z</time>
      </trkpt>
      <trkpt lat="42.99886" lon="0.66991">
        <ele>568</ele>
        <time>2022-09-08T10:38:22Z</time>
      </trkpt>
      <trkpt lat="42.99887" lon="0.66993">
        <ele>568</ele>
        <time>2022-09-08T10:38:24Z</time>
      </trkpt>
      <trkpt lat="42.99889" lon="0.66995">
        <ele>568</ele>
        <time>2022-09-08T10:38:28Z</time>
      </trkpt>
      <trkpt lat="42.9989" lon="0.66997">
        <ele>568</ele>
        <time>2022-09-08T10:38:30Z</time>
      </trkpt>
      <trkpt lat="42.99892" lon="0.66999">
        <ele>567</ele>
        <time>2022-09-08T10:38:32Z</time>
      </trkpt>
      <trkpt lat="42.99893" lon="0.67002">
        <ele>567</ele>
        <time>2022-09-08T10:38:34Z</time>
      </trkpt>
      <trkpt lat="42.99893" lon="0.67004">
        <ele>567</ele>
        <time>2022-09-08T10:38:36Z</time>
      </trkpt>
      <trkpt lat="42.99893" lon="0.67007">
        <ele>567</ele>
        <time>2022-09-08T10:38:38Z</time>
      </trkpt>
      <trkpt lat="42.99894" lon="0.67011">
        <ele>567</ele>
        <time>2022-09-08T10:38:41Z</time>
      </trkpt>
      <trkpt lat="42.99896" lon="0.67014">
        <ele>566</ele>
        <time>2022-09-08T10:38:43Z</time>
      </trkpt>
      <trkpt lat="42.99898" lon="0.67018">
        <ele>566</ele>
        <time>2022-09-08T10:38:45Z</time>
      </trkpt>
      <trkpt lat="42.99899" lon="0.6702">
        <ele>566</ele>
        <time>2022-09-08T10:38:47Z</time>
      </trkpt>
      <trkpt lat="42.99902" lon="0.67024">
        <ele>566</ele>
        <time>2022-09-08T10:38:50Z</time>
      </trkpt>
      <trkpt lat="42.99903" lon="0.67028">
        <ele>563</ele>
        <time>2022-09-08T10:38:52Z</time>
      </trkpt>
      <trkpt lat="42.99903" lon="0.67031">
        <ele>563</ele>
        <time>2022-09-08T10:38:54Z</time>
      </trkpt>
      <trkpt lat="42.99903" lon="0.67034">
        <ele>563</ele>
        <time>2022-09-08T10:38:57Z</time>
      </trkpt>
      <trkpt lat="42.99902" lon="0.67037">
        <ele>563</ele>
        <time>2022-09-08T10:39:00Z</time>
      </trkpt>
      <trkpt lat="42.99901" lon="0.6704">
        <ele>561</ele>
        <time>2022-09-08T10:39:03Z</time>
      </trkpt>
      <trkpt lat="42.99901" lon="0.67043">
        <ele>561</ele>
        <time>2022-09-08T10:39:06Z</time>
      </trkpt>
      <trkpt lat="42.99901" lon="0.67046">
        <ele>561</ele>
        <time>2022-09-08T10:39:07Z</time>
      </trkpt>
      <trkpt lat="42.99901" lon="0.67048">
        <ele>561</ele>
        <time>2022-09-08T10:39:09Z</time>
      </trkpt>
      <trkpt lat="42.99903" lon="0.67051">
        <ele>561</ele>
        <time>2022-09-08T10:39:11Z</time>
      </trkpt>
      <trkpt lat="42.99904" lon="0.67054">
        <ele>561</ele>
        <time>2022-09-08T10:39:13Z</time>
      </trkpt>
      <trkpt lat="42.99906" lon="0.67056">
        <ele>561</ele>
        <time>2022-09-08T10:39:15Z</time>
      </trkpt>
      <trkpt lat="42.99907" lon="0.67058">
        <ele>561</ele>
        <time>2022-09-08T10:39:17Z</time>
      </trkpt>
      <trkpt lat="42.99909" lon="0.6706">
        <ele>561</ele>
        <time>2022-09-08T10:39:19Z</time>
      </trkpt>
      <trkpt lat="42.99911" lon="0.67062">
        <ele>560</ele>
        <time>2022-09-08T10:39:26Z</time>
      </trkpt>
      <trkpt lat="42.99915" lon="0.67073">
        <ele>558</ele>
        <time>2022-09-08T10:40:06Z</time>
      </trkpt>
      <trkpt lat="42.99916" lon="0.67075">
        <ele>558</ele>
        <time>2022-09-08T10:40:09Z</time>
      </trkpt>
      <trkpt lat="42.99919" lon="0.67081">
        <ele>558</ele>
        <time>2022-09-08T10:40:13Z</time>
      </trkpt>
      <trkpt lat="42.99921" lon="0.67084">
        <ele>558</ele>
        <time>2022-09-08T10:40:15Z</time>
      </trkpt>
      <trkpt lat="42.99922" lon="0.67087">
        <ele>558</ele>
        <time>2022-09-08T10:40:17Z</time>
      </trkpt>
      <trkpt lat="42.99922" lon="0.67091">
        <ele>558</ele>
        <time>2022-09-08T10:40:19Z</time>
      </trkpt>
      <trkpt lat="42.99923" lon="0.67094">
        <ele>558</ele>
        <time>2022-09-08T10:40:22Z</time>
      </trkpt>
      <trkpt lat="42.99924" lon="0.67096">
        <ele>557</ele>
        <time>2022-09-08T10:40:23Z</time>
      </trkpt>
      <trkpt lat="42.99926" lon="0.67099">
        <ele>557</ele>
        <time>2022-09-08T10:40:25Z</time>
      </trkpt>
      <trkpt lat="42.99927" lon="0.67102">
        <ele>557</ele>
        <time>2022-09-08T10:40:27Z</time>
      </trkpt>
      <trkpt lat="42.99928" lon="0.67105">
        <ele>557</ele>
        <time>2022-09-08T10:40:29Z</time>
      </trkpt>
      <trkpt lat="42.9993" lon="0.67107">
        <ele>557</ele>
        <time>2022-09-08T10:40:31Z</time>
      </trkpt>
      <trkpt lat="42.99931" lon="0.67109">
        <ele>556</ele>
        <time>2022-09-08T10:40:33Z</time>
      </trkpt>
      <trkpt lat="42.99932" lon="0.67112">
        <ele>556</ele>
        <time>2022-09-08T10:40:35Z</time>
      </trkpt>
      <trkpt lat="42.99934" lon="0.67115">
        <ele>556</ele>
        <time>2022-09-08T10:40:37Z</time>
      </trkpt>
      <trkpt lat="42.99936" lon="0.67117">
        <ele>556</ele>
        <time>2022-09-08T10:40:39Z</time>
      </trkpt>
      <trkpt lat="42.99937" lon="0.67119">
        <ele>556</ele>
        <time>2022-09-08T10:40:41Z</time>
      </trkpt>
      <trkpt lat="42.99939" lon="0.67121">
        <ele>556</ele>
        <time>2022-09-08T10:40:43Z</time>
      </trkpt>
      <trkpt lat="42.99941" lon="0.67123">
        <ele>556</ele>
        <time>2022-09-08T10:40:45Z</time>
      </trkpt>
      <trkpt lat="42.99943" lon="0.67125">
        <ele>556</ele>
        <time>2022-09-08T10:40:47Z</time>
      </trkpt>
      <trkpt lat="42.99945" lon="0.67127">
        <ele>556</ele>
        <time>2022-09-08T10:40:49Z</time>
      </trkpt>
      <trkpt lat="42.99947" lon="0.67128">
        <ele>556</ele>
        <time>2022-09-08T10:40:51Z</time>
      </trkpt>
      <trkpt lat="42.99949" lon="0.67129">
        <ele>556</ele>
        <time>2022-09-08T10:40:53Z</time>
      </trkpt>
      <trkpt lat="42.99951" lon="0.67131">
        <ele>556</ele>
        <time>2022-09-08T10:40:55Z</time>
      </trkpt>
      <trkpt lat="42.99953" lon="0.67133">
        <ele>556</ele>
        <time>2022-09-08T10:40:57Z</time>
      </trkpt>
      <trkpt lat="42.99955" lon="0.67134">
        <ele>556</ele>
        <time>2022-09-08T10:40:59Z</time>
      </trkpt>
      <trkpt lat="42.99956" lon="0.67136">
        <ele>555</ele>
        <time>2022-09-08T10:41:02Z</time>
      </trkpt>
      <trkpt lat="42.99959" lon="0.67137">
        <ele>555</ele>
        <time>2022-09-08T10:41:07Z</time>
      </trkpt>
      <trkpt lat="42.99961" lon="0.6714">
        <ele>555</ele>
        <time>2022-09-08T10:41:10Z</time>
      </trkpt>
      <trkpt lat="42.99962" lon="0.67141">
        <ele>555</ele>
        <time>2022-09-08T10:41:16Z</time>
      </trkpt>
      <trkpt lat="42.99963" lon="0.67143">
        <ele>555</ele>
        <time>2022-09-08T10:41:20Z</time>
      </trkpt>
      <trkpt lat="42.99964" lon="0.67145">
        <ele>555</ele>
        <time>2022-09-08T10:41:25Z</time>
      </trkpt>
      <trkpt lat="42.99965" lon="0.67148">
        <ele>555</ele>
        <time>2022-09-08T10:41:30Z</time>
      </trkpt>
      <trkpt lat="42.99964" lon="0.6715">
        <ele>556</ele>
        <time>2022-09-08T10:41:36Z</time>
      </trkpt>
      <trkpt lat="42.99963" lon="0.67153">
        <ele>556</ele>
        <time>2022-09-08T10:41:40Z</time>
      </trkpt>
      <trkpt lat="42.99962" lon="0.67156">
        <ele>556</ele>
        <time>2022-09-08T10:41:44Z</time>
      </trkpt>
      <trkpt lat="42.99962" lon="0.67158">
        <ele>556</ele>
        <time>2022-09-08T10:41:56Z</time>
      </trkpt>
      <trkpt lat="42.99962" lon="0.67162">
        <ele>556</ele>
        <time>2022-09-08T10:41:58Z</time>
      </trkpt>
      <trkpt lat="42.99961" lon="0.67165">
        <ele>556</ele>
        <time>2022-09-08T10:42:00Z</time>
      </trkpt>
      <trkpt lat="42.99961" lon="0.67167">
        <ele>556</ele>
        <time>2022-09-08T10:42:03Z</time>
      </trkpt>
      <trkpt lat="42.99961" lon="0.6717">
        <ele>556</ele>
        <time>2022-09-08T10:42:04Z</time>
      </trkpt>
      <trkpt lat="42.99962" lon="0.67173">
        <ele>554</ele>
        <time>2022-09-08T10:42:35Z</time>
      </trkpt>
      <trkpt lat="42.99962" lon="0.67175">
        <ele>553</ele>
        <time>2022-09-08T10:43:34Z</time>
      </trkpt>
      <trkpt lat="42.99962" lon="0.67178">
        <ele>553</ele>
        <time>2022-09-08T10:43:37Z</time>
      </trkpt>
      <trkpt lat="42.99963" lon="0.67181">
        <ele>553</ele>
        <time>2022-09-08T10:43:40Z</time>
      </trkpt>
      <trkpt lat="42.99964" lon="0.67183">
        <ele>553</ele>
        <time>2022-09-08T10:43:43Z</time>
      </trkpt>
      <trkpt lat="42.99967" lon="0.67184">
        <ele>553</ele>
        <time>2022-09-08T10:43:47Z</time>
      </trkpt>
      <trkpt lat="42.99988" lon="0.67187">
        <ele>552</ele>
        <time>2022-09-08T10:44:12Z</time>
      </trkpt>
      <trkpt lat="42.99991" lon="0.67187">
        <ele>552</ele>
        <time>2022-09-08T10:44:15Z</time>
      </trkpt>
      <trkpt lat="42.99992" lon="0.6719">
        <ele>552</ele>
        <time>2022-09-08T10:44:18Z</time>
      </trkpt>
      <trkpt lat="42.99993" lon="0.67192">
        <ele>552</ele>
        <time>2022-09-08T10:44:21Z</time>
      </trkpt>
      <trkpt lat="42.99994" lon="0.67195">
        <ele>553</ele>
        <time>2022-09-08T10:44:23Z</time>
      </trkpt>
      <trkpt lat="42.99995" lon="0.67197">
        <ele>553</ele>
        <time>2022-09-08T10:44:25Z</time>
      </trkpt>
      <trkpt lat="42.99996" lon="0.672">
        <ele>553</ele>
        <time>2022-09-08T10:44:28Z</time>
      </trkpt>
      <trkpt lat="42.99997" lon="0.67203">
        <ele>553</ele>
        <time>2022-09-08T10:44:31Z</time>
      </trkpt>
      <trkpt lat="42.99997" lon="0.67206">
        <ele>553</ele>
        <time>2022-09-08T10:44:33Z</time>
      </trkpt>
      <trkpt lat="42.99996" lon="0.67209">
        <ele>553</ele>
        <time>2022-09-08T10:44:35Z</time>
      </trkpt>
      <trkpt lat="42.99997" lon="0.67212">
        <ele>553</ele>
        <time>2022-09-08T10:44:38Z</time>
      </trkpt>
      <trkpt lat="42.99998" lon="0.67215">
        <ele>553</ele>
        <time>2022-09-08T10:44:40Z</time>
      </trkpt>
      <trkpt lat="42.99998" lon="0.67218">
        <ele>552</ele>
        <time>2022-09-08T10:44:42Z</time>
      </trkpt>
      <trkpt lat="42.99998" lon="0.67221">
        <ele>552</ele>
        <time>2022-09-08T10:44:44Z</time>
      </trkpt>
      <trkpt lat="42.99998" lon="0.67224">
        <ele>552</ele>
        <time>2022-09-08T10:44:48Z</time>
      </trkpt>
      <trkpt lat="42.99997" lon="0.67229">
        <ele>552</ele>
        <time>2022-09-08T10:44:50Z</time>
      </trkpt>
      <trkpt lat="42.99997" lon="0.67231">
        <ele>552</ele>
        <time>2022-09-08T10:44:52Z</time>
      </trkpt>
      <trkpt lat="42.99998" lon="0.67233">
        <ele>552</ele>
        <time>2022-09-08T10:44:55Z</time>
      </trkpt>
      <trkpt lat="43.00001" lon="0.67233">
        <ele>552</ele>
        <time>2022-09-08T10:44:58Z</time>
      </trkpt>
      <trkpt lat="43.00005" lon="0.67236">
        <ele>552</ele>
        <time>2022-09-08T10:45:01Z</time>
      </trkpt>
      <trkpt lat="43.00006" lon="0.67238">
        <ele>550</ele>
        <time>2022-09-08T10:45:02Z</time>
      </trkpt>
      <trkpt lat="43.00008" lon="0.6724">
        <ele>550</ele>
        <time>2022-09-08T10:45:03Z</time>
      </trkpt>
      <trkpt lat="43.00009" lon="0.67243">
        <ele>550</ele>
        <time>2022-09-08T10:45:04Z</time>
      </trkpt>
      <trkpt lat="43.0001" lon="0.67247">
        <ele>550</ele>
        <time>2022-09-08T10:45:06Z</time>
      </trkpt>
      <trkpt lat="43.0001" lon="0.6725">
        <ele>550</ele>
        <time>2022-09-08T10:45:10Z</time>
      </trkpt>
      <trkpt lat="43.00008" lon="0.67254">
        <ele>548</ele>
        <time>2022-09-08T10:45:12Z</time>
      </trkpt>
      <trkpt lat="43.00006" lon="0.67257">
        <ele>548</ele>
        <time>2022-09-08T10:45:14Z</time>
      </trkpt>
      <trkpt lat="43.00005" lon="0.67258">
        <ele>548</ele>
        <time>2022-09-08T10:45:15Z</time>
      </trkpt>
      <trkpt lat="43.00003" lon="0.67261">
        <ele>548</ele>
        <time>2022-09-08T10:45:16Z</time>
      </trkpt>
      <trkpt lat="43.00003" lon="0.67264">
        <ele>547</ele>
        <time>2022-09-08T10:45:24Z</time>
      </trkpt>
      <trkpt lat="43.00001" lon="0.67266">
        <ele>547</ele>
        <time>2022-09-08T10:45:30Z</time>
      </trkpt>
      <trkpt lat="43" lon="0.67268">
        <ele>547</ele>
        <time>2022-09-08T10:45:33Z</time>
      </trkpt>
      <trkpt lat="42.99998" lon="0.67271">
        <ele>547</ele>
        <time>2022-09-08T10:45:35Z</time>
      </trkpt>
      <trkpt lat="42.99996" lon="0.67274">
        <ele>547</ele>
        <time>2022-09-08T10:45:37Z</time>
      </trkpt>
      <trkpt lat="42.99995" lon="0.67276">
        <ele>547</ele>
        <time>2022-09-08T10:45:37Z</time>
      </trkpt>
      <trkpt lat="42.99994" lon="0.67279">
        <ele>547</ele>
        <time>2022-09-08T10:45:38Z</time>
      </trkpt>
      <trkpt lat="42.99993" lon="0.67281">
        <ele>547</ele>
        <time>2022-09-08T10:45:39Z</time>
      </trkpt>
      <trkpt lat="42.99992" lon="0.67285">
        <ele>547</ele>
        <time>2022-09-08T10:45:41Z</time>
      </trkpt>
      <trkpt lat="42.99993" lon="0.67287">
        <ele>547</ele>
        <time>2022-09-08T10:45:44Z</time>
      </trkpt>
      <trkpt lat="42.99993" lon="0.67291">
        <ele>547</ele>
        <time>2022-09-08T10:45:50Z</time>
      </trkpt>
      <trkpt lat="42.99991" lon="0.67294">
        <ele>547</ele>
        <time>2022-09-08T10:45:50Z</time>
      </trkpt>
      <trkpt lat="42.9999" lon="0.67296">
        <ele>547</ele>
        <time>2022-09-08T10:45:51Z</time>
      </trkpt>
      <trkpt lat="42.99988" lon="0.67298">
        <ele>547</ele>
        <time>2022-09-08T10:45:53Z</time>
      </trkpt>
      <trkpt lat="42.99987" lon="0.67301">
        <ele>547</ele>
        <time>2022-09-08T10:45:57Z</time>
      </trkpt>
      <trkpt lat="42.99986" lon="0.67303">
        <ele>547</ele>
        <time>2022-09-08T10:46:00Z</time>
      </trkpt>
      <trkpt lat="42.99987" lon="0.67306">
        <ele>547</ele>
        <time>2022-09-08T10:46:02Z</time>
      </trkpt>
      <trkpt lat="42.99987" lon="0.67308">
        <ele>547</ele>
        <time>2022-09-08T10:46:04Z</time>
      </trkpt>
      <trkpt lat="42.99989" lon="0.6731">
        <ele>547</ele>
        <time>2022-09-08T10:46:08Z</time>
      </trkpt>
      <trkpt lat="42.9999" lon="0.67313">
        <ele>546</ele>
        <time>2022-09-08T10:46:13Z</time>
      </trkpt>
      <trkpt lat="42.99992" lon="0.67313">
        <ele>546</ele>
        <time>2022-09-08T10:46:15Z</time>
      </trkpt>
      <trkpt lat="42.9999" lon="0.67315">
        <ele>544</ele>
        <time>2022-09-08T10:46:55Z</time>
      </trkpt>
      <trkpt lat="42.99988" lon="0.67313">
        <ele>544</ele>
        <time>2022-09-08T10:46:57Z</time>
      </trkpt>
      <trkpt lat="42.99986" lon="0.67311">
        <ele>544</ele>
        <time>2022-09-08T10:46:59Z</time>
      </trkpt>
      <trkpt lat="42.99986" lon="0.67308">
        <ele>544</ele>
        <time>2022-09-08T10:47:01Z</time>
      </trkpt>
      <trkpt lat="42.99986" lon="0.67305">
        <ele>544</ele>
        <time>2022-09-08T10:47:03Z</time>
      </trkpt>
      <trkpt lat="42.99986" lon="0.67302">
        <ele>544</ele>
        <time>2022-09-08T10:47:06Z</time>
      </trkpt>
      <trkpt lat="42.99988" lon="0.67301">
        <ele>545</ele>
        <time>2022-09-08T10:48:07Z</time>
      </trkpt>
      <trkpt lat="42.9999" lon="0.67301">
        <ele>544</ele>
        <time>2022-09-08T10:48:42Z</time>
      </trkpt>
      <trkpt lat="42.99992" lon="0.67303">
        <ele>544</ele>
        <time>2022-09-08T10:48:46Z</time>
      </trkpt>
      <trkpt lat="42.99991" lon="0.67305">
        <ele>544</ele>
        <time>2022-09-08T10:48:48Z</time>
      </trkpt>
      <trkpt lat="42.99991" lon="0.67308">
        <ele>544</ele>
        <time>2022-09-08T10:48:50Z</time>
      </trkpt>
      <trkpt lat="42.99991" lon="0.6731">
        <ele>544</ele>
        <time>2022-09-08T10:48:52Z</time>
      </trkpt>
      <trkpt lat="42.99993" lon="0.67313">
        <ele>544</ele>
        <time>2022-09-08T10:48:55Z</time>
      </trkpt>
      <trkpt lat="42.99994" lon="0.67313">
        <ele>544</ele>
        <time>2022-09-08T10:49:08Z</time>
      </trkpt>
      <trkpt lat="42.99996" lon="0.67314">
        <ele>544</ele>
        <time>2022-09-08T10:49:11Z</time>
      </trkpt>
      <trkpt lat="42.99998" lon="0.67312">
        <ele>544</ele>
        <time>2022-09-08T10:49:14Z</time>
      </trkpt>
      <trkpt lat="43" lon="0.67313">
        <ele>544</ele>
        <time>2022-09-08T10:49:19Z</time>
      </trkpt>
      <trkpt lat="43.00001" lon="0.67315">
        <ele>544</ele>
        <time>2022-09-08T10:50:01Z</time>
      </trkpt>
      <trkpt lat="43.00001" lon="0.67317">
        <ele>544</ele>
        <time>2022-09-08T10:51:18Z</time>
      </trkpt>
      <trkpt lat="43" lon="0.6732">
        <ele>544</ele>
        <time>2022-09-08T10:51:51Z</time>
      </trkpt>
      <trkpt lat="43.00002" lon="0.67319">
        <ele>543</ele>
        <time>2022-09-08T10:53:33Z</time>
      </trkpt>
      <trkpt lat="43" lon="0.67319">
        <ele>544</ele>
        <time>2022-09-08T11:15:12Z</time>
      </trkpt>
      <trkpt lat="42.99997" lon="0.67318">
        <ele>544</ele>
        <time>2022-09-08T11:15:15Z</time>
      </trkpt>
      <trkpt lat="42.99995" lon="0.67316">
        <ele>544</ele>
        <time>2022-09-08T11:15:17Z</time>
      </trkpt>
      <trkpt lat="42.99994" lon="0.67315">
        <ele>544</ele>
        <time>2022-09-08T11:15:19Z</time>
      </trkpt>
      <trkpt lat="42.99996" lon="0.67315">
        <ele>543</ele>
        <time>2022-09-08T11:15:33Z</time>
      </trkpt>
      <trkpt lat="42.99998" lon="0.67315">
        <ele>543</ele>
        <time>2022-09-08T11:15:37Z</time>
      </trkpt>
      <trkpt lat="42.99998" lon="0.67312">
        <ele>544</ele>
        <time>2022-09-08T11:15:53Z</time>
      </trkpt>
      <trkpt lat="42.99996" lon="0.67312">
        <ele>544</ele>
        <time>2022-09-08T11:15:59Z</time>
      </trkpt>
      <trkpt lat="42.99994" lon="0.67311">
        <ele>544</ele>
        <time>2022-09-08T11:16:01Z</time>
      </trkpt>
      <trkpt lat="42.99993" lon="0.67309">
        <ele>544</ele>
        <time>2022-09-08T11:16:06Z</time>
      </trkpt>
      <trkpt lat="42.99994" lon="0.67308">
        <ele>544</ele>
        <time>2022-09-08T11:16:14Z</time>
      </trkpt>
      <trkpt lat="42.99996" lon="0.67309">
        <ele>543</ele>
        <time>2022-09-08T11:16:29Z</time>
      </trkpt>
      <trkpt lat="42.99994" lon="0.6731">
        <ele>544</ele>
        <time>2022-09-08T11:16:43Z</time>
      </trkpt>
      <trkpt lat="42.99994" lon="0.67313">
        <ele>544</ele>
        <time>2022-09-08T11:17:52Z</time>
      </trkpt>
      <trkpt lat="42.99995" lon="0.67315">
        <ele>544</ele>
        <time>2022-09-08T11:18:08Z</time>
      </trkpt>
      <trkpt lat="42.99997" lon="0.67315">
        <ele>544</ele>
        <time>2022-09-08T11:18:13Z</time>
      </trkpt>
      <trkpt lat="42.99999" lon="0.67315">
        <ele>544</ele>
        <time>2022-09-08T11:18:32Z</time>
      </trkpt>
      <trkpt lat="42.99997" lon="0.67315">
        <ele>544</ele>
        <time>2022-09-08T11:18:50Z</time>
      </trkpt>
      <trkpt lat="42.99995" lon="0.67313">
        <ele>544</ele>
        <time>2022-09-08T11:19:03Z</time>
      </trkpt>
      <trkpt lat="42.99993" lon="0.67314">
        <ele>544</ele>
        <time>2022-09-08T11:19:28Z</time>
      </trkpt>
      <trkpt lat="42.99991" lon="0.67315">
        <ele>543</ele>
        <time>2022-09-08T11:19:46Z</time>
      </trkpt>
      <trkpt lat="42.9999" lon="0.67313">
        <ele>543</ele>
        <time>2022-09-08T11:19:50Z</time>
      </trkpt>
      <trkpt lat="42.99988" lon="0.67312">
        <ele>543</ele>
        <time>2022-09-08T11:19:53Z</time>
      </trkpt>
      <trkpt lat="42.99985" lon="0.67311">
        <ele>543</ele>
        <time>2022-09-08T11:19:57Z</time>
      </trkpt>
      <trkpt lat="42.99983" lon="0.6731">
        <ele>543</ele>
        <time>2022-09-08T11:19:58Z</time>
      </trkpt>
      <trkpt lat="42.99981" lon="0.67308">
        <ele>543</ele>
        <time>2022-09-08T11:20:00Z</time>
      </trkpt>
      <trkpt lat="42.9998" lon="0.67307">
        <ele>543</ele>
        <time>2022-09-08T11:20:02Z</time>
      </trkpt>
      <trkpt lat="42.99979" lon="0.67304">
        <ele>543</ele>
        <time>2022-09-08T11:20:04Z</time>
      </trkpt>
      <trkpt lat="42.99978" lon="0.67302">
        <ele>543</ele>
        <time>2022-09-08T11:20:07Z</time>
      </trkpt>
      <trkpt lat="42.99977" lon="0.673">
        <ele>543</ele>
        <time>2022-09-08T11:20:09Z</time>
      </trkpt>
      <trkpt lat="42.99976" lon="0.67297">
        <ele>543</ele>
        <time>2022-09-08T11:20:11Z</time>
      </trkpt>
      <trkpt lat="42.99975" lon="0.67295">
        <ele>543</ele>
        <time>2022-09-08T11:20:13Z</time>
      </trkpt>
      <trkpt lat="42.99975" lon="0.67292">
        <ele>543</ele>
        <time>2022-09-08T11:20:16Z</time>
      </trkpt>
      <trkpt lat="42.99974" lon="0.67289">
        <ele>543</ele>
        <time>2022-09-08T11:20:24Z</time>
      </trkpt>
      <trkpt lat="42.99973" lon="0.67287">
        <ele>543</ele>
        <time>2022-09-08T11:20:31Z</time>
      </trkpt>
      <trkpt lat="42.99972" lon="0.67284">
        <ele>543</ele>
        <time>2022-09-08T11:20:34Z</time>
      </trkpt>
      <trkpt lat="42.99969" lon="0.67282">
        <ele>543</ele>
        <time>2022-09-08T11:20:38Z</time>
      </trkpt>
      <trkpt lat="42.99967" lon="0.67282">
        <ele>543</ele>
        <time>2022-09-08T11:20:46Z</time>
      </trkpt>
      <trkpt lat="42.99965" lon="0.67281">
        <ele>543</ele>
        <time>2022-09-08T11:20:49Z</time>
      </trkpt>
      <trkpt lat="42.99963" lon="0.6728">
        <ele>543</ele>
        <time>2022-09-08T11:20:59Z</time>
      </trkpt>
      <trkpt lat="42.99961" lon="0.67279">
        <ele>544</ele>
        <time>2022-09-08T11:21:03Z</time>
      </trkpt>
      <trkpt lat="42.99959" lon="0.67278">
        <ele>544</ele>
        <time>2022-09-08T11:21:15Z</time>
      </trkpt>
      <trkpt lat="42.99957" lon="0.67278">
        <ele>544</ele>
        <time>2022-09-08T11:21:19Z</time>
      </trkpt>
      <trkpt lat="42.99954" lon="0.67278">
        <ele>543</ele>
        <time>2022-09-08T11:21:23Z</time>
      </trkpt>
      <trkpt lat="42.99953" lon="0.67279">
        <ele>543</ele>
        <time>2022-09-08T11:21:26Z</time>
      </trkpt>
      <trkpt lat="42.99951" lon="0.67279">
        <ele>543</ele>
        <time>2022-09-08T11:21:29Z</time>
      </trkpt>
      <trkpt lat="42.99949" lon="0.67276">
        <ele>543</ele>
        <time>2022-09-08T11:21:32Z</time>
      </trkpt>
      <trkpt lat="42.99947" lon="0.67276">
        <ele>543</ele>
        <time>2022-09-08T11:21:34Z</time>
      </trkpt>
      <trkpt lat="42.99945" lon="0.67276">
        <ele>543</ele>
        <time>2022-09-08T11:21:37Z</time>
      </trkpt>
      <trkpt lat="42.99943" lon="0.67276">
        <ele>543</ele>
        <time>2022-09-08T11:21:44Z</time>
      </trkpt>
      <trkpt lat="42.99941" lon="0.67276">
        <ele>543</ele>
        <time>2022-09-08T11:21:47Z</time>
      </trkpt>
      <trkpt lat="42.99938" lon="0.67274">
        <ele>543</ele>
        <time>2022-09-08T11:21:48Z</time>
      </trkpt>
      <trkpt lat="42.99936" lon="0.67274">
        <ele>543</ele>
        <time>2022-09-08T11:21:51Z</time>
      </trkpt>
      <trkpt lat="42.99934" lon="0.67273">
        <ele>543</ele>
        <time>2022-09-08T11:21:52Z</time>
      </trkpt>
      <trkpt lat="42.99931" lon="0.67272">
        <ele>543</ele>
        <time>2022-09-08T11:21:54Z</time>
      </trkpt>
      <trkpt lat="42.99929" lon="0.67271">
        <ele>543</ele>
        <time>2022-09-08T11:21:56Z</time>
      </trkpt>
      <trkpt lat="42.99927" lon="0.6727">
        <ele>543</ele>
        <time>2022-09-08T11:21:58Z</time>
      </trkpt>
      <trkpt lat="42.99924" lon="0.67269">
        <ele>543</ele>
        <time>2022-09-08T11:22:00Z</time>
      </trkpt>
      <trkpt lat="42.99922" lon="0.67268">
        <ele>544</ele>
        <time>2022-09-08T11:22:02Z</time>
      </trkpt>
      <trkpt lat="42.9992" lon="0.67266">
        <ele>544</ele>
        <time>2022-09-08T11:22:04Z</time>
      </trkpt>
      <trkpt lat="42.99918" lon="0.67265">
        <ele>544</ele>
        <time>2022-09-08T11:22:06Z</time>
      </trkpt>
      <trkpt lat="42.99916" lon="0.67263">
        <ele>544</ele>
        <time>2022-09-08T11:22:08Z</time>
      </trkpt>
      <trkpt lat="42.99915" lon="0.67262">
        <ele>544</ele>
        <time>2022-09-08T11:22:10Z</time>
      </trkpt>
      <trkpt lat="42.99913" lon="0.67262">
        <ele>543</ele>
        <time>2022-09-08T11:22:12Z</time>
      </trkpt>
      <trkpt lat="42.99911" lon="0.67262">
        <ele>543</ele>
        <time>2022-09-08T11:22:21Z</time>
      </trkpt>
      <trkpt lat="42.99909" lon="0.67261">
        <ele>541</ele>
        <time>2022-09-08T11:22:23Z</time>
      </trkpt>
      <trkpt lat="42.99907" lon="0.6726">
        <ele>541</ele>
        <time>2022-09-08T11:22:26Z</time>
      </trkpt>
      <trkpt lat="42.99905" lon="0.67259">
        <ele>541</ele>
        <time>2022-09-08T11:22:29Z</time>
      </trkpt>
      <trkpt lat="42.99903" lon="0.67257">
        <ele>542</ele>
        <time>2022-09-08T11:22:52Z</time>
      </trkpt>
      <trkpt lat="42.99902" lon="0.67254">
        <ele>542</ele>
        <time>2022-09-08T11:22:56Z</time>
      </trkpt>
      <trkpt lat="42.99904" lon="0.67257">
        <ele>541</ele>
        <time>2022-09-08T11:24:18Z</time>
      </trkpt>
      <trkpt lat="42.99903" lon="0.6726">
        <ele>541</ele>
        <time>2022-09-08T11:24:21Z</time>
      </trkpt>
      <trkpt lat="42.99902" lon="0.67262">
        <ele>541</ele>
        <time>2022-09-08T11:24:23Z</time>
      </trkpt>
      <trkpt lat="42.99901" lon="0.67264">
        <ele>541</ele>
        <time>2022-09-08T11:24:25Z</time>
      </trkpt>
      <trkpt lat="42.99899" lon="0.67267">
        <ele>541</ele>
        <time>2022-09-08T11:24:28Z</time>
      </trkpt>
      <trkpt lat="42.99898" lon="0.67269">
        <ele>541</ele>
        <time>2022-09-08T11:24:30Z</time>
      </trkpt>
      <trkpt lat="42.99896" lon="0.6727">
        <ele>540</ele>
        <time>2022-09-08T11:24:32Z</time>
      </trkpt>
      <trkpt lat="42.99894" lon="0.67271">
        <ele>540</ele>
        <time>2022-09-08T11:24:34Z</time>
      </trkpt>
      <trkpt lat="42.99892" lon="0.67272">
        <ele>540</ele>
        <time>2022-09-08T11:24:36Z</time>
      </trkpt>
      <trkpt lat="42.99889" lon="0.67274">
        <ele>540</ele>
        <time>2022-09-08T11:24:38Z</time>
      </trkpt>
      <trkpt lat="42.99887" lon="0.67275">
        <ele>540</ele>
        <time>2022-09-08T11:24:40Z</time>
      </trkpt>
      <trkpt lat="42.99885" lon="0.67276">
        <ele>539</ele>
        <time>2022-09-08T11:24:42Z</time>
      </trkpt>
      <trkpt lat="42.99883" lon="0.67276">
        <ele>539</ele>
        <time>2022-09-08T11:24:44Z</time>
      </trkpt>
      <trkpt lat="42.99882" lon="0.67278">
        <ele>539</ele>
        <time>2022-09-08T11:24:47Z</time>
      </trkpt>
      <trkpt lat="42.9988" lon="0.67279">
        <ele>539</ele>
        <time>2022-09-08T11:24:49Z</time>
      </trkpt>
      <trkpt lat="42.99877" lon="0.67279">
        <ele>539</ele>
        <time>2022-09-08T11:24:51Z</time>
      </trkpt>
      <trkpt lat="42.99875" lon="0.6728">
        <ele>538</ele>
        <time>2022-09-08T11:24:53Z</time>
      </trkpt>
      <trkpt lat="42.99872" lon="0.6728">
        <ele>538</ele>
        <time>2022-09-08T11:24:55Z</time>
      </trkpt>
      <trkpt lat="42.9987" lon="0.67281">
        <ele>538</ele>
        <time>2022-09-08T11:24:57Z</time>
      </trkpt>
      <trkpt lat="42.99868" lon="0.67281">
        <ele>538</ele>
        <time>2022-09-08T11:24:59Z</time>
      </trkpt>
      <trkpt lat="42.99866" lon="0.67282">
        <ele>538</ele>
        <time>2022-09-08T11:25:01Z</time>
      </trkpt>
      <trkpt lat="42.99863" lon="0.67283">
        <ele>538</ele>
        <time>2022-09-08T11:25:03Z</time>
      </trkpt>
      <trkpt lat="42.99861" lon="0.67283">
        <ele>538</ele>
        <time>2022-09-08T11:25:05Z</time>
      </trkpt>
      <trkpt lat="42.99859" lon="0.67285">
        <ele>538</ele>
        <time>2022-09-08T11:25:07Z</time>
      </trkpt>
      <trkpt lat="42.99856" lon="0.67285">
        <ele>538</ele>
        <time>2022-09-08T11:25:09Z</time>
      </trkpt>
      <trkpt lat="42.99854" lon="0.67287">
        <ele>538</ele>
        <time>2022-09-08T11:25:11Z</time>
      </trkpt>
      <trkpt lat="42.99851" lon="0.67287">
        <ele>538</ele>
        <time>2022-09-08T11:25:13Z</time>
      </trkpt>
      <trkpt lat="42.99849" lon="0.67289">
        <ele>538</ele>
        <time>2022-09-08T11:25:15Z</time>
      </trkpt>
      <trkpt lat="42.99847" lon="0.67289">
        <ele>538</ele>
        <time>2022-09-08T11:25:17Z</time>
      </trkpt>
      <trkpt lat="42.99844" lon="0.67291">
        <ele>538</ele>
        <time>2022-09-08T11:25:19Z</time>
      </trkpt>
      <trkpt lat="42.99842" lon="0.67292">
        <ele>538</ele>
        <time>2022-09-08T11:25:21Z</time>
      </trkpt>
      <trkpt lat="42.9984" lon="0.67294">
        <ele>538</ele>
        <time>2022-09-08T11:25:23Z</time>
      </trkpt>
      <trkpt lat="42.99838" lon="0.67295">
        <ele>538</ele>
        <time>2022-09-08T11:25:25Z</time>
      </trkpt>
      <trkpt lat="42.99835" lon="0.67297">
        <ele>538</ele>
        <time>2022-09-08T11:25:27Z</time>
      </trkpt>
      <trkpt lat="42.99833" lon="0.67298">
        <ele>538</ele>
        <time>2022-09-08T11:25:29Z</time>
      </trkpt>
      <trkpt lat="42.9983" lon="0.67298">
        <ele>538</ele>
        <time>2022-09-08T11:25:31Z</time>
      </trkpt>
      <trkpt lat="42.99828" lon="0.67299">
        <ele>536</ele>
        <time>2022-09-08T11:25:33Z</time>
      </trkpt>
      <trkpt lat="42.99825" lon="0.67299">
        <ele>536</ele>
        <time>2022-09-08T11:25:35Z</time>
      </trkpt>
      <trkpt lat="42.99823" lon="0.67299">
        <ele>536</ele>
        <time>2022-09-08T11:25:37Z</time>
      </trkpt>
      <trkpt lat="42.99821" lon="0.67299">
        <ele>536</ele>
        <time>2022-09-08T11:25:39Z</time>
      </trkpt>
      <trkpt lat="42.99819" lon="0.673">
        <ele>536</ele>
        <time>2022-09-08T11:25:41Z</time>
      </trkpt>
      <trkpt lat="42.99816" lon="0.673">
        <ele>535</ele>
        <time>2022-09-08T11:25:43Z</time>
      </trkpt>
      <trkpt lat="42.99814" lon="0.67301">
        <ele>535</ele>
        <time>2022-09-08T11:25:46Z</time>
      </trkpt>
      <trkpt lat="42.99812" lon="0.67302">
        <ele>535</ele>
        <time>2022-09-08T11:25:48Z</time>
      </trkpt>
      <trkpt lat="42.99809" lon="0.67303">
        <ele>535</ele>
        <time>2022-09-08T11:25:50Z</time>
      </trkpt>
      <trkpt lat="42.99808" lon="0.67304">
        <ele>536</ele>
        <time>2022-09-08T11:25:52Z</time>
      </trkpt>
      <trkpt lat="42.99805" lon="0.67305">
        <ele>536</ele>
        <time>2022-09-08T11:25:55Z</time>
      </trkpt>
      <trkpt lat="42.99804" lon="0.67306">
        <ele>536</ele>
        <time>2022-09-08T11:25:56Z</time>
      </trkpt>
      <trkpt lat="42.99801" lon="0.67305">
        <ele>536</ele>
        <time>2022-09-08T11:25:59Z</time>
      </trkpt>
      <trkpt lat="42.998" lon="0.67305">
        <ele>536</ele>
        <time>2022-09-08T11:26:05Z</time>
      </trkpt>
      <trkpt lat="42.99799" lon="0.67302">
        <ele>536</ele>
        <time>2022-09-08T11:26:09Z</time>
      </trkpt>
      <trkpt lat="42.99799" lon="0.67299">
        <ele>536</ele>
        <time>2022-09-08T11:26:11Z</time>
      </trkpt>
      <trkpt lat="42.99799" lon="0.67296">
        <ele>536</ele>
        <time>2022-09-08T11:26:14Z</time>
      </trkpt>
      <trkpt lat="42.99798" lon="0.67293">
        <ele>536</ele>
        <time>2022-09-08T11:26:17Z</time>
      </trkpt>
      <trkpt lat="42.99798" lon="0.6729">
        <ele>536</ele>
        <time>2022-09-08T11:26:20Z</time>
      </trkpt>
      <trkpt lat="42.99797" lon="0.67287">
        <ele>536</ele>
        <time>2022-09-08T11:26:22Z</time>
      </trkpt>
      <trkpt lat="42.99797" lon="0.67284">
        <ele>536</ele>
        <time>2022-09-08T11:26:26Z</time>
      </trkpt>
      <trkpt lat="42.99797" lon="0.67281">
        <ele>537</ele>
        <time>2022-09-08T11:26:32Z</time>
      </trkpt>
      <trkpt lat="42.99796" lon="0.67282">
        <ele>538</ele>
        <time>2022-09-08T11:27:22Z</time>
      </trkpt>
      <trkpt lat="42.99796" lon="0.67284">
        <ele>538</ele>
        <time>2022-09-08T11:27:29Z</time>
      </trkpt>
      <trkpt lat="42.99796" lon="0.67287">
        <ele>538</ele>
        <time>2022-09-08T11:27:35Z</time>
      </trkpt>
      <trkpt lat="42.99798" lon="0.6729">
        <ele>538</ele>
        <time>2022-09-08T11:27:38Z</time>
      </trkpt>
      <trkpt lat="42.99799" lon="0.67292">
        <ele>538</ele>
        <time>2022-09-08T11:27:40Z</time>
      </trkpt>
      <trkpt lat="42.998" lon="0.67295">
        <ele>537</ele>
        <time>2022-09-08T11:27:42Z</time>
      </trkpt>
      <trkpt lat="42.99801" lon="0.67298">
        <ele>537</ele>
        <time>2022-09-08T11:27:44Z</time>
      </trkpt>
      <trkpt lat="42.99802" lon="0.67302">
        <ele>537</ele>
        <time>2022-09-08T11:27:46Z</time>
      </trkpt>
      <trkpt lat="42.998" lon="0.67306">
        <ele>537</ele>
        <time>2022-09-08T11:27:48Z</time>
      </trkpt>
      <trkpt lat="42.99798" lon="0.67308">
        <ele>537</ele>
        <time>2022-09-08T11:27:50Z</time>
      </trkpt>
      <trkpt lat="42.99796" lon="0.6731">
        <ele>537</ele>
        <time>2022-09-08T11:27:52Z</time>
      </trkpt>
      <trkpt lat="42.99794" lon="0.67312">
        <ele>537</ele>
        <time>2022-09-08T11:27:54Z</time>
      </trkpt>
      <trkpt lat="42.99787" lon="0.6731">
        <ele>537</ele>
        <time>2022-09-08T11:28:13Z</time>
      </trkpt>
      <trkpt lat="42.99788" lon="0.67313">
        <ele>536</ele>
        <time>2022-09-08T11:28:46Z</time>
      </trkpt>
      <trkpt lat="42.9979" lon="0.67316">
        <ele>536</ele>
        <time>2022-09-08T11:29:08Z</time>
      </trkpt>
      <trkpt lat="42.99787" lon="0.67315">
        <ele>536</ele>
        <time>2022-09-08T11:29:12Z</time>
      </trkpt>
      <trkpt lat="42.99785" lon="0.67315">
        <ele>536</ele>
        <time>2022-09-08T11:29:14Z</time>
      </trkpt>
      <trkpt lat="42.99784" lon="0.67315">
        <ele>536</ele>
        <time>2022-09-08T11:29:16Z</time>
      </trkpt>
      <trkpt lat="42.99781" lon="0.67315">
        <ele>536</ele>
        <time>2022-09-08T11:29:17Z</time>
      </trkpt>
      <trkpt lat="42.99779" lon="0.67316">
        <ele>536</ele>
        <time>2022-09-08T11:29:19Z</time>
      </trkpt>
      <trkpt lat="42.99777" lon="0.67318">
        <ele>536</ele>
        <time>2022-09-08T11:29:21Z</time>
      </trkpt>
      <trkpt lat="42.99775" lon="0.67319">
        <ele>536</ele>
        <time>2022-09-08T11:29:23Z</time>
      </trkpt>
      <trkpt lat="42.99772" lon="0.67321">
        <ele>536</ele>
        <time>2022-09-08T11:29:25Z</time>
      </trkpt>
      <trkpt lat="42.9977" lon="0.67321">
        <ele>536</ele>
        <time>2022-09-08T11:29:27Z</time>
      </trkpt>
      <trkpt lat="42.99767" lon="0.67322">
        <ele>536</ele>
        <time>2022-09-08T11:29:29Z</time>
      </trkpt>
      <trkpt lat="42.99765" lon="0.67323">
        <ele>536</ele>
        <time>2022-09-08T11:29:31Z</time>
      </trkpt>
      <trkpt lat="42.99762" lon="0.67325">
        <ele>536</ele>
        <time>2022-09-08T11:29:33Z</time>
      </trkpt>
      <trkpt lat="42.9976" lon="0.67326">
        <ele>536</ele>
        <time>2022-09-08T11:29:34Z</time>
      </trkpt>
      <trkpt lat="42.99758" lon="0.67327">
        <ele>536</ele>
        <time>2022-09-08T11:29:35Z</time>
      </trkpt>
      <trkpt lat="42.99756" lon="0.67329">
        <ele>536</ele>
        <time>2022-09-08T11:29:37Z</time>
      </trkpt>
      <trkpt lat="42.99753" lon="0.67332">
        <ele>536</ele>
        <time>2022-09-08T11:29:39Z</time>
      </trkpt>
      <trkpt lat="42.99749" lon="0.67333">
        <ele>536</ele>
        <time>2022-09-08T11:29:41Z</time>
      </trkpt>
      <trkpt lat="42.99746" lon="0.67335">
        <ele>536</ele>
        <time>2022-09-08T11:29:43Z</time>
      </trkpt>
      <trkpt lat="42.99743" lon="0.67338">
        <ele>536</ele>
        <time>2022-09-08T11:29:45Z</time>
      </trkpt>
      <trkpt lat="42.9974" lon="0.6734">
        <ele>536</ele>
        <time>2022-09-08T11:29:47Z</time>
      </trkpt>
      <trkpt lat="42.99738" lon="0.67341">
        <ele>536</ele>
        <time>2022-09-08T11:29:49Z</time>
      </trkpt>
      <trkpt lat="42.99735" lon="0.67343">
        <ele>536</ele>
        <time>2022-09-08T11:29:51Z</time>
      </trkpt>
      <trkpt lat="42.99732" lon="0.67345">
        <ele>535</ele>
        <time>2022-09-08T11:29:53Z</time>
      </trkpt>
      <trkpt lat="42.9973" lon="0.67346">
        <ele>535</ele>
        <time>2022-09-08T11:29:55Z</time>
      </trkpt>
      <trkpt lat="42.99728" lon="0.67348">
        <ele>535</ele>
        <time>2022-09-08T11:29:58Z</time>
      </trkpt>
      <trkpt lat="42.99725" lon="0.67349">
        <ele>535</ele>
        <time>2022-09-08T11:30:00Z</time>
      </trkpt>
      <trkpt lat="42.99723" lon="0.6735">
        <ele>535</ele>
        <time>2022-09-08T11:30:01Z</time>
      </trkpt>
      <trkpt lat="42.9972" lon="0.67352">
        <ele>535</ele>
        <time>2022-09-08T11:30:03Z</time>
      </trkpt>
      <trkpt lat="42.99718" lon="0.67352">
        <ele>535</ele>
        <time>2022-09-08T11:30:05Z</time>
      </trkpt>
      <trkpt lat="42.99716" lon="0.67353">
        <ele>535</ele>
        <time>2022-09-08T11:30:08Z</time>
      </trkpt>
      <trkpt lat="42.99714" lon="0.67354">
        <ele>535</ele>
        <time>2022-09-08T11:30:09Z</time>
      </trkpt>
      <trkpt lat="42.99712" lon="0.67355">
        <ele>535</ele>
        <time>2022-09-08T11:30:11Z</time>
      </trkpt>
      <trkpt lat="42.9971" lon="0.67355">
        <ele>536</ele>
        <time>2022-09-08T11:30:13Z</time>
      </trkpt>
      <trkpt lat="42.99707" lon="0.67359">
        <ele>536</ele>
        <time>2022-09-08T11:30:16Z</time>
      </trkpt>
      <trkpt lat="42.99704" lon="0.67361">
        <ele>536</ele>
        <time>2022-09-08T11:30:18Z</time>
      </trkpt>
      <trkpt lat="42.99704" lon="0.67364">
        <ele>536</ele>
        <time>2022-09-08T11:30:21Z</time>
      </trkpt>
      <trkpt lat="42.99702" lon="0.67366">
        <ele>536</ele>
        <time>2022-09-08T11:30:24Z</time>
      </trkpt>
      <trkpt lat="42.997" lon="0.67368">
        <ele>536</ele>
        <time>2022-09-08T11:30:26Z</time>
      </trkpt>
      <trkpt lat="42.99698" lon="0.67371">
        <ele>536</ele>
        <time>2022-09-08T11:30:28Z</time>
      </trkpt>
      <trkpt lat="42.99698" lon="0.67368">
        <ele>536</ele>
        <time>2022-09-08T11:30:36Z</time>
      </trkpt>
      <trkpt lat="42.99698" lon="0.67371">
        <ele>537</ele>
        <time>2022-09-08T11:31:32Z</time>
      </trkpt>
      <trkpt lat="42.99697" lon="0.67373">
        <ele>537</ele>
        <time>2022-09-08T11:31:34Z</time>
      </trkpt>
      <trkpt lat="42.99695" lon="0.67375">
        <ele>537</ele>
        <time>2022-09-08T11:31:36Z</time>
      </trkpt>
      <trkpt lat="42.99694" lon="0.67378">
        <ele>537</ele>
        <time>2022-09-08T11:31:40Z</time>
      </trkpt>
      <trkpt lat="42.99692" lon="0.67381">
        <ele>537</ele>
        <time>2022-09-08T11:31:42Z</time>
      </trkpt>
      <trkpt lat="42.99691" lon="0.67384">
        <ele>537</ele>
        <time>2022-09-08T11:31:44Z</time>
      </trkpt>
      <trkpt lat="42.99689" lon="0.67386">
        <ele>537</ele>
        <time>2022-09-08T11:31:46Z</time>
      </trkpt>
      <trkpt lat="42.99688" lon="0.67388">
        <ele>537</ele>
        <time>2022-09-08T11:31:48Z</time>
      </trkpt>
      <trkpt lat="42.99685" lon="0.67391">
        <ele>537</ele>
        <time>2022-09-08T11:31:50Z</time>
      </trkpt>
      <trkpt lat="42.99683" lon="0.67393">
        <ele>536</ele>
        <time>2022-09-08T11:31:52Z</time>
      </trkpt>
      <trkpt lat="42.99682" lon="0.67395">
        <ele>536</ele>
        <time>2022-09-08T11:31:54Z</time>
      </trkpt>
      <trkpt lat="42.9968" lon="0.67397">
        <ele>536</ele>
        <time>2022-09-08T11:31:56Z</time>
      </trkpt>
      <trkpt lat="42.99678" lon="0.67399">
        <ele>536</ele>
        <time>2022-09-08T11:31:58Z</time>
      </trkpt>
      <trkpt lat="42.99676" lon="0.67402">
        <ele>536</ele>
        <time>2022-09-08T11:32:00Z</time>
      </trkpt>
      <trkpt lat="42.99674" lon="0.67405">
        <ele>537</ele>
        <time>2022-09-08T11:32:02Z</time>
      </trkpt>
      <trkpt lat="42.99673" lon="0.67408">
        <ele>537</ele>
        <time>2022-09-08T11:32:04Z</time>
      </trkpt>
      <trkpt lat="42.9967" lon="0.67414">
        <ele>537</ele>
        <time>2022-09-08T11:32:07Z</time>
      </trkpt>
      <trkpt lat="42.99668" lon="0.67418">
        <ele>537</ele>
        <time>2022-09-08T11:32:10Z</time>
      </trkpt>
      <trkpt lat="42.99666" lon="0.67421">
        <ele>537</ele>
        <time>2022-09-08T11:32:12Z</time>
      </trkpt>
      <trkpt lat="42.99665" lon="0.67424">
        <ele>537</ele>
        <time>2022-09-08T11:32:13Z</time>
      </trkpt>
      <trkpt lat="42.99663" lon="0.67427">
        <ele>537</ele>
        <time>2022-09-08T11:32:15Z</time>
      </trkpt>
      <trkpt lat="42.99659" lon="0.67428">
        <ele>537</ele>
        <time>2022-09-08T11:32:17Z</time>
      </trkpt>
      <trkpt lat="42.99658" lon="0.6743">
        <ele>537</ele>
        <time>2022-09-08T11:32:19Z</time>
      </trkpt>
      <trkpt lat="42.99656" lon="0.67431">
        <ele>537</ele>
        <time>2022-09-08T11:32:21Z</time>
      </trkpt>
      <trkpt lat="42.99654" lon="0.67433">
        <ele>536</ele>
        <time>2022-09-08T11:32:23Z</time>
      </trkpt>
      <trkpt lat="42.99651" lon="0.67435">
        <ele>536</ele>
        <time>2022-09-08T11:32:25Z</time>
      </trkpt>
      <trkpt lat="42.99649" lon="0.67436">
        <ele>536</ele>
        <time>2022-09-08T11:32:26Z</time>
      </trkpt>
      <trkpt lat="42.99647" lon="0.67438">
        <ele>536</ele>
        <time>2022-09-08T11:32:27Z</time>
      </trkpt>
      <trkpt lat="42.99646" lon="0.67441">
        <ele>536</ele>
        <time>2022-09-08T11:32:28Z</time>
      </trkpt>
      <trkpt lat="42.99644" lon="0.67442">
        <ele>536</ele>
        <time>2022-09-08T11:32:29Z</time>
      </trkpt>
      <trkpt lat="42.99643" lon="0.67444">
        <ele>536</ele>
        <time>2022-09-08T11:32:30Z</time>
      </trkpt>
      <trkpt lat="42.99642" lon="0.67446">
        <ele>536</ele>
        <time>2022-09-08T11:32:31Z</time>
      </trkpt>
      <trkpt lat="42.99639" lon="0.67449">
        <ele>536</ele>
        <time>2022-09-08T11:32:33Z</time>
      </trkpt>
      <trkpt lat="42.99637" lon="0.67452">
        <ele>536</ele>
        <time>2022-09-08T11:32:35Z</time>
      </trkpt>
      <trkpt lat="42.99635" lon="0.67454">
        <ele>536</ele>
        <time>2022-09-08T11:32:37Z</time>
      </trkpt>
      <trkpt lat="42.99633" lon="0.67457">
        <ele>536</ele>
        <time>2022-09-08T11:32:39Z</time>
      </trkpt>
      <trkpt lat="42.9963" lon="0.6746">
        <ele>536</ele>
        <time>2022-09-08T11:32:41Z</time>
      </trkpt>
      <trkpt lat="42.99628" lon="0.67462">
        <ele>536</ele>
        <time>2022-09-08T11:32:43Z</time>
      </trkpt>
      <trkpt lat="42.99626" lon="0.67464">
        <ele>536</ele>
        <time>2022-09-08T11:32:45Z</time>
      </trkpt>
      <trkpt lat="42.99625" lon="0.67466">
        <ele>536</ele>
        <time>2022-09-08T11:32:47Z</time>
      </trkpt>
      <trkpt lat="42.99623" lon="0.67467">
        <ele>536</ele>
        <time>2022-09-08T11:32:49Z</time>
      </trkpt>
      <trkpt lat="42.9962" lon="0.67468">
        <ele>536</ele>
        <time>2022-09-08T11:32:52Z</time>
      </trkpt>
      <trkpt lat="42.99618" lon="0.67469">
        <ele>536</ele>
        <time>2022-09-08T11:32:55Z</time>
      </trkpt>
      <trkpt lat="42.99617" lon="0.6747">
        <ele>536</ele>
        <time>2022-09-08T11:33:00Z</time>
      </trkpt>
      <trkpt lat="42.99615" lon="0.67472">
        <ele>537</ele>
        <time>2022-09-08T11:33:07Z</time>
      </trkpt>
      <trkpt lat="42.99617" lon="0.67472">
        <ele>537</ele>
        <time>2022-09-08T11:33:18Z</time>
      </trkpt>
      <trkpt lat="42.99619" lon="0.67471">
        <ele>537</ele>
        <time>2022-09-08T11:33:20Z</time>
      </trkpt>
      <trkpt lat="42.99622" lon="0.67471">
        <ele>537</ele>
        <time>2022-09-08T11:33:21Z</time>
      </trkpt>
      <trkpt lat="42.9962" lon="0.67469">
        <ele>537</ele>
        <time>2022-09-08T11:33:29Z</time>
      </trkpt>
      <trkpt lat="42.99617" lon="0.67468">
        <ele>537</ele>
        <time>2022-09-08T11:33:34Z</time>
      </trkpt>
      <trkpt lat="42.99616" lon="0.67466">
        <ele>537</ele>
        <time>2022-09-08T11:33:42Z</time>
      </trkpt>
      <trkpt lat="42.99615" lon="0.67468">
        <ele>537</ele>
        <time>2022-09-08T11:33:59Z</time>
      </trkpt>
      <trkpt lat="42.99613" lon="0.67468">
        <ele>537</ele>
        <time>2022-09-08T11:34:06Z</time>
      </trkpt>
      <trkpt lat="42.99613" lon="0.67466">
        <ele>538</ele>
        <time>2022-09-08T11:35:05Z</time>
      </trkpt>
      <trkpt lat="42.99615" lon="0.67467">
        <ele>538</ele>
        <time>2022-09-08T11:35:25Z</time>
      </trkpt>
      <trkpt lat="42.99613" lon="0.67467">
        <ele>537</ele>
        <time>2022-09-08T11:35:33Z</time>
      </trkpt>
      <trkpt lat="42.99611" lon="0.67466">
        <ele>537</ele>
        <time>2022-09-08T11:35:35Z</time>
      </trkpt>
      <trkpt lat="42.99609" lon="0.67464">
        <ele>537</ele>
        <time>2022-09-08T11:35:38Z</time>
      </trkpt>
      <trkpt lat="42.99607" lon="0.67462">
        <ele>537</ele>
        <time>2022-09-08T11:35:41Z</time>
      </trkpt>
      <trkpt lat="42.99605" lon="0.67461">
        <ele>537</ele>
        <time>2022-09-08T11:35:43Z</time>
      </trkpt>
      <trkpt lat="42.99603" lon="0.67459">
        <ele>537</ele>
        <time>2022-09-08T11:35:47Z</time>
      </trkpt>
      <trkpt lat="42.99602" lon="0.67458">
        <ele>538</ele>
        <time>2022-09-08T11:35:54Z</time>
      </trkpt>
      <trkpt lat="42.996" lon="0.67455">
        <ele>538</ele>
        <time>2022-09-08T11:35:57Z</time>
      </trkpt>
      <trkpt lat="42.99599" lon="0.67454">
        <ele>538</ele>
        <time>2022-09-08T11:35:59Z</time>
      </trkpt>
      <trkpt lat="42.99597" lon="0.67452">
        <ele>538</ele>
        <time>2022-09-08T11:36:02Z</time>
      </trkpt>
      <trkpt lat="42.99595" lon="0.67452">
        <ele>539</ele>
        <time>2022-09-08T11:36:55Z</time>
      </trkpt>
      <trkpt lat="42.99594" lon="0.67451">
        <ele>539</ele>
        <time>2022-09-08T11:37:16Z</time>
      </trkpt>
      <trkpt lat="42.99595" lon="0.67452">
        <ele>539</ele>
        <time>2022-09-08T11:38:04Z</time>
      </trkpt>
      <trkpt lat="42.99586" lon="0.67447">
        <ele>540</ele>
        <time>2022-09-08T11:39:11Z</time>
      </trkpt>
      <trkpt lat="42.99592" lon="0.67449">
        <ele>540</ele>
        <time>2022-09-08T11:39:18Z</time>
      </trkpt>
      <trkpt lat="42.99594" lon="0.67449">
        <ele>540</ele>
        <time>2022-09-08T11:39:26Z</time>
      </trkpt>
      <trkpt lat="42.99595" lon="0.67447">
        <ele>538</ele>
        <time>2022-09-08T11:39:43Z</time>
      </trkpt>
      <trkpt lat="42.99593" lon="0.67445">
        <ele>538</ele>
        <time>2022-09-08T11:39:59Z</time>
      </trkpt>
      <trkpt lat="42.99591" lon="0.67442">
        <ele>538</ele>
        <time>2022-09-08T11:40:02Z</time>
      </trkpt>
      <trkpt lat="42.9959" lon="0.6744">
        <ele>538</ele>
        <time>2022-09-08T11:40:04Z</time>
      </trkpt>
      <trkpt lat="42.99589" lon="0.67438">
        <ele>538</ele>
        <time>2022-09-08T11:40:06Z</time>
      </trkpt>
      <trkpt lat="42.99587" lon="0.67435">
        <ele>538</ele>
        <time>2022-09-08T11:40:09Z</time>
      </trkpt>
      <trkpt lat="42.99586" lon="0.67433">
        <ele>538</ele>
        <time>2022-09-08T11:40:11Z</time>
      </trkpt>
      <trkpt lat="42.99584" lon="0.67431">
        <ele>539</ele>
        <time>2022-09-08T11:40:14Z</time>
      </trkpt>
      <trkpt lat="42.99583" lon="0.67427">
        <ele>539</ele>
        <time>2022-09-08T11:40:16Z</time>
      </trkpt>
      <trkpt lat="42.99582" lon="0.67425">
        <ele>539</ele>
        <time>2022-09-08T11:40:18Z</time>
      </trkpt>
      <trkpt lat="42.9958" lon="0.67422">
        <ele>539</ele>
        <time>2022-09-08T11:40:24Z</time>
      </trkpt>
      <trkpt lat="42.99577" lon="0.67421">
        <ele>539</ele>
        <time>2022-09-08T11:40:26Z</time>
      </trkpt>
      <trkpt lat="42.99574" lon="0.67419">
        <ele>539</ele>
        <time>2022-09-08T11:40:30Z</time>
      </trkpt>
      <trkpt lat="42.99572" lon="0.67418">
        <ele>540</ele>
        <time>2022-09-08T11:40:32Z</time>
      </trkpt>
      <trkpt lat="42.99571" lon="0.67416">
        <ele>540</ele>
        <time>2022-09-08T11:40:34Z</time>
      </trkpt>
      <trkpt lat="42.99569" lon="0.67415">
        <ele>540</ele>
        <time>2022-09-08T11:40:36Z</time>
      </trkpt>
      <trkpt lat="42.99567" lon="0.67414">
        <ele>540</ele>
        <time>2022-09-08T11:40:38Z</time>
      </trkpt>
      <trkpt lat="42.99564" lon="0.67413">
        <ele>540</ele>
        <time>2022-09-08T11:40:40Z</time>
      </trkpt>
      <trkpt lat="42.99562" lon="0.67412">
        <ele>540</ele>
        <time>2022-09-08T11:40:43Z</time>
      </trkpt>
      <trkpt lat="42.99559" lon="0.67411">
        <ele>540</ele>
        <time>2022-09-08T11:40:45Z</time>
      </trkpt>
      <trkpt lat="42.99557" lon="0.6741">
        <ele>540</ele>
        <time>2022-09-08T11:40:47Z</time>
      </trkpt>
      <trkpt lat="42.99555" lon="0.67408">
        <ele>540</ele>
        <time>2022-09-08T11:40:49Z</time>
      </trkpt>
      <trkpt lat="42.99552" lon="0.67407">
        <ele>540</ele>
        <time>2022-09-08T11:40:51Z</time>
      </trkpt>
      <trkpt lat="42.99551" lon="0.67406">
        <ele>542</ele>
        <time>2022-09-08T11:40:53Z</time>
      </trkpt>
      <trkpt lat="42.99549" lon="0.67405">
        <ele>542</ele>
        <time>2022-09-08T11:40:55Z</time>
      </trkpt>
      <trkpt lat="42.99546" lon="0.67405">
        <ele>542</ele>
        <time>2022-09-08T11:40:58Z</time>
      </trkpt>
      <trkpt lat="42.99544" lon="0.67404">
        <ele>542</ele>
        <time>2022-09-08T11:41:01Z</time>
      </trkpt>
      <trkpt lat="42.99541" lon="0.67403">
        <ele>542</ele>
        <time>2022-09-08T11:41:04Z</time>
      </trkpt>
      <trkpt lat="42.99539" lon="0.67404">
        <ele>542</ele>
        <time>2022-09-08T11:41:06Z</time>
      </trkpt>
      <trkpt lat="42.99537" lon="0.67404">
        <ele>542</ele>
        <time>2022-09-08T11:41:08Z</time>
      </trkpt>
      <trkpt lat="42.99535" lon="0.67402">
        <ele>542</ele>
        <time>2022-09-08T11:41:12Z</time>
      </trkpt>
      <trkpt lat="42.99533" lon="0.67401">
        <ele>542</ele>
        <time>2022-09-08T11:41:13Z</time>
      </trkpt>
      <trkpt lat="42.99531" lon="0.67399">
        <ele>542</ele>
        <time>2022-09-08T11:41:15Z</time>
      </trkpt>
      <trkpt lat="42.9953" lon="0.67398">
        <ele>542</ele>
        <time>2022-09-08T11:41:18Z</time>
      </trkpt>
      <trkpt lat="42.99528" lon="0.67396">
        <ele>542</ele>
        <time>2022-09-08T11:41:21Z</time>
      </trkpt>
      <trkpt lat="42.99526" lon="0.67394">
        <ele>544</ele>
        <time>2022-09-08T11:41:25Z</time>
      </trkpt>
      <trkpt lat="42.99525" lon="0.67391">
        <ele>544</ele>
        <time>2022-09-08T11:41:30Z</time>
      </trkpt>
      <trkpt lat="42.99523" lon="0.67391">
        <ele>545</ele>
        <time>2022-09-08T11:41:34Z</time>
      </trkpt>
      <trkpt lat="42.99521" lon="0.67389">
        <ele>545</ele>
        <time>2022-09-08T11:41:36Z</time>
      </trkpt>
      <trkpt lat="42.99519" lon="0.67388">
        <ele>545</ele>
        <time>2022-09-08T11:41:39Z</time>
      </trkpt>
      <trkpt lat="42.99517" lon="0.67387">
        <ele>547</ele>
        <time>2022-09-08T11:41:42Z</time>
      </trkpt>
      <trkpt lat="42.99515" lon="0.67386">
        <ele>547</ele>
        <time>2022-09-08T11:41:45Z</time>
      </trkpt>
      <trkpt lat="42.99513" lon="0.67385">
        <ele>547</ele>
        <time>2022-09-08T11:41:49Z</time>
      </trkpt>
      <trkpt lat="42.99511" lon="0.67384">
        <ele>547</ele>
        <time>2022-09-08T11:41:51Z</time>
      </trkpt>
      <trkpt lat="42.99508" lon="0.67384">
        <ele>547</ele>
        <time>2022-09-08T11:41:55Z</time>
      </trkpt>
      <trkpt lat="42.99506" lon="0.67385">
        <ele>547</ele>
        <time>2022-09-08T11:41:56Z</time>
      </trkpt>
      <trkpt lat="42.99505" lon="0.67385">
        <ele>547</ele>
        <time>2022-09-08T11:41:58Z</time>
      </trkpt>
      <trkpt lat="42.99503" lon="0.67386">
        <ele>547</ele>
        <time>2022-09-08T11:42:01Z</time>
      </trkpt>
      <trkpt lat="42.99501" lon="0.67385">
        <ele>547</ele>
        <time>2022-09-08T11:42:04Z</time>
      </trkpt>
      <trkpt lat="42.99499" lon="0.67386">
        <ele>547</ele>
        <time>2022-09-08T11:42:05Z</time>
      </trkpt>
      <trkpt lat="42.99497" lon="0.67386">
        <ele>547</ele>
        <time>2022-09-08T11:42:08Z</time>
      </trkpt>
      <trkpt lat="42.99494" lon="0.67386">
        <ele>547</ele>
        <time>2022-09-08T11:42:12Z</time>
      </trkpt>
      <trkpt lat="42.99492" lon="0.67386">
        <ele>548</ele>
        <time>2022-09-08T11:42:14Z</time>
      </trkpt>
      <trkpt lat="42.9949" lon="0.67386">
        <ele>548</ele>
        <time>2022-09-08T11:42:17Z</time>
      </trkpt>
      <trkpt lat="42.99488" lon="0.67386">
        <ele>548</ele>
        <time>2022-09-08T11:42:19Z</time>
      </trkpt>
      <trkpt lat="42.99486" lon="0.67385">
        <ele>548</ele>
        <time>2022-09-08T11:42:32Z</time>
      </trkpt>
      <trkpt lat="42.99484" lon="0.67385">
        <ele>548</ele>
        <time>2022-09-08T11:42:36Z</time>
      </trkpt>
      <trkpt lat="42.99481" lon="0.67385">
        <ele>548</ele>
        <time>2022-09-08T11:42:39Z</time>
      </trkpt>
      <trkpt lat="42.9948" lon="0.67384">
        <ele>548</ele>
        <time>2022-09-08T11:42:45Z</time>
      </trkpt>
      <trkpt lat="42.99478" lon="0.67382">
        <ele>548</ele>
        <time>2022-09-08T11:42:53Z</time>
      </trkpt>
      <trkpt lat="42.99477" lon="0.67384">
        <ele>548</ele>
        <time>2022-09-08T11:42:59Z</time>
      </trkpt>
      <trkpt lat="42.99476" lon="0.67386">
        <ele>548</ele>
        <time>2022-09-08T11:43:01Z</time>
      </trkpt>
      <trkpt lat="42.99474" lon="0.67387">
        <ele>549</ele>
        <time>2022-09-08T11:43:06Z</time>
      </trkpt>
      <trkpt lat="42.99472" lon="0.67386">
        <ele>549</ele>
        <time>2022-09-08T11:43:10Z</time>
      </trkpt>
      <trkpt lat="42.9947" lon="0.67385">
        <ele>549</ele>
        <time>2022-09-08T11:43:12Z</time>
      </trkpt>
      <trkpt lat="42.99468" lon="0.67384">
        <ele>549</ele>
        <time>2022-09-08T11:43:18Z</time>
      </trkpt>
      <trkpt lat="42.99466" lon="0.67383">
        <ele>549</ele>
        <time>2022-09-08T11:43:19Z</time>
      </trkpt>
      <trkpt lat="42.99463" lon="0.67382">
        <ele>549</ele>
        <time>2022-09-08T11:43:23Z</time>
      </trkpt>
      <trkpt lat="42.99461" lon="0.67381">
        <ele>549</ele>
        <time>2022-09-08T11:43:25Z</time>
      </trkpt>
      <trkpt lat="42.99459" lon="0.6738">
        <ele>549</ele>
        <time>2022-09-08T11:43:28Z</time>
      </trkpt>
      <trkpt lat="42.99457" lon="0.67379">
        <ele>549</ele>
        <time>2022-09-08T11:43:31Z</time>
      </trkpt>
      <trkpt lat="42.99455" lon="0.67378">
        <ele>550</ele>
        <time>2022-09-08T11:43:34Z</time>
      </trkpt>
      <trkpt lat="42.99453" lon="0.67377">
        <ele>550</ele>
        <time>2022-09-08T11:43:37Z</time>
      </trkpt>
      <trkpt lat="42.9945" lon="0.67376">
        <ele>550</ele>
        <time>2022-09-08T11:43:40Z</time>
      </trkpt>
      <trkpt lat="42.99448" lon="0.67376">
        <ele>550</ele>
        <time>2022-09-08T11:43:43Z</time>
      </trkpt>
      <trkpt lat="42.99447" lon="0.67375">
        <ele>550</ele>
        <time>2022-09-08T11:43:45Z</time>
      </trkpt>
      <trkpt lat="42.99444" lon="0.67375">
        <ele>550</ele>
        <time>2022-09-08T11:43:48Z</time>
      </trkpt>
      <trkpt lat="42.99442" lon="0.67374">
        <ele>550</ele>
        <time>2022-09-08T11:43:50Z</time>
      </trkpt>
      <trkpt lat="42.9944" lon="0.67373">
        <ele>551</ele>
        <time>2022-09-08T11:43:52Z</time>
      </trkpt>
      <trkpt lat="42.99437" lon="0.67374">
        <ele>551</ele>
        <time>2022-09-08T11:43:54Z</time>
      </trkpt>
      <trkpt lat="42.99436" lon="0.67374">
        <ele>551</ele>
        <time>2022-09-08T11:43:57Z</time>
      </trkpt>
      <trkpt lat="42.99433" lon="0.67375">
        <ele>551</ele>
        <time>2022-09-08T11:44:00Z</time>
      </trkpt>
      <trkpt lat="42.99431" lon="0.67376">
        <ele>551</ele>
        <time>2022-09-08T11:44:04Z</time>
      </trkpt>
      <trkpt lat="42.9943" lon="0.67377">
        <ele>551</ele>
        <time>2022-09-08T11:44:06Z</time>
      </trkpt>
      <trkpt lat="42.99428" lon="0.67377">
        <ele>551</ele>
        <time>2022-09-08T11:44:09Z</time>
      </trkpt>
      <trkpt lat="42.99425" lon="0.67378">
        <ele>551</ele>
        <time>2022-09-08T11:44:11Z</time>
      </trkpt>
      <trkpt lat="42.99423" lon="0.67378">
        <ele>553</ele>
        <time>2022-09-08T11:44:13Z</time>
      </trkpt>
      <trkpt lat="42.99421" lon="0.67379">
        <ele>553</ele>
        <time>2022-09-08T11:44:15Z</time>
      </trkpt>
      <trkpt lat="42.99418" lon="0.67379">
        <ele>553</ele>
        <time>2022-09-08T11:44:18Z</time>
      </trkpt>
      <trkpt lat="42.99416" lon="0.67381">
        <ele>553</ele>
        <time>2022-09-08T11:44:20Z</time>
      </trkpt>
      <trkpt lat="42.99415" lon="0.67383">
        <ele>554</ele>
        <time>2022-09-08T11:44:30Z</time>
      </trkpt>
      <trkpt lat="42.99413" lon="0.67381">
        <ele>554</ele>
        <time>2022-09-08T11:44:41Z</time>
      </trkpt>
      <trkpt lat="42.9941" lon="0.67381">
        <ele>554</ele>
        <time>2022-09-08T11:44:43Z</time>
      </trkpt>
      <trkpt lat="42.99408" lon="0.67381">
        <ele>554</ele>
        <time>2022-09-08T11:44:49Z</time>
      </trkpt>
      <trkpt lat="42.99406" lon="0.6738">
        <ele>554</ele>
        <time>2022-09-08T11:44:50Z</time>
      </trkpt>
      <trkpt lat="42.99404" lon="0.6738">
        <ele>554</ele>
        <time>2022-09-08T11:44:52Z</time>
      </trkpt>
      <trkpt lat="42.99399" lon="0.67381">
        <ele>554</ele>
        <time>2022-09-08T11:44:56Z</time>
      </trkpt>
      <trkpt lat="42.99397" lon="0.67381">
        <ele>554</ele>
        <time>2022-09-08T11:44:58Z</time>
      </trkpt>
      <trkpt lat="42.99395" lon="0.6738">
        <ele>554</ele>
        <time>2022-09-08T11:45:01Z</time>
      </trkpt>
      <trkpt lat="42.99392" lon="0.67379">
        <ele>555</ele>
        <time>2022-09-08T11:45:04Z</time>
      </trkpt>
      <trkpt lat="42.99388" lon="0.67379">
        <ele>555</ele>
        <time>2022-09-08T11:45:06Z</time>
      </trkpt>
      <trkpt lat="42.99386" lon="0.67378">
        <ele>555</ele>
        <time>2022-09-08T11:45:08Z</time>
      </trkpt>
      <trkpt lat="42.99384" lon="0.67379">
        <ele>556</ele>
        <time>2022-09-08T11:45:17Z</time>
      </trkpt>
      <trkpt lat="42.99382" lon="0.6738">
        <ele>556</ele>
        <time>2022-09-08T11:45:21Z</time>
      </trkpt>
      <trkpt lat="42.9938" lon="0.67377">
        <ele>555</ele>
        <time>2022-09-08T11:45:56Z</time>
      </trkpt>
      <trkpt lat="42.99379" lon="0.6738">
        <ele>555</ele>
        <time>2022-09-08T11:46:12Z</time>
      </trkpt>
      <trkpt lat="42.99377" lon="0.67381">
        <ele>556</ele>
        <time>2022-09-08T11:46:27Z</time>
      </trkpt>
      <trkpt lat="42.99375" lon="0.67381">
        <ele>556</ele>
        <time>2022-09-08T11:46:31Z</time>
      </trkpt>
      <trkpt lat="42.99373" lon="0.67382">
        <ele>555</ele>
        <time>2022-09-08T11:46:33Z</time>
      </trkpt>
      <trkpt lat="42.99371" lon="0.67383">
        <ele>555</ele>
        <time>2022-09-08T11:46:36Z</time>
      </trkpt>
      <trkpt lat="42.99369" lon="0.67383">
        <ele>555</ele>
        <time>2022-09-08T11:46:38Z</time>
      </trkpt>
      <trkpt lat="42.99367" lon="0.67383">
        <ele>555</ele>
        <time>2022-09-08T11:46:40Z</time>
      </trkpt>
      <trkpt lat="42.99365" lon="0.67383">
        <ele>556</ele>
        <time>2022-09-08T11:46:42Z</time>
      </trkpt>
      <trkpt lat="42.99362" lon="0.67382">
        <ele>556</ele>
        <time>2022-09-08T11:46:46Z</time>
      </trkpt>
      <trkpt lat="42.9936" lon="0.67381">
        <ele>556</ele>
        <time>2022-09-08T11:46:47Z</time>
      </trkpt>
      <trkpt lat="42.99358" lon="0.67382">
        <ele>556</ele>
        <time>2022-09-08T11:46:51Z</time>
      </trkpt>
      <trkpt lat="42.99357" lon="0.67385">
        <ele>556</ele>
        <time>2022-09-08T11:46:53Z</time>
      </trkpt>
      <trkpt lat="42.99355" lon="0.67385">
        <ele>556</ele>
        <time>2022-09-08T11:46:57Z</time>
      </trkpt>
      <trkpt lat="42.99352" lon="0.67387">
        <ele>556</ele>
        <time>2022-09-08T11:47:00Z</time>
      </trkpt>
      <trkpt lat="42.99351" lon="0.67389">
        <ele>558</ele>
        <time>2022-09-08T11:47:03Z</time>
      </trkpt>
      <trkpt lat="42.9935" lon="0.67386">
        <ele>561</ele>
        <time>2022-09-08T11:47:38Z</time>
      </trkpt>
      <trkpt lat="42.99349" lon="0.67388">
        <ele>561</ele>
        <time>2022-09-08T11:47:45Z</time>
      </trkpt>
      <trkpt lat="42.99346" lon="0.6739">
        <ele>561</ele>
        <time>2022-09-08T11:47:48Z</time>
      </trkpt>
      <trkpt lat="42.99344" lon="0.67389">
        <ele>561</ele>
        <time>2022-09-08T11:47:50Z</time>
      </trkpt>
      <trkpt lat="42.99342" lon="0.67389">
        <ele>561</ele>
        <time>2022-09-08T11:47:53Z</time>
      </trkpt>
      <trkpt lat="42.9934" lon="0.67389">
        <ele>561</ele>
        <time>2022-09-08T11:47:56Z</time>
      </trkpt>
      <trkpt lat="42.99338" lon="0.6739">
        <ele>561</ele>
        <time>2022-09-08T11:48:00Z</time>
      </trkpt>
      <trkpt lat="42.99328" lon="0.6739">
        <ele>561</ele>
        <time>2022-09-08T11:48:12Z</time>
      </trkpt>
      <trkpt lat="42.9932" lon="0.67393">
        <ele>562</ele>
        <time>2022-09-08T11:48:21Z</time>
      </trkpt>
      <trkpt lat="42.99313" lon="0.67402">
        <ele>567</ele>
        <time>2022-09-08T11:48:33Z</time>
      </trkpt>
      <trkpt lat="42.99307" lon="0.67411">
        <ele>568</ele>
        <time>2022-09-08T11:48:52Z</time>
      </trkpt>
      <trkpt lat="42.99298" lon="0.67417">
        <ele>568</ele>
        <time>2022-09-08T11:49:01Z</time>
      </trkpt>
      <trkpt lat="42.99289" lon="0.67422">
        <ele>572</ele>
        <time>2022-09-08T11:49:14Z</time>
      </trkpt>
      <trkpt lat="42.99287" lon="0.67424">
        <ele>575</ele>
        <time>2022-09-08T11:49:34Z</time>
      </trkpt>
      <trkpt lat="42.99279" lon="0.67428">
        <ele>576</ele>
        <time>2022-09-08T11:49:56Z</time>
      </trkpt>
      <trkpt lat="42.99275" lon="0.67429">
        <ele>577</ele>
        <time>2022-09-08T11:50:02Z</time>
      </trkpt>
      <trkpt lat="42.99278" lon="0.67428">
        <ele>577</ele>
        <time>2022-09-08T11:50:12Z</time>
      </trkpt>
      <trkpt lat="42.99276" lon="0.67426">
        <ele>577</ele>
        <time>2022-09-08T11:50:17Z</time>
      </trkpt>
      <trkpt lat="42.99274" lon="0.67426">
        <ele>578</ele>
        <time>2022-09-08T11:50:26Z</time>
      </trkpt>
      <trkpt lat="42.99271" lon="0.67426">
        <ele>578</ele>
        <time>2022-09-08T11:50:29Z</time>
      </trkpt>
      <trkpt lat="42.99268" lon="0.67425">
        <ele>579</ele>
        <time>2022-09-08T11:50:33Z</time>
      </trkpt>
      <trkpt lat="42.99267" lon="0.67424">
        <ele>579</ele>
        <time>2022-09-08T11:50:39Z</time>
      </trkpt>
      <trkpt lat="42.99265" lon="0.67424">
        <ele>580</ele>
        <time>2022-09-08T11:50:43Z</time>
      </trkpt>
      <trkpt lat="42.99263" lon="0.67422">
        <ele>580</ele>
        <time>2022-09-08T11:50:47Z</time>
      </trkpt>
      <trkpt lat="42.99262" lon="0.6742">
        <ele>580</ele>
        <time>2022-09-08T11:50:49Z</time>
      </trkpt>
      <trkpt lat="42.99258" lon="0.67419">
        <ele>580</ele>
        <time>2022-09-08T11:50:55Z</time>
      </trkpt>
      <trkpt lat="42.99258" lon="0.67416">
        <ele>580</ele>
        <time>2022-09-08T11:50:57Z</time>
      </trkpt>
      <trkpt lat="42.99257" lon="0.67414">
        <ele>582</ele>
        <time>2022-09-08T11:51:04Z</time>
      </trkpt>
      <trkpt lat="42.99255" lon="0.67415">
        <ele>582</ele>
        <time>2022-09-08T11:51:07Z</time>
      </trkpt>
      <trkpt lat="42.99259" lon="0.67423">
        <ele>582</ele>
        <time>2022-09-08T11:51:33Z</time>
      </trkpt>
      <trkpt lat="42.9926" lon="0.6742">
        <ele>582</ele>
        <time>2022-09-08T11:51:44Z</time>
      </trkpt>
      <trkpt lat="42.99256" lon="0.67417">
        <ele>582</ele>
        <time>2022-09-08T11:51:50Z</time>
      </trkpt>
      <trkpt lat="42.99254" lon="0.67417">
        <ele>582</ele>
        <time>2022-09-08T11:51:56Z</time>
      </trkpt>
      <trkpt lat="42.99251" lon="0.67417">
        <ele>582</ele>
        <time>2022-09-08T11:52:03Z</time>
      </trkpt>
      <trkpt lat="42.9925" lon="0.67418">
        <ele>582</ele>
        <time>2022-09-08T11:52:06Z</time>
      </trkpt>
      <trkpt lat="42.99247" lon="0.67423">
        <ele>584</ele>
        <time>2022-09-08T11:52:23Z</time>
      </trkpt>
      <trkpt lat="42.99249" lon="0.67422">
        <ele>584</ele>
        <time>2022-09-08T11:52:28Z</time>
      </trkpt>
      <trkpt lat="42.99251" lon="0.67421">
        <ele>585</ele>
        <time>2022-09-08T11:52:36Z</time>
      </trkpt>
      <trkpt lat="42.99253" lon="0.67421">
        <ele>585</ele>
        <time>2022-09-08T11:52:49Z</time>
      </trkpt>
      <trkpt lat="42.99251" lon="0.67423">
        <ele>585</ele>
        <time>2022-09-08T11:52:55Z</time>
      </trkpt>
      <trkpt lat="42.99252" lon="0.6742">
        <ele>585</ele>
        <time>2022-09-08T11:53:01Z</time>
      </trkpt>
      <trkpt lat="42.99251" lon="0.67416">
        <ele>586</ele>
        <time>2022-09-08T11:53:08Z</time>
      </trkpt>
      <trkpt lat="42.9925" lon="0.67415">
        <ele>587</ele>
        <time>2022-09-08T11:53:41Z</time>
      </trkpt>
      <trkpt lat="42.99249" lon="0.6742">
        <ele>587</ele>
        <time>2022-09-08T11:53:47Z</time>
      </trkpt>
      <trkpt lat="42.99251" lon="0.67421">
        <ele>587</ele>
        <time>2022-09-08T11:53:51Z</time>
      </trkpt>
      <trkpt lat="42.99248" lon="0.67423">
        <ele>586</ele>
        <time>2022-09-08T11:54:04Z</time>
      </trkpt>
      <trkpt lat="42.99246" lon="0.67425">
        <ele>586</ele>
        <time>2022-09-08T11:54:11Z</time>
      </trkpt>
      <trkpt lat="42.99244" lon="0.67425">
        <ele>586</ele>
        <time>2022-09-08T11:54:14Z</time>
      </trkpt>
      <trkpt lat="42.99241" lon="0.67427">
        <ele>586</ele>
        <time>2022-09-08T11:54:15Z</time>
      </trkpt>
      <trkpt lat="42.99239" lon="0.67429">
        <ele>586</ele>
        <time>2022-09-08T11:54:18Z</time>
      </trkpt>
      <trkpt lat="42.99237" lon="0.6743">
        <ele>586</ele>
        <time>2022-09-08T11:54:22Z</time>
      </trkpt>
      <trkpt lat="42.99234" lon="0.6743">
        <ele>586</ele>
        <time>2022-09-08T11:54:26Z</time>
      </trkpt>
      <trkpt lat="42.99232" lon="0.67429">
        <ele>586</ele>
        <time>2022-09-08T11:54:29Z</time>
      </trkpt>
      <trkpt lat="42.99229" lon="0.67427">
        <ele>586</ele>
        <time>2022-09-08T11:54:31Z</time>
      </trkpt>
      <trkpt lat="42.99227" lon="0.67426">
        <ele>588</ele>
        <time>2022-09-08T11:54:32Z</time>
      </trkpt>
      <trkpt lat="42.99227" lon="0.6742">
        <ele>588</ele>
        <time>2022-09-08T11:54:36Z</time>
      </trkpt>
      <trkpt lat="42.99227" lon="0.67417">
        <ele>588</ele>
        <time>2022-09-08T11:54:38Z</time>
      </trkpt>
      <trkpt lat="42.99227" lon="0.67414">
        <ele>588</ele>
        <time>2022-09-08T11:54:40Z</time>
      </trkpt>
      <trkpt lat="42.99227" lon="0.67411">
        <ele>590</ele>
        <time>2022-09-08T11:54:42Z</time>
      </trkpt>
      <trkpt lat="42.99229" lon="0.67408">
        <ele>590</ele>
        <time>2022-09-08T11:54:44Z</time>
      </trkpt>
      <trkpt lat="42.9923" lon="0.67406">
        <ele>590</ele>
        <time>2022-09-08T11:54:46Z</time>
      </trkpt>
      <trkpt lat="42.99232" lon="0.67403">
        <ele>590</ele>
        <time>2022-09-08T11:54:48Z</time>
      </trkpt>
      <trkpt lat="42.99233" lon="0.674">
        <ele>590</ele>
        <time>2022-09-08T11:54:51Z</time>
      </trkpt>
      <trkpt lat="42.99234" lon="0.67397">
        <ele>591</ele>
        <time>2022-09-08T11:54:53Z</time>
      </trkpt>
      <trkpt lat="42.99234" lon="0.67394">
        <ele>591</ele>
        <time>2022-09-08T11:54:57Z</time>
      </trkpt>
      <trkpt lat="42.99234" lon="0.67391">
        <ele>591</ele>
        <time>2022-09-08T11:55:00Z</time>
      </trkpt>
      <trkpt lat="42.99233" lon="0.67389">
        <ele>592</ele>
        <time>2022-09-08T11:55:13Z</time>
      </trkpt>
      <trkpt lat="42.99232" lon="0.67391">
        <ele>593</ele>
        <time>2022-09-08T11:55:51Z</time>
      </trkpt>
      <trkpt lat="42.99234" lon="0.67391">
        <ele>593</ele>
        <time>2022-09-08T11:55:57Z</time>
      </trkpt>
      <trkpt lat="42.99233" lon="0.67389">
        <ele>593</ele>
        <time>2022-09-08T11:56:12Z</time>
      </trkpt>
      <trkpt lat="42.99231" lon="0.67389">
        <ele>593</ele>
        <time>2022-09-08T11:56:16Z</time>
      </trkpt>
      <trkpt lat="42.99229" lon="0.67389">
        <ele>593</ele>
        <time>2022-09-08T11:56:19Z</time>
      </trkpt>
      <trkpt lat="42.99227" lon="0.67389">
        <ele>593</ele>
        <time>2022-09-08T11:56:21Z</time>
      </trkpt>
      <trkpt lat="42.99226" lon="0.67391">
        <ele>594</ele>
        <time>2022-09-08T11:56:26Z</time>
      </trkpt>
      <trkpt lat="42.99225" lon="0.67394">
        <ele>594</ele>
        <time>2022-09-08T11:56:28Z</time>
      </trkpt>
      <trkpt lat="42.99224" lon="0.67396">
        <ele>594</ele>
        <time>2022-09-08T11:56:31Z</time>
      </trkpt>
      <trkpt lat="42.99222" lon="0.67398">
        <ele>596</ele>
        <time>2022-09-08T11:56:34Z</time>
      </trkpt>
      <trkpt lat="42.99221" lon="0.674">
        <ele>596</ele>
        <time>2022-09-08T11:56:36Z</time>
      </trkpt>
      <trkpt lat="42.9922" lon="0.67402">
        <ele>596</ele>
        <time>2022-09-08T11:56:37Z</time>
      </trkpt>
      <trkpt lat="42.9922" lon="0.67404">
        <ele>596</ele>
        <time>2022-09-08T11:56:42Z</time>
      </trkpt>
      <trkpt lat="42.9922" lon="0.67407">
        <ele>598</ele>
        <time>2022-09-08T11:56:50Z</time>
      </trkpt>
      <trkpt lat="42.99218" lon="0.67409">
        <ele>598</ele>
        <time>2022-09-08T11:56:53Z</time>
      </trkpt>
      <trkpt lat="42.99217" lon="0.67412">
        <ele>598</ele>
        <time>2022-09-08T11:56:55Z</time>
      </trkpt>
      <trkpt lat="42.99215" lon="0.67414">
        <ele>598</ele>
        <time>2022-09-08T11:56:58Z</time>
      </trkpt>
      <trkpt lat="42.99215" lon="0.67417">
        <ele>598</ele>
        <time>2022-09-08T11:56:59Z</time>
      </trkpt>
      <trkpt lat="42.99214" lon="0.6742">
        <ele>597</ele>
        <time>2022-09-08T11:57:02Z</time>
      </trkpt>
      <trkpt lat="42.99213" lon="0.67424">
        <ele>597</ele>
        <time>2022-09-08T11:57:07Z</time>
      </trkpt>
      <trkpt lat="42.99209" lon="0.67435">
        <ele>598</ele>
        <time>2022-09-08T11:57:16Z</time>
      </trkpt>
      <trkpt lat="42.99205" lon="0.6744">
        <ele>598</ele>
        <time>2022-09-08T11:57:21Z</time>
      </trkpt>
      <trkpt lat="42.99203" lon="0.67443">
        <ele>600</ele>
        <time>2022-09-08T11:57:24Z</time>
      </trkpt>
      <trkpt lat="42.99201" lon="0.67444">
        <ele>600</ele>
        <time>2022-09-08T11:57:27Z</time>
      </trkpt>
      <trkpt lat="42.99199" lon="0.67445">
        <ele>600</ele>
        <time>2022-09-08T11:57:28Z</time>
      </trkpt>
      <trkpt lat="42.99196" lon="0.67446">
        <ele>600</ele>
        <time>2022-09-08T11:57:31Z</time>
      </trkpt>
      <trkpt lat="42.99194" lon="0.67447">
        <ele>602</ele>
        <time>2022-09-08T11:57:33Z</time>
      </trkpt>
      <trkpt lat="42.99192" lon="0.67446">
        <ele>602</ele>
        <time>2022-09-08T11:57:35Z</time>
      </trkpt>
      <trkpt lat="42.99189" lon="0.67445">
        <ele>602</ele>
        <time>2022-09-08T11:57:37Z</time>
      </trkpt>
      <trkpt lat="42.99187" lon="0.67445">
        <ele>602</ele>
        <time>2022-09-08T11:57:40Z</time>
      </trkpt>
      <trkpt lat="42.99185" lon="0.67445">
        <ele>602</ele>
        <time>2022-09-08T11:57:42Z</time>
      </trkpt>
      <trkpt lat="42.99182" lon="0.67444">
        <ele>604</ele>
        <time>2022-09-08T11:57:44Z</time>
      </trkpt>
      <trkpt lat="42.99181" lon="0.67443">
        <ele>604</ele>
        <time>2022-09-08T11:57:47Z</time>
      </trkpt>
      <trkpt lat="42.99179" lon="0.67443">
        <ele>604</ele>
        <time>2022-09-08T11:57:55Z</time>
      </trkpt>
      <trkpt lat="42.99179" lon="0.6744">
        <ele>606</ele>
        <time>2022-09-08T11:58:27Z</time>
      </trkpt>
      <trkpt lat="42.99178" lon="0.67438">
        <ele>606</ele>
        <time>2022-09-08T11:59:05Z</time>
      </trkpt>
      <trkpt lat="42.99176" lon="0.67437">
        <ele>606</ele>
        <time>2022-09-08T11:59:14Z</time>
      </trkpt>
      <trkpt lat="42.99174" lon="0.67437">
        <ele>606</ele>
        <time>2022-09-08T11:59:18Z</time>
      </trkpt>
      <trkpt lat="42.99172" lon="0.67438">
        <ele>606</ele>
        <time>2022-09-08T11:59:21Z</time>
      </trkpt>
      <trkpt lat="42.9917" lon="0.67439">
        <ele>606</ele>
        <time>2022-09-08T11:59:25Z</time>
      </trkpt>
      <trkpt lat="42.99168" lon="0.67439">
        <ele>606</ele>
        <time>2022-09-08T11:59:29Z</time>
      </trkpt>
      <trkpt lat="42.99166" lon="0.67438">
        <ele>606</ele>
        <time>2022-09-08T11:59:33Z</time>
      </trkpt>
      <trkpt lat="42.99164" lon="0.67437">
        <ele>606</ele>
        <time>2022-09-08T11:59:36Z</time>
      </trkpt>
      <trkpt lat="42.99162" lon="0.67435">
        <ele>608</ele>
        <time>2022-09-08T11:59:44Z</time>
      </trkpt>
      <trkpt lat="42.9916" lon="0.67434">
        <ele>608</ele>
        <time>2022-09-08T11:59:47Z</time>
      </trkpt>
      <trkpt lat="42.9916" lon="0.67431">
        <ele>610</ele>
        <time>2022-09-08T11:59:53Z</time>
      </trkpt>
      <trkpt lat="42.9916" lon="0.67434">
        <ele>611</ele>
        <time>2022-09-08T12:00:42Z</time>
      </trkpt>
      <trkpt lat="42.99158" lon="0.67434">
        <ele>611</ele>
        <time>2022-09-08T12:01:13Z</time>
      </trkpt>
      <trkpt lat="42.99156" lon="0.67434">
        <ele>611</ele>
        <time>2022-09-08T12:01:17Z</time>
      </trkpt>
      <trkpt lat="42.99154" lon="0.67436">
        <ele>611</ele>
        <time>2022-09-08T12:01:20Z</time>
      </trkpt>
      <trkpt lat="42.99152" lon="0.67437">
        <ele>611</ele>
        <time>2022-09-08T12:01:23Z</time>
      </trkpt>
      <trkpt lat="42.9915" lon="0.67437">
        <ele>611</ele>
        <time>2022-09-08T12:01:26Z</time>
      </trkpt>
      <trkpt lat="42.99147" lon="0.67438">
        <ele>611</ele>
        <time>2022-09-08T12:01:28Z</time>
      </trkpt>
      <trkpt lat="42.99145" lon="0.67438">
        <ele>611</ele>
        <time>2022-09-08T12:01:31Z</time>
      </trkpt>
      <trkpt lat="42.99143" lon="0.67438">
        <ele>611</ele>
        <time>2022-09-08T12:01:37Z</time>
      </trkpt>
      <trkpt lat="42.99141" lon="0.67438">
        <ele>611</ele>
        <time>2022-09-08T12:01:40Z</time>
      </trkpt>
      <trkpt lat="42.99139" lon="0.67439">
        <ele>611</ele>
        <time>2022-09-08T12:01:41Z</time>
      </trkpt>
      <trkpt lat="42.99137" lon="0.67439">
        <ele>611</ele>
        <time>2022-09-08T12:01:44Z</time>
      </trkpt>
      <trkpt lat="42.99135" lon="0.6744">
        <ele>611</ele>
        <time>2022-09-08T12:01:47Z</time>
      </trkpt>
      <trkpt lat="42.99133" lon="0.67439">
        <ele>611</ele>
        <time>2022-09-08T12:02:53Z</time>
      </trkpt>
      <trkpt lat="42.99131" lon="0.67438">
        <ele>611</ele>
        <time>2022-09-08T12:02:55Z</time>
      </trkpt>
      <trkpt lat="42.99129" lon="0.67437">
        <ele>611</ele>
        <time>2022-09-08T12:02:57Z</time>
      </trkpt>
      <trkpt lat="42.99126" lon="0.67436">
        <ele>611</ele>
        <time>2022-09-08T12:02:59Z</time>
      </trkpt>
      <trkpt lat="42.99124" lon="0.67436">
        <ele>611</ele>
        <time>2022-09-08T12:03:01Z</time>
      </trkpt>
      <trkpt lat="42.99122" lon="0.67435">
        <ele>611</ele>
        <time>2022-09-08T12:03:03Z</time>
      </trkpt>
      <trkpt lat="42.9912" lon="0.67434">
        <ele>611</ele>
        <time>2022-09-08T12:03:05Z</time>
      </trkpt>
      <trkpt lat="42.99117" lon="0.67433">
        <ele>611</ele>
        <time>2022-09-08T12:03:07Z</time>
      </trkpt>
      <trkpt lat="42.99116" lon="0.67432">
        <ele>611</ele>
        <time>2022-09-08T12:03:09Z</time>
      </trkpt>
      <trkpt lat="42.99114" lon="0.67432">
        <ele>611</ele>
        <time>2022-09-08T12:03:11Z</time>
      </trkpt>
      <trkpt lat="42.99111" lon="0.67431">
        <ele>610</ele>
        <time>2022-09-08T12:03:14Z</time>
      </trkpt>
      <trkpt lat="42.99109" lon="0.67431">
        <ele>610</ele>
        <time>2022-09-08T12:03:16Z</time>
      </trkpt>
      <trkpt lat="42.99109" lon="0.67434">
        <ele>610</ele>
        <time>2022-09-08T12:03:21Z</time>
      </trkpt>
      <trkpt lat="42.99111" lon="0.67433">
        <ele>608</ele>
        <time>2022-09-08T12:03:30Z</time>
      </trkpt>
      <trkpt lat="42.99113" lon="0.67432">
        <ele>607</ele>
        <time>2022-09-08T12:03:34Z</time>
      </trkpt>
      <trkpt lat="42.99115" lon="0.6743">
        <ele>607</ele>
        <time>2022-09-08T12:03:37Z</time>
      </trkpt>
      <trkpt lat="42.99113" lon="0.67431">
        <ele>607</ele>
        <time>2022-09-08T12:04:20Z</time>
      </trkpt>
      <trkpt lat="42.99111" lon="0.67431">
        <ele>607</ele>
        <time>2022-09-08T12:04:36Z</time>
      </trkpt>
      <trkpt lat="42.99109" lon="0.67429">
        <ele>607</ele>
        <time>2022-09-08T12:04:39Z</time>
      </trkpt>
      <trkpt lat="42.99107" lon="0.67428">
        <ele>607</ele>
        <time>2022-09-08T12:04:48Z</time>
      </trkpt>
      <trkpt lat="42.99105" lon="0.67427">
        <ele>607</ele>
        <time>2022-09-08T12:04:51Z</time>
      </trkpt>
      <trkpt lat="42.99104" lon="0.67426">
        <ele>607</ele>
        <time>2022-09-08T12:05:44Z</time>
      </trkpt>
      <trkpt lat="42.991" lon="0.67424">
        <ele>607</ele>
        <time>2022-09-08T12:05:49Z</time>
      </trkpt>
      <trkpt lat="42.99096" lon="0.67424">
        <ele>607</ele>
        <time>2022-09-08T12:05:52Z</time>
      </trkpt>
      <trkpt lat="42.99094" lon="0.67423">
        <ele>607</ele>
        <time>2022-09-08T12:05:56Z</time>
      </trkpt>
      <trkpt lat="42.99091" lon="0.67423">
        <ele>607</ele>
        <time>2022-09-08T12:05:59Z</time>
      </trkpt>
      <trkpt lat="42.99089" lon="0.67423">
        <ele>607</ele>
        <time>2022-09-08T12:06:03Z</time>
      </trkpt>
      <trkpt lat="42.99087" lon="0.67422">
        <ele>607</ele>
        <time>2022-09-08T12:06:04Z</time>
      </trkpt>
      <trkpt lat="42.99085" lon="0.67422">
        <ele>607</ele>
        <time>2022-09-08T12:06:07Z</time>
      </trkpt>
      <trkpt lat="42.99083" lon="0.67423">
        <ele>607</ele>
        <time>2022-09-08T12:06:09Z</time>
      </trkpt>
      <trkpt lat="42.9908" lon="0.67424">
        <ele>607</ele>
        <time>2022-09-08T12:06:10Z</time>
      </trkpt>
      <trkpt lat="42.99077" lon="0.67424">
        <ele>607</ele>
        <time>2022-09-08T12:06:12Z</time>
      </trkpt>
      <trkpt lat="42.99075" lon="0.67424">
        <ele>607</ele>
        <time>2022-09-08T12:06:14Z</time>
      </trkpt>
      <trkpt lat="42.99073" lon="0.67425">
        <ele>607</ele>
        <time>2022-09-08T12:06:16Z</time>
      </trkpt>
      <trkpt lat="42.9907" lon="0.67424">
        <ele>607</ele>
        <time>2022-09-08T12:06:18Z</time>
      </trkpt>
      <trkpt lat="42.99068" lon="0.67423">
        <ele>607</ele>
        <time>2022-09-08T12:06:20Z</time>
      </trkpt>
      <trkpt lat="42.99065" lon="0.67423">
        <ele>606</ele>
        <time>2022-09-08T12:06:22Z</time>
      </trkpt>
      <trkpt lat="42.99062" lon="0.67424">
        <ele>606</ele>
        <time>2022-09-08T12:06:24Z</time>
      </trkpt>
      <trkpt lat="42.9906" lon="0.67424">
        <ele>606</ele>
        <time>2022-09-08T12:06:26Z</time>
      </trkpt>
      <trkpt lat="42.99057" lon="0.67423">
        <ele>606</ele>
        <time>2022-09-08T12:06:28Z</time>
      </trkpt>
      <trkpt lat="42.99054" lon="0.67422">
        <ele>606</ele>
        <time>2022-09-08T12:06:30Z</time>
      </trkpt>
      <trkpt lat="42.99052" lon="0.67422">
        <ele>606</ele>
        <time>2022-09-08T12:06:31Z</time>
      </trkpt>
      <trkpt lat="42.99049" lon="0.67421">
        <ele>604</ele>
        <time>2022-09-08T12:06:33Z</time>
      </trkpt>
      <trkpt lat="42.99046" lon="0.67421">
        <ele>604</ele>
        <time>2022-09-08T12:06:36Z</time>
      </trkpt>
      <trkpt lat="42.99044" lon="0.6742">
        <ele>604</ele>
        <time>2022-09-08T12:06:37Z</time>
      </trkpt>
      <trkpt lat="42.99042" lon="0.67418">
        <ele>604</ele>
        <time>2022-09-08T12:06:39Z</time>
      </trkpt>
      <trkpt lat="42.9904" lon="0.67417">
        <ele>604</ele>
        <time>2022-09-08T12:06:41Z</time>
      </trkpt>
      <trkpt lat="42.99039" lon="0.67415">
        <ele>603</ele>
        <time>2022-09-08T12:06:43Z</time>
      </trkpt>
      <trkpt lat="42.99037" lon="0.67412">
        <ele>603</ele>
        <time>2022-09-08T12:06:45Z</time>
      </trkpt>
      <trkpt lat="42.99035" lon="0.67409">
        <ele>603</ele>
        <time>2022-09-08T12:06:47Z</time>
      </trkpt>
      <trkpt lat="42.99034" lon="0.67406">
        <ele>603</ele>
        <time>2022-09-08T12:06:49Z</time>
      </trkpt>
      <trkpt lat="42.99032" lon="0.67403">
        <ele>603</ele>
        <time>2022-09-08T12:06:52Z</time>
      </trkpt>
      <trkpt lat="42.9903" lon="0.674">
        <ele>602</ele>
        <time>2022-09-08T12:06:54Z</time>
      </trkpt>
      <trkpt lat="42.99028" lon="0.67397">
        <ele>602</ele>
        <time>2022-09-08T12:06:56Z</time>
      </trkpt>
      <trkpt lat="42.99026" lon="0.67394">
        <ele>602</ele>
        <time>2022-09-08T12:06:57Z</time>
      </trkpt>
      <trkpt lat="42.99025" lon="0.67391">
        <ele>602</ele>
        <time>2022-09-08T12:06:59Z</time>
      </trkpt>
      <trkpt lat="42.99024" lon="0.67388">
        <ele>602</ele>
        <time>2022-09-08T12:07:01Z</time>
      </trkpt>
      <trkpt lat="42.99025" lon="0.67385">
        <ele>602</ele>
        <time>2022-09-08T12:07:14Z</time>
      </trkpt>
      <trkpt lat="42.99024" lon="0.67383">
        <ele>602</ele>
        <time>2022-09-08T12:07:16Z</time>
      </trkpt>
      <trkpt lat="42.99023" lon="0.6738">
        <ele>602</ele>
        <time>2022-09-08T12:07:18Z</time>
      </trkpt>
      <trkpt lat="42.99022" lon="0.67377">
        <ele>602</ele>
        <time>2022-09-08T12:07:20Z</time>
      </trkpt>
      <trkpt lat="42.99021" lon="0.67374">
        <ele>601</ele>
        <time>2022-09-08T12:07:22Z</time>
      </trkpt>
      <trkpt lat="42.9902" lon="0.67371">
        <ele>601</ele>
        <time>2022-09-08T12:07:24Z</time>
      </trkpt>
      <trkpt lat="42.99019" lon="0.67369">
        <ele>601</ele>
        <time>2022-09-08T12:07:26Z</time>
      </trkpt>
      <trkpt lat="42.9902" lon="0.67372">
        <ele>601</ele>
        <time>2022-09-08T12:07:35Z</time>
      </trkpt>
      <trkpt lat="42.99022" lon="0.67374">
        <ele>601</ele>
        <time>2022-09-08T12:07:45Z</time>
      </trkpt>
      <trkpt lat="42.99023" lon="0.67376">
        <ele>601</ele>
        <time>2022-09-08T12:07:48Z</time>
      </trkpt>
      <trkpt lat="42.99025" lon="0.67378">
        <ele>601</ele>
        <time>2022-09-08T12:07:54Z</time>
      </trkpt>
      <trkpt lat="42.9903" lon="0.67374">
        <ele>601</ele>
        <time>2022-09-08T12:08:04Z</time>
      </trkpt>
      <trkpt lat="42.99028" lon="0.67374">
        <ele>601</ele>
        <time>2022-09-08T12:08:08Z</time>
      </trkpt>
      <trkpt lat="42.99024" lon="0.67375">
        <ele>601</ele>
        <time>2022-09-08T12:08:22Z</time>
      </trkpt>
      <trkpt lat="42.99022" lon="0.67373">
        <ele>601</ele>
        <time>2022-09-08T12:08:25Z</time>
      </trkpt>
      <trkpt lat="42.9902" lon="0.67371">
        <ele>601</ele>
        <time>2022-09-08T12:08:28Z</time>
      </trkpt>
      <trkpt lat="42.99018" lon="0.67369">
        <ele>601</ele>
        <time>2022-09-08T12:08:29Z</time>
      </trkpt>
      <trkpt lat="42.99016" lon="0.67366">
        <ele>601</ele>
        <time>2022-09-08T12:08:31Z</time>
      </trkpt>
      <trkpt lat="42.99015" lon="0.67363">
        <ele>601</ele>
        <time>2022-09-08T12:08:33Z</time>
      </trkpt>
      <trkpt lat="42.99015" lon="0.67359">
        <ele>601</ele>
        <time>2022-09-08T12:08:35Z</time>
      </trkpt>
      <trkpt lat="42.9901" lon="0.67346">
        <ele>601</ele>
        <time>2022-09-08T12:08:41Z</time>
      </trkpt>
      <trkpt lat="42.99008" lon="0.67343">
        <ele>601</ele>
        <time>2022-09-08T12:08:43Z</time>
      </trkpt>
      <trkpt lat="42.99006" lon="0.6734">
        <ele>601</ele>
        <time>2022-09-08T12:08:45Z</time>
      </trkpt>
      <trkpt lat="42.99005" lon="0.67337">
        <ele>601</ele>
        <time>2022-09-08T12:08:47Z</time>
      </trkpt>
      <trkpt lat="42.99003" lon="0.67334">
        <ele>601</ele>
        <time>2022-09-08T12:08:49Z</time>
      </trkpt>
      <trkpt lat="42.99" lon="0.6733">
        <ele>601</ele>
        <time>2022-09-08T12:08:53Z</time>
      </trkpt>
      <trkpt lat="42.98998" lon="0.67329">
        <ele>601</ele>
        <time>2022-09-08T12:08:57Z</time>
      </trkpt>
      <trkpt lat="42.98997" lon="0.67327">
        <ele>601</ele>
        <time>2022-09-08T12:08:59Z</time>
      </trkpt>
      <trkpt lat="42.98995" lon="0.67326">
        <ele>601</ele>
        <time>2022-09-08T12:09:01Z</time>
      </trkpt>
      <trkpt lat="42.98994" lon="0.67323">
        <ele>601</ele>
        <time>2022-09-08T12:09:03Z</time>
      </trkpt>
      <trkpt lat="42.98992" lon="0.67321">
        <ele>601</ele>
        <time>2022-09-08T12:09:07Z</time>
      </trkpt>
      <trkpt lat="42.98991" lon="0.67318">
        <ele>601</ele>
        <time>2022-09-08T12:09:09Z</time>
      </trkpt>
      <trkpt lat="42.98989" lon="0.67315">
        <ele>601</ele>
        <time>2022-09-08T12:09:11Z</time>
      </trkpt>
      <trkpt lat="42.98987" lon="0.67312">
        <ele>601</ele>
        <time>2022-09-08T12:09:13Z</time>
      </trkpt>
      <trkpt lat="42.98985" lon="0.6731">
        <ele>601</ele>
        <time>2022-09-08T12:09:15Z</time>
      </trkpt>
      <trkpt lat="42.98984" lon="0.67307">
        <ele>601</ele>
        <time>2022-09-08T12:09:17Z</time>
      </trkpt>
      <trkpt lat="42.98982" lon="0.67304">
        <ele>601</ele>
        <time>2022-09-08T12:09:19Z</time>
      </trkpt>
      <trkpt lat="42.9898" lon="0.67301">
        <ele>601</ele>
        <time>2022-09-08T12:09:21Z</time>
      </trkpt>
      <trkpt lat="42.98979" lon="0.67298">
        <ele>602</ele>
        <time>2022-09-08T12:09:23Z</time>
      </trkpt>
      <trkpt lat="42.98978" lon="0.67295">
        <ele>602</ele>
        <time>2022-09-08T12:09:25Z</time>
      </trkpt>
      <trkpt lat="42.98977" lon="0.67291">
        <ele>602</ele>
        <time>2022-09-08T12:09:27Z</time>
      </trkpt>
      <trkpt lat="42.98976" lon="0.67289">
        <ele>602</ele>
        <time>2022-09-08T12:09:29Z</time>
      </trkpt>
      <trkpt lat="42.98975" lon="0.67285">
        <ele>602</ele>
        <time>2022-09-08T12:09:31Z</time>
      </trkpt>
      <trkpt lat="42.98971" lon="0.67273">
        <ele>602</ele>
        <time>2022-09-08T12:09:37Z</time>
      </trkpt>
      <trkpt lat="42.98968" lon="0.67269">
        <ele>602</ele>
        <time>2022-09-08T12:09:41Z</time>
      </trkpt>
      <trkpt lat="42.98966" lon="0.67267">
        <ele>602</ele>
        <time>2022-09-08T12:09:46Z</time>
      </trkpt>
      <trkpt lat="42.98964" lon="0.67268">
        <ele>601</ele>
        <time>2022-09-08T12:10:00Z</time>
      </trkpt>
      <trkpt lat="42.98965" lon="0.67265">
        <ele>602</ele>
        <time>2022-09-08T12:10:38Z</time>
      </trkpt>
      <trkpt lat="42.98963" lon="0.67264">
        <ele>602</ele>
        <time>2022-09-08T12:10:41Z</time>
      </trkpt>
      <trkpt lat="42.98962" lon="0.67262">
        <ele>602</ele>
        <time>2022-09-08T12:10:43Z</time>
      </trkpt>
      <trkpt lat="42.9896" lon="0.6726">
        <ele>602</ele>
        <time>2022-09-08T12:10:45Z</time>
      </trkpt>
      <trkpt lat="42.98958" lon="0.67257">
        <ele>602</ele>
        <time>2022-09-08T12:10:47Z</time>
      </trkpt>
      <trkpt lat="42.98956" lon="0.67254">
        <ele>602</ele>
        <time>2022-09-08T12:10:49Z</time>
      </trkpt>
      <trkpt lat="42.98953" lon="0.67251">
        <ele>602</ele>
        <time>2022-09-08T12:10:51Z</time>
      </trkpt>
      <trkpt lat="42.98951" lon="0.67249">
        <ele>602</ele>
        <time>2022-09-08T12:10:53Z</time>
      </trkpt>
      <trkpt lat="42.98949" lon="0.67246">
        <ele>602</ele>
        <time>2022-09-08T12:10:55Z</time>
      </trkpt>
      <trkpt lat="42.98947" lon="0.67244">
        <ele>602</ele>
        <time>2022-09-08T12:10:57Z</time>
      </trkpt>
      <trkpt lat="42.98945" lon="0.67241">
        <ele>602</ele>
        <time>2022-09-08T12:10:59Z</time>
      </trkpt>
      <trkpt lat="42.98942" lon="0.67239">
        <ele>602</ele>
        <time>2022-09-08T12:11:01Z</time>
      </trkpt>
      <trkpt lat="42.9894" lon="0.67237">
        <ele>602</ele>
        <time>2022-09-08T12:11:03Z</time>
      </trkpt>
      <trkpt lat="42.98937" lon="0.67235">
        <ele>602</ele>
        <time>2022-09-08T12:11:05Z</time>
      </trkpt>
      <trkpt lat="42.98935" lon="0.67233">
        <ele>602</ele>
        <time>2022-09-08T12:11:07Z</time>
      </trkpt>
      <trkpt lat="42.98932" lon="0.67231">
        <ele>602</ele>
        <time>2022-09-08T12:11:09Z</time>
      </trkpt>
      <trkpt lat="42.9893" lon="0.67229">
        <ele>602</ele>
        <time>2022-09-08T12:11:11Z</time>
      </trkpt>
      <trkpt lat="42.98928" lon="0.67227">
        <ele>602</ele>
        <time>2022-09-08T12:11:13Z</time>
      </trkpt>
      <trkpt lat="42.98927" lon="0.67224">
        <ele>602</ele>
        <time>2022-09-08T12:11:15Z</time>
      </trkpt>
      <trkpt lat="42.98926" lon="0.67222">
        <ele>602</ele>
        <time>2022-09-08T12:11:17Z</time>
      </trkpt>
      <trkpt lat="42.98924" lon="0.6722">
        <ele>602</ele>
        <time>2022-09-08T12:11:19Z</time>
      </trkpt>
      <trkpt lat="42.98922" lon="0.67218">
        <ele>602</ele>
        <time>2022-09-08T12:11:21Z</time>
      </trkpt>
      <trkpt lat="42.98919" lon="0.67216">
        <ele>602</ele>
        <time>2022-09-08T12:11:23Z</time>
      </trkpt>
      <trkpt lat="42.98917" lon="0.67215">
        <ele>602</ele>
        <time>2022-09-08T12:11:25Z</time>
      </trkpt>
      <trkpt lat="42.98915" lon="0.67215">
        <ele>602</ele>
        <time>2022-09-08T12:11:28Z</time>
      </trkpt>
      <trkpt lat="42.98913" lon="0.67214">
        <ele>602</ele>
        <time>2022-09-08T12:11:30Z</time>
      </trkpt>
      <trkpt lat="42.9891" lon="0.67214">
        <ele>602</ele>
        <time>2022-09-08T12:11:32Z</time>
      </trkpt>
      <trkpt lat="42.98908" lon="0.67214">
        <ele>602</ele>
        <time>2022-09-08T12:11:34Z</time>
      </trkpt>
      <trkpt lat="42.98906" lon="0.67214">
        <ele>602</ele>
        <time>2022-09-08T12:11:36Z</time>
      </trkpt>
      <trkpt lat="42.98903" lon="0.67214">
        <ele>602</ele>
        <time>2022-09-08T12:11:38Z</time>
      </trkpt>
      <trkpt lat="42.989" lon="0.67214">
        <ele>602</ele>
        <time>2022-09-08T12:11:40Z</time>
      </trkpt>
      <trkpt lat="42.98892" lon="0.67222">
        <ele>602</ele>
        <time>2022-09-08T12:11:50Z</time>
      </trkpt>
      <trkpt lat="42.98889" lon="0.67225">
        <ele>601</ele>
        <time>2022-09-08T12:11:52Z</time>
      </trkpt>
      <trkpt lat="42.98884" lon="0.67237">
        <ele>601</ele>
        <time>2022-09-08T12:11:57Z</time>
      </trkpt>
      <trkpt lat="42.98874" lon="0.67239">
        <ele>599</ele>
        <time>2022-09-08T12:12:03Z</time>
      </trkpt>
      <trkpt lat="42.98871" lon="0.67239">
        <ele>599</ele>
        <time>2022-09-08T12:12:06Z</time>
      </trkpt>
      <trkpt lat="42.98863" lon="0.67231">
        <ele>599</ele>
        <time>2022-09-08T12:12:12Z</time>
      </trkpt>
      <trkpt lat="42.98856" lon="0.67224">
        <ele>599</ele>
        <time>2022-09-08T12:12:18Z</time>
      </trkpt>
      <trkpt lat="42.98853" lon="0.67223">
        <ele>599</ele>
        <time>2022-09-08T12:12:20Z</time>
      </trkpt>
      <trkpt lat="42.98851" lon="0.67223">
        <ele>599</ele>
        <time>2022-09-08T12:12:22Z</time>
      </trkpt>
      <trkpt lat="42.98848" lon="0.67223">
        <ele>599</ele>
        <time>2022-09-08T12:12:24Z</time>
      </trkpt>
      <trkpt lat="42.98846" lon="0.67223">
        <ele>599</ele>
        <time>2022-09-08T12:12:26Z</time>
      </trkpt>
      <trkpt lat="42.98844" lon="0.67223">
        <ele>599</ele>
        <time>2022-09-08T12:12:28Z</time>
      </trkpt>
      <trkpt lat="42.98841" lon="0.67223">
        <ele>599</ele>
        <time>2022-09-08T12:12:31Z</time>
      </trkpt>
      <trkpt lat="42.98839" lon="0.67223">
        <ele>599</ele>
        <time>2022-09-08T12:12:32Z</time>
      </trkpt>
      <trkpt lat="42.98836" lon="0.67224">
        <ele>599</ele>
        <time>2022-09-08T12:12:34Z</time>
      </trkpt>
      <trkpt lat="42.98834" lon="0.67224">
        <ele>599</ele>
        <time>2022-09-08T12:12:36Z</time>
      </trkpt>
      <trkpt lat="42.98832" lon="0.67224">
        <ele>599</ele>
        <time>2022-09-08T12:12:38Z</time>
      </trkpt>
      <trkpt lat="42.98829" lon="0.67224">
        <ele>599</ele>
        <time>2022-09-08T12:12:40Z</time>
      </trkpt>
      <trkpt lat="42.98827" lon="0.67224">
        <ele>598</ele>
        <time>2022-09-08T12:12:42Z</time>
      </trkpt>
      <trkpt lat="42.98824" lon="0.67225">
        <ele>598</ele>
        <time>2022-09-08T12:12:44Z</time>
      </trkpt>
      <trkpt lat="42.98822" lon="0.67225">
        <ele>598</ele>
        <time>2022-09-08T12:12:46Z</time>
      </trkpt>
      <trkpt lat="42.98819" lon="0.67225">
        <ele>598</ele>
        <time>2022-09-08T12:12:48Z</time>
      </trkpt>
      <trkpt lat="42.98817" lon="0.67224">
        <ele>598</ele>
        <time>2022-09-08T12:12:50Z</time>
      </trkpt>
      <trkpt lat="42.98815" lon="0.67224">
        <ele>599</ele>
        <time>2022-09-08T12:12:52Z</time>
      </trkpt>
      <trkpt lat="42.98813" lon="0.67225">
        <ele>599</ele>
        <time>2022-09-08T12:12:54Z</time>
      </trkpt>
      <trkpt lat="42.9881" lon="0.67225">
        <ele>599</ele>
        <time>2022-09-08T12:12:56Z</time>
      </trkpt>
      <trkpt lat="42.98808" lon="0.67225">
        <ele>599</ele>
        <time>2022-09-08T12:12:58Z</time>
      </trkpt>
      <trkpt lat="42.98805" lon="0.67225">
        <ele>599</ele>
        <time>2022-09-08T12:13:00Z</time>
      </trkpt>
      <trkpt lat="42.98803" lon="0.67224">
        <ele>600</ele>
        <time>2022-09-08T12:13:02Z</time>
      </trkpt>
      <trkpt lat="42.988" lon="0.67224">
        <ele>600</ele>
        <time>2022-09-08T12:13:04Z</time>
      </trkpt>
      <trkpt lat="42.98798" lon="0.67224">
        <ele>600</ele>
        <time>2022-09-08T12:13:06Z</time>
      </trkpt>
      <trkpt lat="42.98796" lon="0.67222">
        <ele>600</ele>
        <time>2022-09-08T12:13:09Z</time>
      </trkpt>
      <trkpt lat="42.98794" lon="0.67221">
        <ele>600</ele>
        <time>2022-09-08T12:13:10Z</time>
      </trkpt>
      <trkpt lat="42.98792" lon="0.67219">
        <ele>600</ele>
        <time>2022-09-08T12:13:12Z</time>
      </trkpt>
      <trkpt lat="42.9879" lon="0.67217">
        <ele>600</ele>
        <time>2022-09-08T12:13:14Z</time>
      </trkpt>
      <trkpt lat="42.98788" lon="0.67216">
        <ele>600</ele>
        <time>2022-09-08T12:13:16Z</time>
      </trkpt>
      <trkpt lat="42.98786" lon="0.67217">
        <ele>600</ele>
        <time>2022-09-08T12:13:18Z</time>
      </trkpt>
      <trkpt lat="42.98783" lon="0.67217">
        <ele>600</ele>
        <time>2022-09-08T12:13:20Z</time>
      </trkpt>
      <trkpt lat="42.98781" lon="0.67217">
        <ele>599</ele>
        <time>2022-09-08T12:13:22Z</time>
      </trkpt>
      <trkpt lat="42.98778" lon="0.67218">
        <ele>599</ele>
        <time>2022-09-08T12:13:24Z</time>
      </trkpt>
      <trkpt lat="42.98776" lon="0.67218">
        <ele>599</ele>
        <time>2022-09-08T12:13:26Z</time>
      </trkpt>
      <trkpt lat="42.98774" lon="0.67219">
        <ele>599</ele>
        <time>2022-09-08T12:13:28Z</time>
      </trkpt>
      <trkpt lat="42.98771" lon="0.6722">
        <ele>599</ele>
        <time>2022-09-08T12:13:30Z</time>
      </trkpt>
      <trkpt lat="42.98769" lon="0.6722">
        <ele>599</ele>
        <time>2022-09-08T12:13:31Z</time>
      </trkpt>
      <trkpt lat="42.98767" lon="0.67222">
        <ele>598</ele>
        <time>2022-09-08T12:13:33Z</time>
      </trkpt>
      <trkpt lat="42.98764" lon="0.67223">
        <ele>598</ele>
        <time>2022-09-08T12:13:35Z</time>
      </trkpt>
      <trkpt lat="42.98762" lon="0.67223">
        <ele>598</ele>
        <time>2022-09-08T12:13:37Z</time>
      </trkpt>
      <trkpt lat="42.9876" lon="0.67225">
        <ele>598</ele>
        <time>2022-09-08T12:13:39Z</time>
      </trkpt>
      <trkpt lat="42.98756" lon="0.67225">
        <ele>598</ele>
        <time>2022-09-08T12:13:41Z</time>
      </trkpt>
      <trkpt lat="42.98754" lon="0.67225">
        <ele>600</ele>
        <time>2022-09-08T12:13:43Z</time>
      </trkpt>
      <trkpt lat="42.98751" lon="0.67226">
        <ele>600</ele>
        <time>2022-09-08T12:13:45Z</time>
      </trkpt>
      <trkpt lat="42.98749" lon="0.67226">
        <ele>600</ele>
        <time>2022-09-08T12:13:47Z</time>
      </trkpt>
      <trkpt lat="42.98746" lon="0.67228">
        <ele>600</ele>
        <time>2022-09-08T12:13:49Z</time>
      </trkpt>
      <trkpt lat="42.98744" lon="0.67229">
        <ele>600</ele>
        <time>2022-09-08T12:13:51Z</time>
      </trkpt>
      <trkpt lat="42.98742" lon="0.6723">
        <ele>601</ele>
        <time>2022-09-08T12:13:53Z</time>
      </trkpt>
      <trkpt lat="42.9874" lon="0.67231">
        <ele>601</ele>
        <time>2022-09-08T12:13:55Z</time>
      </trkpt>
      <trkpt lat="42.98738" lon="0.67232">
        <ele>601</ele>
        <time>2022-09-08T12:13:57Z</time>
      </trkpt>
      <trkpt lat="42.98736" lon="0.67232">
        <ele>601</ele>
        <time>2022-09-08T12:13:59Z</time>
      </trkpt>
      <trkpt lat="42.98734" lon="0.67232">
        <ele>601</ele>
        <time>2022-09-08T12:14:01Z</time>
      </trkpt>
      <trkpt lat="42.98731" lon="0.67232">
        <ele>600</ele>
        <time>2022-09-08T12:14:03Z</time>
      </trkpt>
      <trkpt lat="42.98728" lon="0.67233">
        <ele>600</ele>
        <time>2022-09-08T12:14:06Z</time>
      </trkpt>
      <trkpt lat="42.98726" lon="0.67234">
        <ele>600</ele>
        <time>2022-09-08T12:14:08Z</time>
      </trkpt>
      <trkpt lat="42.98724" lon="0.67234">
        <ele>600</ele>
        <time>2022-09-08T12:14:11Z</time>
      </trkpt>
      <trkpt lat="42.98721" lon="0.67235">
        <ele>600</ele>
        <time>2022-09-08T12:14:12Z</time>
      </trkpt>
      <trkpt lat="42.98719" lon="0.67236">
        <ele>600</ele>
        <time>2022-09-08T12:14:13Z</time>
      </trkpt>
      <trkpt lat="42.98716" lon="0.67236">
        <ele>600</ele>
        <time>2022-09-08T12:14:15Z</time>
      </trkpt>
      <trkpt lat="42.98714" lon="0.67237">
        <ele>600</ele>
        <time>2022-09-08T12:14:16Z</time>
      </trkpt>
      <trkpt lat="42.9871" lon="0.67238">
        <ele>600</ele>
        <time>2022-09-08T12:14:18Z</time>
      </trkpt>
      <trkpt lat="42.98707" lon="0.67238">
        <ele>600</ele>
        <time>2022-09-08T12:14:21Z</time>
      </trkpt>
      <trkpt lat="42.98704" lon="0.67239">
        <ele>601</ele>
        <time>2022-09-08T12:14:22Z</time>
      </trkpt>
      <trkpt lat="42.98702" lon="0.67239">
        <ele>601</ele>
        <time>2022-09-08T12:14:24Z</time>
      </trkpt>
      <trkpt lat="42.98701" lon="0.67242">
        <ele>602</ele>
        <time>2022-09-08T12:14:46Z</time>
      </trkpt>
      <trkpt lat="42.98702" lon="0.67239">
        <ele>602</ele>
        <time>2022-09-08T12:15:15Z</time>
      </trkpt>
      <trkpt lat="42.987" lon="0.67237">
        <ele>602</ele>
        <time>2022-09-08T12:15:40Z</time>
      </trkpt>
      <trkpt lat="42.98698" lon="0.67236">
        <ele>602</ele>
        <time>2022-09-08T12:15:43Z</time>
      </trkpt>
      <trkpt lat="42.98696" lon="0.67236">
        <ele>602</ele>
        <time>2022-09-08T12:15:45Z</time>
      </trkpt>
      <trkpt lat="42.98695" lon="0.67238">
        <ele>602</ele>
        <time>2022-09-08T12:15:54Z</time>
      </trkpt>
      <trkpt lat="42.98693" lon="0.67237">
        <ele>602</ele>
        <time>2022-09-08T12:15:57Z</time>
      </trkpt>
      <trkpt lat="42.98691" lon="0.67239">
        <ele>602</ele>
        <time>2022-09-08T12:16:01Z</time>
      </trkpt>
      <trkpt lat="42.98689" lon="0.67238">
        <ele>602</ele>
        <time>2022-09-08T12:16:09Z</time>
      </trkpt>
      <trkpt lat="42.98693" lon="0.67239">
        <ele>602</ele>
        <time>2022-09-08T12:16:50Z</time>
      </trkpt>
      <trkpt lat="42.98691" lon="0.67238">
        <ele>601</ele>
        <time>2022-09-08T12:16:55Z</time>
      </trkpt>
      <trkpt lat="42.98689" lon="0.67237">
        <ele>601</ele>
        <time>2022-09-08T12:16:57Z</time>
      </trkpt>
      <trkpt lat="42.98687" lon="0.67238">
        <ele>601</ele>
        <time>2022-09-08T12:16:59Z</time>
      </trkpt>
      <trkpt lat="42.98689" lon="0.67237">
        <ele>603</ele>
        <time>2022-09-08T12:18:10Z</time>
      </trkpt>
      <trkpt lat="42.98691" lon="0.67235">
        <ele>603</ele>
        <time>2022-09-08T12:18:13Z</time>
      </trkpt>
      <trkpt lat="42.98691" lon="0.67232">
        <ele>603</ele>
        <time>2022-09-08T12:18:16Z</time>
      </trkpt>
      <trkpt lat="42.9869" lon="0.67229">
        <ele>603</ele>
        <time>2022-09-08T12:18:18Z</time>
      </trkpt>
      <trkpt lat="42.98688" lon="0.67226">
        <ele>603</ele>
        <time>2022-09-08T12:18:20Z</time>
      </trkpt>
      <trkpt lat="42.98687" lon="0.67224">
        <ele>603</ele>
        <time>2022-09-08T12:18:22Z</time>
      </trkpt>
      <trkpt lat="42.98685" lon="0.67223">
        <ele>603</ele>
        <time>2022-09-08T12:18:24Z</time>
      </trkpt>
      <trkpt lat="42.98683" lon="0.67221">
        <ele>603</ele>
        <time>2022-09-08T12:18:26Z</time>
      </trkpt>
      <trkpt lat="42.98681" lon="0.6722">
        <ele>603</ele>
        <time>2022-09-08T12:18:28Z</time>
      </trkpt>
      <trkpt lat="42.98679" lon="0.67218">
        <ele>603</ele>
        <time>2022-09-08T12:18:31Z</time>
      </trkpt>
      <trkpt lat="42.98677" lon="0.67217">
        <ele>603</ele>
        <time>2022-09-08T12:18:33Z</time>
      </trkpt>
      <trkpt lat="42.98675" lon="0.67215">
        <ele>603</ele>
        <time>2022-09-08T12:18:35Z</time>
      </trkpt>
      <trkpt lat="42.98674" lon="0.67214">
        <ele>603</ele>
        <time>2022-09-08T12:18:37Z</time>
      </trkpt>
      <trkpt lat="42.98672" lon="0.67212">
        <ele>603</ele>
        <time>2022-09-08T12:18:39Z</time>
      </trkpt>
      <trkpt lat="42.9867" lon="0.67211">
        <ele>603</ele>
        <time>2022-09-08T12:18:41Z</time>
      </trkpt>
      <trkpt lat="42.98668" lon="0.67209">
        <ele>603</ele>
        <time>2022-09-08T12:18:43Z</time>
      </trkpt>
      <trkpt lat="42.98666" lon="0.67208">
        <ele>603</ele>
        <time>2022-09-08T12:18:45Z</time>
      </trkpt>
      <trkpt lat="42.98663" lon="0.67207">
        <ele>603</ele>
        <time>2022-09-08T12:18:47Z</time>
      </trkpt>
      <trkpt lat="42.98661" lon="0.67204">
        <ele>603</ele>
        <time>2022-09-08T12:18:49Z</time>
      </trkpt>
      <trkpt lat="42.98659" lon="0.67202">
        <ele>603</ele>
        <time>2022-09-08T12:18:51Z</time>
      </trkpt>
      <trkpt lat="42.98658" lon="0.672">
        <ele>604</ele>
        <time>2022-09-08T12:18:54Z</time>
      </trkpt>
      <trkpt lat="42.98657" lon="0.67198">
        <ele>604</ele>
        <time>2022-09-08T12:18:56Z</time>
      </trkpt>
      <trkpt lat="42.98655" lon="0.67196">
        <ele>604</ele>
        <time>2022-09-08T12:18:58Z</time>
      </trkpt>
      <trkpt lat="42.98654" lon="0.67193">
        <ele>604</ele>
        <time>2022-09-08T12:19:00Z</time>
      </trkpt>
      <trkpt lat="42.98652" lon="0.67191">
        <ele>604</ele>
        <time>2022-09-08T12:19:01Z</time>
      </trkpt>
      <trkpt lat="42.98651" lon="0.67188">
        <ele>604</ele>
        <time>2022-09-08T12:19:07Z</time>
      </trkpt>
      <trkpt lat="42.9865" lon="0.67186">
        <ele>604</ele>
        <time>2022-09-08T12:19:09Z</time>
      </trkpt>
      <trkpt lat="42.98649" lon="0.67184">
        <ele>604</ele>
        <time>2022-09-08T12:19:13Z</time>
      </trkpt>
      <trkpt lat="42.9865" lon="0.67182">
        <ele>605</ele>
        <time>2022-09-08T12:21:07Z</time>
      </trkpt>
      <trkpt lat="42.98649" lon="0.67179">
        <ele>605</ele>
        <time>2022-09-08T12:21:10Z</time>
      </trkpt>
      <trkpt lat="42.98647" lon="0.67177">
        <ele>605</ele>
        <time>2022-09-08T12:21:13Z</time>
      </trkpt>
      <trkpt lat="42.98646" lon="0.67175">
        <ele>605</ele>
        <time>2022-09-08T12:21:15Z</time>
      </trkpt>
      <trkpt lat="42.98644" lon="0.67173">
        <ele>605</ele>
        <time>2022-09-08T12:21:17Z</time>
      </trkpt>
      <trkpt lat="42.98643" lon="0.6717">
        <ele>605</ele>
        <time>2022-09-08T12:21:19Z</time>
      </trkpt>
      <trkpt lat="42.98641" lon="0.67168">
        <ele>605</ele>
        <time>2022-09-08T12:21:20Z</time>
      </trkpt>
      <trkpt lat="42.98639" lon="0.67165">
        <ele>605</ele>
        <time>2022-09-08T12:21:23Z</time>
      </trkpt>
      <trkpt lat="42.98638" lon="0.67162">
        <ele>605</ele>
        <time>2022-09-08T12:21:24Z</time>
      </trkpt>
      <trkpt lat="42.98636" lon="0.6716">
        <ele>605</ele>
        <time>2022-09-08T12:21:26Z</time>
      </trkpt>
      <trkpt lat="42.98635" lon="0.67156">
        <ele>605</ele>
        <time>2022-09-08T12:21:28Z</time>
      </trkpt>
      <trkpt lat="42.98633" lon="0.67154">
        <ele>605</ele>
        <time>2022-09-08T12:21:30Z</time>
      </trkpt>
      <trkpt lat="42.98631" lon="0.67152">
        <ele>605</ele>
        <time>2022-09-08T12:21:32Z</time>
      </trkpt>
      <trkpt lat="42.98629" lon="0.67149">
        <ele>605</ele>
        <time>2022-09-08T12:21:34Z</time>
      </trkpt>
      <trkpt lat="42.98626" lon="0.67147">
        <ele>605</ele>
        <time>2022-09-08T12:21:36Z</time>
      </trkpt>
      <trkpt lat="42.98624" lon="0.67144">
        <ele>605</ele>
        <time>2022-09-08T12:21:38Z</time>
      </trkpt>
      <trkpt lat="42.98622" lon="0.67142">
        <ele>605</ele>
        <time>2022-09-08T12:21:40Z</time>
      </trkpt>
      <trkpt lat="42.98621" lon="0.6714">
        <ele>605</ele>
        <time>2022-09-08T12:21:42Z</time>
      </trkpt>
      <trkpt lat="42.98619" lon="0.67138">
        <ele>605</ele>
        <time>2022-09-08T12:21:44Z</time>
      </trkpt>
      <trkpt lat="42.98617" lon="0.67136">
        <ele>605</ele>
        <time>2022-09-08T12:21:46Z</time>
      </trkpt>
      <trkpt lat="42.98615" lon="0.67134">
        <ele>605</ele>
        <time>2022-09-08T12:21:48Z</time>
      </trkpt>
      <trkpt lat="42.98612" lon="0.67133">
        <ele>605</ele>
        <time>2022-09-08T12:21:50Z</time>
      </trkpt>
      <trkpt lat="42.9861" lon="0.67131">
        <ele>604</ele>
        <time>2022-09-08T12:21:52Z</time>
      </trkpt>
      <trkpt lat="42.98607" lon="0.6713">
        <ele>604</ele>
        <time>2022-09-08T12:21:54Z</time>
      </trkpt>
      <trkpt lat="42.98605" lon="0.67129">
        <ele>604</ele>
        <time>2022-09-08T12:21:56Z</time>
      </trkpt>
      <trkpt lat="42.98602" lon="0.67128">
        <ele>604</ele>
        <time>2022-09-08T12:21:58Z</time>
      </trkpt>
      <trkpt lat="42.98599" lon="0.67127">
        <ele>604</ele>
        <time>2022-09-08T12:22:01Z</time>
      </trkpt>
      <trkpt lat="42.98597" lon="0.67126">
        <ele>604</ele>
        <time>2022-09-08T12:22:02Z</time>
      </trkpt>
      <trkpt lat="42.98595" lon="0.67125">
        <ele>604</ele>
        <time>2022-09-08T12:22:04Z</time>
      </trkpt>
      <trkpt lat="42.98593" lon="0.67124">
        <ele>604</ele>
        <time>2022-09-08T12:22:06Z</time>
      </trkpt>
      <trkpt lat="42.9859" lon="0.67123">
        <ele>604</ele>
        <time>2022-09-08T12:22:08Z</time>
      </trkpt>
      <trkpt lat="42.98588" lon="0.67122">
        <ele>604</ele>
        <time>2022-09-08T12:22:10Z</time>
      </trkpt>
      <trkpt lat="42.98585" lon="0.67121">
        <ele>604</ele>
        <time>2022-09-08T12:22:12Z</time>
      </trkpt>
      <trkpt lat="42.98583" lon="0.6712">
        <ele>604</ele>
        <time>2022-09-08T12:22:14Z</time>
      </trkpt>
      <trkpt lat="42.9858" lon="0.6712">
        <ele>604</ele>
        <time>2022-09-08T12:22:16Z</time>
      </trkpt>
      <trkpt lat="42.98578" lon="0.67119">
        <ele>604</ele>
        <time>2022-09-08T12:22:18Z</time>
      </trkpt>
      <trkpt lat="42.98576" lon="0.67118">
        <ele>604</ele>
        <time>2022-09-08T12:22:20Z</time>
      </trkpt>
      <trkpt lat="42.98573" lon="0.67117">
        <ele>605</ele>
        <time>2022-09-08T12:22:22Z</time>
      </trkpt>
      <trkpt lat="42.98571" lon="0.67116">
        <ele>605</ele>
        <time>2022-09-08T12:22:24Z</time>
      </trkpt>
      <trkpt lat="42.98569" lon="0.67115">
        <ele>605</ele>
        <time>2022-09-08T12:22:26Z</time>
      </trkpt>
      <trkpt lat="42.98566" lon="0.67114">
        <ele>605</ele>
        <time>2022-09-08T12:22:28Z</time>
      </trkpt>
      <trkpt lat="42.98564" lon="0.67113">
        <ele>605</ele>
        <time>2022-09-08T12:22:30Z</time>
      </trkpt>
      <trkpt lat="42.98561" lon="0.67112">
        <ele>605</ele>
        <time>2022-09-08T12:22:32Z</time>
      </trkpt>
      <trkpt lat="42.98559" lon="0.67111">
        <ele>605</ele>
        <time>2022-09-08T12:22:34Z</time>
      </trkpt>
      <trkpt lat="42.98557" lon="0.6711">
        <ele>605</ele>
        <time>2022-09-08T12:22:36Z</time>
      </trkpt>
      <trkpt lat="42.98555" lon="0.67109">
        <ele>605</ele>
        <time>2022-09-08T12:22:38Z</time>
      </trkpt>
      <trkpt lat="42.98553" lon="0.67108">
        <ele>605</ele>
        <time>2022-09-08T12:22:40Z</time>
      </trkpt>
      <trkpt lat="42.98551" lon="0.67107">
        <ele>606</ele>
        <time>2022-09-08T12:22:42Z</time>
      </trkpt>
      <trkpt lat="42.98549" lon="0.67106">
        <ele>606</ele>
        <time>2022-09-08T12:22:44Z</time>
      </trkpt>
      <trkpt lat="42.98547" lon="0.67104">
        <ele>606</ele>
        <time>2022-09-08T12:22:53Z</time>
      </trkpt>
      <trkpt lat="42.98545" lon="0.67103">
        <ele>607</ele>
        <time>2022-09-08T12:23:02Z</time>
      </trkpt>
      <trkpt lat="42.98544" lon="0.67103">
        <ele>607</ele>
        <time>2022-09-08T12:23:08Z</time>
      </trkpt>
      <trkpt lat="42.98542" lon="0.67102">
        <ele>607</ele>
        <time>2022-09-08T12:23:13Z</time>
      </trkpt>
      <trkpt lat="42.98542" lon="0.67099">
        <ele>607</ele>
        <time>2022-09-08T12:23:20Z</time>
      </trkpt>
      <trkpt lat="42.98543" lon="0.67096">
        <ele>607</ele>
        <time>2022-09-08T12:23:23Z</time>
      </trkpt>
      <trkpt lat="42.98542" lon="0.67093">
        <ele>607</ele>
        <time>2022-09-08T12:23:28Z</time>
      </trkpt>
      <trkpt lat="42.98542" lon="0.67089">
        <ele>607</ele>
        <time>2022-09-08T12:23:30Z</time>
      </trkpt>
      <trkpt lat="42.98544" lon="0.6709">
        <ele>608</ele>
        <time>2022-09-08T12:23:48Z</time>
      </trkpt>
      <trkpt lat="42.98542" lon="0.67088">
        <ele>606</ele>
        <time>2022-09-08T12:24:03Z</time>
      </trkpt>
      <trkpt lat="42.9854" lon="0.67087">
        <ele>606</ele>
        <time>2022-09-08T12:24:07Z</time>
      </trkpt>
      <trkpt lat="42.98539" lon="0.67085">
        <ele>606</ele>
        <time>2022-09-08T12:24:09Z</time>
      </trkpt>
      <trkpt lat="42.98537" lon="0.67083">
        <ele>606</ele>
        <time>2022-09-08T12:24:18Z</time>
      </trkpt>
      <trkpt lat="42.98536" lon="0.67081">
        <ele>606</ele>
        <time>2022-09-08T12:24:19Z</time>
      </trkpt>
      <trkpt lat="42.98534" lon="0.67078">
        <ele>607</ele>
        <time>2022-09-08T12:24:23Z</time>
      </trkpt>
      <trkpt lat="42.98533" lon="0.67076">
        <ele>607</ele>
        <time>2022-09-08T12:24:25Z</time>
      </trkpt>
      <trkpt lat="42.98532" lon="0.67074">
        <ele>607</ele>
        <time>2022-09-08T12:24:35Z</time>
      </trkpt>
      <trkpt lat="42.98531" lon="0.67072">
        <ele>608</ele>
        <time>2022-09-08T12:24:46Z</time>
      </trkpt>
      <trkpt lat="42.98529" lon="0.67069">
        <ele>608</ele>
        <time>2022-09-08T12:24:50Z</time>
      </trkpt>
      <trkpt lat="42.98527" lon="0.67067">
        <ele>608</ele>
        <time>2022-09-08T12:24:51Z</time>
      </trkpt>
      <trkpt lat="42.98526" lon="0.67065">
        <ele>609</ele>
        <time>2022-09-08T12:24:53Z</time>
      </trkpt>
      <trkpt lat="42.98525" lon="0.67063">
        <ele>609</ele>
        <time>2022-09-08T12:24:55Z</time>
      </trkpt>
      <trkpt lat="42.98524" lon="0.6706">
        <ele>609</ele>
        <time>2022-09-08T12:24:57Z</time>
      </trkpt>
      <trkpt lat="42.98522" lon="0.67058">
        <ele>609</ele>
        <time>2022-09-08T12:24:59Z</time>
      </trkpt>
      <trkpt lat="42.98521" lon="0.67056">
        <ele>609</ele>
        <time>2022-09-08T12:25:01Z</time>
      </trkpt>
      <trkpt lat="42.98519" lon="0.67053">
        <ele>608</ele>
        <time>2022-09-08T12:25:03Z</time>
      </trkpt>
      <trkpt lat="42.98518" lon="0.67051">
        <ele>608</ele>
        <time>2022-09-08T12:25:05Z</time>
      </trkpt>
      <trkpt lat="42.98517" lon="0.67048">
        <ele>608</ele>
        <time>2022-09-08T12:25:07Z</time>
      </trkpt>
      <trkpt lat="42.98516" lon="0.67046">
        <ele>608</ele>
        <time>2022-09-08T12:25:12Z</time>
      </trkpt>
      <trkpt lat="42.98515" lon="0.67043">
        <ele>607</ele>
        <time>2022-09-08T12:25:34Z</time>
      </trkpt>
      <trkpt lat="42.98514" lon="0.67041">
        <ele>607</ele>
        <time>2022-09-08T12:25:37Z</time>
      </trkpt>
      <trkpt lat="42.98512" lon="0.67038">
        <ele>607</ele>
        <time>2022-09-08T12:25:47Z</time>
      </trkpt>
      <trkpt lat="42.9851" lon="0.67036">
        <ele>607</ele>
        <time>2022-09-08T12:25:50Z</time>
      </trkpt>
      <trkpt lat="42.98509" lon="0.67034">
        <ele>607</ele>
        <time>2022-09-08T12:25:58Z</time>
      </trkpt>
      <trkpt lat="42.98507" lon="0.67031">
        <ele>607</ele>
        <time>2022-09-08T12:26:02Z</time>
      </trkpt>
      <trkpt lat="42.98506" lon="0.6703">
        <ele>607</ele>
        <time>2022-09-08T12:26:04Z</time>
      </trkpt>
      <trkpt lat="42.98505" lon="0.67027">
        <ele>607</ele>
        <time>2022-09-08T12:26:05Z</time>
      </trkpt>
      <trkpt lat="42.98503" lon="0.67026">
        <ele>607</ele>
        <time>2022-09-08T12:26:07Z</time>
      </trkpt>
      <trkpt lat="42.98502" lon="0.67023">
        <ele>607</ele>
        <time>2022-09-08T12:26:09Z</time>
      </trkpt>
      <trkpt lat="42.985" lon="0.67021">
        <ele>607</ele>
        <time>2022-09-08T12:26:11Z</time>
      </trkpt>
      <trkpt lat="42.98499" lon="0.67019">
        <ele>607</ele>
        <time>2022-09-08T12:26:13Z</time>
      </trkpt>
      <trkpt lat="42.98497" lon="0.67017">
        <ele>607</ele>
        <time>2022-09-08T12:26:16Z</time>
      </trkpt>
      <trkpt lat="42.98495" lon="0.67015">
        <ele>607</ele>
        <time>2022-09-08T12:26:17Z</time>
      </trkpt>
      <trkpt lat="42.98494" lon="0.67012">
        <ele>607</ele>
        <time>2022-09-08T12:26:19Z</time>
      </trkpt>
      <trkpt lat="42.98492" lon="0.67009">
        <ele>607</ele>
        <time>2022-09-08T12:26:21Z</time>
      </trkpt>
      <trkpt lat="42.9849" lon="0.67007">
        <ele>606</ele>
        <time>2022-09-08T12:26:23Z</time>
      </trkpt>
      <trkpt lat="42.9849" lon="0.67004">
        <ele>606</ele>
        <time>2022-09-08T12:26:25Z</time>
      </trkpt>
      <trkpt lat="42.98489" lon="0.67001">
        <ele>606</ele>
        <time>2022-09-08T12:26:27Z</time>
      </trkpt>
      <trkpt lat="42.98487" lon="0.67">
        <ele>606</ele>
        <time>2022-09-08T12:26:36Z</time>
      </trkpt>
      <trkpt lat="42.98485" lon="0.66998">
        <ele>606</ele>
        <time>2022-09-08T12:26:40Z</time>
      </trkpt>
      <trkpt lat="42.98483" lon="0.66997">
        <ele>605</ele>
        <time>2022-09-08T12:26:46Z</time>
      </trkpt>
      <trkpt lat="42.98481" lon="0.66996">
        <ele>605</ele>
        <time>2022-09-08T12:26:55Z</time>
      </trkpt>
      <trkpt lat="42.98475" lon="0.66993">
        <ele>605</ele>
        <time>2022-09-08T12:27:03Z</time>
      </trkpt>
      <trkpt lat="42.98472" lon="0.66993">
        <ele>605</ele>
        <time>2022-09-08T12:27:04Z</time>
      </trkpt>
      <trkpt lat="42.9847" lon="0.66991">
        <ele>605</ele>
        <time>2022-09-08T12:27:06Z</time>
      </trkpt>
      <trkpt lat="42.98468" lon="0.66989">
        <ele>605</ele>
        <time>2022-09-08T12:27:08Z</time>
      </trkpt>
      <trkpt lat="42.98466" lon="0.66987">
        <ele>605</ele>
        <time>2022-09-08T12:27:10Z</time>
      </trkpt>
      <trkpt lat="42.98463" lon="0.66986">
        <ele>605</ele>
        <time>2022-09-08T12:27:12Z</time>
      </trkpt>
      <trkpt lat="42.98462" lon="0.66984">
        <ele>605</ele>
        <time>2022-09-08T12:27:14Z</time>
      </trkpt>
      <trkpt lat="42.9846" lon="0.66982">
        <ele>605</ele>
        <time>2022-09-08T12:27:16Z</time>
      </trkpt>
      <trkpt lat="42.98458" lon="0.66979">
        <ele>605</ele>
        <time>2022-09-08T12:27:18Z</time>
      </trkpt>
      <trkpt lat="42.98456" lon="0.66977">
        <ele>605</ele>
        <time>2022-09-08T12:27:20Z</time>
      </trkpt>
      <trkpt lat="42.98454" lon="0.66976">
        <ele>605</ele>
        <time>2022-09-08T12:27:22Z</time>
      </trkpt>
      <trkpt lat="42.98452" lon="0.66974">
        <ele>605</ele>
        <time>2022-09-08T12:27:24Z</time>
      </trkpt>
      <trkpt lat="42.98451" lon="0.66971">
        <ele>605</ele>
        <time>2022-09-08T12:27:26Z</time>
      </trkpt>
      <trkpt lat="42.98449" lon="0.66969">
        <ele>605</ele>
        <time>2022-09-08T12:27:28Z</time>
      </trkpt>
      <trkpt lat="42.98448" lon="0.66967">
        <ele>605</ele>
        <time>2022-09-08T12:27:30Z</time>
      </trkpt>
      <trkpt lat="42.98447" lon="0.66965">
        <ele>605</ele>
        <time>2022-09-08T12:27:32Z</time>
      </trkpt>
      <trkpt lat="42.98446" lon="0.66963">
        <ele>605</ele>
        <time>2022-09-08T12:27:34Z</time>
      </trkpt>
      <trkpt lat="42.98444" lon="0.66962">
        <ele>604</ele>
        <time>2022-09-08T12:27:43Z</time>
      </trkpt>
      <trkpt lat="42.98442" lon="0.66964">
        <ele>604</ele>
        <time>2022-09-08T12:27:48Z</time>
      </trkpt>
      <trkpt lat="42.98442" lon="0.66961">
        <ele>604</ele>
        <time>2022-09-08T12:27:59Z</time>
      </trkpt>
      <trkpt lat="42.98445" lon="0.66962">
        <ele>605</ele>
        <time>2022-09-08T12:28:03Z</time>
      </trkpt>
      <trkpt lat="42.98445" lon="0.6696">
        <ele>604</ele>
        <time>2022-09-08T12:28:20Z</time>
      </trkpt>
      <trkpt lat="42.98444" lon="0.6696">
        <ele>604</ele>
        <time>2022-09-08T12:28:51Z</time>
      </trkpt>
      <trkpt lat="42.98442" lon="0.66963">
        <ele>604</ele>
        <time>2022-09-08T12:29:05Z</time>
      </trkpt>
      <trkpt lat="42.98441" lon="0.66965">
        <ele>604</ele>
        <time>2022-09-08T12:29:08Z</time>
      </trkpt>
      <trkpt lat="42.9844" lon="0.66968">
        <ele>604</ele>
        <time>2022-09-08T12:29:11Z</time>
      </trkpt>
      <trkpt lat="42.98439" lon="0.66971">
        <ele>604</ele>
        <time>2022-09-08T12:29:14Z</time>
      </trkpt>
      <trkpt lat="42.98438" lon="0.66975">
        <ele>604</ele>
        <time>2022-09-08T12:29:16Z</time>
      </trkpt>
      <trkpt lat="42.98437" lon="0.66977">
        <ele>604</ele>
        <time>2022-09-08T12:29:18Z</time>
      </trkpt>
      <trkpt lat="42.98436" lon="0.6698">
        <ele>604</ele>
        <time>2022-09-08T12:29:21Z</time>
      </trkpt>
      <trkpt lat="42.98435" lon="0.66982">
        <ele>605</ele>
        <time>2022-09-08T12:29:22Z</time>
      </trkpt>
      <trkpt lat="42.98434" lon="0.66985">
        <ele>605</ele>
        <time>2022-09-08T12:29:25Z</time>
      </trkpt>
      <trkpt lat="42.98434" lon="0.66988">
        <ele>605</ele>
        <time>2022-09-08T12:29:27Z</time>
      </trkpt>
      <trkpt lat="42.98433" lon="0.66991">
        <ele>605</ele>
        <time>2022-09-08T12:29:29Z</time>
      </trkpt>
      <trkpt lat="42.98432" lon="0.66993">
        <ele>605</ele>
        <time>2022-09-08T12:29:32Z</time>
      </trkpt>
      <trkpt lat="42.98431" lon="0.66997">
        <ele>605</ele>
        <time>2022-09-08T12:29:35Z</time>
      </trkpt>
      <trkpt lat="42.9843" lon="0.67">
        <ele>605</ele>
        <time>2022-09-08T12:29:37Z</time>
      </trkpt>
      <trkpt lat="42.98428" lon="0.67003">
        <ele>605</ele>
        <time>2022-09-08T12:29:39Z</time>
      </trkpt>
      <trkpt lat="42.98427" lon="0.67005">
        <ele>605</ele>
        <time>2022-09-08T12:29:41Z</time>
      </trkpt>
      <trkpt lat="42.98426" lon="0.67007">
        <ele>606</ele>
        <time>2022-09-08T12:29:43Z</time>
      </trkpt>
      <trkpt lat="42.98425" lon="0.6701">
        <ele>606</ele>
        <time>2022-09-08T12:29:45Z</time>
      </trkpt>
      <trkpt lat="42.98423" lon="0.67011">
        <ele>606</ele>
        <time>2022-09-08T12:29:47Z</time>
      </trkpt>
      <trkpt lat="42.98422" lon="0.67013">
        <ele>606</ele>
        <time>2022-09-08T12:29:49Z</time>
      </trkpt>
      <trkpt lat="42.9842" lon="0.67015">
        <ele>606</ele>
        <time>2022-09-08T12:29:51Z</time>
      </trkpt>
      <trkpt lat="42.98418" lon="0.67017">
        <ele>607</ele>
        <time>2022-09-08T12:29:53Z</time>
      </trkpt>
      <trkpt lat="42.98416" lon="0.67019">
        <ele>607</ele>
        <time>2022-09-08T12:29:56Z</time>
      </trkpt>
      <trkpt lat="42.98414" lon="0.6702">
        <ele>607</ele>
        <time>2022-09-08T12:29:57Z</time>
      </trkpt>
      <trkpt lat="42.98412" lon="0.67021">
        <ele>607</ele>
        <time>2022-09-08T12:30:00Z</time>
      </trkpt>
      <trkpt lat="42.98411" lon="0.67021">
        <ele>607</ele>
        <time>2022-09-08T12:30:01Z</time>
      </trkpt>
      <trkpt lat="42.98409" lon="0.67022">
        <ele>607</ele>
        <time>2022-09-08T12:30:03Z</time>
      </trkpt>
      <trkpt lat="42.98407" lon="0.67023">
        <ele>607</ele>
        <time>2022-09-08T12:30:05Z</time>
      </trkpt>
      <trkpt lat="42.98406" lon="0.67025">
        <ele>607</ele>
        <time>2022-09-08T12:30:07Z</time>
      </trkpt>
      <trkpt lat="42.98404" lon="0.67026">
        <ele>607</ele>
        <time>2022-09-08T12:30:09Z</time>
      </trkpt>
      <trkpt lat="42.98402" lon="0.67029">
        <ele>607</ele>
        <time>2022-09-08T12:30:12Z</time>
      </trkpt>
      <trkpt lat="42.98401" lon="0.6703">
        <ele>607</ele>
        <time>2022-09-08T12:30:14Z</time>
      </trkpt>
      <trkpt lat="42.98399" lon="0.67032">
        <ele>607</ele>
        <time>2022-09-08T12:30:16Z</time>
      </trkpt>
      <trkpt lat="42.98397" lon="0.67035">
        <ele>607</ele>
        <time>2022-09-08T12:30:19Z</time>
      </trkpt>
      <trkpt lat="42.98388" lon="0.67039">
        <ele>607</ele>
        <time>2022-09-08T12:30:27Z</time>
      </trkpt>
      <trkpt lat="42.98389" lon="0.67036">
        <ele>606</ele>
        <time>2022-09-08T12:30:36Z</time>
      </trkpt>
      <trkpt lat="42.98391" lon="0.67036">
        <ele>606</ele>
        <time>2022-09-08T12:30:45Z</time>
      </trkpt>
      <trkpt lat="42.98393" lon="0.67034">
        <ele>606</ele>
        <time>2022-09-08T12:30:48Z</time>
      </trkpt>
      <trkpt lat="42.98391" lon="0.67036">
        <ele>606</ele>
        <time>2022-09-08T12:30:57Z</time>
      </trkpt>
      <trkpt lat="42.9839" lon="0.67039">
        <ele>606</ele>
        <time>2022-09-08T12:31:07Z</time>
      </trkpt>
      <trkpt lat="42.9839" lon="0.67041">
        <ele>606</ele>
        <time>2022-09-08T12:31:23Z</time>
      </trkpt>
      <trkpt lat="42.98389" lon="0.67044">
        <ele>606</ele>
        <time>2022-09-08T12:31:28Z</time>
      </trkpt>
      <trkpt lat="42.98389" lon="0.67046">
        <ele>606</ele>
        <time>2022-09-08T12:31:30Z</time>
      </trkpt>
      <trkpt lat="42.98389" lon="0.6705">
        <ele>606</ele>
        <time>2022-09-08T12:31:33Z</time>
      </trkpt>
      <trkpt lat="42.98389" lon="0.67052">
        <ele>606</ele>
        <time>2022-09-08T12:31:35Z</time>
      </trkpt>
      <trkpt lat="42.98389" lon="0.67055">
        <ele>606</ele>
        <time>2022-09-08T12:31:37Z</time>
      </trkpt>
      <trkpt lat="42.98387" lon="0.67068">
        <ele>605</ele>
        <time>2022-09-08T12:31:46Z</time>
      </trkpt>
      <trkpt lat="42.98385" lon="0.67077">
        <ele>604</ele>
        <time>2022-09-08T12:32:02Z</time>
      </trkpt>
      <trkpt lat="42.98387" lon="0.67076">
        <ele>604</ele>
        <time>2022-09-08T12:32:19Z</time>
      </trkpt>
      <trkpt lat="42.98388" lon="0.67074">
        <ele>603</ele>
        <time>2022-09-08T12:33:09Z</time>
      </trkpt>
      <trkpt lat="42.9839" lon="0.67076">
        <ele>603</ele>
        <time>2022-09-08T12:34:09Z</time>
      </trkpt>
      <trkpt lat="42.98388" lon="0.67079">
        <ele>603</ele>
        <time>2022-09-08T12:34:14Z</time>
      </trkpt>
      <trkpt lat="42.98387" lon="0.6708">
        <ele>603</ele>
        <time>2022-09-08T12:34:33Z</time>
      </trkpt>
      <trkpt lat="42.98388" lon="0.67081">
        <ele>603</ele>
        <time>2022-09-08T12:35:44Z</time>
      </trkpt>
      <trkpt lat="42.98387" lon="0.67082">
        <ele>601</ele>
        <time>2022-09-08T12:36:04Z</time>
      </trkpt>
      <trkpt lat="42.98389" lon="0.67084">
        <ele>603</ele>
        <time>2022-09-08T12:37:44Z</time>
      </trkpt>
      <trkpt lat="42.98391" lon="0.67086">
        <ele>603</ele>
        <time>2022-09-08T12:37:47Z</time>
      </trkpt>
      <trkpt lat="42.98393" lon="0.67087">
        <ele>603</ele>
        <time>2022-09-08T12:37:49Z</time>
      </trkpt>
      <trkpt lat="42.98394" lon="0.67089">
        <ele>603</ele>
        <time>2022-09-08T12:37:51Z</time>
      </trkpt>
      <trkpt lat="42.98396" lon="0.67091">
        <ele>603</ele>
        <time>2022-09-08T12:37:53Z</time>
      </trkpt>
      <trkpt lat="42.98397" lon="0.67093">
        <ele>603</ele>
        <time>2022-09-08T12:37:56Z</time>
      </trkpt>
      <trkpt lat="42.98399" lon="0.67095">
        <ele>603</ele>
        <time>2022-09-08T12:37:57Z</time>
      </trkpt>
      <trkpt lat="42.98401" lon="0.67097">
        <ele>603</ele>
        <time>2022-09-08T12:37:59Z</time>
      </trkpt>
      <trkpt lat="42.98402" lon="0.67099">
        <ele>603</ele>
        <time>2022-09-08T12:38:01Z</time>
      </trkpt>
      <trkpt lat="42.98404" lon="0.671">
        <ele>602</ele>
        <time>2022-09-08T12:38:03Z</time>
      </trkpt>
      <trkpt lat="42.98406" lon="0.67102">
        <ele>602</ele>
        <time>2022-09-08T12:38:05Z</time>
      </trkpt>
      <trkpt lat="42.98408" lon="0.67104">
        <ele>602</ele>
        <time>2022-09-08T12:38:07Z</time>
      </trkpt>
      <trkpt lat="42.9841" lon="0.67106">
        <ele>602</ele>
        <time>2022-09-08T12:38:10Z</time>
      </trkpt>
      <trkpt lat="42.98412" lon="0.67108">
        <ele>601</ele>
        <time>2022-09-08T12:38:14Z</time>
      </trkpt>
      <trkpt lat="42.98413" lon="0.67109">
        <ele>601</ele>
        <time>2022-09-08T12:38:16Z</time>
      </trkpt>
      <trkpt lat="42.98415" lon="0.67112">
        <ele>601</ele>
        <time>2022-09-08T12:38:17Z</time>
      </trkpt>
      <trkpt lat="42.98417" lon="0.67113">
        <ele>601</ele>
        <time>2022-09-08T12:38:19Z</time>
      </trkpt>
      <trkpt lat="42.9842" lon="0.67115">
        <ele>601</ele>
        <time>2022-09-08T12:38:21Z</time>
      </trkpt>
      <trkpt lat="42.98422" lon="0.67118">
        <ele>600</ele>
        <time>2022-09-08T12:38:23Z</time>
      </trkpt>
      <trkpt lat="42.98424" lon="0.6712">
        <ele>600</ele>
        <time>2022-09-08T12:38:25Z</time>
      </trkpt>
      <trkpt lat="42.98426" lon="0.67122">
        <ele>600</ele>
        <time>2022-09-08T12:38:27Z</time>
      </trkpt>
      <trkpt lat="42.98427" lon="0.67124">
        <ele>600</ele>
        <time>2022-09-08T12:38:29Z</time>
      </trkpt>
      <trkpt lat="42.98429" lon="0.67126">
        <ele>600</ele>
        <time>2022-09-08T12:38:31Z</time>
      </trkpt>
      <trkpt lat="42.9843" lon="0.67129">
        <ele>600</ele>
        <time>2022-09-08T12:38:33Z</time>
      </trkpt>
      <trkpt lat="42.98432" lon="0.67131">
        <ele>600</ele>
        <time>2022-09-08T12:38:35Z</time>
      </trkpt>
      <trkpt lat="42.98433" lon="0.67133">
        <ele>600</ele>
        <time>2022-09-08T12:38:37Z</time>
      </trkpt>
      <trkpt lat="42.98436" lon="0.67136">
        <ele>600</ele>
        <time>2022-09-08T12:38:40Z</time>
      </trkpt>
      <trkpt lat="42.98437" lon="0.67139">
        <ele>599</ele>
        <time>2022-09-08T12:38:42Z</time>
      </trkpt>
      <trkpt lat="42.98439" lon="0.67141">
        <ele>599</ele>
        <time>2022-09-08T12:38:44Z</time>
      </trkpt>
      <trkpt lat="42.98441" lon="0.67143">
        <ele>599</ele>
        <time>2022-09-08T12:38:46Z</time>
      </trkpt>
      <trkpt lat="42.98444" lon="0.67149">
        <ele>598</ele>
        <time>2022-09-08T12:38:54Z</time>
      </trkpt>
      <trkpt lat="42.98445" lon="0.67151">
        <ele>598</ele>
        <time>2022-09-08T12:39:01Z</time>
      </trkpt>
      <trkpt lat="42.98447" lon="0.67154">
        <ele>598</ele>
        <time>2022-09-08T12:39:04Z</time>
      </trkpt>
      <trkpt lat="42.98448" lon="0.67151">
        <ele>598</ele>
        <time>2022-09-08T12:39:15Z</time>
      </trkpt>
      <trkpt lat="42.98448" lon="0.67148">
        <ele>598</ele>
        <time>2022-09-08T12:39:17Z</time>
      </trkpt>
      <trkpt lat="42.9845" lon="0.67145">
        <ele>598</ele>
        <time>2022-09-08T12:39:19Z</time>
      </trkpt>
      <trkpt lat="42.98452" lon="0.67143">
        <ele>598</ele>
        <time>2022-09-08T12:39:21Z</time>
      </trkpt>
      <trkpt lat="42.9845" lon="0.67145">
        <ele>600</ele>
        <time>2022-09-08T12:40:31Z</time>
      </trkpt>
      <trkpt lat="42.9845" lon="0.67148">
        <ele>600</ele>
        <time>2022-09-08T12:40:33Z</time>
      </trkpt>
      <trkpt lat="42.9845" lon="0.67151">
        <ele>600</ele>
        <time>2022-09-08T12:40:35Z</time>
      </trkpt>
      <trkpt lat="42.98451" lon="0.67154">
        <ele>600</ele>
        <time>2022-09-08T12:40:37Z</time>
      </trkpt>
      <trkpt lat="42.98452" lon="0.67156">
        <ele>600</ele>
        <time>2022-09-08T12:40:39Z</time>
      </trkpt>
      <trkpt lat="42.98453" lon="0.6716">
        <ele>600</ele>
        <time>2022-09-08T12:40:42Z</time>
      </trkpt>
      <trkpt lat="42.98455" lon="0.67163">
        <ele>600</ele>
        <time>2022-09-08T12:40:43Z</time>
      </trkpt>
      <trkpt lat="42.98456" lon="0.67166">
        <ele>600</ele>
        <time>2022-09-08T12:40:45Z</time>
      </trkpt>
      <trkpt lat="42.98457" lon="0.6717">
        <ele>600</ele>
        <time>2022-09-08T12:40:47Z</time>
      </trkpt>
      <trkpt lat="42.98458" lon="0.67174">
        <ele>600</ele>
        <time>2022-09-08T12:40:49Z</time>
      </trkpt>
      <trkpt lat="42.98459" lon="0.67177">
        <ele>600</ele>
        <time>2022-09-08T12:40:51Z</time>
      </trkpt>
      <trkpt lat="42.9846" lon="0.6718">
        <ele>599</ele>
        <time>2022-09-08T12:40:53Z</time>
      </trkpt>
      <trkpt lat="42.98461" lon="0.67183">
        <ele>599</ele>
        <time>2022-09-08T12:40:55Z</time>
      </trkpt>
      <trkpt lat="42.98462" lon="0.67186">
        <ele>599</ele>
        <time>2022-09-08T12:40:57Z</time>
      </trkpt>
      <trkpt lat="42.98463" lon="0.6719">
        <ele>599</ele>
        <time>2022-09-08T12:41:00Z</time>
      </trkpt>
      <trkpt lat="42.98463" lon="0.67193">
        <ele>599</ele>
        <time>2022-09-08T12:41:01Z</time>
      </trkpt>
      <trkpt lat="42.98464" lon="0.67195">
        <ele>599</ele>
        <time>2022-09-08T12:41:03Z</time>
      </trkpt>
      <trkpt lat="42.98464" lon="0.67198">
        <ele>599</ele>
        <time>2022-09-08T12:41:05Z</time>
      </trkpt>
      <trkpt lat="42.98464" lon="0.67201">
        <ele>599</ele>
        <time>2022-09-08T12:41:07Z</time>
      </trkpt>
      <trkpt lat="42.98464" lon="0.67205">
        <ele>599</ele>
        <time>2022-09-08T12:41:09Z</time>
      </trkpt>
      <trkpt lat="42.98464" lon="0.67207">
        <ele>599</ele>
        <time>2022-09-08T12:41:11Z</time>
      </trkpt>
      <trkpt lat="42.98464" lon="0.6721">
        <ele>599</ele>
        <time>2022-09-08T12:41:13Z</time>
      </trkpt>
      <trkpt lat="42.98464" lon="0.67213">
        <ele>599</ele>
        <time>2022-09-08T12:41:15Z</time>
      </trkpt>
      <trkpt lat="42.98465" lon="0.67216">
        <ele>599</ele>
        <time>2022-09-08T12:41:18Z</time>
      </trkpt>
      <trkpt lat="42.98466" lon="0.67219">
        <ele>599</ele>
        <time>2022-09-08T12:41:20Z</time>
      </trkpt>
      <trkpt lat="42.98465" lon="0.67222">
        <ele>599</ele>
        <time>2022-09-08T12:41:23Z</time>
      </trkpt>
      <trkpt lat="42.98464" lon="0.67225">
        <ele>599</ele>
        <time>2022-09-08T12:41:26Z</time>
      </trkpt>
      <trkpt lat="42.98462" lon="0.67226">
        <ele>599</ele>
        <time>2022-09-08T12:41:31Z</time>
      </trkpt>
      <trkpt lat="42.98461" lon="0.67229">
        <ele>600</ele>
        <time>2022-09-08T12:41:42Z</time>
      </trkpt>
      <trkpt lat="42.98462" lon="0.67227">
        <ele>600</ele>
        <time>2022-09-08T12:41:56Z</time>
      </trkpt>
      <trkpt lat="42.98465" lon="0.67226">
        <ele>600</ele>
        <time>2022-09-08T12:41:59Z</time>
      </trkpt>
      <trkpt lat="42.98467" lon="0.67225">
        <ele>600</ele>
        <time>2022-09-08T12:42:01Z</time>
      </trkpt>
      <trkpt lat="42.98469" lon="0.67225">
        <ele>600</ele>
        <time>2022-09-08T12:42:03Z</time>
      </trkpt>
      <trkpt lat="42.98471" lon="0.67227">
        <ele>600</ele>
        <time>2022-09-08T12:42:05Z</time>
      </trkpt>
      <trkpt lat="42.98472" lon="0.67228">
        <ele>600</ele>
        <time>2022-09-08T12:42:07Z</time>
      </trkpt>
      <trkpt lat="42.98473" lon="0.6723">
        <ele>600</ele>
        <time>2022-09-08T12:42:09Z</time>
      </trkpt>
      <trkpt lat="42.98475" lon="0.67232">
        <ele>600</ele>
        <time>2022-09-08T12:42:11Z</time>
      </trkpt>
      <trkpt lat="42.98476" lon="0.67235">
        <ele>600</ele>
        <time>2022-09-08T12:42:14Z</time>
      </trkpt>
      <trkpt lat="42.98475" lon="0.67233">
        <ele>600</ele>
        <time>2022-09-08T12:43:44Z</time>
      </trkpt>
      <trkpt lat="42.98474" lon="0.6723">
        <ele>600</ele>
        <time>2022-09-08T12:43:45Z</time>
      </trkpt>
      <trkpt lat="42.98472" lon="0.67228">
        <ele>600</ele>
        <time>2022-09-08T12:43:48Z</time>
      </trkpt>
      <trkpt lat="42.9847" lon="0.67226">
        <ele>600</ele>
        <time>2022-09-08T12:43:50Z</time>
      </trkpt>
      <trkpt lat="42.98469" lon="0.67225">
        <ele>600</ele>
        <time>2022-09-08T12:43:52Z</time>
      </trkpt>
      <trkpt lat="42.98467" lon="0.67225">
        <ele>600</ele>
        <time>2022-09-08T12:43:54Z</time>
      </trkpt>
      <trkpt lat="42.98465" lon="0.67225">
        <ele>600</ele>
        <time>2022-09-08T12:43:56Z</time>
      </trkpt>
      <trkpt lat="42.98463" lon="0.67227">
        <ele>600</ele>
        <time>2022-09-08T12:43:59Z</time>
      </trkpt>
      <trkpt lat="42.98462" lon="0.6723">
        <ele>600</ele>
        <time>2022-09-08T12:44:01Z</time>
      </trkpt>
      <trkpt lat="42.98461" lon="0.67233">
        <ele>600</ele>
        <time>2022-09-08T12:44:03Z</time>
      </trkpt>
      <trkpt lat="42.98461" lon="0.67237">
        <ele>600</ele>
        <time>2022-09-08T12:44:05Z</time>
      </trkpt>
      <trkpt lat="42.9846" lon="0.6724">
        <ele>600</ele>
        <time>2022-09-08T12:44:07Z</time>
      </trkpt>
      <trkpt lat="42.98459" lon="0.67244">
        <ele>600</ele>
        <time>2022-09-08T12:44:10Z</time>
      </trkpt>
      <trkpt lat="42.98459" lon="0.67247">
        <ele>600</ele>
        <time>2022-09-08T12:44:11Z</time>
      </trkpt>
      <trkpt lat="42.98459" lon="0.67251">
        <ele>600</ele>
        <time>2022-09-08T12:44:13Z</time>
      </trkpt>
      <trkpt lat="42.98458" lon="0.67254">
        <ele>600</ele>
        <time>2022-09-08T12:44:15Z</time>
      </trkpt>
      <trkpt lat="42.98456" lon="0.67258">
        <ele>600</ele>
        <time>2022-09-08T12:44:17Z</time>
      </trkpt>
      <trkpt lat="42.98455" lon="0.67261">
        <ele>600</ele>
        <time>2022-09-08T12:44:19Z</time>
      </trkpt>
      <trkpt lat="42.98454" lon="0.67264">
        <ele>600</ele>
        <time>2022-09-08T12:44:21Z</time>
      </trkpt>
      <trkpt lat="42.98454" lon="0.67268">
        <ele>601</ele>
        <time>2022-09-08T12:44:23Z</time>
      </trkpt>
      <trkpt lat="42.98453" lon="0.67271">
        <ele>601</ele>
        <time>2022-09-08T12:44:25Z</time>
      </trkpt>
      <trkpt lat="42.98453" lon="0.67274">
        <ele>601</ele>
        <time>2022-09-08T12:44:27Z</time>
      </trkpt>
      <trkpt lat="42.98452" lon="0.67278">
        <ele>601</ele>
        <time>2022-09-08T12:44:30Z</time>
      </trkpt>
      <trkpt lat="42.98452" lon="0.67281">
        <ele>601</ele>
        <time>2022-09-08T12:44:31Z</time>
      </trkpt>
      <trkpt lat="42.98452" lon="0.67284">
        <ele>602</ele>
        <time>2022-09-08T12:44:37Z</time>
      </trkpt>
      <trkpt lat="42.98451" lon="0.6728">
        <ele>602</ele>
        <time>2022-09-08T12:44:46Z</time>
      </trkpt>
      <trkpt lat="42.98451" lon="0.67278">
        <ele>602</ele>
        <time>2022-09-08T12:44:48Z</time>
      </trkpt>
      <trkpt lat="42.9845" lon="0.6728">
        <ele>602</ele>
        <time>2022-09-08T12:44:57Z</time>
      </trkpt>
      <trkpt lat="42.9845" lon="0.67283">
        <ele>602</ele>
        <time>2022-09-08T12:44:59Z</time>
      </trkpt>
      <trkpt lat="42.9845" lon="0.67286">
        <ele>602</ele>
        <time>2022-09-08T12:45:01Z</time>
      </trkpt>
      <trkpt lat="42.98449" lon="0.67289">
        <ele>601</ele>
        <time>2022-09-08T12:45:02Z</time>
      </trkpt>
      <trkpt lat="42.98449" lon="0.67292">
        <ele>601</ele>
        <time>2022-09-08T12:45:04Z</time>
      </trkpt>
      <trkpt lat="42.98449" lon="0.67295">
        <ele>601</ele>
        <time>2022-09-08T12:45:06Z</time>
      </trkpt>
      <trkpt lat="42.9845" lon="0.67298">
        <ele>601</ele>
        <time>2022-09-08T12:45:08Z</time>
      </trkpt>
      <trkpt lat="42.9845" lon="0.67301">
        <ele>601</ele>
        <time>2022-09-08T12:45:10Z</time>
      </trkpt>
      <trkpt lat="42.98451" lon="0.67305">
        <ele>601</ele>
        <time>2022-09-08T12:45:12Z</time>
      </trkpt>
      <trkpt lat="42.98451" lon="0.67308">
        <ele>601</ele>
        <time>2022-09-08T12:45:14Z</time>
      </trkpt>
      <trkpt lat="42.98451" lon="0.67312">
        <ele>601</ele>
        <time>2022-09-08T12:45:16Z</time>
      </trkpt>
      <trkpt lat="42.98451" lon="0.67315">
        <ele>601</ele>
        <time>2022-09-08T12:45:18Z</time>
      </trkpt>
      <trkpt lat="42.98451" lon="0.67318">
        <ele>601</ele>
        <time>2022-09-08T12:45:20Z</time>
      </trkpt>
      <trkpt lat="42.9845" lon="0.67322">
        <ele>602</ele>
        <time>2022-09-08T12:45:22Z</time>
      </trkpt>
      <trkpt lat="42.9845" lon="0.67326">
        <ele>602</ele>
        <time>2022-09-08T12:45:24Z</time>
      </trkpt>
      <trkpt lat="42.98449" lon="0.67329">
        <ele>602</ele>
        <time>2022-09-08T12:45:27Z</time>
      </trkpt>
      <trkpt lat="42.98449" lon="0.67332">
        <ele>602</ele>
        <time>2022-09-08T12:45:28Z</time>
      </trkpt>
      <trkpt lat="42.98448" lon="0.67334">
        <ele>602</ele>
        <time>2022-09-08T12:45:30Z</time>
      </trkpt>
      <trkpt lat="42.98447" lon="0.67337">
        <ele>602</ele>
        <time>2022-09-08T12:45:32Z</time>
      </trkpt>
      <trkpt lat="42.98447" lon="0.6734">
        <ele>602</ele>
        <time>2022-09-08T12:45:34Z</time>
      </trkpt>
      <trkpt lat="42.98448" lon="0.67343">
        <ele>602</ele>
        <time>2022-09-08T12:45:37Z</time>
      </trkpt>
      <trkpt lat="42.98448" lon="0.67346">
        <ele>602</ele>
        <time>2022-09-08T12:45:39Z</time>
      </trkpt>
      <trkpt lat="42.98447" lon="0.6735">
        <ele>602</ele>
        <time>2022-09-08T12:45:41Z</time>
      </trkpt>
      <trkpt lat="42.98447" lon="0.67353">
        <ele>603</ele>
        <time>2022-09-08T12:45:43Z</time>
      </trkpt>
      <trkpt lat="42.98446" lon="0.67365">
        <ele>603</ele>
        <time>2022-09-08T12:45:50Z</time>
      </trkpt>
      <trkpt lat="42.98443" lon="0.67374">
        <ele>604</ele>
        <time>2022-09-08T12:45:55Z</time>
      </trkpt>
      <trkpt lat="42.98443" lon="0.67378">
        <ele>604</ele>
        <time>2022-09-08T12:45:57Z</time>
      </trkpt>
      <trkpt lat="42.98443" lon="0.67381">
        <ele>604</ele>
        <time>2022-09-08T12:45:59Z</time>
      </trkpt>
      <trkpt lat="42.98443" lon="0.67385">
        <ele>604</ele>
        <time>2022-09-08T12:46:01Z</time>
      </trkpt>
      <trkpt lat="42.98443" lon="0.67388">
        <ele>606</ele>
        <time>2022-09-08T12:46:03Z</time>
      </trkpt>
      <trkpt lat="42.98441" lon="0.674">
        <ele>606</ele>
        <time>2022-09-08T12:46:11Z</time>
      </trkpt>
      <trkpt lat="42.9844" lon="0.67412">
        <ele>606</ele>
        <time>2022-09-08T12:46:19Z</time>
      </trkpt>
      <trkpt lat="42.98439" lon="0.67422">
        <ele>606</ele>
        <time>2022-09-08T12:46:25Z</time>
      </trkpt>
      <trkpt lat="42.98439" lon="0.67425">
        <ele>606</ele>
        <time>2022-09-08T12:46:28Z</time>
      </trkpt>
      <trkpt lat="42.98438" lon="0.67427">
        <ele>606</ele>
        <time>2022-09-08T12:46:29Z</time>
      </trkpt>
      <trkpt lat="42.98438" lon="0.6743">
        <ele>606</ele>
        <time>2022-09-08T12:46:31Z</time>
      </trkpt>
      <trkpt lat="42.98437" lon="0.67433">
        <ele>607</ele>
        <time>2022-09-08T12:46:33Z</time>
      </trkpt>
      <trkpt lat="42.98437" lon="0.67436">
        <ele>607</ele>
        <time>2022-09-08T12:46:36Z</time>
      </trkpt>
      <trkpt lat="42.98437" lon="0.67439">
        <ele>607</ele>
        <time>2022-09-08T12:46:37Z</time>
      </trkpt>
      <trkpt lat="42.98437" lon="0.67442">
        <ele>607</ele>
        <time>2022-09-08T12:46:40Z</time>
      </trkpt>
      <trkpt lat="42.98437" lon="0.67445">
        <ele>607</ele>
        <time>2022-09-08T12:46:41Z</time>
      </trkpt>
      <trkpt lat="42.98438" lon="0.67448">
        <ele>609</ele>
        <time>2022-09-08T12:46:45Z</time>
      </trkpt>
      <trkpt lat="42.98442" lon="0.6745">
        <ele>610</ele>
        <time>2022-09-08T12:46:56Z</time>
      </trkpt>
      <trkpt lat="42.98442" lon="0.67453">
        <ele>610</ele>
        <time>2022-09-08T12:46:58Z</time>
      </trkpt>
      <trkpt lat="42.98442" lon="0.67457">
        <ele>610</ele>
        <time>2022-09-08T12:47:03Z</time>
      </trkpt>
      <trkpt lat="42.98442" lon="0.6746">
        <ele>610</ele>
        <time>2022-09-08T12:47:04Z</time>
      </trkpt>
      <trkpt lat="42.98443" lon="0.67463">
        <ele>610</ele>
        <time>2022-09-08T12:47:06Z</time>
      </trkpt>
      <trkpt lat="42.98443" lon="0.67466">
        <ele>610</ele>
        <time>2022-09-08T12:47:08Z</time>
      </trkpt>
      <trkpt lat="42.98442" lon="0.67469">
        <ele>610</ele>
        <time>2022-09-08T12:47:10Z</time>
      </trkpt>
      <trkpt lat="42.98442" lon="0.67472">
        <ele>610</ele>
        <time>2022-09-08T12:47:12Z</time>
      </trkpt>
      <trkpt lat="42.98442" lon="0.67475">
        <ele>610</ele>
        <time>2022-09-08T12:47:14Z</time>
      </trkpt>
      <trkpt lat="42.98442" lon="0.67477">
        <ele>610</ele>
        <time>2022-09-08T12:47:16Z</time>
      </trkpt>
      <trkpt lat="42.98442" lon="0.6748">
        <ele>610</ele>
        <time>2022-09-08T12:47:18Z</time>
      </trkpt>
      <trkpt lat="42.98442" lon="0.67483">
        <ele>610</ele>
        <time>2022-09-08T12:47:20Z</time>
      </trkpt>
      <trkpt lat="42.98441" lon="0.67486">
        <ele>612</ele>
        <time>2022-09-08T12:47:22Z</time>
      </trkpt>
      <trkpt lat="42.9844" lon="0.67489">
        <ele>612</ele>
        <time>2022-09-08T12:47:24Z</time>
      </trkpt>
      <trkpt lat="42.9844" lon="0.67492">
        <ele>612</ele>
        <time>2022-09-08T12:47:26Z</time>
      </trkpt>
      <trkpt lat="42.9844" lon="0.67494">
        <ele>612</ele>
        <time>2022-09-08T12:47:28Z</time>
      </trkpt>
      <trkpt lat="42.98439" lon="0.67497">
        <ele>612</ele>
        <time>2022-09-08T12:47:30Z</time>
      </trkpt>
      <trkpt lat="42.98438" lon="0.67501">
        <ele>614</ele>
        <time>2022-09-08T12:47:32Z</time>
      </trkpt>
      <trkpt lat="42.98437" lon="0.67503">
        <ele>614</ele>
        <time>2022-09-08T12:47:34Z</time>
      </trkpt>
      <trkpt lat="42.98437" lon="0.67506">
        <ele>614</ele>
        <time>2022-09-08T12:47:36Z</time>
      </trkpt>
      <trkpt lat="42.98436" lon="0.67509">
        <ele>614</ele>
        <time>2022-09-08T12:47:38Z</time>
      </trkpt>
      <trkpt lat="42.98435" lon="0.67512">
        <ele>614</ele>
        <time>2022-09-08T12:47:40Z</time>
      </trkpt>
      <trkpt lat="42.98434" lon="0.67514">
        <ele>615</ele>
        <time>2022-09-08T12:47:42Z</time>
      </trkpt>
      <trkpt lat="42.98434" lon="0.67518">
        <ele>615</ele>
        <time>2022-09-08T12:47:45Z</time>
      </trkpt>
      <trkpt lat="42.98434" lon="0.6752">
        <ele>615</ele>
        <time>2022-09-08T12:47:47Z</time>
      </trkpt>
      <trkpt lat="42.98433" lon="0.67523">
        <ele>615</ele>
        <time>2022-09-08T12:47:49Z</time>
      </trkpt>
      <trkpt lat="42.98432" lon="0.67526">
        <ele>615</ele>
        <time>2022-09-08T12:47:51Z</time>
      </trkpt>
      <trkpt lat="42.9843" lon="0.67528">
        <ele>615</ele>
        <time>2022-09-08T12:47:53Z</time>
      </trkpt>
      <trkpt lat="42.98429" lon="0.67531">
        <ele>615</ele>
        <time>2022-09-08T12:47:55Z</time>
      </trkpt>
      <trkpt lat="42.98425" lon="0.67543">
        <ele>619</ele>
        <time>2022-09-08T12:48:03Z</time>
      </trkpt>
      <trkpt lat="42.98425" lon="0.67545">
        <ele>619</ele>
        <time>2022-09-08T12:48:05Z</time>
      </trkpt>
      <trkpt lat="42.98424" lon="0.67549">
        <ele>619</ele>
        <time>2022-09-08T12:48:08Z</time>
      </trkpt>
      <trkpt lat="42.98424" lon="0.67551">
        <ele>619</ele>
        <time>2022-09-08T12:48:10Z</time>
      </trkpt>
      <trkpt lat="42.9843" lon="0.67561">
        <ele>619</ele>
        <time>2022-09-08T12:48:27Z</time>
      </trkpt>
      <trkpt lat="42.98429" lon="0.67564">
        <ele>621</ele>
        <time>2022-09-08T12:48:33Z</time>
      </trkpt>
      <trkpt lat="42.98427" lon="0.67563">
        <ele>621</ele>
        <time>2022-09-08T12:48:36Z</time>
      </trkpt>
      <trkpt lat="42.98425" lon="0.67561">
        <ele>621</ele>
        <time>2022-09-08T12:49:11Z</time>
      </trkpt>
      <trkpt lat="42.98423" lon="0.67562">
        <ele>621</ele>
        <time>2022-09-08T12:49:27Z</time>
      </trkpt>
      <trkpt lat="42.98422" lon="0.67566">
        <ele>621</ele>
        <time>2022-09-08T12:49:32Z</time>
      </trkpt>
      <trkpt lat="42.9842" lon="0.67574">
        <ele>621</ele>
        <time>2022-09-08T12:49:38Z</time>
      </trkpt>
      <trkpt lat="42.9842" lon="0.67579">
        <ele>621</ele>
        <time>2022-09-08T12:49:43Z</time>
      </trkpt>
      <trkpt lat="42.9842" lon="0.67582">
        <ele>621</ele>
        <time>2022-09-08T12:49:45Z</time>
      </trkpt>
      <trkpt lat="42.98417" lon="0.67593">
        <ele>623</ele>
        <time>2022-09-08T12:49:54Z</time>
      </trkpt>
      <trkpt lat="42.98417" lon="0.67596">
        <ele>623</ele>
        <time>2022-09-08T12:49:57Z</time>
      </trkpt>
      <trkpt lat="42.98416" lon="0.67599">
        <ele>623</ele>
        <time>2022-09-08T12:49:59Z</time>
      </trkpt>
      <trkpt lat="42.98416" lon="0.67602">
        <ele>623</ele>
        <time>2022-09-08T12:50:01Z</time>
      </trkpt>
      <trkpt lat="42.98415" lon="0.67606">
        <ele>627</ele>
        <time>2022-09-08T12:50:04Z</time>
      </trkpt>
      <trkpt lat="42.98415" lon="0.67609">
        <ele>627</ele>
        <time>2022-09-08T12:50:06Z</time>
      </trkpt>
      <trkpt lat="42.98415" lon="0.67613">
        <ele>627</ele>
        <time>2022-09-08T12:50:09Z</time>
      </trkpt>
      <trkpt lat="42.98415" lon="0.67616">
        <ele>628</ele>
        <time>2022-09-08T12:50:12Z</time>
      </trkpt>
      <trkpt lat="42.98415" lon="0.67619">
        <ele>628</ele>
        <time>2022-09-08T12:50:14Z</time>
      </trkpt>
      <trkpt lat="42.98414" lon="0.67622">
        <ele>628</ele>
        <time>2022-09-08T12:50:17Z</time>
      </trkpt>
      <trkpt lat="42.98413" lon="0.67625">
        <ele>628</ele>
        <time>2022-09-08T12:50:20Z</time>
      </trkpt>
      <trkpt lat="42.98413" lon="0.67629">
        <ele>629</ele>
        <time>2022-09-08T12:50:23Z</time>
      </trkpt>
      <trkpt lat="42.98415" lon="0.67629">
        <ele>630</ele>
        <time>2022-09-08T12:50:46Z</time>
      </trkpt>
      <trkpt lat="42.98414" lon="0.67631">
        <ele>630</ele>
        <time>2022-09-08T12:51:00Z</time>
      </trkpt>
      <trkpt lat="42.98415" lon="0.67632">
        <ele>631</ele>
        <time>2022-09-08T12:51:52Z</time>
      </trkpt>
      <trkpt lat="42.98415" lon="0.67635">
        <ele>631</ele>
        <time>2022-09-08T12:52:04Z</time>
      </trkpt>
      <trkpt lat="42.98415" lon="0.67644">
        <ele>630</ele>
        <time>2022-09-08T12:52:12Z</time>
      </trkpt>
      <trkpt lat="42.98414" lon="0.67646">
        <ele>630</ele>
        <time>2022-09-08T12:52:14Z</time>
      </trkpt>
      <trkpt lat="42.98413" lon="0.67649">
        <ele>630</ele>
        <time>2022-09-08T12:52:16Z</time>
      </trkpt>
      <trkpt lat="42.98411" lon="0.6765">
        <ele>630</ele>
        <time>2022-09-08T12:52:18Z</time>
      </trkpt>
      <trkpt lat="42.98409" lon="0.67654">
        <ele>632</ele>
        <time>2022-09-08T12:52:23Z</time>
      </trkpt>
      <trkpt lat="42.98408" lon="0.67656">
        <ele>632</ele>
        <time>2022-09-08T12:52:25Z</time>
      </trkpt>
      <trkpt lat="42.98407" lon="0.67658">
        <ele>632</ele>
        <time>2022-09-08T12:52:28Z</time>
      </trkpt>
      <trkpt lat="42.98405" lon="0.67661">
        <ele>632</ele>
        <time>2022-09-08T12:52:31Z</time>
      </trkpt>
      <trkpt lat="42.98404" lon="0.67663">
        <ele>633</ele>
        <time>2022-09-08T12:52:33Z</time>
      </trkpt>
      <trkpt lat="42.98399" lon="0.6767">
        <ele>633</ele>
        <time>2022-09-08T12:52:40Z</time>
      </trkpt>
      <trkpt lat="42.98398" lon="0.67672">
        <ele>634</ele>
        <time>2022-09-08T12:52:42Z</time>
      </trkpt>
      <trkpt lat="42.98397" lon="0.67675">
        <ele>634</ele>
        <time>2022-09-08T12:52:45Z</time>
      </trkpt>
      <trkpt lat="42.98396" lon="0.67677">
        <ele>634</ele>
        <time>2022-09-08T12:52:48Z</time>
      </trkpt>
      <trkpt lat="42.98394" lon="0.6768">
        <ele>634</ele>
        <time>2022-09-08T12:52:51Z</time>
      </trkpt>
      <trkpt lat="42.98393" lon="0.67682">
        <ele>636</ele>
        <time>2022-09-08T12:52:54Z</time>
      </trkpt>
      <trkpt lat="42.98392" lon="0.67685">
        <ele>636</ele>
        <time>2022-09-08T12:52:57Z</time>
      </trkpt>
      <trkpt lat="42.98389" lon="0.67689">
        <ele>638</ele>
        <time>2022-09-08T12:53:03Z</time>
      </trkpt>
      <trkpt lat="42.98388" lon="0.67691">
        <ele>638</ele>
        <time>2022-09-08T12:53:05Z</time>
      </trkpt>
      <trkpt lat="42.98387" lon="0.67694">
        <ele>638</ele>
        <time>2022-09-08T12:53:10Z</time>
      </trkpt>
      <trkpt lat="42.98386" lon="0.67696">
        <ele>639</ele>
        <time>2022-09-08T12:53:12Z</time>
      </trkpt>
      <trkpt lat="42.98385" lon="0.67698">
        <ele>639</ele>
        <time>2022-09-08T12:53:14Z</time>
      </trkpt>
      <trkpt lat="42.98384" lon="0.67701">
        <ele>639</ele>
        <time>2022-09-08T12:53:17Z</time>
      </trkpt>
      <trkpt lat="42.98384" lon="0.67703">
        <ele>639</ele>
        <time>2022-09-08T12:53:20Z</time>
      </trkpt>
      <trkpt lat="42.98383" lon="0.67706">
        <ele>641</ele>
        <time>2022-09-08T12:53:22Z</time>
      </trkpt>
      <trkpt lat="42.98383" lon="0.67709">
        <ele>641</ele>
        <time>2022-09-08T12:53:24Z</time>
      </trkpt>
      <trkpt lat="42.98381" lon="0.67714">
        <ele>641</ele>
        <time>2022-09-08T12:53:28Z</time>
      </trkpt>
      <trkpt lat="42.9838" lon="0.67717">
        <ele>641</ele>
        <time>2022-09-08T12:53:30Z</time>
      </trkpt>
      <trkpt lat="42.98374" lon="0.67727">
        <ele>644</ele>
        <time>2022-09-08T12:53:44Z</time>
      </trkpt>
      <trkpt lat="42.98375" lon="0.6773">
        <ele>644</ele>
        <time>2022-09-08T12:53:48Z</time>
      </trkpt>
      <trkpt lat="42.98368" lon="0.67739">
        <ele>646</ele>
        <time>2022-09-08T12:53:55Z</time>
      </trkpt>
      <trkpt lat="42.98365" lon="0.67746">
        <ele>647</ele>
        <time>2022-09-08T12:54:02Z</time>
      </trkpt>
      <trkpt lat="42.98365" lon="0.67748">
        <ele>647</ele>
        <time>2022-09-08T12:54:05Z</time>
      </trkpt>
      <trkpt lat="42.98365" lon="0.67753">
        <ele>647</ele>
        <time>2022-09-08T12:54:08Z</time>
      </trkpt>
      <trkpt lat="42.98366" lon="0.67757">
        <ele>647</ele>
        <time>2022-09-08T12:54:11Z</time>
      </trkpt>
      <trkpt lat="42.98367" lon="0.67759">
        <ele>648</ele>
        <time>2022-09-08T12:54:14Z</time>
      </trkpt>
      <trkpt lat="42.98368" lon="0.67761">
        <ele>648</ele>
        <time>2022-09-08T12:54:16Z</time>
      </trkpt>
      <trkpt lat="42.98369" lon="0.67764">
        <ele>648</ele>
        <time>2022-09-08T12:54:20Z</time>
      </trkpt>
      <trkpt lat="42.9837" lon="0.67767">
        <ele>650</ele>
        <time>2022-09-08T12:54:22Z</time>
      </trkpt>
      <trkpt lat="42.98372" lon="0.67769">
        <ele>650</ele>
        <time>2022-09-08T12:54:24Z</time>
      </trkpt>
      <trkpt lat="42.98373" lon="0.67771">
        <ele>650</ele>
        <time>2022-09-08T12:54:26Z</time>
      </trkpt>
      <trkpt lat="42.98375" lon="0.67773">
        <ele>650</ele>
        <time>2022-09-08T12:54:28Z</time>
      </trkpt>
      <trkpt lat="42.98376" lon="0.67775">
        <ele>650</ele>
        <time>2022-09-08T12:54:30Z</time>
      </trkpt>
      <trkpt lat="42.98378" lon="0.67777">
        <ele>650</ele>
        <time>2022-09-08T12:54:32Z</time>
      </trkpt>
      <trkpt lat="42.98379" lon="0.67779">
        <ele>650</ele>
        <time>2022-09-08T12:54:34Z</time>
      </trkpt>
      <trkpt lat="42.98382" lon="0.67781">
        <ele>650</ele>
        <time>2022-09-08T12:54:37Z</time>
      </trkpt>
      <trkpt lat="42.98383" lon="0.67783">
        <ele>650</ele>
        <time>2022-09-08T12:54:40Z</time>
      </trkpt>
      <trkpt lat="42.98384" lon="0.67785">
        <ele>651</ele>
        <time>2022-09-08T12:54:42Z</time>
      </trkpt>
      <trkpt lat="42.98385" lon="0.67787">
        <ele>651</ele>
        <time>2022-09-08T12:54:44Z</time>
      </trkpt>
      <trkpt lat="42.98387" lon="0.67789">
        <ele>651</ele>
        <time>2022-09-08T12:54:46Z</time>
      </trkpt>
      <trkpt lat="42.98389" lon="0.67791">
        <ele>651</ele>
        <time>2022-09-08T12:54:48Z</time>
      </trkpt>
      <trkpt lat="42.98394" lon="0.67801">
        <ele>653</ele>
        <time>2022-09-08T12:54:56Z</time>
      </trkpt>
      <trkpt lat="42.98395" lon="0.67803">
        <ele>653</ele>
        <time>2022-09-08T12:54:57Z</time>
      </trkpt>
      <trkpt lat="42.98396" lon="0.67805">
        <ele>653</ele>
        <time>2022-09-08T12:54:59Z</time>
      </trkpt>
      <trkpt lat="42.98398" lon="0.67807">
        <ele>653</ele>
        <time>2022-09-08T12:55:01Z</time>
      </trkpt>
      <trkpt lat="42.98402" lon="0.67812">
        <ele>653</ele>
        <time>2022-09-08T12:55:11Z</time>
      </trkpt>
      <trkpt lat="42.98403" lon="0.67814">
        <ele>653</ele>
        <time>2022-09-08T12:55:16Z</time>
      </trkpt>
      <trkpt lat="42.98404" lon="0.67816">
        <ele>653</ele>
        <time>2022-09-08T12:55:22Z</time>
      </trkpt>
      <trkpt lat="42.98402" lon="0.67817">
        <ele>654</ele>
        <time>2022-09-08T12:56:50Z</time>
      </trkpt>
      <trkpt lat="42.98409" lon="0.67819">
        <ele>654</ele>
        <time>2022-09-08T12:57:00Z</time>
      </trkpt>
      <trkpt lat="42.98412" lon="0.67821">
        <ele>654</ele>
        <time>2022-09-08T12:57:06Z</time>
      </trkpt>
      <trkpt lat="42.98414" lon="0.67824">
        <ele>654</ele>
        <time>2022-09-08T12:57:09Z</time>
      </trkpt>
      <trkpt lat="42.98415" lon="0.67827">
        <ele>655</ele>
        <time>2022-09-08T12:57:13Z</time>
      </trkpt>
      <trkpt lat="42.9842" lon="0.67837">
        <ele>655</ele>
        <time>2022-09-08T12:57:21Z</time>
      </trkpt>
      <trkpt lat="42.98425" lon="0.67846">
        <ele>655</ele>
        <time>2022-09-08T12:57:27Z</time>
      </trkpt>
      <trkpt lat="42.98427" lon="0.67849">
        <ele>655</ele>
        <time>2022-09-08T12:57:30Z</time>
      </trkpt>
      <trkpt lat="42.98428" lon="0.67851">
        <ele>655</ele>
        <time>2022-09-08T12:57:33Z</time>
      </trkpt>
      <trkpt lat="42.9843" lon="0.67855">
        <ele>655</ele>
        <time>2022-09-08T12:57:35Z</time>
      </trkpt>
      <trkpt lat="42.98431" lon="0.67857">
        <ele>655</ele>
        <time>2022-09-08T12:57:37Z</time>
      </trkpt>
      <trkpt lat="42.98433" lon="0.67859">
        <ele>655</ele>
        <time>2022-09-08T12:57:39Z</time>
      </trkpt>
      <trkpt lat="42.98434" lon="0.67861">
        <ele>655</ele>
        <time>2022-09-08T12:57:41Z</time>
      </trkpt>
      <trkpt lat="42.98436" lon="0.67864">
        <ele>656</ele>
        <time>2022-09-08T12:57:44Z</time>
      </trkpt>
      <trkpt lat="42.98437" lon="0.67866">
        <ele>656</ele>
        <time>2022-09-08T12:57:46Z</time>
      </trkpt>
      <trkpt lat="42.98438" lon="0.67868">
        <ele>656</ele>
        <time>2022-09-08T12:57:48Z</time>
      </trkpt>
      <trkpt lat="42.9844" lon="0.6787">
        <ele>656</ele>
        <time>2022-09-08T12:57:50Z</time>
      </trkpt>
      <trkpt lat="42.98441" lon="0.67873">
        <ele>658</ele>
        <time>2022-09-08T12:57:52Z</time>
      </trkpt>
      <trkpt lat="42.98442" lon="0.67875">
        <ele>658</ele>
        <time>2022-09-08T12:57:54Z</time>
      </trkpt>
      <trkpt lat="42.98444" lon="0.67878">
        <ele>658</ele>
        <time>2022-09-08T12:57:56Z</time>
      </trkpt>
      <trkpt lat="42.98446" lon="0.6788">
        <ele>658</ele>
        <time>2022-09-08T12:57:58Z</time>
      </trkpt>
      <trkpt lat="42.98448" lon="0.67882">
        <ele>658</ele>
        <time>2022-09-08T12:58:01Z</time>
      </trkpt>
      <trkpt lat="42.9845" lon="0.67884">
        <ele>659</ele>
        <time>2022-09-08T12:58:05Z</time>
      </trkpt>
      <trkpt lat="42.98452" lon="0.67886">
        <ele>659</ele>
        <time>2022-09-08T12:58:08Z</time>
      </trkpt>
      <trkpt lat="42.98453" lon="0.67888">
        <ele>659</ele>
        <time>2022-09-08T12:58:09Z</time>
      </trkpt>
      <trkpt lat="42.98456" lon="0.6789">
        <ele>659</ele>
        <time>2022-09-08T12:58:11Z</time>
      </trkpt>
      <trkpt lat="42.98459" lon="0.67892">
        <ele>659</ele>
        <time>2022-09-08T12:58:13Z</time>
      </trkpt>
      <trkpt lat="42.98461" lon="0.67895">
        <ele>659</ele>
        <time>2022-09-08T12:58:15Z</time>
      </trkpt>
      <trkpt lat="42.98464" lon="0.67897">
        <ele>659</ele>
        <time>2022-09-08T12:58:18Z</time>
      </trkpt>
      <trkpt lat="42.98465" lon="0.67897">
        <ele>659</ele>
        <time>2022-09-08T12:58:19Z</time>
      </trkpt>
      <trkpt lat="42.98467" lon="0.67898">
        <ele>659</ele>
        <time>2022-09-08T12:58:21Z</time>
      </trkpt>
      <trkpt lat="42.98469" lon="0.679">
        <ele>661</ele>
        <time>2022-09-08T12:58:23Z</time>
      </trkpt>
      <trkpt lat="42.98475" lon="0.6791">
        <ele>661</ele>
        <time>2022-09-08T12:58:30Z</time>
      </trkpt>
      <trkpt lat="42.98483" lon="0.67918">
        <ele>662</ele>
        <time>2022-09-08T12:58:36Z</time>
      </trkpt>
      <trkpt lat="42.9849" lon="0.67927">
        <ele>662</ele>
        <time>2022-09-08T12:58:42Z</time>
      </trkpt>
      <trkpt lat="42.98497" lon="0.67937">
        <ele>662</ele>
        <time>2022-09-08T12:58:49Z</time>
      </trkpt>
      <trkpt lat="42.98502" lon="0.67948">
        <ele>663</ele>
        <time>2022-09-08T12:58:56Z</time>
      </trkpt>
      <trkpt lat="42.98508" lon="0.67958">
        <ele>665</ele>
        <time>2022-09-08T12:59:05Z</time>
      </trkpt>
      <trkpt lat="42.98509" lon="0.67961">
        <ele>665</ele>
        <time>2022-09-08T12:59:07Z</time>
      </trkpt>
      <trkpt lat="42.98514" lon="0.67972">
        <ele>665</ele>
        <time>2022-09-08T12:59:16Z</time>
      </trkpt>
      <trkpt lat="42.98515" lon="0.67975">
        <ele>665</ele>
        <time>2022-09-08T12:59:18Z</time>
      </trkpt>
      <trkpt lat="42.98516" lon="0.67977">
        <ele>665</ele>
        <time>2022-09-08T12:59:20Z</time>
      </trkpt>
      <trkpt lat="42.98521" lon="0.67988">
        <ele>668</ele>
        <time>2022-09-08T12:59:27Z</time>
      </trkpt>
      <trkpt lat="42.98523" lon="0.6799">
        <ele>668</ele>
        <time>2022-09-08T12:59:30Z</time>
      </trkpt>
      <trkpt lat="42.98524" lon="0.67992">
        <ele>668</ele>
        <time>2022-09-08T12:59:32Z</time>
      </trkpt>
      <trkpt lat="42.98525" lon="0.67995">
        <ele>668</ele>
        <time>2022-09-08T12:59:34Z</time>
      </trkpt>
      <trkpt lat="42.98526" lon="0.67998">
        <ele>668</ele>
        <time>2022-09-08T12:59:36Z</time>
      </trkpt>
      <trkpt lat="42.98532" lon="0.68008">
        <ele>668</ele>
        <time>2022-09-08T12:59:43Z</time>
      </trkpt>
      <trkpt lat="42.98538" lon="0.68019">
        <ele>670</ele>
        <time>2022-09-08T12:59:52Z</time>
      </trkpt>
      <trkpt lat="42.98539" lon="0.68021">
        <ele>670</ele>
        <time>2022-09-08T12:59:55Z</time>
      </trkpt>
      <trkpt lat="42.9854" lon="0.68023">
        <ele>670</ele>
        <time>2022-09-08T12:59:56Z</time>
      </trkpt>
      <trkpt lat="42.98542" lon="0.68026">
        <ele>670</ele>
        <time>2022-09-08T12:59:58Z</time>
      </trkpt>
      <trkpt lat="42.98544" lon="0.68028">
        <ele>670</ele>
        <time>2022-09-08T13:00:00Z</time>
      </trkpt>
      <trkpt lat="42.98546" lon="0.68031">
        <ele>670</ele>
        <time>2022-09-08T13:00:02Z</time>
      </trkpt>
      <trkpt lat="42.98547" lon="0.68034">
        <ele>670</ele>
        <time>2022-09-08T13:00:05Z</time>
      </trkpt>
      <trkpt lat="42.98549" lon="0.68036">
        <ele>670</ele>
        <time>2022-09-08T13:00:07Z</time>
      </trkpt>
      <trkpt lat="42.98551" lon="0.68037">
        <ele>672</ele>
        <time>2022-09-08T13:00:12Z</time>
      </trkpt>
      <trkpt lat="42.98553" lon="0.68039">
        <ele>672</ele>
        <time>2022-09-08T13:00:14Z</time>
      </trkpt>
      <trkpt lat="42.98555" lon="0.68041">
        <ele>672</ele>
        <time>2022-09-08T13:00:17Z</time>
      </trkpt>
      <trkpt lat="42.98556" lon="0.68043">
        <ele>672</ele>
        <time>2022-09-08T13:00:19Z</time>
      </trkpt>
      <trkpt lat="42.98558" lon="0.68045">
        <ele>672</ele>
        <time>2022-09-08T13:00:21Z</time>
      </trkpt>
      <trkpt lat="42.9856" lon="0.68046">
        <ele>673</ele>
        <time>2022-09-08T13:00:24Z</time>
      </trkpt>
      <trkpt lat="42.98562" lon="0.68047">
        <ele>673</ele>
        <time>2022-09-08T13:00:26Z</time>
      </trkpt>
      <trkpt lat="42.98565" lon="0.68048">
        <ele>673</ele>
        <time>2022-09-08T13:00:28Z</time>
      </trkpt>
      <trkpt lat="42.98566" lon="0.68047">
        <ele>673</ele>
        <time>2022-09-08T13:00:30Z</time>
      </trkpt>
      <trkpt lat="42.98568" lon="0.68047">
        <ele>673</ele>
        <time>2022-09-08T13:00:32Z</time>
      </trkpt>
      <trkpt lat="42.98571" lon="0.68049">
        <ele>673</ele>
        <time>2022-09-08T13:00:34Z</time>
      </trkpt>
      <trkpt lat="42.98572" lon="0.68052">
        <ele>673</ele>
        <time>2022-09-08T13:00:37Z</time>
      </trkpt>
      <trkpt lat="42.98573" lon="0.68054">
        <ele>677</ele>
        <time>2022-09-08T13:01:33Z</time>
      </trkpt>
      <trkpt lat="42.98573" lon="0.68057">
        <ele>676</ele>
        <time>2022-09-08T13:01:42Z</time>
      </trkpt>
      <trkpt lat="42.98574" lon="0.68059">
        <ele>676</ele>
        <time>2022-09-08T13:01:55Z</time>
      </trkpt>
      <trkpt lat="42.98576" lon="0.68061">
        <ele>676</ele>
        <time>2022-09-08T13:01:58Z</time>
      </trkpt>
      <trkpt lat="42.98578" lon="0.68062">
        <ele>676</ele>
        <time>2022-09-08T13:02:02Z</time>
      </trkpt>
      <trkpt lat="42.9858" lon="0.68062">
        <ele>677</ele>
        <time>2022-09-08T13:02:04Z</time>
      </trkpt>
      <trkpt lat="42.98582" lon="0.68063">
        <ele>677</ele>
        <time>2022-09-08T13:02:07Z</time>
      </trkpt>
      <trkpt lat="42.98588" lon="0.68061">
        <ele>677</ele>
        <time>2022-09-08T13:02:21Z</time>
      </trkpt>
      <trkpt lat="42.98589" lon="0.68064">
        <ele>677</ele>
        <time>2022-09-08T13:02:27Z</time>
      </trkpt>
      <trkpt lat="42.9859" lon="0.68066">
        <ele>678</ele>
        <time>2022-09-08T13:02:33Z</time>
      </trkpt>
      <trkpt lat="42.98591" lon="0.68064">
        <ele>678</ele>
        <time>2022-09-08T13:02:46Z</time>
      </trkpt>
      <trkpt lat="42.98589" lon="0.68066">
        <ele>678</ele>
        <time>2022-09-08T13:03:07Z</time>
      </trkpt>
      <trkpt lat="42.98591" lon="0.68068">
        <ele>677</ele>
        <time>2022-09-08T13:03:20Z</time>
      </trkpt>
      <trkpt lat="42.98592" lon="0.6807">
        <ele>677</ele>
        <time>2022-09-08T13:03:23Z</time>
      </trkpt>
      <trkpt lat="42.98594" lon="0.68072">
        <ele>677</ele>
        <time>2022-09-08T13:03:26Z</time>
      </trkpt>
      <trkpt lat="42.98597" lon="0.68074">
        <ele>677</ele>
        <time>2022-09-08T13:03:29Z</time>
      </trkpt>
      <trkpt lat="42.98598" lon="0.68075">
        <ele>677</ele>
        <time>2022-09-08T13:03:32Z</time>
      </trkpt>
      <trkpt lat="42.986" lon="0.68077">
        <ele>677</ele>
        <time>2022-09-08T13:03:34Z</time>
      </trkpt>
      <trkpt lat="42.98601" lon="0.68078">
        <ele>677</ele>
        <time>2022-09-08T13:03:36Z</time>
      </trkpt>
      <trkpt lat="42.98604" lon="0.68081">
        <ele>677</ele>
        <time>2022-09-08T13:03:39Z</time>
      </trkpt>
      <trkpt lat="42.98605" lon="0.68084">
        <ele>677</ele>
        <time>2022-09-08T13:03:42Z</time>
      </trkpt>
      <trkpt lat="42.98607" lon="0.68086">
        <ele>678</ele>
        <time>2022-09-08T13:03:43Z</time>
      </trkpt>
      <trkpt lat="42.98608" lon="0.68088">
        <ele>678</ele>
        <time>2022-09-08T13:03:45Z</time>
      </trkpt>
      <trkpt lat="42.9861" lon="0.68091">
        <ele>678</ele>
        <time>2022-09-08T13:03:47Z</time>
      </trkpt>
      <trkpt lat="42.98612" lon="0.68093">
        <ele>678</ele>
        <time>2022-09-08T13:03:49Z</time>
      </trkpt>
      <trkpt lat="42.98613" lon="0.68095">
        <ele>678</ele>
        <time>2022-09-08T13:03:51Z</time>
      </trkpt>
      <trkpt lat="42.98615" lon="0.68098">
        <ele>679</ele>
        <time>2022-09-08T13:03:53Z</time>
      </trkpt>
      <trkpt lat="42.98617" lon="0.681">
        <ele>679</ele>
        <time>2022-09-08T13:03:56Z</time>
      </trkpt>
      <trkpt lat="42.98618" lon="0.68102">
        <ele>679</ele>
        <time>2022-09-08T13:03:57Z</time>
      </trkpt>
      <trkpt lat="42.9862" lon="0.68104">
        <ele>679</ele>
        <time>2022-09-08T13:03:59Z</time>
      </trkpt>
      <trkpt lat="42.98622" lon="0.68106">
        <ele>679</ele>
        <time>2022-09-08T13:04:01Z</time>
      </trkpt>
      <trkpt lat="42.98624" lon="0.68108">
        <ele>679</ele>
        <time>2022-09-08T13:04:03Z</time>
      </trkpt>
      <trkpt lat="42.98625" lon="0.68111">
        <ele>679</ele>
        <time>2022-09-08T13:04:05Z</time>
      </trkpt>
      <trkpt lat="42.98626" lon="0.68113">
        <ele>679</ele>
        <time>2022-09-08T13:04:07Z</time>
      </trkpt>
      <trkpt lat="42.98628" lon="0.68117">
        <ele>679</ele>
        <time>2022-09-08T13:04:10Z</time>
      </trkpt>
      <trkpt lat="42.98632" lon="0.68129">
        <ele>681</ele>
        <time>2022-09-08T13:04:18Z</time>
      </trkpt>
      <trkpt lat="42.98636" lon="0.68137">
        <ele>682</ele>
        <time>2022-09-08T13:04:24Z</time>
      </trkpt>
      <trkpt lat="42.98641" lon="0.68148">
        <ele>683</ele>
        <time>2022-09-08T13:04:32Z</time>
      </trkpt>
      <trkpt lat="42.98645" lon="0.68159">
        <ele>683</ele>
        <time>2022-09-08T13:04:40Z</time>
      </trkpt>
      <trkpt lat="42.98649" lon="0.68171">
        <ele>684</ele>
        <time>2022-09-08T13:04:49Z</time>
      </trkpt>
      <trkpt lat="42.98655" lon="0.68181">
        <ele>684</ele>
        <time>2022-09-08T13:04:58Z</time>
      </trkpt>
      <trkpt lat="42.98658" lon="0.68193">
        <ele>684</ele>
        <time>2022-09-08T13:05:06Z</time>
      </trkpt>
      <trkpt lat="42.98662" lon="0.68205">
        <ele>686</ele>
        <time>2022-09-08T13:05:15Z</time>
      </trkpt>
      <trkpt lat="42.98665" lon="0.68217">
        <ele>687</ele>
        <time>2022-09-08T13:05:25Z</time>
      </trkpt>
      <trkpt lat="42.98668" lon="0.68229">
        <ele>687</ele>
        <time>2022-09-08T13:05:34Z</time>
      </trkpt>
      <trkpt lat="42.98669" lon="0.68234">
        <ele>687</ele>
        <time>2022-09-08T13:05:38Z</time>
      </trkpt>
      <trkpt lat="42.9867" lon="0.68237">
        <ele>687</ele>
        <time>2022-09-08T13:05:42Z</time>
      </trkpt>
      <trkpt lat="42.98671" lon="0.68239">
        <ele>689</ele>
        <time>2022-09-08T13:05:43Z</time>
      </trkpt>
      <trkpt lat="42.98671" lon="0.68243">
        <ele>689</ele>
        <time>2022-09-08T13:05:46Z</time>
      </trkpt>
      <trkpt lat="42.98671" lon="0.68246">
        <ele>689</ele>
        <time>2022-09-08T13:05:49Z</time>
      </trkpt>
      <trkpt lat="42.98672" lon="0.68248">
        <ele>691</ele>
        <time>2022-09-08T13:05:54Z</time>
      </trkpt>
      <trkpt lat="42.98674" lon="0.6825">
        <ele>691</ele>
        <time>2022-09-08T13:05:57Z</time>
      </trkpt>
      <trkpt lat="42.98677" lon="0.68253">
        <ele>691</ele>
        <time>2022-09-08T13:06:00Z</time>
      </trkpt>
      <trkpt lat="42.98678" lon="0.68255">
        <ele>691</ele>
        <time>2022-09-08T13:06:02Z</time>
      </trkpt>
      <trkpt lat="42.9868" lon="0.68258">
        <ele>692</ele>
        <time>2022-09-08T13:06:03Z</time>
      </trkpt>
      <trkpt lat="42.98682" lon="0.68259">
        <ele>692</ele>
        <time>2022-09-08T13:06:06Z</time>
      </trkpt>
      <trkpt lat="42.98685" lon="0.68258">
        <ele>692</ele>
        <time>2022-09-08T13:06:11Z</time>
      </trkpt>
      <trkpt lat="42.98684" lon="0.68256">
        <ele>692</ele>
        <time>2022-09-08T13:06:17Z</time>
      </trkpt>
      <trkpt lat="42.98686" lon="0.68257">
        <ele>692</ele>
        <time>2022-09-08T13:06:38Z</time>
      </trkpt>
      <trkpt lat="42.98686" lon="0.68254">
        <ele>694</ele>
        <time>2022-09-08T13:07:44Z</time>
      </trkpt>
      <trkpt lat="42.98684" lon="0.68253">
        <ele>694</ele>
        <time>2022-09-08T13:08:03Z</time>
      </trkpt>
      <trkpt lat="42.98682" lon="0.68252">
        <ele>694</ele>
        <time>2022-09-08T13:08:06Z</time>
      </trkpt>
      <trkpt lat="42.98679" lon="0.68254">
        <ele>694</ele>
        <time>2022-09-08T13:08:10Z</time>
      </trkpt>
      <trkpt lat="42.98677" lon="0.68257">
        <ele>694</ele>
        <time>2022-09-08T13:08:11Z</time>
      </trkpt>
      <trkpt lat="42.98675" lon="0.68258">
        <ele>694</ele>
        <time>2022-09-08T13:08:13Z</time>
      </trkpt>
      <trkpt lat="42.98673" lon="0.68261">
        <ele>694</ele>
        <time>2022-09-08T13:08:16Z</time>
      </trkpt>
      <trkpt lat="42.9867" lon="0.68262">
        <ele>694</ele>
        <time>2022-09-08T13:08:18Z</time>
      </trkpt>
      <trkpt lat="42.98666" lon="0.68264">
        <ele>694</ele>
        <time>2022-09-08T13:08:20Z</time>
      </trkpt>
      <trkpt lat="42.98667" lon="0.68267">
        <ele>693</ele>
        <time>2022-09-08T13:08:24Z</time>
      </trkpt>
      <trkpt lat="42.98668" lon="0.68269">
        <ele>693</ele>
        <time>2022-09-08T13:08:26Z</time>
      </trkpt>
      <trkpt lat="42.9867" lon="0.68271">
        <ele>693</ele>
        <time>2022-09-08T13:08:28Z</time>
      </trkpt>
      <trkpt lat="42.98671" lon="0.68274">
        <ele>693</ele>
        <time>2022-09-08T13:08:31Z</time>
      </trkpt>
      <trkpt lat="42.98673" lon="0.68275">
        <ele>693</ele>
        <time>2022-09-08T13:08:32Z</time>
      </trkpt>
      <trkpt lat="42.98674" lon="0.68277">
        <ele>693</ele>
        <time>2022-09-08T13:08:35Z</time>
      </trkpt>
      <trkpt lat="42.98676" lon="0.68279">
        <ele>693</ele>
        <time>2022-09-08T13:08:36Z</time>
      </trkpt>
      <trkpt lat="42.98677" lon="0.68281">
        <ele>693</ele>
        <time>2022-09-08T13:08:40Z</time>
      </trkpt>
      <trkpt lat="42.98679" lon="0.68283">
        <ele>693</ele>
        <time>2022-09-08T13:08:42Z</time>
      </trkpt>
      <trkpt lat="42.98681" lon="0.68284">
        <ele>694</ele>
        <time>2022-09-08T13:08:47Z</time>
      </trkpt>
      <trkpt lat="42.98681" lon="0.68282">
        <ele>696</ele>
        <time>2022-09-08T13:09:19Z</time>
      </trkpt>
      <trkpt lat="42.98682" lon="0.68285">
        <ele>696</ele>
        <time>2022-09-08T13:09:27Z</time>
      </trkpt>
      <trkpt lat="42.98682" lon="0.68289">
        <ele>696</ele>
        <time>2022-09-08T13:09:28Z</time>
      </trkpt>
      <trkpt lat="42.98681" lon="0.68291">
        <ele>697</ele>
        <time>2022-09-08T13:10:17Z</time>
      </trkpt>
      <trkpt lat="42.98683" lon="0.68292">
        <ele>697</ele>
        <time>2022-09-08T13:10:31Z</time>
      </trkpt>
      <trkpt lat="42.98684" lon="0.68294">
        <ele>697</ele>
        <time>2022-09-08T13:10:35Z</time>
      </trkpt>
      <trkpt lat="42.98685" lon="0.68297">
        <ele>697</ele>
        <time>2022-09-08T13:10:38Z</time>
      </trkpt>
      <trkpt lat="42.98685" lon="0.683">
        <ele>697</ele>
        <time>2022-09-08T13:10:43Z</time>
      </trkpt>
      <trkpt lat="42.98686" lon="0.68303">
        <ele>697</ele>
        <time>2022-09-08T13:10:45Z</time>
      </trkpt>
      <trkpt lat="42.98687" lon="0.68306">
        <ele>697</ele>
        <time>2022-09-08T13:10:47Z</time>
      </trkpt>
      <trkpt lat="42.98688" lon="0.68308">
        <ele>697</ele>
        <time>2022-09-08T13:10:50Z</time>
      </trkpt>
      <trkpt lat="42.98689" lon="0.68311">
        <ele>697</ele>
        <time>2022-09-08T13:10:53Z</time>
      </trkpt>
      <trkpt lat="42.98689" lon="0.68314">
        <ele>699</ele>
        <time>2022-09-08T13:10:54Z</time>
      </trkpt>
      <trkpt lat="42.9869" lon="0.68317">
        <ele>699</ele>
        <time>2022-09-08T13:10:56Z</time>
      </trkpt>
      <trkpt lat="42.98691" lon="0.6832">
        <ele>699</ele>
        <time>2022-09-08T13:10:58Z</time>
      </trkpt>
      <trkpt lat="42.98692" lon="0.68323">
        <ele>699</ele>
        <time>2022-09-08T13:11:00Z</time>
      </trkpt>
      <trkpt lat="42.98692" lon="0.68326">
        <ele>699</ele>
        <time>2022-09-08T13:11:02Z</time>
      </trkpt>
      <trkpt lat="42.98693" lon="0.68328">
        <ele>699</ele>
        <time>2022-09-08T13:11:04Z</time>
      </trkpt>
      <trkpt lat="42.98694" lon="0.68331">
        <ele>699</ele>
        <time>2022-09-08T13:11:06Z</time>
      </trkpt>
      <trkpt lat="42.98696" lon="0.68333">
        <ele>699</ele>
        <time>2022-09-08T13:11:09Z</time>
      </trkpt>
      <trkpt lat="42.98698" lon="0.68336">
        <ele>699</ele>
        <time>2022-09-08T13:11:11Z</time>
      </trkpt>
      <trkpt lat="42.98699" lon="0.68339">
        <ele>699</ele>
        <time>2022-09-08T13:11:14Z</time>
      </trkpt>
      <trkpt lat="42.98699" lon="0.68341">
        <ele>699</ele>
        <time>2022-09-08T13:11:16Z</time>
      </trkpt>
      <trkpt lat="42.98701" lon="0.68344">
        <ele>699</ele>
        <time>2022-09-08T13:11:18Z</time>
      </trkpt>
      <trkpt lat="42.98701" lon="0.68347">
        <ele>699</ele>
        <time>2022-09-08T13:11:21Z</time>
      </trkpt>
      <trkpt lat="42.98701" lon="0.6835">
        <ele>700</ele>
        <time>2022-09-08T13:11:24Z</time>
      </trkpt>
      <trkpt lat="42.98702" lon="0.68353">
        <ele>700</ele>
        <time>2022-09-08T13:11:26Z</time>
      </trkpt>
      <trkpt lat="42.98702" lon="0.68356">
        <ele>700</ele>
        <time>2022-09-08T13:11:29Z</time>
      </trkpt>
      <trkpt lat="42.98703" lon="0.68358">
        <ele>700</ele>
        <time>2022-09-08T13:11:31Z</time>
      </trkpt>
      <trkpt lat="42.98704" lon="0.68361">
        <ele>701</ele>
        <time>2022-09-08T13:11:33Z</time>
      </trkpt>
      <trkpt lat="42.98704" lon="0.68364">
        <ele>701</ele>
        <time>2022-09-08T13:11:35Z</time>
      </trkpt>
      <trkpt lat="42.98705" lon="0.68366">
        <ele>701</ele>
        <time>2022-09-08T13:11:37Z</time>
      </trkpt>
      <trkpt lat="42.98705" lon="0.68369">
        <ele>701</ele>
        <time>2022-09-08T13:11:40Z</time>
      </trkpt>
      <trkpt lat="42.98706" lon="0.68371">
        <ele>701</ele>
        <time>2022-09-08T13:11:42Z</time>
      </trkpt>
      <trkpt lat="42.98707" lon="0.68375">
        <ele>702</ele>
        <time>2022-09-08T13:11:46Z</time>
      </trkpt>
      <trkpt lat="42.98708" lon="0.68378">
        <ele>702</ele>
        <time>2022-09-08T13:11:48Z</time>
      </trkpt>
      <trkpt lat="42.98708" lon="0.68381">
        <ele>702</ele>
        <time>2022-09-08T13:11:50Z</time>
      </trkpt>
      <trkpt lat="42.98709" lon="0.68384">
        <ele>702</ele>
        <time>2022-09-08T13:11:52Z</time>
      </trkpt>
      <trkpt lat="42.9871" lon="0.68386">
        <ele>704</ele>
        <time>2022-09-08T13:11:55Z</time>
      </trkpt>
      <trkpt lat="42.98711" lon="0.6839">
        <ele>704</ele>
        <time>2022-09-08T13:11:57Z</time>
      </trkpt>
      <trkpt lat="42.98711" lon="0.68392">
        <ele>704</ele>
        <time>2022-09-08T13:11:58Z</time>
      </trkpt>
      <trkpt lat="42.98712" lon="0.68395">
        <ele>704</ele>
        <time>2022-09-08T13:12:02Z</time>
      </trkpt>
      <trkpt lat="42.98713" lon="0.68398">
        <ele>706</ele>
        <time>2022-09-08T13:12:03Z</time>
      </trkpt>
      <trkpt lat="42.98714" lon="0.68401">
        <ele>706</ele>
        <time>2022-09-08T13:12:05Z</time>
      </trkpt>
      <trkpt lat="42.98714" lon="0.68405">
        <ele>706</ele>
        <time>2022-09-08T13:12:07Z</time>
      </trkpt>
      <trkpt lat="42.98714" lon="0.68408">
        <ele>706</ele>
        <time>2022-09-08T13:12:09Z</time>
      </trkpt>
      <trkpt lat="42.98715" lon="0.68411">
        <ele>706</ele>
        <time>2022-09-08T13:12:11Z</time>
      </trkpt>
      <trkpt lat="42.98715" lon="0.68414">
        <ele>707</ele>
        <time>2022-09-08T13:12:13Z</time>
      </trkpt>
      <trkpt lat="42.98715" lon="0.68417">
        <ele>707</ele>
        <time>2022-09-08T13:12:16Z</time>
      </trkpt>
      <trkpt lat="42.98716" lon="0.68419">
        <ele>707</ele>
        <time>2022-09-08T13:12:18Z</time>
      </trkpt>
      <trkpt lat="42.98715" lon="0.68422">
        <ele>707</ele>
        <time>2022-09-08T13:12:20Z</time>
      </trkpt>
      <trkpt lat="42.98715" lon="0.68424">
        <ele>707</ele>
        <time>2022-09-08T13:12:22Z</time>
      </trkpt>
      <trkpt lat="42.98717" lon="0.68427">
        <ele>707</ele>
        <time>2022-09-08T13:12:25Z</time>
      </trkpt>
      <trkpt lat="42.98717" lon="0.6843">
        <ele>707</ele>
        <time>2022-09-08T13:12:26Z</time>
      </trkpt>
      <trkpt lat="42.98717" lon="0.68432">
        <ele>707</ele>
        <time>2022-09-08T13:12:29Z</time>
      </trkpt>
      <trkpt lat="42.98718" lon="0.68434">
        <ele>707</ele>
        <time>2022-09-08T13:12:32Z</time>
      </trkpt>
      <trkpt lat="42.98719" lon="0.68438">
        <ele>708</ele>
        <time>2022-09-08T13:12:36Z</time>
      </trkpt>
      <trkpt lat="42.9872" lon="0.68441">
        <ele>708</ele>
        <time>2022-09-08T13:12:38Z</time>
      </trkpt>
      <trkpt lat="42.9872" lon="0.68444">
        <ele>708</ele>
        <time>2022-09-08T13:12:40Z</time>
      </trkpt>
      <trkpt lat="42.98721" lon="0.68447">
        <ele>708</ele>
        <time>2022-09-08T13:12:42Z</time>
      </trkpt>
      <trkpt lat="42.98721" lon="0.68451">
        <ele>709</ele>
        <time>2022-09-08T13:12:45Z</time>
      </trkpt>
      <trkpt lat="42.98722" lon="0.68454">
        <ele>709</ele>
        <time>2022-09-08T13:12:47Z</time>
      </trkpt>
      <trkpt lat="42.98722" lon="0.68456">
        <ele>709</ele>
        <time>2022-09-08T13:12:50Z</time>
      </trkpt>
      <trkpt lat="42.98723" lon="0.68459">
        <ele>711</ele>
        <time>2022-09-08T13:12:53Z</time>
      </trkpt>
      <trkpt lat="42.98724" lon="0.68461">
        <ele>711</ele>
        <time>2022-09-08T13:12:56Z</time>
      </trkpt>
      <trkpt lat="42.98725" lon="0.68464">
        <ele>711</ele>
        <time>2022-09-08T13:12:57Z</time>
      </trkpt>
      <trkpt lat="42.98726" lon="0.68467">
        <ele>711</ele>
        <time>2022-09-08T13:12:58Z</time>
      </trkpt>
      <trkpt lat="42.98727" lon="0.6847">
        <ele>711</ele>
        <time>2022-09-08T13:13:01Z</time>
      </trkpt>
      <trkpt lat="42.98727" lon="0.68472">
        <ele>713</ele>
        <time>2022-09-08T13:13:03Z</time>
      </trkpt>
      <trkpt lat="42.98728" lon="0.68476">
        <ele>713</ele>
        <time>2022-09-08T13:13:06Z</time>
      </trkpt>
      <trkpt lat="42.98729" lon="0.68479">
        <ele>713</ele>
        <time>2022-09-08T13:13:09Z</time>
      </trkpt>
      <trkpt lat="42.98729" lon="0.68483">
        <ele>713</ele>
        <time>2022-09-08T13:13:10Z</time>
      </trkpt>
      <trkpt lat="42.98729" lon="0.68485">
        <ele>713</ele>
        <time>2022-09-08T13:13:12Z</time>
      </trkpt>
      <trkpt lat="42.98729" lon="0.68488">
        <ele>713</ele>
        <time>2022-09-08T13:13:15Z</time>
      </trkpt>
      <trkpt lat="42.9873" lon="0.68491">
        <ele>713</ele>
        <time>2022-09-08T13:13:18Z</time>
      </trkpt>
      <trkpt lat="42.9873" lon="0.68495">
        <ele>713</ele>
        <time>2022-09-08T13:13:22Z</time>
      </trkpt>
      <trkpt lat="42.98732" lon="0.68498">
        <ele>715</ele>
        <time>2022-09-08T13:13:23Z</time>
      </trkpt>
      <trkpt lat="42.98733" lon="0.68501">
        <ele>715</ele>
        <time>2022-09-08T13:13:25Z</time>
      </trkpt>
      <trkpt lat="42.98734" lon="0.68504">
        <ele>715</ele>
        <time>2022-09-08T13:13:28Z</time>
      </trkpt>
      <trkpt lat="42.98736" lon="0.68506">
        <ele>715</ele>
        <time>2022-09-08T13:13:30Z</time>
      </trkpt>
      <trkpt lat="42.98737" lon="0.68509">
        <ele>715</ele>
        <time>2022-09-08T13:13:32Z</time>
      </trkpt>
      <trkpt lat="42.98736" lon="0.68512">
        <ele>715</ele>
        <time>2022-09-08T13:13:35Z</time>
      </trkpt>
      <trkpt lat="42.98736" lon="0.68515">
        <ele>715</ele>
        <time>2022-09-08T13:13:39Z</time>
      </trkpt>
      <trkpt lat="42.98734" lon="0.68516">
        <ele>716</ele>
        <time>2022-09-08T13:13:46Z</time>
      </trkpt>
      <trkpt lat="42.98732" lon="0.68515">
        <ele>716</ele>
        <time>2022-09-08T13:13:48Z</time>
      </trkpt>
      <trkpt lat="42.98732" lon="0.68518">
        <ele>718</ele>
        <time>2022-09-08T13:14:05Z</time>
      </trkpt>
      <trkpt lat="42.98732" lon="0.68521">
        <ele>718</ele>
        <time>2022-09-08T13:14:07Z</time>
      </trkpt>
      <trkpt lat="42.98732" lon="0.68523">
        <ele>718</ele>
        <time>2022-09-08T13:14:10Z</time>
      </trkpt>
      <trkpt lat="42.98732" lon="0.68526">
        <ele>718</ele>
        <time>2022-09-08T13:14:13Z</time>
      </trkpt>
      <trkpt lat="42.98733" lon="0.6853">
        <ele>718</ele>
        <time>2022-09-08T13:14:16Z</time>
      </trkpt>
      <trkpt lat="42.98734" lon="0.68532">
        <ele>718</ele>
        <time>2022-09-08T13:14:20Z</time>
      </trkpt>
      <trkpt lat="42.98736" lon="0.68535">
        <ele>718</ele>
        <time>2022-09-08T13:14:22Z</time>
      </trkpt>
      <trkpt lat="42.98736" lon="0.68537">
        <ele>718</ele>
        <time>2022-09-08T13:14:23Z</time>
      </trkpt>
      <trkpt lat="42.98737" lon="0.68541">
        <ele>718</ele>
        <time>2022-09-08T13:14:26Z</time>
      </trkpt>
      <trkpt lat="42.98738" lon="0.68543">
        <ele>718</ele>
        <time>2022-09-08T13:14:29Z</time>
      </trkpt>
      <trkpt lat="42.98739" lon="0.68546">
        <ele>718</ele>
        <time>2022-09-08T13:14:31Z</time>
      </trkpt>
      <trkpt lat="42.98741" lon="0.68549">
        <ele>719</ele>
        <time>2022-09-08T13:14:34Z</time>
      </trkpt>
      <trkpt lat="42.98742" lon="0.68551">
        <ele>719</ele>
        <time>2022-09-08T13:14:36Z</time>
      </trkpt>
      <trkpt lat="42.98743" lon="0.68553">
        <ele>719</ele>
        <time>2022-09-08T13:14:38Z</time>
      </trkpt>
      <trkpt lat="42.98744" lon="0.68556">
        <ele>719</ele>
        <time>2022-09-08T13:14:41Z</time>
      </trkpt>
      <trkpt lat="42.98745" lon="0.68558">
        <ele>719</ele>
        <time>2022-09-08T13:14:43Z</time>
      </trkpt>
      <trkpt lat="42.98746" lon="0.68561">
        <ele>720</ele>
        <time>2022-09-08T13:14:44Z</time>
      </trkpt>
      <trkpt lat="42.98746" lon="0.68564">
        <ele>720</ele>
        <time>2022-09-08T13:14:46Z</time>
      </trkpt>
      <trkpt lat="42.98747" lon="0.68566">
        <ele>720</ele>
        <time>2022-09-08T13:14:48Z</time>
      </trkpt>
      <trkpt lat="42.98748" lon="0.68569">
        <ele>720</ele>
        <time>2022-09-08T13:14:51Z</time>
      </trkpt>
      <trkpt lat="42.98749" lon="0.68572">
        <ele>721</ele>
        <time>2022-09-08T13:14:55Z</time>
      </trkpt>
      <trkpt lat="42.9875" lon="0.68574">
        <ele>721</ele>
        <time>2022-09-08T13:14:57Z</time>
      </trkpt>
      <trkpt lat="42.98751" lon="0.68578">
        <ele>721</ele>
        <time>2022-09-08T13:15:00Z</time>
      </trkpt>
      <trkpt lat="42.98752" lon="0.68581">
        <ele>721</ele>
        <time>2022-09-08T13:15:02Z</time>
      </trkpt>
      <trkpt lat="42.98752" lon="0.68583">
        <ele>724</ele>
        <time>2022-09-08T13:15:04Z</time>
      </trkpt>
      <trkpt lat="42.98753" lon="0.68586">
        <ele>724</ele>
        <time>2022-09-08T13:15:07Z</time>
      </trkpt>
      <trkpt lat="42.98753" lon="0.6859">
        <ele>724</ele>
        <time>2022-09-08T13:15:10Z</time>
      </trkpt>
      <trkpt lat="42.98755" lon="0.68593">
        <ele>724</ele>
        <time>2022-09-08T13:15:13Z</time>
      </trkpt>
      <trkpt lat="42.98755" lon="0.68596">
        <ele>724</ele>
        <time>2022-09-08T13:15:15Z</time>
      </trkpt>
      <trkpt lat="42.98755" lon="0.68599">
        <ele>724</ele>
        <time>2022-09-08T13:15:18Z</time>
      </trkpt>
      <trkpt lat="42.98757" lon="0.68599">
        <ele>726</ele>
        <time>2022-09-08T13:15:37Z</time>
      </trkpt>
      <trkpt lat="42.98759" lon="0.68601">
        <ele>726</ele>
        <time>2022-09-08T13:15:47Z</time>
      </trkpt>
      <trkpt lat="42.9876" lon="0.68604">
        <ele>727</ele>
        <time>2022-09-08T13:17:10Z</time>
      </trkpt>
      <trkpt lat="42.9876" lon="0.68609">
        <ele>727</ele>
        <time>2022-09-08T13:17:15Z</time>
      </trkpt>
      <trkpt lat="42.98761" lon="0.68617">
        <ele>727</ele>
        <time>2022-09-08T13:17:22Z</time>
      </trkpt>
      <trkpt lat="42.98762" lon="0.6862">
        <ele>727</ele>
        <time>2022-09-08T13:17:25Z</time>
      </trkpt>
      <trkpt lat="42.98762" lon="0.68623">
        <ele>727</ele>
        <time>2022-09-08T13:17:26Z</time>
      </trkpt>
      <trkpt lat="42.98763" lon="0.68627">
        <ele>727</ele>
        <time>2022-09-08T13:17:28Z</time>
      </trkpt>
      <trkpt lat="42.98764" lon="0.6863">
        <ele>727</ele>
        <time>2022-09-08T13:17:30Z</time>
      </trkpt>
      <trkpt lat="42.98767" lon="0.68643">
        <ele>727</ele>
        <time>2022-09-08T13:17:40Z</time>
      </trkpt>
      <trkpt lat="42.9877" lon="0.68647">
        <ele>728</ele>
        <time>2022-09-08T13:17:44Z</time>
      </trkpt>
      <trkpt lat="42.98771" lon="0.68649">
        <ele>728</ele>
        <time>2022-09-08T13:17:47Z</time>
      </trkpt>
      <trkpt lat="42.9877" lon="0.68652">
        <ele>728</ele>
        <time>2022-09-08T13:17:49Z</time>
      </trkpt>
      <trkpt lat="42.9877" lon="0.68655">
        <ele>728</ele>
        <time>2022-09-08T13:17:50Z</time>
      </trkpt>
      <trkpt lat="42.98771" lon="0.68658">
        <ele>731</ele>
        <time>2022-09-08T13:17:53Z</time>
      </trkpt>
      <trkpt lat="42.98772" lon="0.68661">
        <ele>731</ele>
        <time>2022-09-08T13:17:56Z</time>
      </trkpt>
      <trkpt lat="42.98773" lon="0.68663">
        <ele>731</ele>
        <time>2022-09-08T13:17:58Z</time>
      </trkpt>
      <trkpt lat="42.98775" lon="0.68672">
        <ele>731</ele>
        <time>2022-09-08T13:18:04Z</time>
      </trkpt>
      <trkpt lat="42.98776" lon="0.68675">
        <ele>731</ele>
        <time>2022-09-08T13:18:06Z</time>
      </trkpt>
      <trkpt lat="42.98776" lon="0.68678">
        <ele>731</ele>
        <time>2022-09-08T13:18:08Z</time>
      </trkpt>
      <trkpt lat="42.98777" lon="0.68691">
        <ele>731</ele>
        <time>2022-09-08T13:18:19Z</time>
      </trkpt>
      <trkpt lat="42.98778" lon="0.68704">
        <ele>734</ele>
        <time>2022-09-08T13:18:30Z</time>
      </trkpt>
      <trkpt lat="42.98779" lon="0.68711">
        <ele>735</ele>
        <time>2022-09-08T13:18:39Z</time>
      </trkpt>
      <trkpt lat="42.98781" lon="0.68711">
        <ele>735</ele>
        <time>2022-09-08T13:18:50Z</time>
      </trkpt>
      <trkpt lat="42.98785" lon="0.68717">
        <ele>736</ele>
        <time>2022-09-08T13:19:43Z</time>
      </trkpt>
      <trkpt lat="42.98784" lon="0.68723">
        <ele>736</ele>
        <time>2022-09-08T13:19:45Z</time>
      </trkpt>
      <trkpt lat="42.98783" lon="0.68726">
        <ele>736</ele>
        <time>2022-09-08T13:19:46Z</time>
      </trkpt>
      <trkpt lat="42.98785" lon="0.68728">
        <ele>735</ele>
        <time>2022-09-08T13:20:02Z</time>
      </trkpt>
      <trkpt lat="42.98786" lon="0.68731">
        <ele>735</ele>
        <time>2022-09-08T13:20:05Z</time>
      </trkpt>
      <trkpt lat="42.98787" lon="0.68733">
        <ele>735</ele>
        <time>2022-09-08T13:20:07Z</time>
      </trkpt>
      <trkpt lat="42.98787" lon="0.68736">
        <ele>735</ele>
        <time>2022-09-08T13:20:11Z</time>
      </trkpt>
      <trkpt lat="42.98787" lon="0.68739">
        <ele>735</ele>
        <time>2022-09-08T13:20:13Z</time>
      </trkpt>
      <trkpt lat="42.98788" lon="0.68742">
        <ele>735</ele>
        <time>2022-09-08T13:20:16Z</time>
      </trkpt>
      <trkpt lat="42.98788" lon="0.68745">
        <ele>735</ele>
        <time>2022-09-08T13:20:19Z</time>
      </trkpt>
      <trkpt lat="42.98788" lon="0.68748">
        <ele>735</ele>
        <time>2022-09-08T13:20:22Z</time>
      </trkpt>
      <trkpt lat="42.98788" lon="0.68751">
        <ele>736</ele>
        <time>2022-09-08T13:20:24Z</time>
      </trkpt>
      <trkpt lat="42.98789" lon="0.68753">
        <ele>736</ele>
        <time>2022-09-08T13:20:26Z</time>
      </trkpt>
      <trkpt lat="42.98788" lon="0.68756">
        <ele>736</ele>
        <time>2022-09-08T13:20:27Z</time>
      </trkpt>
      <trkpt lat="42.98788" lon="0.68759">
        <ele>736</ele>
        <time>2022-09-08T13:20:30Z</time>
      </trkpt>
      <trkpt lat="42.98788" lon="0.68762">
        <ele>736</ele>
        <time>2022-09-08T13:20:32Z</time>
      </trkpt>
      <trkpt lat="42.98789" lon="0.68766">
        <ele>737</ele>
        <time>2022-09-08T13:20:36Z</time>
      </trkpt>
      <trkpt lat="42.9879" lon="0.68769">
        <ele>737</ele>
        <time>2022-09-08T13:20:38Z</time>
      </trkpt>
      <trkpt lat="42.9879" lon="0.68772">
        <ele>737</ele>
        <time>2022-09-08T13:20:40Z</time>
      </trkpt>
      <trkpt lat="42.9879" lon="0.68775">
        <ele>737</ele>
        <time>2022-09-08T13:20:42Z</time>
      </trkpt>
      <trkpt lat="42.9879" lon="0.68778">
        <ele>738</ele>
        <time>2022-09-08T13:20:45Z</time>
      </trkpt>
      <trkpt lat="42.9879" lon="0.68781">
        <ele>738</ele>
        <time>2022-09-08T13:20:47Z</time>
      </trkpt>
      <trkpt lat="42.98791" lon="0.68784">
        <ele>738</ele>
        <time>2022-09-08T13:20:49Z</time>
      </trkpt>
      <trkpt lat="42.98791" lon="0.68786">
        <ele>738</ele>
        <time>2022-09-08T13:20:51Z</time>
      </trkpt>
      <trkpt lat="42.98792" lon="0.68789">
        <ele>740</ele>
        <time>2022-09-08T13:20:53Z</time>
      </trkpt>
      <trkpt lat="42.98792" lon="0.68792">
        <ele>740</ele>
        <time>2022-09-08T13:20:55Z</time>
      </trkpt>
      <trkpt lat="42.98793" lon="0.68795">
        <ele>740</ele>
        <time>2022-09-08T13:20:59Z</time>
      </trkpt>
      <trkpt lat="42.98793" lon="0.68797">
        <ele>740</ele>
        <time>2022-09-08T13:21:00Z</time>
      </trkpt>
      <trkpt lat="42.98793" lon="0.688">
        <ele>740</ele>
        <time>2022-09-08T13:21:02Z</time>
      </trkpt>
      <trkpt lat="42.98795" lon="0.68803">
        <ele>741</ele>
        <time>2022-09-08T13:21:04Z</time>
      </trkpt>
      <trkpt lat="42.98795" lon="0.68806">
        <ele>741</ele>
        <time>2022-09-08T13:21:07Z</time>
      </trkpt>
      <trkpt lat="42.98794" lon="0.68808">
        <ele>741</ele>
        <time>2022-09-08T13:21:08Z</time>
      </trkpt>
      <trkpt lat="42.98795" lon="0.68811">
        <ele>741</ele>
        <time>2022-09-08T13:21:11Z</time>
      </trkpt>
      <trkpt lat="42.98797" lon="0.68814">
        <ele>742</ele>
        <time>2022-09-08T13:21:14Z</time>
      </trkpt>
      <trkpt lat="42.98797" lon="0.68817">
        <ele>742</ele>
        <time>2022-09-08T13:21:16Z</time>
      </trkpt>
      <trkpt lat="42.98799" lon="0.68818">
        <ele>742</ele>
        <time>2022-09-08T13:21:19Z</time>
      </trkpt>
      <trkpt lat="42.988" lon="0.6882">
        <ele>742</ele>
        <time>2022-09-08T13:21:21Z</time>
      </trkpt>
      <trkpt lat="42.988" lon="0.68823">
        <ele>742</ele>
        <time>2022-09-08T13:21:23Z</time>
      </trkpt>
      <trkpt lat="42.98801" lon="0.68826">
        <ele>742</ele>
        <time>2022-09-08T13:21:26Z</time>
      </trkpt>
      <trkpt lat="42.98803" lon="0.68828">
        <ele>742</ele>
        <time>2022-09-08T13:21:28Z</time>
      </trkpt>
      <trkpt lat="42.98805" lon="0.6883">
        <ele>742</ele>
        <time>2022-09-08T13:21:30Z</time>
      </trkpt>
      <trkpt lat="42.98806" lon="0.68833">
        <ele>742</ele>
        <time>2022-09-08T13:21:33Z</time>
      </trkpt>
      <trkpt lat="42.98807" lon="0.68835">
        <ele>743</ele>
        <time>2022-09-08T13:21:35Z</time>
      </trkpt>
      <trkpt lat="42.98809" lon="0.68837">
        <ele>743</ele>
        <time>2022-09-08T13:21:36Z</time>
      </trkpt>
      <trkpt lat="42.9881" lon="0.68839">
        <ele>743</ele>
        <time>2022-09-08T13:21:38Z</time>
      </trkpt>
      <trkpt lat="42.98812" lon="0.68841">
        <ele>743</ele>
        <time>2022-09-08T13:21:40Z</time>
      </trkpt>
      <trkpt lat="42.98814" lon="0.68843">
        <ele>743</ele>
        <time>2022-09-08T13:21:43Z</time>
      </trkpt>
      <trkpt lat="42.98815" lon="0.68846">
        <ele>744</ele>
        <time>2022-09-08T13:21:45Z</time>
      </trkpt>
      <trkpt lat="42.98816" lon="0.68848">
        <ele>744</ele>
        <time>2022-09-08T13:21:47Z</time>
      </trkpt>
      <trkpt lat="42.98817" lon="0.6885">
        <ele>744</ele>
        <time>2022-09-08T13:21:50Z</time>
      </trkpt>
      <trkpt lat="42.98818" lon="0.68852">
        <ele>744</ele>
        <time>2022-09-08T13:21:52Z</time>
      </trkpt>
      <trkpt lat="42.9882" lon="0.68855">
        <ele>746</ele>
        <time>2022-09-08T13:21:55Z</time>
      </trkpt>
      <trkpt lat="42.98821" lon="0.68857">
        <ele>746</ele>
        <time>2022-09-08T13:21:57Z</time>
      </trkpt>
      <trkpt lat="42.98824" lon="0.68858">
        <ele>746</ele>
        <time>2022-09-08T13:22:01Z</time>
      </trkpt>
      <trkpt lat="42.98825" lon="0.68857">
        <ele>747</ele>
        <time>2022-09-08T13:22:14Z</time>
      </trkpt>
      <trkpt lat="42.98824" lon="0.68855">
        <ele>748</ele>
        <time>2022-09-08T13:22:23Z</time>
      </trkpt>
      <trkpt lat="42.98816" lon="0.68861">
        <ele>748</ele>
        <time>2022-09-08T13:22:31Z</time>
      </trkpt>
      <trkpt lat="42.98817" lon="0.68865">
        <ele>749</ele>
        <time>2022-09-08T13:22:56Z</time>
      </trkpt>
      <trkpt lat="42.98819" lon="0.68866">
        <ele>749</ele>
        <time>2022-09-08T13:22:59Z</time>
      </trkpt>
      <trkpt lat="42.98821" lon="0.68867">
        <ele>749</ele>
        <time>2022-09-08T13:23:02Z</time>
      </trkpt>
      <trkpt lat="42.98823" lon="0.68869">
        <ele>748</ele>
        <time>2022-09-08T13:23:06Z</time>
      </trkpt>
      <trkpt lat="42.98825" lon="0.68871">
        <ele>748</ele>
        <time>2022-09-08T13:23:07Z</time>
      </trkpt>
      <trkpt lat="42.98826" lon="0.68872">
        <ele>748</ele>
        <time>2022-09-08T13:23:10Z</time>
      </trkpt>
      <trkpt lat="42.98828" lon="0.68874">
        <ele>748</ele>
        <time>2022-09-08T13:23:12Z</time>
      </trkpt>
      <trkpt lat="42.98829" lon="0.68875">
        <ele>748</ele>
        <time>2022-09-08T13:23:13Z</time>
      </trkpt>
      <trkpt lat="42.98831" lon="0.68877">
        <ele>748</ele>
        <time>2022-09-08T13:23:15Z</time>
      </trkpt>
      <trkpt lat="42.98832" lon="0.6888">
        <ele>748</ele>
        <time>2022-09-08T13:23:18Z</time>
      </trkpt>
      <trkpt lat="42.98833" lon="0.68881">
        <ele>748</ele>
        <time>2022-09-08T13:23:19Z</time>
      </trkpt>
      <trkpt lat="42.98835" lon="0.68884">
        <ele>748</ele>
        <time>2022-09-08T13:23:21Z</time>
      </trkpt>
      <trkpt lat="42.98837" lon="0.68887">
        <ele>749</ele>
        <time>2022-09-08T13:23:24Z</time>
      </trkpt>
      <trkpt lat="42.98839" lon="0.68888">
        <ele>749</ele>
        <time>2022-09-08T13:23:26Z</time>
      </trkpt>
      <trkpt lat="42.98841" lon="0.6889">
        <ele>749</ele>
        <time>2022-09-08T13:23:28Z</time>
      </trkpt>
      <trkpt lat="42.98843" lon="0.68892">
        <ele>749</ele>
        <time>2022-09-08T13:23:29Z</time>
      </trkpt>
      <trkpt lat="42.98845" lon="0.68894">
        <ele>749</ele>
        <time>2022-09-08T13:23:31Z</time>
      </trkpt>
      <trkpt lat="42.98847" lon="0.68896">
        <ele>750</ele>
        <time>2022-09-08T13:23:33Z</time>
      </trkpt>
      <trkpt lat="42.98848" lon="0.68899">
        <ele>750</ele>
        <time>2022-09-08T13:23:35Z</time>
      </trkpt>
      <trkpt lat="42.9885" lon="0.689">
        <ele>750</ele>
        <time>2022-09-08T13:23:37Z</time>
      </trkpt>
      <trkpt lat="42.98852" lon="0.68902">
        <ele>750</ele>
        <time>2022-09-08T13:23:39Z</time>
      </trkpt>
      <trkpt lat="42.98853" lon="0.68905">
        <ele>750</ele>
        <time>2022-09-08T13:23:42Z</time>
      </trkpt>
      <trkpt lat="42.98854" lon="0.68907">
        <ele>751</ele>
        <time>2022-09-08T13:23:44Z</time>
      </trkpt>
      <trkpt lat="42.98856" lon="0.6891">
        <ele>751</ele>
        <time>2022-09-08T13:23:47Z</time>
      </trkpt>
      <trkpt lat="42.98857" lon="0.68912">
        <ele>751</ele>
        <time>2022-09-08T13:23:49Z</time>
      </trkpt>
      <trkpt lat="42.98859" lon="0.68915">
        <ele>751</ele>
        <time>2022-09-08T13:23:51Z</time>
      </trkpt>
      <trkpt lat="42.98861" lon="0.68917">
        <ele>753</ele>
        <time>2022-09-08T13:23:53Z</time>
      </trkpt>
      <trkpt lat="42.98862" lon="0.68919">
        <ele>753</ele>
        <time>2022-09-08T13:23:55Z</time>
      </trkpt>
      <trkpt lat="42.98863" lon="0.68921">
        <ele>753</ele>
        <time>2022-09-08T13:23:57Z</time>
      </trkpt>
      <trkpt lat="42.98865" lon="0.68923">
        <ele>753</ele>
        <time>2022-09-08T13:23:59Z</time>
      </trkpt>
      <trkpt lat="42.98866" lon="0.68925">
        <ele>753</ele>
        <time>2022-09-08T13:24:01Z</time>
      </trkpt>
      <trkpt lat="42.98867" lon="0.68928">
        <ele>755</ele>
        <time>2022-09-08T13:24:03Z</time>
      </trkpt>
      <trkpt lat="42.98868" lon="0.6893">
        <ele>755</ele>
        <time>2022-09-08T13:24:06Z</time>
      </trkpt>
      <trkpt lat="42.98869" lon="0.68932">
        <ele>755</ele>
        <time>2022-09-08T13:24:07Z</time>
      </trkpt>
      <trkpt lat="42.9887" lon="0.68935">
        <ele>755</ele>
        <time>2022-09-08T13:24:10Z</time>
      </trkpt>
      <trkpt lat="42.98871" lon="0.68937">
        <ele>755</ele>
        <time>2022-09-08T13:24:12Z</time>
      </trkpt>
      <trkpt lat="42.98873" lon="0.6894">
        <ele>755</ele>
        <time>2022-09-08T13:24:18Z</time>
      </trkpt>
      <trkpt lat="42.98874" lon="0.68943">
        <ele>755</ele>
        <time>2022-09-08T13:24:20Z</time>
      </trkpt>
      <trkpt lat="42.98876" lon="0.68946">
        <ele>755</ele>
        <time>2022-09-08T13:24:22Z</time>
      </trkpt>
      <trkpt lat="42.98877" lon="0.68948">
        <ele>758</ele>
        <time>2022-09-08T13:24:24Z</time>
      </trkpt>
      <trkpt lat="42.98879" lon="0.68951">
        <ele>758</ele>
        <time>2022-09-08T13:24:26Z</time>
      </trkpt>
      <trkpt lat="42.9888" lon="0.68954">
        <ele>758</ele>
        <time>2022-09-08T13:24:28Z</time>
      </trkpt>
      <trkpt lat="42.98881" lon="0.68957">
        <ele>758</ele>
        <time>2022-09-08T13:24:29Z</time>
      </trkpt>
      <trkpt lat="42.98883" lon="0.68961">
        <ele>758</ele>
        <time>2022-09-08T13:24:32Z</time>
      </trkpt>
      <trkpt lat="42.98883" lon="0.68964">
        <ele>759</ele>
        <time>2022-09-08T13:24:33Z</time>
      </trkpt>
      <trkpt lat="42.98884" lon="0.68968">
        <ele>759</ele>
        <time>2022-09-08T13:24:36Z</time>
      </trkpt>
      <trkpt lat="42.98885" lon="0.6897">
        <ele>759</ele>
        <time>2022-09-08T13:24:38Z</time>
      </trkpt>
      <trkpt lat="42.98886" lon="0.68974">
        <ele>759</ele>
        <time>2022-09-08T13:24:41Z</time>
      </trkpt>
      <trkpt lat="42.98886" lon="0.68977">
        <ele>759</ele>
        <time>2022-09-08T13:24:43Z</time>
      </trkpt>
      <trkpt lat="42.98887" lon="0.6898">
        <ele>760</ele>
        <time>2022-09-08T13:24:44Z</time>
      </trkpt>
      <trkpt lat="42.98888" lon="0.68983">
        <ele>760</ele>
        <time>2022-09-08T13:24:46Z</time>
      </trkpt>
      <trkpt lat="42.98889" lon="0.68986">
        <ele>760</ele>
        <time>2022-09-08T13:24:48Z</time>
      </trkpt>
      <trkpt lat="42.9889" lon="0.68989">
        <ele>760</ele>
        <time>2022-09-08T13:24:50Z</time>
      </trkpt>
      <trkpt lat="42.9889" lon="0.68992">
        <ele>760</ele>
        <time>2022-09-08T13:24:52Z</time>
      </trkpt>
      <trkpt lat="42.9889" lon="0.68996">
        <ele>760</ele>
        <time>2022-09-08T13:24:54Z</time>
      </trkpt>
      <trkpt lat="42.98891" lon="0.68999">
        <ele>760</ele>
        <time>2022-09-08T13:24:56Z</time>
      </trkpt>
      <trkpt lat="42.9889" lon="0.69003">
        <ele>760</ele>
        <time>2022-09-08T13:24:58Z</time>
      </trkpt>
      <trkpt lat="42.98894" lon="0.69015">
        <ele>761</ele>
        <time>2022-09-08T13:25:06Z</time>
      </trkpt>
      <trkpt lat="42.98895" lon="0.69019">
        <ele>761</ele>
        <time>2022-09-08T13:25:08Z</time>
      </trkpt>
      <trkpt lat="42.98895" lon="0.69021">
        <ele>761</ele>
        <time>2022-09-08T13:25:10Z</time>
      </trkpt>
      <trkpt lat="42.98896" lon="0.69024">
        <ele>761</ele>
        <time>2022-09-08T13:25:12Z</time>
      </trkpt>
      <trkpt lat="42.98897" lon="0.69026">
        <ele>762</ele>
        <time>2022-09-08T13:25:15Z</time>
      </trkpt>
      <trkpt lat="42.98898" lon="0.69029">
        <ele>762</ele>
        <time>2022-09-08T13:25:17Z</time>
      </trkpt>
      <trkpt lat="42.98898" lon="0.69032">
        <ele>762</ele>
        <time>2022-09-08T13:25:19Z</time>
      </trkpt>
      <trkpt lat="42.98899" lon="0.69035">
        <ele>762</ele>
        <time>2022-09-08T13:25:21Z</time>
      </trkpt>
      <trkpt lat="42.989" lon="0.69038">
        <ele>762</ele>
        <time>2022-09-08T13:25:23Z</time>
      </trkpt>
      <trkpt lat="42.98901" lon="0.69042">
        <ele>762</ele>
        <time>2022-09-08T13:25:25Z</time>
      </trkpt>
      <trkpt lat="42.98901" lon="0.69045">
        <ele>762</ele>
        <time>2022-09-08T13:25:26Z</time>
      </trkpt>
      <trkpt lat="42.98902" lon="0.69047">
        <ele>762</ele>
        <time>2022-09-08T13:25:28Z</time>
      </trkpt>
      <trkpt lat="42.98903" lon="0.6905">
        <ele>762</ele>
        <time>2022-09-08T13:25:30Z</time>
      </trkpt>
      <trkpt lat="42.98903" lon="0.69052">
        <ele>762</ele>
        <time>2022-09-08T13:25:32Z</time>
      </trkpt>
      <trkpt lat="42.98904" lon="0.69055">
        <ele>763</ele>
        <time>2022-09-08T13:25:35Z</time>
      </trkpt>
      <trkpt lat="42.98905" lon="0.6906">
        <ele>763</ele>
        <time>2022-09-08T13:25:37Z</time>
      </trkpt>
      <trkpt lat="42.98906" lon="0.69065">
        <ele>763</ele>
        <time>2022-09-08T13:25:39Z</time>
      </trkpt>
      <trkpt lat="42.98907" lon="0.69069">
        <ele>763</ele>
        <time>2022-09-08T13:25:40Z</time>
      </trkpt>
      <trkpt lat="42.98907" lon="0.69072">
        <ele>763</ele>
        <time>2022-09-08T13:25:42Z</time>
      </trkpt>
      <trkpt lat="42.98908" lon="0.69076">
        <ele>764</ele>
        <time>2022-09-08T13:25:44Z</time>
      </trkpt>
      <trkpt lat="42.98909" lon="0.69079">
        <ele>764</ele>
        <time>2022-09-08T13:25:46Z</time>
      </trkpt>
      <trkpt lat="42.9891" lon="0.69082">
        <ele>764</ele>
        <time>2022-09-08T13:25:48Z</time>
      </trkpt>
      <trkpt lat="42.9891" lon="0.69085">
        <ele>764</ele>
        <time>2022-09-08T13:25:50Z</time>
      </trkpt>
      <trkpt lat="42.98912" lon="0.6909">
        <ele>765</ele>
        <time>2022-09-08T13:25:53Z</time>
      </trkpt>
      <trkpt lat="42.98914" lon="0.69093">
        <ele>765</ele>
        <time>2022-09-08T13:25:56Z</time>
      </trkpt>
      <trkpt lat="42.98915" lon="0.69097">
        <ele>765</ele>
        <time>2022-09-08T13:25:58Z</time>
      </trkpt>
      <trkpt lat="42.98917" lon="0.69102">
        <ele>765</ele>
        <time>2022-09-08T13:26:01Z</time>
      </trkpt>
      <trkpt lat="42.98918" lon="0.69104">
        <ele>766</ele>
        <time>2022-09-08T13:26:06Z</time>
      </trkpt>
      <trkpt lat="42.98918" lon="0.69107">
        <ele>766</ele>
        <time>2022-09-08T13:26:11Z</time>
      </trkpt>
      <trkpt lat="42.98919" lon="0.6911">
        <ele>766</ele>
        <time>2022-09-08T13:26:13Z</time>
      </trkpt>
      <trkpt lat="42.9892" lon="0.69112">
        <ele>766</ele>
        <time>2022-09-08T13:26:15Z</time>
      </trkpt>
      <trkpt lat="42.98921" lon="0.69115">
        <ele>769</ele>
        <time>2022-09-08T13:28:01Z</time>
      </trkpt>
      <trkpt lat="42.98922" lon="0.69118">
        <ele>769</ele>
        <time>2022-09-08T13:28:05Z</time>
      </trkpt>
      <trkpt lat="42.98923" lon="0.69121">
        <ele>769</ele>
        <time>2022-09-08T13:28:07Z</time>
      </trkpt>
      <trkpt lat="42.98923" lon="0.69123">
        <ele>769</ele>
        <time>2022-09-08T13:28:09Z</time>
      </trkpt>
      <trkpt lat="42.98923" lon="0.69126">
        <ele>769</ele>
        <time>2022-09-08T13:28:12Z</time>
      </trkpt>
      <trkpt lat="42.98924" lon="0.69129">
        <ele>769</ele>
        <time>2022-09-08T13:28:14Z</time>
      </trkpt>
      <trkpt lat="42.98925" lon="0.69132">
        <ele>769</ele>
        <time>2022-09-08T13:28:16Z</time>
      </trkpt>
      <trkpt lat="42.98926" lon="0.69135">
        <ele>769</ele>
        <time>2022-09-08T13:28:18Z</time>
      </trkpt>
      <trkpt lat="42.98925" lon="0.69138">
        <ele>769</ele>
        <time>2022-09-08T13:28:20Z</time>
      </trkpt>
      <trkpt lat="42.98925" lon="0.69142">
        <ele>769</ele>
        <time>2022-09-08T13:28:22Z</time>
      </trkpt>
      <trkpt lat="42.98926" lon="0.69145">
        <ele>771</ele>
        <time>2022-09-08T13:28:25Z</time>
      </trkpt>
      <trkpt lat="42.98926" lon="0.69148">
        <ele>771</ele>
        <time>2022-09-08T13:28:26Z</time>
      </trkpt>
      <trkpt lat="42.98926" lon="0.69151">
        <ele>771</ele>
        <time>2022-09-08T13:28:29Z</time>
      </trkpt>
      <trkpt lat="42.98926" lon="0.69155">
        <ele>771</ele>
        <time>2022-09-08T13:28:30Z</time>
      </trkpt>
      <trkpt lat="42.98926" lon="0.69158">
        <ele>771</ele>
        <time>2022-09-08T13:28:33Z</time>
      </trkpt>
      <trkpt lat="42.98927" lon="0.69161">
        <ele>771</ele>
        <time>2022-09-08T13:28:35Z</time>
      </trkpt>
      <trkpt lat="42.98927" lon="0.69164">
        <ele>771</ele>
        <time>2022-09-08T13:28:36Z</time>
      </trkpt>
      <trkpt lat="42.98927" lon="0.69167">
        <ele>771</ele>
        <time>2022-09-08T13:28:39Z</time>
      </trkpt>
      <trkpt lat="42.98927" lon="0.69171">
        <ele>771</ele>
        <time>2022-09-08T13:28:43Z</time>
      </trkpt>
      <trkpt lat="42.98928" lon="0.69173">
        <ele>772</ele>
        <time>2022-09-08T13:28:44Z</time>
      </trkpt>
      <trkpt lat="42.98929" lon="0.69176">
        <ele>772</ele>
        <time>2022-09-08T13:28:47Z</time>
      </trkpt>
      <trkpt lat="42.9893" lon="0.69179">
        <ele>772</ele>
        <time>2022-09-08T13:28:48Z</time>
      </trkpt>
      <trkpt lat="42.9893" lon="0.69182">
        <ele>772</ele>
        <time>2022-09-08T13:28:51Z</time>
      </trkpt>
      <trkpt lat="42.98931" lon="0.69185">
        <ele>772</ele>
        <time>2022-09-08T13:28:52Z</time>
      </trkpt>
      <trkpt lat="42.98932" lon="0.69187">
        <ele>772</ele>
        <time>2022-09-08T13:28:55Z</time>
      </trkpt>
      <trkpt lat="42.98934" lon="0.6919">
        <ele>772</ele>
        <time>2022-09-08T13:28:56Z</time>
      </trkpt>
      <trkpt lat="42.98935" lon="0.69193">
        <ele>772</ele>
        <time>2022-09-08T13:28:58Z</time>
      </trkpt>
      <trkpt lat="42.98936" lon="0.69196">
        <ele>772</ele>
        <time>2022-09-08T13:29:00Z</time>
      </trkpt>
      <trkpt lat="42.98937" lon="0.69199">
        <ele>772</ele>
        <time>2022-09-08T13:29:02Z</time>
      </trkpt>
      <trkpt lat="42.98938" lon="0.69201">
        <ele>772</ele>
        <time>2022-09-08T13:29:04Z</time>
      </trkpt>
      <trkpt lat="42.98938" lon="0.69204">
        <ele>772</ele>
        <time>2022-09-08T13:29:07Z</time>
      </trkpt>
      <trkpt lat="42.98936" lon="0.69204">
        <ele>772</ele>
        <time>2022-09-08T13:29:16Z</time>
      </trkpt>
      <trkpt lat="42.98934" lon="0.692">
        <ele>772</ele>
        <time>2022-09-08T13:29:19Z</time>
      </trkpt>
      <trkpt lat="42.98933" lon="0.69198">
        <ele>772</ele>
        <time>2022-09-08T13:29:21Z</time>
      </trkpt>
      <trkpt lat="42.98932" lon="0.69195">
        <ele>772</ele>
        <time>2022-09-08T13:29:24Z</time>
      </trkpt>
      <trkpt lat="42.98931" lon="0.69193">
        <ele>772</ele>
        <time>2022-09-08T13:29:29Z</time>
      </trkpt>
      <trkpt lat="42.98929" lon="0.69194">
        <ele>772</ele>
        <time>2022-09-08T13:29:32Z</time>
      </trkpt>
      <trkpt lat="42.98931" lon="0.69193">
        <ele>772</ele>
        <time>2022-09-08T13:29:45Z</time>
      </trkpt>
      <trkpt lat="42.98932" lon="0.6919">
        <ele>772</ele>
        <time>2022-09-08T13:29:49Z</time>
      </trkpt>
      <trkpt lat="42.98931" lon="0.69187">
        <ele>772</ele>
        <time>2022-09-08T13:29:50Z</time>
      </trkpt>
      <trkpt lat="42.9893" lon="0.69184">
        <ele>772</ele>
        <time>2022-09-08T13:29:53Z</time>
      </trkpt>
      <trkpt lat="42.98929" lon="0.69181">
        <ele>774</ele>
        <time>2022-09-08T13:29:54Z</time>
      </trkpt>
      <trkpt lat="42.98929" lon="0.69178">
        <ele>774</ele>
        <time>2022-09-08T13:29:57Z</time>
      </trkpt>
      <trkpt lat="42.98929" lon="0.69175">
        <ele>774</ele>
        <time>2022-09-08T13:30:00Z</time>
      </trkpt>
      <trkpt lat="42.98931" lon="0.69173">
        <ele>774</ele>
        <time>2022-09-08T13:30:01Z</time>
      </trkpt>
      <trkpt lat="42.98933" lon="0.69174">
        <ele>773</ele>
        <time>2022-09-08T13:30:06Z</time>
      </trkpt>
      <trkpt lat="42.98932" lon="0.69172">
        <ele>773</ele>
        <time>2022-09-08T13:30:09Z</time>
      </trkpt>
      <trkpt lat="42.98933" lon="0.69169">
        <ele>773</ele>
        <time>2022-09-08T13:30:13Z</time>
      </trkpt>
      <trkpt lat="42.98933" lon="0.69167">
        <ele>773</ele>
        <time>2022-09-08T13:30:16Z</time>
      </trkpt>
      <trkpt lat="42.98935" lon="0.69166">
        <ele>772</ele>
        <time>2022-09-08T13:30:44Z</time>
      </trkpt>
      <trkpt lat="42.98935" lon="0.69168">
        <ele>772</ele>
        <time>2022-09-08T13:30:46Z</time>
      </trkpt>
      <trkpt lat="42.98933" lon="0.6917">
        <ele>772</ele>
        <time>2022-09-08T13:30:49Z</time>
      </trkpt>
      <trkpt lat="42.98932" lon="0.69173">
        <ele>772</ele>
        <time>2022-09-08T13:30:51Z</time>
      </trkpt>
      <trkpt lat="42.98931" lon="0.69176">
        <ele>772</ele>
        <time>2022-09-08T13:30:52Z</time>
      </trkpt>
      <trkpt lat="42.98931" lon="0.69179">
        <ele>772</ele>
        <time>2022-09-08T13:30:54Z</time>
      </trkpt>
      <trkpt lat="42.98932" lon="0.69183">
        <ele>772</ele>
        <time>2022-09-08T13:30:56Z</time>
      </trkpt>
      <trkpt lat="42.98932" lon="0.69186">
        <ele>772</ele>
        <time>2022-09-08T13:30:58Z</time>
      </trkpt>
      <trkpt lat="42.98933" lon="0.69189">
        <ele>772</ele>
        <time>2022-09-08T13:31:00Z</time>
      </trkpt>
      <trkpt lat="42.98934" lon="0.69193">
        <ele>772</ele>
        <time>2022-09-08T13:31:03Z</time>
      </trkpt>
      <trkpt lat="42.98935" lon="0.69196">
        <ele>773</ele>
        <time>2022-09-08T13:31:04Z</time>
      </trkpt>
      <trkpt lat="42.98936" lon="0.69199">
        <ele>773</ele>
        <time>2022-09-08T13:31:06Z</time>
      </trkpt>
      <trkpt lat="42.98937" lon="0.69201">
        <ele>773</ele>
        <time>2022-09-08T13:31:08Z</time>
      </trkpt>
      <trkpt lat="42.98939" lon="0.69204">
        <ele>773</ele>
        <time>2022-09-08T13:31:10Z</time>
      </trkpt>
      <trkpt lat="42.98939" lon="0.69208">
        <ele>773</ele>
        <time>2022-09-08T13:31:12Z</time>
      </trkpt>
      <trkpt lat="42.98941" lon="0.69211">
        <ele>773</ele>
        <time>2022-09-08T13:31:15Z</time>
      </trkpt>
      <trkpt lat="42.98943" lon="0.69215">
        <ele>773</ele>
        <time>2022-09-08T13:31:17Z</time>
      </trkpt>
      <trkpt lat="42.98944" lon="0.69217">
        <ele>773</ele>
        <time>2022-09-08T13:31:18Z</time>
      </trkpt>
      <trkpt lat="42.98946" lon="0.69221">
        <ele>773</ele>
        <time>2022-09-08T13:31:20Z</time>
      </trkpt>
      <trkpt lat="42.98947" lon="0.69224">
        <ele>773</ele>
        <time>2022-09-08T13:31:22Z</time>
      </trkpt>
      <trkpt lat="42.98949" lon="0.69227">
        <ele>772</ele>
        <time>2022-09-08T13:31:23Z</time>
      </trkpt>
      <trkpt lat="42.98951" lon="0.69229">
        <ele>772</ele>
        <time>2022-09-08T13:31:25Z</time>
      </trkpt>
      <trkpt lat="42.98953" lon="0.69232">
        <ele>772</ele>
        <time>2022-09-08T13:31:27Z</time>
      </trkpt>
      <trkpt lat="42.98955" lon="0.69234">
        <ele>772</ele>
        <time>2022-09-08T13:31:29Z</time>
      </trkpt>
      <trkpt lat="42.98957" lon="0.69237">
        <ele>772</ele>
        <time>2022-09-08T13:31:31Z</time>
      </trkpt>
      <trkpt lat="42.98959" lon="0.69239">
        <ele>773</ele>
        <time>2022-09-08T13:31:34Z</time>
      </trkpt>
      <trkpt lat="42.98962" lon="0.69241">
        <ele>773</ele>
        <time>2022-09-08T13:31:36Z</time>
      </trkpt>
      <trkpt lat="42.98965" lon="0.69242">
        <ele>773</ele>
        <time>2022-09-08T13:31:37Z</time>
      </trkpt>
      <trkpt lat="42.98968" lon="0.69243">
        <ele>773</ele>
        <time>2022-09-08T13:31:39Z</time>
      </trkpt>
      <trkpt lat="42.98971" lon="0.69244">
        <ele>773</ele>
        <time>2022-09-08T13:31:42Z</time>
      </trkpt>
      <trkpt lat="42.98973" lon="0.69246">
        <ele>773</ele>
        <time>2022-09-08T13:31:43Z</time>
      </trkpt>
      <trkpt lat="42.98976" lon="0.69247">
        <ele>773</ele>
        <time>2022-09-08T13:31:45Z</time>
      </trkpt>
      <trkpt lat="42.98978" lon="0.69248">
        <ele>773</ele>
        <time>2022-09-08T13:31:47Z</time>
      </trkpt>
      <trkpt lat="42.98981" lon="0.69248">
        <ele>773</ele>
        <time>2022-09-08T13:31:49Z</time>
      </trkpt>
      <trkpt lat="42.98984" lon="0.69249">
        <ele>773</ele>
        <time>2022-09-08T13:31:51Z</time>
      </trkpt>
      <trkpt lat="42.98986" lon="0.6925">
        <ele>774</ele>
        <time>2022-09-08T13:31:55Z</time>
      </trkpt>
      <trkpt lat="42.98988" lon="0.69251">
        <ele>774</ele>
        <time>2022-09-08T13:31:57Z</time>
      </trkpt>
      <trkpt lat="42.9899" lon="0.69252">
        <ele>774</ele>
        <time>2022-09-08T13:31:59Z</time>
      </trkpt>
      <trkpt lat="42.98992" lon="0.69253">
        <ele>774</ele>
        <time>2022-09-08T13:32:00Z</time>
      </trkpt>
      <trkpt lat="42.98995" lon="0.69254">
        <ele>774</ele>
        <time>2022-09-08T13:32:02Z</time>
      </trkpt>
      <trkpt lat="42.98997" lon="0.69254">
        <ele>776</ele>
        <time>2022-09-08T13:32:04Z</time>
      </trkpt>
      <trkpt lat="42.98999" lon="0.69255">
        <ele>776</ele>
        <time>2022-09-08T13:32:06Z</time>
      </trkpt>
      <trkpt lat="42.99001" lon="0.69255">
        <ele>776</ele>
        <time>2022-09-08T13:32:08Z</time>
      </trkpt>
      <trkpt lat="42.99004" lon="0.69255">
        <ele>776</ele>
        <time>2022-09-08T13:32:10Z</time>
      </trkpt>
      <trkpt lat="42.99006" lon="0.69255">
        <ele>776</ele>
        <time>2022-09-08T13:32:12Z</time>
      </trkpt>
      <trkpt lat="42.99009" lon="0.69256">
        <ele>776</ele>
        <time>2022-09-08T13:32:15Z</time>
      </trkpt>
      <trkpt lat="42.99011" lon="0.69255">
        <ele>776</ele>
        <time>2022-09-08T13:32:18Z</time>
      </trkpt>
      <trkpt lat="42.99014" lon="0.69256">
        <ele>776</ele>
        <time>2022-09-08T13:32:20Z</time>
      </trkpt>
      <trkpt lat="42.99016" lon="0.69256">
        <ele>779</ele>
        <time>2022-09-08T13:32:25Z</time>
      </trkpt>
      <trkpt lat="42.99018" lon="0.69255">
        <ele>779</ele>
        <time>2022-09-08T13:32:27Z</time>
      </trkpt>
      <trkpt lat="42.99021" lon="0.69256">
        <ele>779</ele>
        <time>2022-09-08T13:32:32Z</time>
      </trkpt>
      <trkpt lat="42.99022" lon="0.69258">
        <ele>779</ele>
        <time>2022-09-08T13:32:35Z</time>
      </trkpt>
      <trkpt lat="42.99026" lon="0.69258">
        <ele>779</ele>
        <time>2022-09-08T13:32:38Z</time>
      </trkpt>
      <trkpt lat="42.99028" lon="0.69258">
        <ele>779</ele>
        <time>2022-09-08T13:32:41Z</time>
      </trkpt>
      <trkpt lat="42.9903" lon="0.69258">
        <ele>779</ele>
        <time>2022-09-08T13:32:44Z</time>
      </trkpt>
      <trkpt lat="42.99032" lon="0.69259">
        <ele>779</ele>
        <time>2022-09-08T13:32:46Z</time>
      </trkpt>
      <trkpt lat="42.99033" lon="0.6926">
        <ele>779</ele>
        <time>2022-09-08T13:32:48Z</time>
      </trkpt>
      <trkpt lat="42.99035" lon="0.69261">
        <ele>779</ele>
        <time>2022-09-08T13:32:50Z</time>
      </trkpt>
      <trkpt lat="42.99036" lon="0.69263">
        <ele>779</ele>
        <time>2022-09-08T13:32:52Z</time>
      </trkpt>
      <trkpt lat="42.99038" lon="0.69265">
        <ele>781</ele>
        <time>2022-09-08T13:32:55Z</time>
      </trkpt>
      <trkpt lat="42.99039" lon="0.69268">
        <ele>781</ele>
        <time>2022-09-08T13:32:57Z</time>
      </trkpt>
      <trkpt lat="42.99041" lon="0.69269">
        <ele>781</ele>
        <time>2022-09-08T13:33:00Z</time>
      </trkpt>
      <trkpt lat="42.99043" lon="0.69271">
        <ele>781</ele>
        <time>2022-09-08T13:33:02Z</time>
      </trkpt>
      <trkpt lat="42.99044" lon="0.69274">
        <ele>784</ele>
        <time>2022-09-08T13:33:05Z</time>
      </trkpt>
      <trkpt lat="42.99045" lon="0.69276">
        <ele>784</ele>
        <time>2022-09-08T13:33:07Z</time>
      </trkpt>
      <trkpt lat="42.99046" lon="0.69279">
        <ele>784</ele>
        <time>2022-09-08T13:33:09Z</time>
      </trkpt>
      <trkpt lat="42.99046" lon="0.69283">
        <ele>784</ele>
        <time>2022-09-08T13:33:11Z</time>
      </trkpt>
      <trkpt lat="42.99046" lon="0.69286">
        <ele>784</ele>
        <time>2022-09-08T13:33:13Z</time>
      </trkpt>
      <trkpt lat="42.99046" lon="0.69289">
        <ele>786</ele>
        <time>2022-09-08T13:33:15Z</time>
      </trkpt>
      <trkpt lat="42.99047" lon="0.69292">
        <ele>786</ele>
        <time>2022-09-08T13:33:16Z</time>
      </trkpt>
      <trkpt lat="42.99047" lon="0.69296">
        <ele>786</ele>
        <time>2022-09-08T13:33:20Z</time>
      </trkpt>
      <trkpt lat="42.99046" lon="0.693">
        <ele>788</ele>
        <time>2022-09-08T13:33:24Z</time>
      </trkpt>
      <trkpt lat="42.99044" lon="0.69303">
        <ele>788</ele>
        <time>2022-09-08T13:33:27Z</time>
      </trkpt>
      <trkpt lat="42.99042" lon="0.69306">
        <ele>788</ele>
        <time>2022-09-08T13:33:28Z</time>
      </trkpt>
      <trkpt lat="42.9904" lon="0.69309">
        <ele>788</ele>
        <time>2022-09-08T13:33:30Z</time>
      </trkpt>
      <trkpt lat="42.99037" lon="0.6931">
        <ele>788</ele>
        <time>2022-09-08T13:33:32Z</time>
      </trkpt>
      <trkpt lat="42.99035" lon="0.69311">
        <ele>790</ele>
        <time>2022-09-08T13:33:35Z</time>
      </trkpt>
      <trkpt lat="42.99033" lon="0.69312">
        <ele>790</ele>
        <time>2022-09-08T13:33:37Z</time>
      </trkpt>
      <trkpt lat="42.9903" lon="0.69313">
        <ele>790</ele>
        <time>2022-09-08T13:33:39Z</time>
      </trkpt>
      <trkpt lat="42.99027" lon="0.69314">
        <ele>790</ele>
        <time>2022-09-08T13:33:41Z</time>
      </trkpt>
      <trkpt lat="42.99024" lon="0.69315">
        <ele>790</ele>
        <time>2022-09-08T13:33:43Z</time>
      </trkpt>
      <trkpt lat="42.99022" lon="0.69316">
        <ele>791</ele>
        <time>2022-09-08T13:33:45Z</time>
      </trkpt>
      <trkpt lat="42.99019" lon="0.69318">
        <ele>791</ele>
        <time>2022-09-08T13:33:47Z</time>
      </trkpt>
      <trkpt lat="42.99017" lon="0.69319">
        <ele>791</ele>
        <time>2022-09-08T13:33:49Z</time>
      </trkpt>
      <trkpt lat="42.99015" lon="0.69322">
        <ele>791</ele>
        <time>2022-09-08T13:33:51Z</time>
      </trkpt>
      <trkpt lat="42.99013" lon="0.69324">
        <ele>791</ele>
        <time>2022-09-08T13:33:53Z</time>
      </trkpt>
      <trkpt lat="42.99011" lon="0.69326">
        <ele>792</ele>
        <time>2022-09-08T13:34:00Z</time>
      </trkpt>
      <trkpt lat="42.99009" lon="0.69327">
        <ele>792</ele>
        <time>2022-09-08T13:34:03Z</time>
      </trkpt>
      <trkpt lat="42.99016" lon="0.69328">
        <ele>792</ele>
        <time>2022-09-08T13:34:17Z</time>
      </trkpt>
      <trkpt lat="42.99017" lon="0.69326">
        <ele>793</ele>
        <time>2022-09-08T13:34:29Z</time>
      </trkpt>
      <trkpt lat="42.99015" lon="0.69328">
        <ele>793</ele>
        <time>2022-09-08T13:34:30Z</time>
      </trkpt>
      <trkpt lat="42.99014" lon="0.6933">
        <ele>793</ele>
        <time>2022-09-08T13:34:33Z</time>
      </trkpt>
      <trkpt lat="42.99015" lon="0.69328">
        <ele>793</ele>
        <time>2022-09-08T13:34:38Z</time>
      </trkpt>
      <trkpt lat="42.99017" lon="0.69327">
        <ele>793</ele>
        <time>2022-09-08T13:34:40Z</time>
      </trkpt>
      <trkpt lat="42.99019" lon="0.69327">
        <ele>793</ele>
        <time>2022-09-08T13:34:42Z</time>
      </trkpt>
      <trkpt lat="42.99022" lon="0.69327">
        <ele>793</ele>
        <time>2022-09-08T13:34:45Z</time>
      </trkpt>
      <trkpt lat="42.99024" lon="0.69327">
        <ele>793</ele>
        <time>2022-09-08T13:34:46Z</time>
      </trkpt>
      <trkpt lat="42.99026" lon="0.69327">
        <ele>793</ele>
        <time>2022-09-08T13:34:48Z</time>
      </trkpt>
      <trkpt lat="42.99029" lon="0.69327">
        <ele>793</ele>
        <time>2022-09-08T13:34:50Z</time>
      </trkpt>
      <trkpt lat="42.99032" lon="0.69327">
        <ele>793</ele>
        <time>2022-09-08T13:34:52Z</time>
      </trkpt>
      <trkpt lat="42.99035" lon="0.69327">
        <ele>793</ele>
        <time>2022-09-08T13:34:56Z</time>
      </trkpt>
      <trkpt lat="42.99038" lon="0.69328">
        <ele>793</ele>
        <time>2022-09-08T13:34:59Z</time>
      </trkpt>
      <trkpt lat="42.9904" lon="0.69329">
        <ele>793</ele>
        <time>2022-09-08T13:35:01Z</time>
      </trkpt>
      <trkpt lat="42.99043" lon="0.69331">
        <ele>793</ele>
        <time>2022-09-08T13:35:03Z</time>
      </trkpt>
      <trkpt lat="42.99046" lon="0.69332">
        <ele>794</ele>
        <time>2022-09-08T13:35:05Z</time>
      </trkpt>
      <trkpt lat="42.99048" lon="0.69333">
        <ele>794</ele>
        <time>2022-09-08T13:35:07Z</time>
      </trkpt>
      <trkpt lat="42.9905" lon="0.69334">
        <ele>794</ele>
        <time>2022-09-08T13:35:10Z</time>
      </trkpt>
      <trkpt lat="42.99052" lon="0.69336">
        <ele>794</ele>
        <time>2022-09-08T13:35:12Z</time>
      </trkpt>
      <trkpt lat="42.99054" lon="0.69337">
        <ele>794</ele>
        <time>2022-09-08T13:35:13Z</time>
      </trkpt>
      <trkpt lat="42.99055" lon="0.69338">
        <ele>794</ele>
        <time>2022-09-08T13:35:16Z</time>
      </trkpt>
      <trkpt lat="42.99057" lon="0.6934">
        <ele>794</ele>
        <time>2022-09-08T13:35:17Z</time>
      </trkpt>
      <trkpt lat="42.99059" lon="0.69342">
        <ele>794</ele>
        <time>2022-09-08T13:35:20Z</time>
      </trkpt>
      <trkpt lat="42.99061" lon="0.69344">
        <ele>794</ele>
        <time>2022-09-08T13:35:22Z</time>
      </trkpt>
      <trkpt lat="42.99063" lon="0.69346">
        <ele>796</ele>
        <time>2022-09-08T13:35:26Z</time>
      </trkpt>
      <trkpt lat="42.99065" lon="0.69349">
        <ele>796</ele>
        <time>2022-09-08T13:35:27Z</time>
      </trkpt>
      <trkpt lat="42.99068" lon="0.69351">
        <ele>796</ele>
        <time>2022-09-08T13:35:30Z</time>
      </trkpt>
      <trkpt lat="42.9907" lon="0.69353">
        <ele>796</ele>
        <time>2022-09-08T13:35:32Z</time>
      </trkpt>
      <trkpt lat="42.99072" lon="0.69356">
        <ele>796</ele>
        <time>2022-09-08T13:35:34Z</time>
      </trkpt>
      <trkpt lat="42.99075" lon="0.69358">
        <ele>796</ele>
        <time>2022-09-08T13:35:36Z</time>
      </trkpt>
      <trkpt lat="42.99076" lon="0.6936">
        <ele>796</ele>
        <time>2022-09-08T13:35:38Z</time>
      </trkpt>
      <trkpt lat="42.99078" lon="0.69362">
        <ele>796</ele>
        <time>2022-09-08T13:35:40Z</time>
      </trkpt>
      <trkpt lat="42.9908" lon="0.69364">
        <ele>796</ele>
        <time>2022-09-08T13:35:42Z</time>
      </trkpt>
      <trkpt lat="42.99083" lon="0.69366">
        <ele>796</ele>
        <time>2022-09-08T13:35:43Z</time>
      </trkpt>
      <trkpt lat="42.99086" lon="0.6937">
        <ele>796</ele>
        <time>2022-09-08T13:35:47Z</time>
      </trkpt>
      <trkpt lat="42.99089" lon="0.69372">
        <ele>796</ele>
        <time>2022-09-08T13:35:49Z</time>
      </trkpt>
      <trkpt lat="42.99092" lon="0.69372">
        <ele>796</ele>
        <time>2022-09-08T13:35:50Z</time>
      </trkpt>
      <trkpt lat="42.99094" lon="0.69373">
        <ele>796</ele>
        <time>2022-09-08T13:35:58Z</time>
      </trkpt>
      <trkpt lat="42.99095" lon="0.69376">
        <ele>796</ele>
        <time>2022-09-08T13:36:01Z</time>
      </trkpt>
      <trkpt lat="42.99097" lon="0.69376">
        <ele>796</ele>
        <time>2022-09-08T13:36:04Z</time>
      </trkpt>
      <trkpt lat="42.99095" lon="0.69374">
        <ele>796</ele>
        <time>2022-09-08T13:36:38Z</time>
      </trkpt>
      <trkpt lat="42.99093" lon="0.69373">
        <ele>796</ele>
        <time>2022-09-08T13:36:40Z</time>
      </trkpt>
      <trkpt lat="42.99091" lon="0.69372">
        <ele>796</ele>
        <time>2022-09-08T13:36:44Z</time>
      </trkpt>
      <trkpt lat="42.99089" lon="0.69371">
        <ele>796</ele>
        <time>2022-09-08T13:36:46Z</time>
      </trkpt>
      <trkpt lat="42.99086" lon="0.6937">
        <ele>796</ele>
        <time>2022-09-08T13:36:47Z</time>
      </trkpt>
      <trkpt lat="42.99083" lon="0.69368">
        <ele>796</ele>
        <time>2022-09-08T13:36:50Z</time>
      </trkpt>
      <trkpt lat="42.99081" lon="0.69367">
        <ele>796</ele>
        <time>2022-09-08T13:36:51Z</time>
      </trkpt>
      <trkpt lat="42.9908" lon="0.69365">
        <ele>796</ele>
        <time>2022-09-08T13:36:54Z</time>
      </trkpt>
      <trkpt lat="42.99078" lon="0.69363">
        <ele>796</ele>
        <time>2022-09-08T13:36:55Z</time>
      </trkpt>
      <trkpt lat="42.99076" lon="0.69361">
        <ele>796</ele>
        <time>2022-09-08T13:36:57Z</time>
      </trkpt>
      <trkpt lat="42.99074" lon="0.6936">
        <ele>796</ele>
        <time>2022-09-08T13:36:59Z</time>
      </trkpt>
      <trkpt lat="42.99072" lon="0.69358">
        <ele>796</ele>
        <time>2022-09-08T13:37:01Z</time>
      </trkpt>
      <trkpt lat="42.99071" lon="0.69356">
        <ele>796</ele>
        <time>2022-09-08T13:37:03Z</time>
      </trkpt>
      <trkpt lat="42.99069" lon="0.69354">
        <ele>796</ele>
        <time>2022-09-08T13:37:05Z</time>
      </trkpt>
      <trkpt lat="42.99067" lon="0.69353">
        <ele>796</ele>
        <time>2022-09-08T13:37:07Z</time>
      </trkpt>
      <trkpt lat="42.99065" lon="0.69351">
        <ele>796</ele>
        <time>2022-09-08T13:37:09Z</time>
      </trkpt>
      <trkpt lat="42.99063" lon="0.6935">
        <ele>796</ele>
        <time>2022-09-08T13:37:11Z</time>
      </trkpt>
      <trkpt lat="42.99061" lon="0.69349">
        <ele>796</ele>
        <time>2022-09-08T13:37:13Z</time>
      </trkpt>
      <trkpt lat="42.99058" lon="0.69347">
        <ele>796</ele>
        <time>2022-09-08T13:37:16Z</time>
      </trkpt>
      <trkpt lat="42.99056" lon="0.69344">
        <ele>796</ele>
        <time>2022-09-08T13:37:18Z</time>
      </trkpt>
      <trkpt lat="42.99054" lon="0.69342">
        <ele>796</ele>
        <time>2022-09-08T13:37:20Z</time>
      </trkpt>
      <trkpt lat="42.99051" lon="0.69341">
        <ele>796</ele>
        <time>2022-09-08T13:37:22Z</time>
      </trkpt>
      <trkpt lat="42.99049" lon="0.69338">
        <ele>796</ele>
        <time>2022-09-08T13:37:24Z</time>
      </trkpt>
      <trkpt lat="42.99046" lon="0.69337">
        <ele>796</ele>
        <time>2022-09-08T13:37:26Z</time>
      </trkpt>
      <trkpt lat="42.99044" lon="0.69335">
        <ele>796</ele>
        <time>2022-09-08T13:37:28Z</time>
      </trkpt>
      <trkpt lat="42.99042" lon="0.69333">
        <ele>796</ele>
        <time>2022-09-08T13:37:30Z</time>
      </trkpt>
      <trkpt lat="42.9904" lon="0.69331">
        <ele>796</ele>
        <time>2022-09-08T13:37:32Z</time>
      </trkpt>
      <trkpt lat="42.99037" lon="0.6933">
        <ele>795</ele>
        <time>2022-09-08T13:37:34Z</time>
      </trkpt>
      <trkpt lat="42.99035" lon="0.69329">
        <ele>795</ele>
        <time>2022-09-08T13:37:37Z</time>
      </trkpt>
      <trkpt lat="42.99033" lon="0.69327">
        <ele>795</ele>
        <time>2022-09-08T13:37:38Z</time>
      </trkpt>
      <trkpt lat="42.99031" lon="0.69327">
        <ele>795</ele>
        <time>2022-09-08T13:37:42Z</time>
      </trkpt>
      <trkpt lat="42.99029" lon="0.69327">
        <ele>794</ele>
        <time>2022-09-08T13:37:43Z</time>
      </trkpt>
      <trkpt lat="42.99026" lon="0.69327">
        <ele>794</ele>
        <time>2022-09-08T13:37:45Z</time>
      </trkpt>
      <trkpt lat="42.99023" lon="0.69328">
        <ele>794</ele>
        <time>2022-09-08T13:37:47Z</time>
      </trkpt>
      <trkpt lat="42.99021" lon="0.69329">
        <ele>794</ele>
        <time>2022-09-08T13:37:49Z</time>
      </trkpt>
      <trkpt lat="42.99018" lon="0.69329">
        <ele>794</ele>
        <time>2022-09-08T13:37:51Z</time>
      </trkpt>
      <trkpt lat="42.99016" lon="0.69331">
        <ele>794</ele>
        <time>2022-09-08T13:37:54Z</time>
      </trkpt>
      <trkpt lat="42.99014" lon="0.69331">
        <ele>794</ele>
        <time>2022-09-08T13:37:56Z</time>
      </trkpt>
      <trkpt lat="42.99012" lon="0.69331">
        <ele>794</ele>
        <time>2022-09-08T13:37:58Z</time>
      </trkpt>
      <trkpt lat="42.9901" lon="0.69328">
        <ele>794</ele>
        <time>2022-09-08T13:38:07Z</time>
      </trkpt>
      <trkpt lat="42.99009" lon="0.69325">
        <ele>794</ele>
        <time>2022-09-08T13:38:10Z</time>
      </trkpt>
      <trkpt lat="42.9901" lon="0.69321">
        <ele>794</ele>
        <time>2022-09-08T13:38:12Z</time>
      </trkpt>
      <trkpt lat="42.99012" lon="0.69319">
        <ele>794</ele>
        <time>2022-09-08T13:38:14Z</time>
      </trkpt>
      <trkpt lat="42.99014" lon="0.69317">
        <ele>794</ele>
        <time>2022-09-08T13:38:16Z</time>
      </trkpt>
      <trkpt lat="42.99016" lon="0.69315">
        <ele>794</ele>
        <time>2022-09-08T13:38:18Z</time>
      </trkpt>
      <trkpt lat="42.99018" lon="0.69314">
        <ele>794</ele>
        <time>2022-09-08T13:38:20Z</time>
      </trkpt>
      <trkpt lat="42.9902" lon="0.69313">
        <ele>794</ele>
        <time>2022-09-08T13:38:22Z</time>
      </trkpt>
      <trkpt lat="42.99022" lon="0.69312">
        <ele>793</ele>
        <time>2022-09-08T13:38:24Z</time>
      </trkpt>
      <trkpt lat="42.99024" lon="0.69312">
        <ele>793</ele>
        <time>2022-09-08T13:38:26Z</time>
      </trkpt>
      <trkpt lat="42.99027" lon="0.69312">
        <ele>793</ele>
        <time>2022-09-08T13:38:28Z</time>
      </trkpt>
      <trkpt lat="42.99029" lon="0.69312">
        <ele>793</ele>
        <time>2022-09-08T13:38:31Z</time>
      </trkpt>
      <trkpt lat="42.99032" lon="0.69313">
        <ele>793</ele>
        <time>2022-09-08T13:38:34Z</time>
      </trkpt>
      <trkpt lat="42.99034" lon="0.69312">
        <ele>793</ele>
        <time>2022-09-08T13:38:36Z</time>
      </trkpt>
      <trkpt lat="42.99036" lon="0.69311">
        <ele>793</ele>
        <time>2022-09-08T13:38:38Z</time>
      </trkpt>
      <trkpt lat="42.99037" lon="0.6931">
        <ele>793</ele>
        <time>2022-09-08T13:38:39Z</time>
      </trkpt>
      <trkpt lat="42.99039" lon="0.69308">
        <ele>793</ele>
        <time>2022-09-08T13:38:41Z</time>
      </trkpt>
      <trkpt lat="42.99041" lon="0.69307">
        <ele>792</ele>
        <time>2022-09-08T13:38:43Z</time>
      </trkpt>
      <trkpt lat="42.99043" lon="0.69305">
        <ele>792</ele>
        <time>2022-09-08T13:38:45Z</time>
      </trkpt>
      <trkpt lat="42.99044" lon="0.69302">
        <ele>792</ele>
        <time>2022-09-08T13:38:47Z</time>
      </trkpt>
      <trkpt lat="42.99044" lon="0.69299">
        <ele>792</ele>
        <time>2022-09-08T13:38:49Z</time>
      </trkpt>
      <trkpt lat="42.99044" lon="0.69296">
        <ele>792</ele>
        <time>2022-09-08T13:38:51Z</time>
      </trkpt>
      <trkpt lat="42.99043" lon="0.69292">
        <ele>790</ele>
        <time>2022-09-08T13:38:55Z</time>
      </trkpt>
      <trkpt lat="42.99043" lon="0.6929">
        <ele>790</ele>
        <time>2022-09-08T13:38:57Z</time>
      </trkpt>
      <trkpt lat="42.99043" lon="0.69286">
        <ele>790</ele>
        <time>2022-09-08T13:39:00Z</time>
      </trkpt>
      <trkpt lat="42.99042" lon="0.69283">
        <ele>790</ele>
        <time>2022-09-08T13:39:02Z</time>
      </trkpt>
      <trkpt lat="42.99041" lon="0.69281">
        <ele>788</ele>
        <time>2022-09-08T13:39:05Z</time>
      </trkpt>
      <trkpt lat="42.9904" lon="0.69279">
        <ele>788</ele>
        <time>2022-09-08T13:39:06Z</time>
      </trkpt>
      <trkpt lat="42.9904" lon="0.69276">
        <ele>788</ele>
        <time>2022-09-08T13:39:08Z</time>
      </trkpt>
      <trkpt lat="42.99039" lon="0.69273">
        <ele>787</ele>
        <time>2022-09-08T13:39:17Z</time>
      </trkpt>
      <trkpt lat="42.99038" lon="0.6927">
        <ele>787</ele>
        <time>2022-09-08T13:39:19Z</time>
      </trkpt>
      <trkpt lat="42.99035" lon="0.69264">
        <ele>787</ele>
        <time>2022-09-08T13:39:24Z</time>
      </trkpt>
      <trkpt lat="42.99034" lon="0.69262">
        <ele>787</ele>
        <time>2022-09-08T13:39:26Z</time>
      </trkpt>
      <trkpt lat="42.99032" lon="0.69259">
        <ele>787</ele>
        <time>2022-09-08T13:39:32Z</time>
      </trkpt>
      <trkpt lat="42.9903" lon="0.69259">
        <ele>786</ele>
        <time>2022-09-08T13:39:35Z</time>
      </trkpt>
      <trkpt lat="42.99028" lon="0.69259">
        <ele>786</ele>
        <time>2022-09-08T13:39:37Z</time>
      </trkpt>
      <trkpt lat="42.9903" lon="0.69262">
        <ele>786</ele>
        <time>2022-09-08T13:39:41Z</time>
      </trkpt>
      <trkpt lat="42.99028" lon="0.69261">
        <ele>784</ele>
        <time>2022-09-08T13:39:45Z</time>
      </trkpt>
      <trkpt lat="42.99025" lon="0.6926">
        <ele>784</ele>
        <time>2022-09-08T13:39:48Z</time>
      </trkpt>
      <trkpt lat="42.99023" lon="0.69259">
        <ele>784</ele>
        <time>2022-09-08T13:39:50Z</time>
      </trkpt>
      <trkpt lat="42.99021" lon="0.69258">
        <ele>784</ele>
        <time>2022-09-08T13:39:51Z</time>
      </trkpt>
      <trkpt lat="42.99019" lon="0.69258">
        <ele>783</ele>
        <time>2022-09-08T13:39:54Z</time>
      </trkpt>
      <trkpt lat="42.99017" lon="0.69258">
        <ele>783</ele>
        <time>2022-09-08T13:39:56Z</time>
      </trkpt>
      <trkpt lat="42.99015" lon="0.69257">
        <ele>783</ele>
        <time>2022-09-08T13:39:58Z</time>
      </trkpt>
      <trkpt lat="42.99012" lon="0.69257">
        <ele>783</ele>
        <time>2022-09-08T13:39:59Z</time>
      </trkpt>
      <trkpt lat="42.9901" lon="0.69257">
        <ele>783</ele>
        <time>2022-09-08T13:40:01Z</time>
      </trkpt>
      <trkpt lat="42.99008" lon="0.69256">
        <ele>780</ele>
        <time>2022-09-08T13:40:04Z</time>
      </trkpt>
      <trkpt lat="42.99006" lon="0.69255">
        <ele>780</ele>
        <time>2022-09-08T13:40:06Z</time>
      </trkpt>
      <trkpt lat="42.99004" lon="0.69255">
        <ele>780</ele>
        <time>2022-09-08T13:40:09Z</time>
      </trkpt>
      <trkpt lat="42.99002" lon="0.69255">
        <ele>780</ele>
        <time>2022-09-08T13:40:11Z</time>
      </trkpt>
      <trkpt lat="42.98999" lon="0.69255">
        <ele>780</ele>
        <time>2022-09-08T13:40:14Z</time>
      </trkpt>
      <trkpt lat="42.98997" lon="0.69255">
        <ele>780</ele>
        <time>2022-09-08T13:40:17Z</time>
      </trkpt>
      <trkpt lat="42.98995" lon="0.69254">
        <ele>780</ele>
        <time>2022-09-08T13:40:18Z</time>
      </trkpt>
      <trkpt lat="42.98992" lon="0.69254">
        <ele>780</ele>
        <time>2022-09-08T13:40:20Z</time>
      </trkpt>
      <trkpt lat="42.9899" lon="0.69253">
        <ele>780</ele>
        <time>2022-09-08T13:40:22Z</time>
      </trkpt>
      <trkpt lat="42.98987" lon="0.69253">
        <ele>778</ele>
        <time>2022-09-08T13:40:25Z</time>
      </trkpt>
      <trkpt lat="42.98985" lon="0.69253">
        <ele>778</ele>
        <time>2022-09-08T13:40:26Z</time>
      </trkpt>
      <trkpt lat="42.98983" lon="0.69253">
        <ele>778</ele>
        <time>2022-09-08T13:40:28Z</time>
      </trkpt>
      <trkpt lat="42.98981" lon="0.69252">
        <ele>778</ele>
        <time>2022-09-08T13:40:30Z</time>
      </trkpt>
      <trkpt lat="42.98978" lon="0.69252">
        <ele>778</ele>
        <time>2022-09-08T13:40:32Z</time>
      </trkpt>
      <trkpt lat="42.98976" lon="0.69251">
        <ele>777</ele>
        <time>2022-09-08T13:40:34Z</time>
      </trkpt>
      <trkpt lat="42.98974" lon="0.69251">
        <ele>777</ele>
        <time>2022-09-08T13:40:36Z</time>
      </trkpt>
      <trkpt lat="42.98971" lon="0.69251">
        <ele>777</ele>
        <time>2022-09-08T13:40:38Z</time>
      </trkpt>
      <trkpt lat="42.98969" lon="0.6925">
        <ele>777</ele>
        <time>2022-09-08T13:40:40Z</time>
      </trkpt>
      <trkpt lat="42.98966" lon="0.69249">
        <ele>777</ele>
        <time>2022-09-08T13:40:42Z</time>
      </trkpt>
      <trkpt lat="42.98964" lon="0.69249">
        <ele>776</ele>
        <time>2022-09-08T13:40:45Z</time>
      </trkpt>
      <trkpt lat="42.98961" lon="0.69249">
        <ele>776</ele>
        <time>2022-09-08T13:40:46Z</time>
      </trkpt>
      <trkpt lat="42.9896" lon="0.69245">
        <ele>776</ele>
        <time>2022-09-08T13:40:48Z</time>
      </trkpt>
      <trkpt lat="42.98958" lon="0.69244">
        <ele>776</ele>
        <time>2022-09-08T13:40:51Z</time>
      </trkpt>
      <trkpt lat="42.98955" lon="0.69241">
        <ele>776</ele>
        <time>2022-09-08T13:40:53Z</time>
      </trkpt>
      <trkpt lat="42.98953" lon="0.69238">
        <ele>776</ele>
        <time>2022-09-08T13:40:54Z</time>
      </trkpt>
      <trkpt lat="42.98951" lon="0.69235">
        <ele>776</ele>
        <time>2022-09-08T13:40:56Z</time>
      </trkpt>
      <trkpt lat="42.98949" lon="0.69231">
        <ele>776</ele>
        <time>2022-09-08T13:40:58Z</time>
      </trkpt>
      <trkpt lat="42.98948" lon="0.69228">
        <ele>776</ele>
        <time>2022-09-08T13:41:00Z</time>
      </trkpt>
      <trkpt lat="42.98946" lon="0.69225">
        <ele>776</ele>
        <time>2022-09-08T13:41:01Z</time>
      </trkpt>
      <trkpt lat="42.98944" lon="0.69222">
        <ele>775</ele>
        <time>2022-09-08T13:41:03Z</time>
      </trkpt>
      <trkpt lat="42.98943" lon="0.69219">
        <ele>775</ele>
        <time>2022-09-08T13:41:06Z</time>
      </trkpt>
      <trkpt lat="42.98941" lon="0.69217">
        <ele>775</ele>
        <time>2022-09-08T13:41:07Z</time>
      </trkpt>
      <trkpt lat="42.9894" lon="0.69213">
        <ele>775</ele>
        <time>2022-09-08T13:41:10Z</time>
      </trkpt>
      <trkpt lat="42.98939" lon="0.6921">
        <ele>775</ele>
        <time>2022-09-08T13:41:12Z</time>
      </trkpt>
      <trkpt lat="42.98938" lon="0.69207">
        <ele>775</ele>
        <time>2022-09-08T13:41:14Z</time>
      </trkpt>
      <trkpt lat="42.98937" lon="0.69205">
        <ele>775</ele>
        <time>2022-09-08T13:41:15Z</time>
      </trkpt>
      <trkpt lat="42.98937" lon="0.69202">
        <ele>775</ele>
        <time>2022-09-08T13:41:20Z</time>
      </trkpt>
      <trkpt lat="42.98936" lon="0.69204">
        <ele>774</ele>
        <time>2022-09-08T13:41:33Z</time>
      </trkpt>
      <trkpt lat="42.98938" lon="0.69204">
        <ele>774</ele>
        <time>2022-09-08T13:41:37Z</time>
      </trkpt>
      <trkpt lat="42.98938" lon="0.69202">
        <ele>775</ele>
        <time>2022-09-08T13:41:45Z</time>
      </trkpt>
      <trkpt lat="42.98937" lon="0.69203">
        <ele>776</ele>
        <time>2022-09-08T13:42:18Z</time>
      </trkpt>
      <trkpt lat="42.98936" lon="0.69206">
        <ele>776</ele>
        <time>2022-09-08T13:42:21Z</time>
      </trkpt>
      <trkpt lat="42.98934" lon="0.69206">
        <ele>775</ele>
        <time>2022-09-08T13:42:26Z</time>
      </trkpt>
      <trkpt lat="42.98933" lon="0.69204">
        <ele>775</ele>
        <time>2022-09-08T13:42:28Z</time>
      </trkpt>
      <trkpt lat="42.98933" lon="0.692">
        <ele>775</ele>
        <time>2022-09-08T13:42:31Z</time>
      </trkpt>
      <trkpt lat="42.98932" lon="0.69198">
        <ele>775</ele>
        <time>2022-09-08T13:42:33Z</time>
      </trkpt>
      <trkpt lat="42.98932" lon="0.69194">
        <ele>775</ele>
        <time>2022-09-08T13:42:37Z</time>
      </trkpt>
      <trkpt lat="42.98931" lon="0.69192">
        <ele>775</ele>
        <time>2022-09-08T13:42:38Z</time>
      </trkpt>
      <trkpt lat="42.98931" lon="0.69189">
        <ele>775</ele>
        <time>2022-09-08T13:42:40Z</time>
      </trkpt>
      <trkpt lat="42.98929" lon="0.69187">
        <ele>775</ele>
        <time>2022-09-08T13:42:43Z</time>
      </trkpt>
      <trkpt lat="42.98928" lon="0.69184">
        <ele>774</ele>
        <time>2022-09-08T13:42:45Z</time>
      </trkpt>
      <trkpt lat="42.98927" lon="0.69182">
        <ele>774</ele>
        <time>2022-09-08T13:42:47Z</time>
      </trkpt>
      <trkpt lat="42.98926" lon="0.69178">
        <ele>774</ele>
        <time>2022-09-08T13:42:50Z</time>
      </trkpt>
      <trkpt lat="42.98925" lon="0.69176">
        <ele>774</ele>
        <time>2022-09-08T13:42:51Z</time>
      </trkpt>
      <trkpt lat="42.98924" lon="0.69173">
        <ele>774</ele>
        <time>2022-09-08T13:42:53Z</time>
      </trkpt>
      <trkpt lat="42.98923" lon="0.6917">
        <ele>774</ele>
        <time>2022-09-08T13:42:55Z</time>
      </trkpt>
      <trkpt lat="42.98923" lon="0.69167">
        <ele>774</ele>
        <time>2022-09-08T13:42:57Z</time>
      </trkpt>
      <trkpt lat="42.98922" lon="0.69163">
        <ele>774</ele>
        <time>2022-09-08T13:42:59Z</time>
      </trkpt>
      <trkpt lat="42.98922" lon="0.69159">
        <ele>774</ele>
        <time>2022-09-08T13:43:01Z</time>
      </trkpt>
      <trkpt lat="42.98921" lon="0.69156">
        <ele>773</ele>
        <time>2022-09-08T13:43:04Z</time>
      </trkpt>
      <trkpt lat="42.9892" lon="0.69152">
        <ele>773</ele>
        <time>2022-09-08T13:43:06Z</time>
      </trkpt>
      <trkpt lat="42.9892" lon="0.69149">
        <ele>773</ele>
        <time>2022-09-08T13:43:08Z</time>
      </trkpt>
      <trkpt lat="42.98919" lon="0.69145">
        <ele>773</ele>
        <time>2022-09-08T13:43:09Z</time>
      </trkpt>
      <trkpt lat="42.98918" lon="0.69142">
        <ele>773</ele>
        <time>2022-09-08T13:43:11Z</time>
      </trkpt>
      <trkpt lat="42.98917" lon="0.69139">
        <ele>773</ele>
        <time>2022-09-08T13:43:14Z</time>
      </trkpt>
      <trkpt lat="42.98916" lon="0.69135">
        <ele>773</ele>
        <time>2022-09-08T13:43:15Z</time>
      </trkpt>
      <trkpt lat="42.98915" lon="0.69131">
        <ele>773</ele>
        <time>2022-09-08T13:43:18Z</time>
      </trkpt>
      <trkpt lat="42.98914" lon="0.69129">
        <ele>773</ele>
        <time>2022-09-08T13:43:20Z</time>
      </trkpt>
      <trkpt lat="42.98913" lon="0.69126">
        <ele>773</ele>
        <time>2022-09-08T13:43:23Z</time>
      </trkpt>
      <trkpt lat="42.98914" lon="0.69123">
        <ele>771</ele>
        <time>2022-09-08T13:43:25Z</time>
      </trkpt>
      <trkpt lat="42.98914" lon="0.69111">
        <ele>771</ele>
        <time>2022-09-08T13:43:31Z</time>
      </trkpt>
      <trkpt lat="42.98913" lon="0.69108">
        <ele>770</ele>
        <time>2022-09-08T13:43:33Z</time>
      </trkpt>
      <trkpt lat="42.98912" lon="0.69105">
        <ele>770</ele>
        <time>2022-09-08T13:43:35Z</time>
      </trkpt>
      <trkpt lat="42.98911" lon="0.69101">
        <ele>770</ele>
        <time>2022-09-08T13:43:37Z</time>
      </trkpt>
      <trkpt lat="42.9891" lon="0.69098">
        <ele>770</ele>
        <time>2022-09-08T13:43:39Z</time>
      </trkpt>
      <trkpt lat="42.98909" lon="0.69095">
        <ele>770</ele>
        <time>2022-09-08T13:43:41Z</time>
      </trkpt>
      <trkpt lat="42.98909" lon="0.69092">
        <ele>770</ele>
        <time>2022-09-08T13:43:44Z</time>
      </trkpt>
      <trkpt lat="42.98908" lon="0.69089">
        <ele>770</ele>
        <time>2022-09-08T13:43:45Z</time>
      </trkpt>
      <trkpt lat="42.98907" lon="0.69087">
        <ele>770</ele>
        <time>2022-09-08T13:43:47Z</time>
      </trkpt>
      <trkpt lat="42.98907" lon="0.69084">
        <ele>770</ele>
        <time>2022-09-08T13:43:50Z</time>
      </trkpt>
      <trkpt lat="42.98906" lon="0.69081">
        <ele>770</ele>
        <time>2022-09-08T13:43:52Z</time>
      </trkpt>
      <trkpt lat="42.98903" lon="0.6907">
        <ele>768</ele>
        <time>2022-09-08T13:44:00Z</time>
      </trkpt>
      <trkpt lat="42.98902" lon="0.69066">
        <ele>768</ele>
        <time>2022-09-08T13:44:01Z</time>
      </trkpt>
      <trkpt lat="42.98901" lon="0.69063">
        <ele>767</ele>
        <time>2022-09-08T13:44:03Z</time>
      </trkpt>
      <trkpt lat="42.98901" lon="0.69059">
        <ele>767</ele>
        <time>2022-09-08T13:44:05Z</time>
      </trkpt>
      <trkpt lat="42.989" lon="0.69056">
        <ele>767</ele>
        <time>2022-09-08T13:44:07Z</time>
      </trkpt>
      <trkpt lat="42.98899" lon="0.69054">
        <ele>767</ele>
        <time>2022-09-08T13:44:09Z</time>
      </trkpt>
      <trkpt lat="42.98898" lon="0.6905">
        <ele>767</ele>
        <time>2022-09-08T13:44:12Z</time>
      </trkpt>
      <trkpt lat="42.98898" lon="0.69047">
        <ele>767</ele>
        <time>2022-09-08T13:44:14Z</time>
      </trkpt>
      <trkpt lat="42.98897" lon="0.69044">
        <ele>767</ele>
        <time>2022-09-08T13:44:16Z</time>
      </trkpt>
      <trkpt lat="42.98896" lon="0.69042">
        <ele>767</ele>
        <time>2022-09-08T13:44:18Z</time>
      </trkpt>
      <trkpt lat="42.98895" lon="0.69039">
        <ele>767</ele>
        <time>2022-09-08T13:44:20Z</time>
      </trkpt>
      <trkpt lat="42.98894" lon="0.69035">
        <ele>767</ele>
        <time>2022-09-08T13:44:22Z</time>
      </trkpt>
      <trkpt lat="42.98894" lon="0.69033">
        <ele>767</ele>
        <time>2022-09-08T13:44:24Z</time>
      </trkpt>
      <trkpt lat="42.98893" lon="0.69023">
        <ele>767</ele>
        <time>2022-09-08T13:44:29Z</time>
      </trkpt>
      <trkpt lat="42.98893" lon="0.6902">
        <ele>767</ele>
        <time>2022-09-08T13:44:32Z</time>
      </trkpt>
      <trkpt lat="42.98892" lon="0.69018">
        <ele>766</ele>
        <time>2022-09-08T13:44:37Z</time>
      </trkpt>
      <trkpt lat="42.98893" lon="0.69015">
        <ele>766</ele>
        <time>2022-09-08T13:44:49Z</time>
      </trkpt>
      <trkpt lat="42.98892" lon="0.69017">
        <ele>766</ele>
        <time>2022-09-08T13:45:39Z</time>
      </trkpt>
      <trkpt lat="42.98893" lon="0.6902">
        <ele>766</ele>
        <time>2022-09-08T13:45:42Z</time>
      </trkpt>
      <trkpt lat="42.98891" lon="0.69021">
        <ele>767</ele>
        <time>2022-09-08T13:45:59Z</time>
      </trkpt>
      <trkpt lat="42.98889" lon="0.69019">
        <ele>767</ele>
        <time>2022-09-08T13:46:12Z</time>
      </trkpt>
      <trkpt lat="42.98887" lon="0.6902">
        <ele>767</ele>
        <time>2022-09-08T13:46:20Z</time>
      </trkpt>
      <trkpt lat="42.98884" lon="0.69026">
        <ele>766</ele>
        <time>2022-09-08T13:46:33Z</time>
      </trkpt>
      <trkpt lat="42.98885" lon="0.69024">
        <ele>767</ele>
        <time>2022-09-08T13:46:50Z</time>
      </trkpt>
      <trkpt lat="42.98888" lon="0.69023">
        <ele>766</ele>
        <time>2022-09-08T13:46:54Z</time>
      </trkpt>
      <trkpt lat="42.98889" lon="0.69021">
        <ele>766</ele>
        <time>2022-09-08T13:47:01Z</time>
      </trkpt>
      <trkpt lat="42.98889" lon="0.69018">
        <ele>765</ele>
        <time>2022-09-08T13:47:04Z</time>
      </trkpt>
      <trkpt lat="42.98889" lon="0.69015">
        <ele>765</ele>
        <time>2022-09-08T13:47:07Z</time>
      </trkpt>
      <trkpt lat="42.98888" lon="0.69011">
        <ele>765</ele>
        <time>2022-09-08T13:47:10Z</time>
      </trkpt>
      <trkpt lat="42.98887" lon="0.69008">
        <ele>765</ele>
        <time>2022-09-08T13:47:13Z</time>
      </trkpt>
      <trkpt lat="42.98886" lon="0.69006">
        <ele>765</ele>
        <time>2022-09-08T13:47:15Z</time>
      </trkpt>
      <trkpt lat="42.98886" lon="0.69003">
        <ele>765</ele>
        <time>2022-09-08T13:47:17Z</time>
      </trkpt>
      <trkpt lat="42.98886" lon="0.68999">
        <ele>765</ele>
        <time>2022-09-08T13:47:19Z</time>
      </trkpt>
      <trkpt lat="42.98883" lon="0.68987">
        <ele>765</ele>
        <time>2022-09-08T13:47:24Z</time>
      </trkpt>
      <trkpt lat="42.98878" lon="0.68976">
        <ele>765</ele>
        <time>2022-09-08T13:47:29Z</time>
      </trkpt>
      <trkpt lat="42.9888" lon="0.68962">
        <ele>765</ele>
        <time>2022-09-08T13:47:39Z</time>
      </trkpt>
      <trkpt lat="42.98878" lon="0.68953">
        <ele>763</ele>
        <time>2022-09-08T13:47:44Z</time>
      </trkpt>
      <trkpt lat="42.98877" lon="0.68949">
        <ele>763</ele>
        <time>2022-09-08T13:47:47Z</time>
      </trkpt>
      <trkpt lat="42.98875" lon="0.68947">
        <ele>763</ele>
        <time>2022-09-08T13:47:49Z</time>
      </trkpt>
      <trkpt lat="42.98874" lon="0.68944">
        <ele>763</ele>
        <time>2022-09-08T13:47:51Z</time>
      </trkpt>
      <trkpt lat="42.98872" lon="0.68941">
        <ele>763</ele>
        <time>2022-09-08T13:47:53Z</time>
      </trkpt>
      <trkpt lat="42.98871" lon="0.68938">
        <ele>763</ele>
        <time>2022-09-08T13:47:55Z</time>
      </trkpt>
      <trkpt lat="42.9887" lon="0.68935">
        <ele>763</ele>
        <time>2022-09-08T13:47:56Z</time>
      </trkpt>
      <trkpt lat="42.98868" lon="0.68934">
        <ele>763</ele>
        <time>2022-09-08T13:48:00Z</time>
      </trkpt>
      <trkpt lat="42.98866" lon="0.68932">
        <ele>763</ele>
        <time>2022-09-08T13:48:02Z</time>
      </trkpt>
      <trkpt lat="42.98865" lon="0.68929">
        <ele>759</ele>
        <time>2022-09-08T13:48:05Z</time>
      </trkpt>
      <trkpt lat="42.98863" lon="0.68926">
        <ele>759</ele>
        <time>2022-09-08T13:48:08Z</time>
      </trkpt>
      <trkpt lat="42.98862" lon="0.68923">
        <ele>759</ele>
        <time>2022-09-08T13:48:10Z</time>
      </trkpt>
      <trkpt lat="42.98861" lon="0.68921">
        <ele>759</ele>
        <time>2022-09-08T13:48:13Z</time>
      </trkpt>
      <trkpt lat="42.98859" lon="0.68918">
        <ele>758</ele>
        <time>2022-09-08T13:48:15Z</time>
      </trkpt>
      <trkpt lat="42.98857" lon="0.68917">
        <ele>758</ele>
        <time>2022-09-08T13:48:17Z</time>
      </trkpt>
      <trkpt lat="42.98855" lon="0.68914">
        <ele>758</ele>
        <time>2022-09-08T13:48:18Z</time>
      </trkpt>
      <trkpt lat="42.98853" lon="0.68912">
        <ele>758</ele>
        <time>2022-09-08T13:48:20Z</time>
      </trkpt>
      <trkpt lat="42.98851" lon="0.68909">
        <ele>758</ele>
        <time>2022-09-08T13:48:23Z</time>
      </trkpt>
      <trkpt lat="42.98849" lon="0.68906">
        <ele>758</ele>
        <time>2022-09-08T13:48:24Z</time>
      </trkpt>
      <trkpt lat="42.98847" lon="0.68904">
        <ele>758</ele>
        <time>2022-09-08T13:48:27Z</time>
      </trkpt>
      <trkpt lat="42.98845" lon="0.68901">
        <ele>758</ele>
        <time>2022-09-08T13:48:29Z</time>
      </trkpt>
      <trkpt lat="42.98844" lon="0.68899">
        <ele>758</ele>
        <time>2022-09-08T13:48:32Z</time>
      </trkpt>
      <trkpt lat="42.98842" lon="0.68897">
        <ele>757</ele>
        <time>2022-09-08T13:48:34Z</time>
      </trkpt>
      <trkpt lat="42.98841" lon="0.68895">
        <ele>757</ele>
        <time>2022-09-08T13:48:36Z</time>
      </trkpt>
      <trkpt lat="42.98839" lon="0.68892">
        <ele>757</ele>
        <time>2022-09-08T13:48:40Z</time>
      </trkpt>
      <trkpt lat="42.98838" lon="0.6889">
        <ele>757</ele>
        <time>2022-09-08T13:48:43Z</time>
      </trkpt>
      <trkpt lat="42.98837" lon="0.68887">
        <ele>756</ele>
        <time>2022-09-08T13:48:46Z</time>
      </trkpt>
      <trkpt lat="42.98835" lon="0.68884">
        <ele>756</ele>
        <time>2022-09-08T13:48:48Z</time>
      </trkpt>
      <trkpt lat="42.98833" lon="0.68881">
        <ele>756</ele>
        <time>2022-09-08T13:48:51Z</time>
      </trkpt>
      <trkpt lat="42.98831" lon="0.6888">
        <ele>756</ele>
        <time>2022-09-08T13:48:53Z</time>
      </trkpt>
      <trkpt lat="42.98829" lon="0.68877">
        <ele>754</ele>
        <time>2022-09-08T13:48:54Z</time>
      </trkpt>
      <trkpt lat="42.98828" lon="0.68874">
        <ele>754</ele>
        <time>2022-09-08T13:48:56Z</time>
      </trkpt>
      <trkpt lat="42.98827" lon="0.68872">
        <ele>754</ele>
        <time>2022-09-08T13:48:58Z</time>
      </trkpt>
      <trkpt lat="42.9882" lon="0.68863">
        <ele>751</ele>
        <time>2022-09-08T13:49:05Z</time>
      </trkpt>
      <trkpt lat="42.9882" lon="0.6886">
        <ele>751</ele>
        <time>2022-09-08T13:49:13Z</time>
      </trkpt>
      <trkpt lat="42.98818" lon="0.68862">
        <ele>749</ele>
        <time>2022-09-08T13:49:30Z</time>
      </trkpt>
      <trkpt lat="42.98816" lon="0.68861">
        <ele>749</ele>
        <time>2022-09-08T13:49:34Z</time>
      </trkpt>
      <trkpt lat="42.98815" lon="0.68858">
        <ele>749</ele>
        <time>2022-09-08T13:49:36Z</time>
      </trkpt>
      <trkpt lat="42.98813" lon="0.68855">
        <ele>749</ele>
        <time>2022-09-08T13:49:40Z</time>
      </trkpt>
      <trkpt lat="42.98812" lon="0.68854">
        <ele>749</ele>
        <time>2022-09-08T13:49:42Z</time>
      </trkpt>
      <trkpt lat="42.9881" lon="0.68851">
        <ele>750</ele>
        <time>2022-09-08T13:49:45Z</time>
      </trkpt>
      <trkpt lat="42.98808" lon="0.68848">
        <ele>750</ele>
        <time>2022-09-08T13:49:47Z</time>
      </trkpt>
      <trkpt lat="42.98807" lon="0.68845">
        <ele>750</ele>
        <time>2022-09-08T13:49:50Z</time>
      </trkpt>
      <trkpt lat="42.98806" lon="0.68842">
        <ele>750</ele>
        <time>2022-09-08T13:49:52Z</time>
      </trkpt>
      <trkpt lat="42.98804" lon="0.6884">
        <ele>750</ele>
        <time>2022-09-08T13:49:54Z</time>
      </trkpt>
      <trkpt lat="42.98803" lon="0.68836">
        <ele>750</ele>
        <time>2022-09-08T13:49:56Z</time>
      </trkpt>
      <trkpt lat="42.98802" lon="0.68833">
        <ele>750</ele>
        <time>2022-09-08T13:49:58Z</time>
      </trkpt>
      <trkpt lat="42.98801" lon="0.6883">
        <ele>750</ele>
        <time>2022-09-08T13:50:00Z</time>
      </trkpt>
      <trkpt lat="42.988" lon="0.68828">
        <ele>750</ele>
        <time>2022-09-08T13:50:02Z</time>
      </trkpt>
      <trkpt lat="42.98798" lon="0.68826">
        <ele>749</ele>
        <time>2022-09-08T13:50:04Z</time>
      </trkpt>
      <trkpt lat="42.98797" lon="0.68823">
        <ele>749</ele>
        <time>2022-09-08T13:50:06Z</time>
      </trkpt>
      <trkpt lat="42.98796" lon="0.6882">
        <ele>749</ele>
        <time>2022-09-08T13:50:09Z</time>
      </trkpt>
      <trkpt lat="42.98795" lon="0.68817">
        <ele>749</ele>
        <time>2022-09-08T13:50:11Z</time>
      </trkpt>
      <trkpt lat="42.98794" lon="0.68814">
        <ele>748</ele>
        <time>2022-09-08T13:50:13Z</time>
      </trkpt>
      <trkpt lat="42.98793" lon="0.68812">
        <ele>748</ele>
        <time>2022-09-08T13:50:14Z</time>
      </trkpt>
      <trkpt lat="42.98791" lon="0.68808">
        <ele>748</ele>
        <time>2022-09-08T13:50:17Z</time>
      </trkpt>
      <trkpt lat="42.9879" lon="0.68805">
        <ele>748</ele>
        <time>2022-09-08T13:50:18Z</time>
      </trkpt>
      <trkpt lat="42.98789" lon="0.68801">
        <ele>748</ele>
        <time>2022-09-08T13:50:20Z</time>
      </trkpt>
      <trkpt lat="42.98788" lon="0.68799">
        <ele>748</ele>
        <time>2022-09-08T13:50:22Z</time>
      </trkpt>
      <trkpt lat="42.98787" lon="0.68796">
        <ele>747</ele>
        <time>2022-09-08T13:50:25Z</time>
      </trkpt>
      <trkpt lat="42.98787" lon="0.68793">
        <ele>747</ele>
        <time>2022-09-08T13:50:26Z</time>
      </trkpt>
      <trkpt lat="42.98785" lon="0.68779">
        <ele>747</ele>
        <time>2022-09-08T13:50:32Z</time>
      </trkpt>
      <trkpt lat="42.98782" lon="0.68766">
        <ele>744</ele>
        <time>2022-09-08T13:50:40Z</time>
      </trkpt>
      <trkpt lat="42.98781" lon="0.68752">
        <ele>743</ele>
        <time>2022-09-08T13:50:46Z</time>
      </trkpt>
      <trkpt lat="42.98781" lon="0.68739">
        <ele>742</ele>
        <time>2022-09-08T13:50:56Z</time>
      </trkpt>
      <trkpt lat="42.98778" lon="0.68727">
        <ele>742</ele>
        <time>2022-09-08T13:51:01Z</time>
      </trkpt>
      <trkpt lat="42.98778" lon="0.68715">
        <ele>741</ele>
        <time>2022-09-08T13:51:10Z</time>
      </trkpt>
      <trkpt lat="42.98778" lon="0.68712">
        <ele>740</ele>
        <time>2022-09-08T13:51:20Z</time>
      </trkpt>
      <trkpt lat="42.98776" lon="0.68711">
        <ele>740</ele>
        <time>2022-09-08T13:51:25Z</time>
      </trkpt>
      <trkpt lat="42.98775" lon="0.68709">
        <ele>740</ele>
        <time>2022-09-08T13:51:28Z</time>
      </trkpt>
      <trkpt lat="42.98775" lon="0.68706">
        <ele>740</ele>
        <time>2022-09-08T13:51:30Z</time>
      </trkpt>
      <trkpt lat="42.98775" lon="0.68704">
        <ele>740</ele>
        <time>2022-09-08T13:51:32Z</time>
      </trkpt>
      <trkpt lat="42.98774" lon="0.68701">
        <ele>740</ele>
        <time>2022-09-08T13:51:34Z</time>
      </trkpt>
      <trkpt lat="42.98773" lon="0.68698">
        <ele>740</ele>
        <time>2022-09-08T13:51:36Z</time>
      </trkpt>
      <trkpt lat="42.98772" lon="0.68694">
        <ele>740</ele>
        <time>2022-09-08T13:51:38Z</time>
      </trkpt>
      <trkpt lat="42.98771" lon="0.68691">
        <ele>740</ele>
        <time>2022-09-08T13:51:40Z</time>
      </trkpt>
      <trkpt lat="42.98771" lon="0.68687">
        <ele>740</ele>
        <time>2022-09-08T13:51:41Z</time>
      </trkpt>
      <trkpt lat="42.9877" lon="0.68683">
        <ele>737</ele>
        <time>2022-09-08T13:51:43Z</time>
      </trkpt>
      <trkpt lat="42.9877" lon="0.68679">
        <ele>737</ele>
        <time>2022-09-08T13:51:47Z</time>
      </trkpt>
      <trkpt lat="42.9877" lon="0.68676">
        <ele>737</ele>
        <time>2022-09-08T13:51:50Z</time>
      </trkpt>
      <trkpt lat="42.9877" lon="0.68673">
        <ele>737</ele>
        <time>2022-09-08T13:51:52Z</time>
      </trkpt>
      <trkpt lat="42.98769" lon="0.6867">
        <ele>737</ele>
        <time>2022-09-08T13:51:54Z</time>
      </trkpt>
      <trkpt lat="42.98767" lon="0.68658">
        <ele>737</ele>
        <time>2022-09-08T13:52:01Z</time>
      </trkpt>
      <trkpt lat="42.98765" lon="0.68653">
        <ele>734</ele>
        <time>2022-09-08T13:52:05Z</time>
      </trkpt>
      <trkpt lat="42.98762" lon="0.68645">
        <ele>734</ele>
        <time>2022-09-08T13:52:10Z</time>
      </trkpt>
      <trkpt lat="42.98762" lon="0.68642">
        <ele>734</ele>
        <time>2022-09-08T13:52:12Z</time>
      </trkpt>
      <trkpt lat="42.98761" lon="0.68638">
        <ele>734</ele>
        <time>2022-09-08T13:52:14Z</time>
      </trkpt>
      <trkpt lat="42.98761" lon="0.68634">
        <ele>734</ele>
        <time>2022-09-08T13:52:19Z</time>
      </trkpt>
      <trkpt lat="42.9876" lon="0.68632">
        <ele>734</ele>
        <time>2022-09-08T13:52:22Z</time>
      </trkpt>
      <trkpt lat="42.98759" lon="0.68628">
        <ele>733</ele>
        <time>2022-09-08T13:52:24Z</time>
      </trkpt>
      <trkpt lat="42.98758" lon="0.68618">
        <ele>733</ele>
        <time>2022-09-08T13:52:32Z</time>
      </trkpt>
      <trkpt lat="42.98754" lon="0.68606">
        <ele>732</ele>
        <time>2022-09-08T13:52:40Z</time>
      </trkpt>
      <trkpt lat="42.98754" lon="0.68603">
        <ele>732</ele>
        <time>2022-09-08T13:52:41Z</time>
      </trkpt>
      <trkpt lat="42.98751" lon="0.68591">
        <ele>731</ele>
        <time>2022-09-08T13:52:48Z</time>
      </trkpt>
      <trkpt lat="42.98752" lon="0.68584">
        <ele>730</ele>
        <time>2022-09-08T13:52:55Z</time>
      </trkpt>
      <trkpt lat="42.98749" lon="0.68571">
        <ele>730</ele>
        <time>2022-09-08T13:53:02Z</time>
      </trkpt>
      <trkpt lat="42.98749" lon="0.68568">
        <ele>728</ele>
        <time>2022-09-08T13:53:04Z</time>
      </trkpt>
      <trkpt lat="42.98748" lon="0.68559">
        <ele>728</ele>
        <time>2022-09-08T13:53:11Z</time>
      </trkpt>
      <trkpt lat="42.98748" lon="0.68557">
        <ele>728</ele>
        <time>2022-09-08T13:53:13Z</time>
      </trkpt>
      <trkpt lat="42.98746" lon="0.68551">
        <ele>728</ele>
        <time>2022-09-08T13:53:16Z</time>
      </trkpt>
      <trkpt lat="42.98744" lon="0.68549">
        <ele>728</ele>
        <time>2022-09-08T13:53:18Z</time>
      </trkpt>
      <trkpt lat="42.98743" lon="0.68547">
        <ele>728</ele>
        <time>2022-09-08T13:53:21Z</time>
      </trkpt>
      <trkpt lat="42.98742" lon="0.68545">
        <ele>727</ele>
        <time>2022-09-08T13:53:24Z</time>
      </trkpt>
      <trkpt lat="42.9874" lon="0.68544">
        <ele>727</ele>
        <time>2022-09-08T13:53:28Z</time>
      </trkpt>
      <trkpt lat="42.98739" lon="0.68541">
        <ele>727</ele>
        <time>2022-09-08T13:53:31Z</time>
      </trkpt>
      <trkpt lat="42.98739" lon="0.68538">
        <ele>726</ele>
        <time>2022-09-08T13:53:35Z</time>
      </trkpt>
      <trkpt lat="42.98738" lon="0.68535">
        <ele>726</ele>
        <time>2022-09-08T13:53:38Z</time>
      </trkpt>
      <trkpt lat="42.98737" lon="0.68533">
        <ele>726</ele>
        <time>2022-09-08T13:53:40Z</time>
      </trkpt>
      <trkpt lat="42.98737" lon="0.6853">
        <ele>726</ele>
        <time>2022-09-08T13:53:42Z</time>
      </trkpt>
      <trkpt lat="42.98736" lon="0.68527">
        <ele>723</ele>
        <time>2022-09-08T13:53:45Z</time>
      </trkpt>
      <trkpt lat="42.98736" lon="0.68524">
        <ele>723</ele>
        <time>2022-09-08T13:53:47Z</time>
      </trkpt>
      <trkpt lat="42.98735" lon="0.68522">
        <ele>723</ele>
        <time>2022-09-08T13:53:48Z</time>
      </trkpt>
      <trkpt lat="42.98734" lon="0.68518">
        <ele>723</ele>
        <time>2022-09-08T13:53:52Z</time>
      </trkpt>
      <trkpt lat="42.98733" lon="0.68514">
        <ele>723</ele>
        <time>2022-09-08T13:53:54Z</time>
      </trkpt>
      <trkpt lat="42.98732" lon="0.6851">
        <ele>723</ele>
        <time>2022-09-08T13:53:57Z</time>
      </trkpt>
      <trkpt lat="42.98731" lon="0.68507">
        <ele>723</ele>
        <time>2022-09-08T13:53:58Z</time>
      </trkpt>
      <trkpt lat="42.9873" lon="0.68504">
        <ele>723</ele>
        <time>2022-09-08T13:54:01Z</time>
      </trkpt>
      <trkpt lat="42.98729" lon="0.68501">
        <ele>723</ele>
        <time>2022-09-08T13:54:02Z</time>
      </trkpt>
      <trkpt lat="42.98728" lon="0.68495">
        <ele>721</ele>
        <time>2022-09-08T13:54:06Z</time>
      </trkpt>
      <trkpt lat="42.98726" lon="0.68491">
        <ele>721</ele>
        <time>2022-09-08T13:54:08Z</time>
      </trkpt>
      <trkpt lat="42.98725" lon="0.68494">
        <ele>720</ele>
        <time>2022-09-08T13:54:15Z</time>
      </trkpt>
      <trkpt lat="42.98724" lon="0.68491">
        <ele>720</ele>
        <time>2022-09-08T13:54:20Z</time>
      </trkpt>
      <trkpt lat="42.98724" lon="0.68487">
        <ele>719</ele>
        <time>2022-09-08T13:54:23Z</time>
      </trkpt>
      <trkpt lat="42.98724" lon="0.68483">
        <ele>719</ele>
        <time>2022-09-08T13:54:26Z</time>
      </trkpt>
      <trkpt lat="42.98722" lon="0.6847">
        <ele>719</ele>
        <time>2022-09-08T13:54:33Z</time>
      </trkpt>
      <trkpt lat="42.98721" lon="0.68464">
        <ele>719</ele>
        <time>2022-09-08T13:54:37Z</time>
      </trkpt>
      <trkpt lat="42.98719" lon="0.6846">
        <ele>719</ele>
        <time>2022-09-08T13:54:40Z</time>
      </trkpt>
      <trkpt lat="42.98719" lon="0.68457">
        <ele>719</ele>
        <time>2022-09-08T13:54:42Z</time>
      </trkpt>
      <trkpt lat="42.9872" lon="0.68455">
        <ele>716</ele>
        <time>2022-09-08T13:54:46Z</time>
      </trkpt>
      <trkpt lat="42.98718" lon="0.68448">
        <ele>716</ele>
        <time>2022-09-08T13:54:49Z</time>
      </trkpt>
      <trkpt lat="42.98717" lon="0.68445">
        <ele>716</ele>
        <time>2022-09-08T13:54:51Z</time>
      </trkpt>
      <trkpt lat="42.98717" lon="0.68442">
        <ele>715</ele>
        <time>2022-09-08T13:54:54Z</time>
      </trkpt>
      <trkpt lat="42.98716" lon="0.68439">
        <ele>715</ele>
        <time>2022-09-08T13:54:56Z</time>
      </trkpt>
      <trkpt lat="42.98715" lon="0.68436">
        <ele>715</ele>
        <time>2022-09-08T13:54:58Z</time>
      </trkpt>
      <trkpt lat="42.98713" lon="0.68432">
        <ele>715</ele>
        <time>2022-09-08T13:55:01Z</time>
      </trkpt>
      <trkpt lat="42.98713" lon="0.6843">
        <ele>715</ele>
        <time>2022-09-08T13:55:03Z</time>
      </trkpt>
      <trkpt lat="42.98712" lon="0.68427">
        <ele>714</ele>
        <time>2022-09-08T13:55:05Z</time>
      </trkpt>
      <trkpt lat="42.98713" lon="0.68425">
        <ele>714</ele>
        <time>2022-09-08T13:55:06Z</time>
      </trkpt>
      <trkpt lat="42.98713" lon="0.68421">
        <ele>714</ele>
        <time>2022-09-08T13:55:08Z</time>
      </trkpt>
      <trkpt lat="42.98712" lon="0.68419">
        <ele>714</ele>
        <time>2022-09-08T13:55:13Z</time>
      </trkpt>
      <trkpt lat="42.98711" lon="0.68417">
        <ele>714</ele>
        <time>2022-09-08T13:55:16Z</time>
      </trkpt>
      <trkpt lat="42.9871" lon="0.68414">
        <ele>714</ele>
        <time>2022-09-08T13:55:21Z</time>
      </trkpt>
      <trkpt lat="42.98709" lon="0.68412">
        <ele>713</ele>
        <time>2022-09-08T13:55:25Z</time>
      </trkpt>
      <trkpt lat="42.98709" lon="0.68409">
        <ele>713</ele>
        <time>2022-09-08T13:55:28Z</time>
      </trkpt>
      <trkpt lat="42.98709" lon="0.68407">
        <ele>713</ele>
        <time>2022-09-08T13:55:32Z</time>
      </trkpt>
      <trkpt lat="42.98708" lon="0.68403">
        <ele>713</ele>
        <time>2022-09-08T13:55:36Z</time>
      </trkpt>
      <trkpt lat="42.98708" lon="0.68396">
        <ele>713</ele>
        <time>2022-09-08T13:55:39Z</time>
      </trkpt>
      <trkpt lat="42.98708" lon="0.68393">
        <ele>713</ele>
        <time>2022-09-08T13:55:42Z</time>
      </trkpt>
      <trkpt lat="42.98707" lon="0.68391">
        <ele>711</ele>
        <time>2022-09-08T13:55:43Z</time>
      </trkpt>
      <trkpt lat="42.98704" lon="0.68379">
        <ele>711</ele>
        <time>2022-09-08T13:55:50Z</time>
      </trkpt>
      <trkpt lat="42.98702" lon="0.68373">
        <ele>711</ele>
        <time>2022-09-08T13:55:53Z</time>
      </trkpt>
      <trkpt lat="42.987" lon="0.6837">
        <ele>711</ele>
        <time>2022-09-08T13:55:56Z</time>
      </trkpt>
      <trkpt lat="42.98699" lon="0.68367">
        <ele>711</ele>
        <time>2022-09-08T13:56:00Z</time>
      </trkpt>
      <trkpt lat="42.98698" lon="0.68364">
        <ele>711</ele>
        <time>2022-09-08T13:56:02Z</time>
      </trkpt>
      <trkpt lat="42.98697" lon="0.68356">
        <ele>708</ele>
        <time>2022-09-08T13:56:09Z</time>
      </trkpt>
      <trkpt lat="42.98693" lon="0.68345">
        <ele>707</ele>
        <time>2022-09-08T13:56:16Z</time>
      </trkpt>
      <trkpt lat="42.98691" lon="0.68338">
        <ele>707</ele>
        <time>2022-09-08T13:56:18Z</time>
      </trkpt>
      <trkpt lat="42.9869" lon="0.68336">
        <ele>707</ele>
        <time>2022-09-08T13:56:21Z</time>
      </trkpt>
      <trkpt lat="42.9869" lon="0.68332">
        <ele>707</ele>
        <time>2022-09-08T13:56:22Z</time>
      </trkpt>
      <trkpt lat="42.9869" lon="0.6833">
        <ele>705</ele>
        <time>2022-09-08T13:56:24Z</time>
      </trkpt>
      <trkpt lat="42.9869" lon="0.68327">
        <ele>705</ele>
        <time>2022-09-08T13:56:27Z</time>
      </trkpt>
      <trkpt lat="42.9869" lon="0.68324">
        <ele>705</ele>
        <time>2022-09-08T13:56:31Z</time>
      </trkpt>
      <trkpt lat="42.98689" lon="0.68322">
        <ele>705</ele>
        <time>2022-09-08T13:56:35Z</time>
      </trkpt>
      <trkpt lat="42.98689" lon="0.68318">
        <ele>705</ele>
        <time>2022-09-08T13:56:37Z</time>
      </trkpt>
      <trkpt lat="42.98688" lon="0.68316">
        <ele>705</ele>
        <time>2022-09-08T13:56:39Z</time>
      </trkpt>
      <trkpt lat="42.98687" lon="0.68312">
        <ele>705</ele>
        <time>2022-09-08T13:56:40Z</time>
      </trkpt>
      <trkpt lat="42.98687" lon="0.68309">
        <ele>705</ele>
        <time>2022-09-08T13:56:44Z</time>
      </trkpt>
      <trkpt lat="42.98687" lon="0.68305">
        <ele>705</ele>
        <time>2022-09-08T13:56:46Z</time>
      </trkpt>
      <trkpt lat="42.98686" lon="0.68302">
        <ele>705</ele>
        <time>2022-09-08T13:56:49Z</time>
      </trkpt>
      <trkpt lat="42.98683" lon="0.68294">
        <ele>702</ele>
        <time>2022-09-08T13:56:55Z</time>
      </trkpt>
      <trkpt lat="42.98682" lon="0.68292">
        <ele>702</ele>
        <time>2022-09-08T13:56:56Z</time>
      </trkpt>
      <trkpt lat="42.98681" lon="0.68289">
        <ele>702</ele>
        <time>2022-09-08T13:56:59Z</time>
      </trkpt>
      <trkpt lat="42.98679" lon="0.68287">
        <ele>702</ele>
        <time>2022-09-08T13:56:59Z</time>
      </trkpt>
      <trkpt lat="42.98677" lon="0.68282">
        <ele>702</ele>
        <time>2022-09-08T13:57:02Z</time>
      </trkpt>
      <trkpt lat="42.98675" lon="0.68279">
        <ele>701</ele>
        <time>2022-09-08T13:57:04Z</time>
      </trkpt>
      <trkpt lat="42.98674" lon="0.68275">
        <ele>701</ele>
        <time>2022-09-08T13:57:08Z</time>
      </trkpt>
      <trkpt lat="42.98673" lon="0.68273">
        <ele>701</ele>
        <time>2022-09-08T13:57:11Z</time>
      </trkpt>
      <trkpt lat="42.98672" lon="0.68271">
        <ele>701</ele>
        <time>2022-09-08T13:57:13Z</time>
      </trkpt>
      <trkpt lat="42.98671" lon="0.68268">
        <ele>700</ele>
        <time>2022-09-08T13:57:16Z</time>
      </trkpt>
      <trkpt lat="42.9867" lon="0.68265">
        <ele>700</ele>
        <time>2022-09-08T13:57:17Z</time>
      </trkpt>
      <trkpt lat="42.98669" lon="0.68261">
        <ele>700</ele>
        <time>2022-09-08T13:57:20Z</time>
      </trkpt>
      <trkpt lat="42.98668" lon="0.68258">
        <ele>700</ele>
        <time>2022-09-08T13:57:22Z</time>
      </trkpt>
      <trkpt lat="42.98667" lon="0.68255">
        <ele>699</ele>
        <time>2022-09-08T13:57:23Z</time>
      </trkpt>
      <trkpt lat="42.98667" lon="0.68253">
        <ele>699</ele>
        <time>2022-09-08T13:57:25Z</time>
      </trkpt>
      <trkpt lat="42.98666" lon="0.68249">
        <ele>699</ele>
        <time>2022-09-08T13:57:29Z</time>
      </trkpt>
      <trkpt lat="42.98666" lon="0.68246">
        <ele>699</ele>
        <time>2022-09-08T13:57:31Z</time>
      </trkpt>
      <trkpt lat="42.98665" lon="0.68243">
        <ele>699</ele>
        <time>2022-09-08T13:57:33Z</time>
      </trkpt>
      <trkpt lat="42.98665" lon="0.68241">
        <ele>696</ele>
        <time>2022-09-08T13:57:35Z</time>
      </trkpt>
      <trkpt lat="42.98664" lon="0.68238">
        <ele>696</ele>
        <time>2022-09-08T13:57:37Z</time>
      </trkpt>
      <trkpt lat="42.98664" lon="0.68236">
        <ele>696</ele>
        <time>2022-09-08T13:57:39Z</time>
      </trkpt>
      <trkpt lat="42.98662" lon="0.68232">
        <ele>696</ele>
        <time>2022-09-08T13:57:41Z</time>
      </trkpt>
      <trkpt lat="42.98662" lon="0.6823">
        <ele>696</ele>
        <time>2022-09-08T13:57:43Z</time>
      </trkpt>
      <trkpt lat="42.98662" lon="0.68227">
        <ele>696</ele>
        <time>2022-09-08T13:57:44Z</time>
      </trkpt>
      <trkpt lat="42.9866" lon="0.68223">
        <ele>696</ele>
        <time>2022-09-08T13:57:46Z</time>
      </trkpt>
      <trkpt lat="42.98659" lon="0.6822">
        <ele>696</ele>
        <time>2022-09-08T13:57:48Z</time>
      </trkpt>
      <trkpt lat="42.98659" lon="0.68217">
        <ele>696</ele>
        <time>2022-09-08T13:57:50Z</time>
      </trkpt>
      <trkpt lat="42.98658" lon="0.68215">
        <ele>696</ele>
        <time>2022-09-08T13:57:52Z</time>
      </trkpt>
      <trkpt lat="42.98658" lon="0.68212">
        <ele>695</ele>
        <time>2022-09-08T13:57:55Z</time>
      </trkpt>
      <trkpt lat="42.98658" lon="0.68209">
        <ele>695</ele>
        <time>2022-09-08T13:57:57Z</time>
      </trkpt>
      <trkpt lat="42.98658" lon="0.68206">
        <ele>695</ele>
        <time>2022-09-08T13:57:58Z</time>
      </trkpt>
      <trkpt lat="42.98657" lon="0.68203">
        <ele>695</ele>
        <time>2022-09-08T13:58:01Z</time>
      </trkpt>
      <trkpt lat="42.98656" lon="0.682">
        <ele>695</ele>
        <time>2022-09-08T13:58:03Z</time>
      </trkpt>
      <trkpt lat="42.98655" lon="0.68196">
        <ele>693</ele>
        <time>2022-09-08T13:58:05Z</time>
      </trkpt>
      <trkpt lat="42.98654" lon="0.68193">
        <ele>693</ele>
        <time>2022-09-08T13:58:08Z</time>
      </trkpt>
      <trkpt lat="42.98653" lon="0.6819">
        <ele>693</ele>
        <time>2022-09-08T13:58:10Z</time>
      </trkpt>
      <trkpt lat="42.98652" lon="0.68186">
        <ele>693</ele>
        <time>2022-09-08T13:58:12Z</time>
      </trkpt>
      <trkpt lat="42.98651" lon="0.68183">
        <ele>693</ele>
        <time>2022-09-08T13:58:13Z</time>
      </trkpt>
      <trkpt lat="42.98651" lon="0.6818">
        <ele>693</ele>
        <time>2022-09-08T13:58:15Z</time>
      </trkpt>
      <trkpt lat="42.9865" lon="0.68178">
        <ele>693</ele>
        <time>2022-09-08T13:58:18Z</time>
      </trkpt>
      <trkpt lat="42.9865" lon="0.68175">
        <ele>693</ele>
        <time>2022-09-08T13:58:21Z</time>
      </trkpt>
      <trkpt lat="42.98649" lon="0.68172">
        <ele>693</ele>
        <time>2022-09-08T13:58:23Z</time>
      </trkpt>
      <trkpt lat="42.98648" lon="0.68169">
        <ele>691</ele>
        <time>2022-09-08T13:58:25Z</time>
      </trkpt>
      <trkpt lat="42.98647" lon="0.68166">
        <ele>691</ele>
        <time>2022-09-08T13:58:29Z</time>
      </trkpt>
      <trkpt lat="42.98647" lon="0.68163">
        <ele>691</ele>
        <time>2022-09-08T13:58:32Z</time>
      </trkpt>
      <trkpt lat="42.98646" lon="0.6816">
        <ele>690</ele>
        <time>2022-09-08T13:58:35Z</time>
      </trkpt>
      <trkpt lat="42.98646" lon="0.68158">
        <ele>690</ele>
        <time>2022-09-08T13:58:38Z</time>
      </trkpt>
      <trkpt lat="42.98646" lon="0.68155">
        <ele>690</ele>
        <time>2022-09-08T13:58:44Z</time>
      </trkpt>
      <trkpt lat="42.98647" lon="0.68159">
        <ele>690</ele>
        <time>2022-09-08T13:58:48Z</time>
      </trkpt>
      <trkpt lat="42.98646" lon="0.68162">
        <ele>690</ele>
        <time>2022-09-08T13:59:01Z</time>
      </trkpt>
      <trkpt lat="42.98645" lon="0.68164">
        <ele>690</ele>
        <time>2022-09-08T13:59:12Z</time>
      </trkpt>
      <trkpt lat="42.98644" lon="0.68167">
        <ele>689</ele>
        <time>2022-09-08T13:59:36Z</time>
      </trkpt>
      <trkpt lat="42.98644" lon="0.68164">
        <ele>689</ele>
        <time>2022-09-08T13:59:46Z</time>
      </trkpt>
      <trkpt lat="42.98644" lon="0.68162">
        <ele>691</ele>
        <time>2022-09-08T13:59:53Z</time>
      </trkpt>
      <trkpt lat="42.98645" lon="0.68159">
        <ele>691</ele>
        <time>2022-09-08T14:00:04Z</time>
      </trkpt>
      <trkpt lat="42.98647" lon="0.68161">
        <ele>691</ele>
        <time>2022-09-08T14:00:56Z</time>
      </trkpt>
      <trkpt lat="42.98645" lon="0.68161">
        <ele>691</ele>
        <time>2022-09-08T14:01:27Z</time>
      </trkpt>
      <trkpt lat="42.98644" lon="0.68158">
        <ele>691</ele>
        <time>2022-09-08T14:01:31Z</time>
      </trkpt>
      <trkpt lat="42.98642" lon="0.68156">
        <ele>690</ele>
        <time>2022-09-08T14:01:34Z</time>
      </trkpt>
      <trkpt lat="42.98641" lon="0.68154">
        <ele>690</ele>
        <time>2022-09-08T14:01:36Z</time>
      </trkpt>
      <trkpt lat="42.9864" lon="0.68152">
        <ele>690</ele>
        <time>2022-09-08T14:01:37Z</time>
      </trkpt>
      <trkpt lat="42.98639" lon="0.68149">
        <ele>690</ele>
        <time>2022-09-08T14:01:40Z</time>
      </trkpt>
      <trkpt lat="42.98637" lon="0.68145">
        <ele>690</ele>
        <time>2022-09-08T14:01:42Z</time>
      </trkpt>
      <trkpt lat="42.98636" lon="0.68141">
        <ele>690</ele>
        <time>2022-09-08T14:01:44Z</time>
      </trkpt>
      <trkpt lat="42.98634" lon="0.68138">
        <ele>690</ele>
        <time>2022-09-08T14:01:46Z</time>
      </trkpt>
      <trkpt lat="42.98633" lon="0.68135">
        <ele>690</ele>
        <time>2022-09-08T14:01:47Z</time>
      </trkpt>
      <trkpt lat="42.98631" lon="0.68131">
        <ele>690</ele>
        <time>2022-09-08T14:01:49Z</time>
      </trkpt>
      <trkpt lat="42.9863" lon="0.68128">
        <ele>690</ele>
        <time>2022-09-08T14:01:51Z</time>
      </trkpt>
      <trkpt lat="42.98629" lon="0.68125">
        <ele>687</ele>
        <time>2022-09-08T14:01:53Z</time>
      </trkpt>
      <trkpt lat="42.98627" lon="0.68122">
        <ele>687</ele>
        <time>2022-09-08T14:01:55Z</time>
      </trkpt>
      <trkpt lat="42.98626" lon="0.68119">
        <ele>687</ele>
        <time>2022-09-08T14:01:57Z</time>
      </trkpt>
      <trkpt lat="42.98625" lon="0.68117">
        <ele>687</ele>
        <time>2022-09-08T14:02:00Z</time>
      </trkpt>
      <trkpt lat="42.98624" lon="0.68115">
        <ele>687</ele>
        <time>2022-09-08T14:02:01Z</time>
      </trkpt>
      <trkpt lat="42.98623" lon="0.68112">
        <ele>687</ele>
        <time>2022-09-08T14:02:05Z</time>
      </trkpt>
      <trkpt lat="42.98621" lon="0.6811">
        <ele>687</ele>
        <time>2022-09-08T14:02:07Z</time>
      </trkpt>
      <trkpt lat="42.9862" lon="0.68108">
        <ele>687</ele>
        <time>2022-09-08T14:02:08Z</time>
      </trkpt>
      <trkpt lat="42.98618" lon="0.68106">
        <ele>687</ele>
        <time>2022-09-08T14:02:10Z</time>
      </trkpt>
      <trkpt lat="42.98617" lon="0.68104">
        <ele>687</ele>
        <time>2022-09-08T14:02:12Z</time>
      </trkpt>
      <trkpt lat="42.98615" lon="0.68101">
        <ele>686</ele>
        <time>2022-09-08T14:02:14Z</time>
      </trkpt>
      <trkpt lat="42.98614" lon="0.68099">
        <ele>686</ele>
        <time>2022-09-08T14:02:17Z</time>
      </trkpt>
      <trkpt lat="42.98612" lon="0.68097">
        <ele>686</ele>
        <time>2022-09-08T14:02:18Z</time>
      </trkpt>
      <trkpt lat="42.98611" lon="0.68095">
        <ele>686</ele>
        <time>2022-09-08T14:02:20Z</time>
      </trkpt>
      <trkpt lat="42.98609" lon="0.68092">
        <ele>685</ele>
        <time>2022-09-08T14:02:23Z</time>
      </trkpt>
      <trkpt lat="42.98607" lon="0.6809">
        <ele>685</ele>
        <time>2022-09-08T14:02:26Z</time>
      </trkpt>
      <trkpt lat="42.98605" lon="0.68088">
        <ele>685</ele>
        <time>2022-09-08T14:02:27Z</time>
      </trkpt>
      <trkpt lat="42.98604" lon="0.68087">
        <ele>685</ele>
        <time>2022-09-08T14:02:29Z</time>
      </trkpt>
      <trkpt lat="42.98602" lon="0.68085">
        <ele>685</ele>
        <time>2022-09-08T14:02:31Z</time>
      </trkpt>
      <trkpt lat="42.986" lon="0.68083">
        <ele>684</ele>
        <time>2022-09-08T14:02:33Z</time>
      </trkpt>
      <trkpt lat="42.98598" lon="0.68082">
        <ele>684</ele>
        <time>2022-09-08T14:02:35Z</time>
      </trkpt>
      <trkpt lat="42.98596" lon="0.6808">
        <ele>684</ele>
        <time>2022-09-08T14:02:38Z</time>
      </trkpt>
      <trkpt lat="42.98594" lon="0.68078">
        <ele>684</ele>
        <time>2022-09-08T14:02:40Z</time>
      </trkpt>
      <trkpt lat="42.98591" lon="0.68076">
        <ele>684</ele>
        <time>2022-09-08T14:02:42Z</time>
      </trkpt>
      <trkpt lat="42.98589" lon="0.68074">
        <ele>684</ele>
        <time>2022-09-08T14:02:44Z</time>
      </trkpt>
      <trkpt lat="42.98587" lon="0.68072">
        <ele>684</ele>
        <time>2022-09-08T14:02:46Z</time>
      </trkpt>
      <trkpt lat="42.98585" lon="0.6807">
        <ele>684</ele>
        <time>2022-09-08T14:02:48Z</time>
      </trkpt>
      <trkpt lat="42.98583" lon="0.68069">
        <ele>684</ele>
        <time>2022-09-08T14:02:50Z</time>
      </trkpt>
      <trkpt lat="42.98582" lon="0.68067">
        <ele>684</ele>
        <time>2022-09-08T14:02:52Z</time>
      </trkpt>
      <trkpt lat="42.9858" lon="0.68066">
        <ele>683</ele>
        <time>2022-09-08T14:02:55Z</time>
      </trkpt>
      <trkpt lat="42.98578" lon="0.68064">
        <ele>683</ele>
        <time>2022-09-08T14:02:58Z</time>
      </trkpt>
      <trkpt lat="42.98577" lon="0.68062">
        <ele>683</ele>
        <time>2022-09-08T14:03:03Z</time>
      </trkpt>
      <trkpt lat="42.98574" lon="0.68061">
        <ele>681</ele>
        <time>2022-09-08T14:03:20Z</time>
      </trkpt>
      <trkpt lat="42.98573" lon="0.68059">
        <ele>681</ele>
        <time>2022-09-08T14:03:23Z</time>
      </trkpt>
      <trkpt lat="42.9857" lon="0.68056">
        <ele>681</ele>
        <time>2022-09-08T14:03:24Z</time>
      </trkpt>
      <trkpt lat="42.98568" lon="0.68054">
        <ele>681</ele>
        <time>2022-09-08T14:03:27Z</time>
      </trkpt>
      <trkpt lat="42.98566" lon="0.68052">
        <ele>681</ele>
        <time>2022-09-08T14:03:29Z</time>
      </trkpt>
      <trkpt lat="42.98564" lon="0.6805">
        <ele>681</ele>
        <time>2022-09-08T14:03:31Z</time>
      </trkpt>
      <trkpt lat="42.98561" lon="0.68048">
        <ele>681</ele>
        <time>2022-09-08T14:03:33Z</time>
      </trkpt>
      <trkpt lat="42.98559" lon="0.68047">
        <ele>681</ele>
        <time>2022-09-08T14:03:34Z</time>
      </trkpt>
      <trkpt lat="42.98558" lon="0.68045">
        <ele>681</ele>
        <time>2022-09-08T14:03:36Z</time>
      </trkpt>
      <trkpt lat="42.98555" lon="0.68043">
        <ele>681</ele>
        <time>2022-09-08T14:03:38Z</time>
      </trkpt>
      <trkpt lat="42.98553" lon="0.6804">
        <ele>681</ele>
        <time>2022-09-08T14:03:41Z</time>
      </trkpt>
      <trkpt lat="42.98552" lon="0.68038">
        <ele>681</ele>
        <time>2022-09-08T14:03:42Z</time>
      </trkpt>
      <trkpt lat="42.9855" lon="0.68036">
        <ele>680</ele>
        <time>2022-09-08T14:03:46Z</time>
      </trkpt>
      <trkpt lat="42.98548" lon="0.68032">
        <ele>680</ele>
        <time>2022-09-08T14:03:48Z</time>
      </trkpt>
      <trkpt lat="42.98546" lon="0.6803">
        <ele>680</ele>
        <time>2022-09-08T14:03:50Z</time>
      </trkpt>
      <trkpt lat="42.98545" lon="0.68028">
        <ele>680</ele>
        <time>2022-09-08T14:03:52Z</time>
      </trkpt>
      <trkpt lat="42.98544" lon="0.68026">
        <ele>679</ele>
        <time>2022-09-08T14:03:54Z</time>
      </trkpt>
      <trkpt lat="42.98543" lon="0.68024">
        <ele>679</ele>
        <time>2022-09-08T14:03:55Z</time>
      </trkpt>
      <trkpt lat="42.98541" lon="0.68021">
        <ele>679</ele>
        <time>2022-09-08T14:03:56Z</time>
      </trkpt>
      <trkpt lat="42.98539" lon="0.68017">
        <ele>679</ele>
        <time>2022-09-08T14:03:59Z</time>
      </trkpt>
      <trkpt lat="42.98538" lon="0.68015">
        <ele>679</ele>
        <time>2022-09-08T14:04:01Z</time>
      </trkpt>
      <trkpt lat="42.98536" lon="0.68013">
        <ele>679</ele>
        <time>2022-09-08T14:04:03Z</time>
      </trkpt>
      <trkpt lat="42.98534" lon="0.6801">
        <ele>677</ele>
        <time>2022-09-08T14:04:05Z</time>
      </trkpt>
      <trkpt lat="42.98532" lon="0.68007">
        <ele>677</ele>
        <time>2022-09-08T14:04:07Z</time>
      </trkpt>
      <trkpt lat="42.98531" lon="0.68003">
        <ele>677</ele>
        <time>2022-09-08T14:04:08Z</time>
      </trkpt>
      <trkpt lat="42.9853" lon="0.68">
        <ele>677</ele>
        <time>2022-09-08T14:04:10Z</time>
      </trkpt>
      <trkpt lat="42.98529" lon="0.67997">
        <ele>677</ele>
        <time>2022-09-08T14:04:12Z</time>
      </trkpt>
      <trkpt lat="42.98528" lon="0.67994">
        <ele>677</ele>
        <time>2022-09-08T14:04:14Z</time>
      </trkpt>
      <trkpt lat="42.98527" lon="0.67993">
        <ele>677</ele>
        <time>2022-09-08T14:04:16Z</time>
      </trkpt>
      <trkpt lat="42.98526" lon="0.6799">
        <ele>677</ele>
        <time>2022-09-08T14:04:17Z</time>
      </trkpt>
      <trkpt lat="42.98524" lon="0.67988">
        <ele>677</ele>
        <time>2022-09-08T14:04:19Z</time>
      </trkpt>
      <trkpt lat="42.98523" lon="0.67986">
        <ele>677</ele>
        <time>2022-09-08T14:04:22Z</time>
      </trkpt>
      <trkpt lat="42.98522" lon="0.67983">
        <ele>675</ele>
        <time>2022-09-08T14:04:24Z</time>
      </trkpt>
      <trkpt lat="42.9852" lon="0.67981">
        <ele>675</ele>
        <time>2022-09-08T14:04:25Z</time>
      </trkpt>
      <trkpt lat="42.98519" lon="0.67978">
        <ele>675</ele>
        <time>2022-09-08T14:04:28Z</time>
      </trkpt>
      <trkpt lat="42.98518" lon="0.67975">
        <ele>675</ele>
        <time>2022-09-08T14:04:30Z</time>
      </trkpt>
      <trkpt lat="42.98517" lon="0.67973">
        <ele>675</ele>
        <time>2022-09-08T14:04:31Z</time>
      </trkpt>
      <trkpt lat="42.98516" lon="0.6797">
        <ele>675</ele>
        <time>2022-09-08T14:04:34Z</time>
      </trkpt>
      <trkpt lat="42.98514" lon="0.67968">
        <ele>675</ele>
        <time>2022-09-08T14:04:36Z</time>
      </trkpt>
      <trkpt lat="42.98512" lon="0.67967">
        <ele>675</ele>
        <time>2022-09-08T14:04:37Z</time>
      </trkpt>
      <trkpt lat="42.9851" lon="0.67965">
        <ele>675</ele>
        <time>2022-09-08T14:04:40Z</time>
      </trkpt>
      <trkpt lat="42.9851" lon="0.67961">
        <ele>675</ele>
        <time>2022-09-08T14:04:43Z</time>
      </trkpt>
      <trkpt lat="42.98508" lon="0.67958">
        <ele>672</ele>
        <time>2022-09-08T14:04:45Z</time>
      </trkpt>
      <trkpt lat="42.98507" lon="0.67955">
        <ele>672</ele>
        <time>2022-09-08T14:04:48Z</time>
      </trkpt>
      <trkpt lat="42.98506" lon="0.67953">
        <ele>672</ele>
        <time>2022-09-08T14:04:51Z</time>
      </trkpt>
      <trkpt lat="42.98505" lon="0.6795">
        <ele>672</ele>
        <time>2022-09-08T14:04:52Z</time>
      </trkpt>
      <trkpt lat="42.98504" lon="0.67948">
        <ele>672</ele>
        <time>2022-09-08T14:04:54Z</time>
      </trkpt>
      <trkpt lat="42.98503" lon="0.67945">
        <ele>672</ele>
        <time>2022-09-08T14:04:54Z</time>
      </trkpt>
      <trkpt lat="42.98502" lon="0.67943">
        <ele>672</ele>
        <time>2022-09-08T14:04:56Z</time>
      </trkpt>
      <trkpt lat="42.985" lon="0.6794">
        <ele>672</ele>
        <time>2022-09-08T14:04:58Z</time>
      </trkpt>
      <trkpt lat="42.98498" lon="0.67937">
        <ele>672</ele>
        <time>2022-09-08T14:05:00Z</time>
      </trkpt>
      <trkpt lat="42.98496" lon="0.67933">
        <ele>672</ele>
        <time>2022-09-08T14:05:02Z</time>
      </trkpt>
      <trkpt lat="42.98495" lon="0.67931">
        <ele>671</ele>
        <time>2022-09-08T14:05:05Z</time>
      </trkpt>
      <trkpt lat="42.98493" lon="0.67929">
        <ele>671</ele>
        <time>2022-09-08T14:05:06Z</time>
      </trkpt>
      <trkpt lat="42.98491" lon="0.67926">
        <ele>671</ele>
        <time>2022-09-08T14:05:07Z</time>
      </trkpt>
      <trkpt lat="42.98489" lon="0.67922">
        <ele>671</ele>
        <time>2022-09-08T14:05:10Z</time>
      </trkpt>
      <trkpt lat="42.98488" lon="0.6792">
        <ele>671</ele>
        <time>2022-09-08T14:05:11Z</time>
      </trkpt>
      <trkpt lat="42.98485" lon="0.67917">
        <ele>669</ele>
        <time>2022-09-08T14:05:14Z</time>
      </trkpt>
      <trkpt lat="42.98483" lon="0.67914">
        <ele>669</ele>
        <time>2022-09-08T14:05:16Z</time>
      </trkpt>
      <trkpt lat="42.9848" lon="0.67912">
        <ele>669</ele>
        <time>2022-09-08T14:05:18Z</time>
      </trkpt>
      <trkpt lat="42.98478" lon="0.67911">
        <ele>669</ele>
        <time>2022-09-08T14:05:20Z</time>
      </trkpt>
      <trkpt lat="42.98476" lon="0.67908">
        <ele>669</ele>
        <time>2022-09-08T14:05:22Z</time>
      </trkpt>
      <trkpt lat="42.98475" lon="0.67907">
        <ele>668</ele>
        <time>2022-09-08T14:05:24Z</time>
      </trkpt>
      <trkpt lat="42.98471" lon="0.67902">
        <ele>668</ele>
        <time>2022-09-08T14:05:28Z</time>
      </trkpt>
      <trkpt lat="42.98469" lon="0.67901">
        <ele>668</ele>
        <time>2022-09-08T14:05:28Z</time>
      </trkpt>
      <trkpt lat="42.98467" lon="0.67898">
        <ele>668</ele>
        <time>2022-09-08T14:05:31Z</time>
      </trkpt>
      <trkpt lat="42.98464" lon="0.67896">
        <ele>668</ele>
        <time>2022-09-08T14:05:32Z</time>
      </trkpt>
      <trkpt lat="42.98462" lon="0.67893">
        <ele>667</ele>
        <time>2022-09-08T14:05:35Z</time>
      </trkpt>
      <trkpt lat="42.9846" lon="0.67891">
        <ele>667</ele>
        <time>2022-09-08T14:05:37Z</time>
      </trkpt>
      <trkpt lat="42.98458" lon="0.67889">
        <ele>667</ele>
        <time>2022-09-08T14:05:39Z</time>
      </trkpt>
      <trkpt lat="42.98456" lon="0.67887">
        <ele>667</ele>
        <time>2022-09-08T14:05:41Z</time>
      </trkpt>
      <trkpt lat="42.98453" lon="0.67885">
        <ele>667</ele>
        <time>2022-09-08T14:05:42Z</time>
      </trkpt>
      <trkpt lat="42.98452" lon="0.67883">
        <ele>666</ele>
        <time>2022-09-08T14:05:44Z</time>
      </trkpt>
      <trkpt lat="42.98449" lon="0.67883">
        <ele>666</ele>
        <time>2022-09-08T14:05:47Z</time>
      </trkpt>
      <trkpt lat="42.98448" lon="0.67885">
        <ele>665</ele>
        <time>2022-09-08T14:05:57Z</time>
      </trkpt>
      <trkpt lat="42.98446" lon="0.67887">
        <ele>665</ele>
        <time>2022-09-08T14:06:08Z</time>
      </trkpt>
      <trkpt lat="42.98446" lon="0.6789">
        <ele>666</ele>
        <time>2022-09-08T14:06:14Z</time>
      </trkpt>
      <trkpt lat="42.98444" lon="0.67888">
        <ele>665</ele>
        <time>2022-09-08T14:07:06Z</time>
      </trkpt>
      <trkpt lat="42.98443" lon="0.67885">
        <ele>665</ele>
        <time>2022-09-08T14:07:09Z</time>
      </trkpt>
      <trkpt lat="42.98442" lon="0.67883">
        <ele>665</ele>
        <time>2022-09-08T14:07:11Z</time>
      </trkpt>
      <trkpt lat="42.98441" lon="0.67881">
        <ele>665</ele>
        <time>2022-09-08T14:07:12Z</time>
      </trkpt>
      <trkpt lat="42.9844" lon="0.67878">
        <ele>665</ele>
        <time>2022-09-08T14:07:15Z</time>
      </trkpt>
      <trkpt lat="42.98438" lon="0.67877">
        <ele>665</ele>
        <time>2022-09-08T14:07:16Z</time>
      </trkpt>
      <trkpt lat="42.98437" lon="0.67874">
        <ele>665</ele>
        <time>2022-09-08T14:07:19Z</time>
      </trkpt>
      <trkpt lat="42.98436" lon="0.67871">
        <ele>665</ele>
        <time>2022-09-08T14:07:21Z</time>
      </trkpt>
      <trkpt lat="42.98434" lon="0.67869">
        <ele>665</ele>
        <time>2022-09-08T14:07:22Z</time>
      </trkpt>
      <trkpt lat="42.98432" lon="0.67867">
        <ele>665</ele>
        <time>2022-09-08T14:07:25Z</time>
      </trkpt>
      <trkpt lat="42.9843" lon="0.67864">
        <ele>665</ele>
        <time>2022-09-08T14:07:26Z</time>
      </trkpt>
      <trkpt lat="42.98428" lon="0.67861">
        <ele>665</ele>
        <time>2022-09-08T14:07:28Z</time>
      </trkpt>
      <trkpt lat="42.98426" lon="0.67859">
        <ele>665</ele>
        <time>2022-09-08T14:07:31Z</time>
      </trkpt>
      <trkpt lat="42.98425" lon="0.67857">
        <ele>665</ele>
        <time>2022-09-08T14:07:32Z</time>
      </trkpt>
      <trkpt lat="42.98423" lon="0.67854">
        <ele>663</ele>
        <time>2022-09-08T14:07:34Z</time>
      </trkpt>
      <trkpt lat="42.98421" lon="0.67851">
        <ele>663</ele>
        <time>2022-09-08T14:07:37Z</time>
      </trkpt>
      <trkpt lat="42.9842" lon="0.67849">
        <ele>663</ele>
        <time>2022-09-08T14:07:38Z</time>
      </trkpt>
      <trkpt lat="42.98419" lon="0.67847">
        <ele>663</ele>
        <time>2022-09-08T14:07:41Z</time>
      </trkpt>
      <trkpt lat="42.98418" lon="0.67844">
        <ele>663</ele>
        <time>2022-09-08T14:07:42Z</time>
      </trkpt>
      <trkpt lat="42.98416" lon="0.67842">
        <ele>662</ele>
        <time>2022-09-08T14:07:44Z</time>
      </trkpt>
      <trkpt lat="42.98415" lon="0.6784">
        <ele>662</ele>
        <time>2022-09-08T14:07:46Z</time>
      </trkpt>
      <trkpt lat="42.98414" lon="0.67838">
        <ele>662</ele>
        <time>2022-09-08T14:07:47Z</time>
      </trkpt>
      <trkpt lat="42.98413" lon="0.67836">
        <ele>662</ele>
        <time>2022-09-08T14:07:48Z</time>
      </trkpt>
      <trkpt lat="42.98411" lon="0.67833">
        <ele>662</ele>
        <time>2022-09-08T14:07:50Z</time>
      </trkpt>
      <trkpt lat="42.98409" lon="0.67829">
        <ele>662</ele>
        <time>2022-09-08T14:07:52Z</time>
      </trkpt>
      <trkpt lat="42.98407" lon="0.67826">
        <ele>661</ele>
        <time>2022-09-08T14:07:53Z</time>
      </trkpt>
      <trkpt lat="42.98406" lon="0.67822">
        <ele>661</ele>
        <time>2022-09-08T14:07:55Z</time>
      </trkpt>
      <trkpt lat="42.98404" lon="0.6782">
        <ele>661</ele>
        <time>2022-09-08T14:07:58Z</time>
      </trkpt>
      <trkpt lat="42.98402" lon="0.67817">
        <ele>661</ele>
        <time>2022-09-08T14:07:59Z</time>
      </trkpt>
      <trkpt lat="42.984" lon="0.67815">
        <ele>661</ele>
        <time>2022-09-08T14:08:02Z</time>
      </trkpt>
      <trkpt lat="42.98399" lon="0.67812">
        <ele>660</ele>
        <time>2022-09-08T14:08:03Z</time>
      </trkpt>
      <trkpt lat="42.98396" lon="0.6781">
        <ele>660</ele>
        <time>2022-09-08T14:08:05Z</time>
      </trkpt>
      <trkpt lat="42.98395" lon="0.67807">
        <ele>660</ele>
        <time>2022-09-08T14:08:07Z</time>
      </trkpt>
      <trkpt lat="42.98392" lon="0.67802">
        <ele>660</ele>
        <time>2022-09-08T14:08:11Z</time>
      </trkpt>
      <trkpt lat="42.9839" lon="0.67799">
        <ele>660</ele>
        <time>2022-09-08T14:08:13Z</time>
      </trkpt>
      <trkpt lat="42.98388" lon="0.67796">
        <ele>660</ele>
        <time>2022-09-08T14:08:15Z</time>
      </trkpt>
      <trkpt lat="42.98387" lon="0.67793">
        <ele>660</ele>
        <time>2022-09-08T14:08:16Z</time>
      </trkpt>
      <trkpt lat="42.98386" lon="0.6779">
        <ele>660</ele>
        <time>2022-09-08T14:08:18Z</time>
      </trkpt>
      <trkpt lat="42.98384" lon="0.67787">
        <ele>660</ele>
        <time>2022-09-08T14:08:22Z</time>
      </trkpt>
      <trkpt lat="42.98381" lon="0.67782">
        <ele>659</ele>
        <time>2022-09-08T14:08:26Z</time>
      </trkpt>
      <trkpt lat="42.98376" lon="0.67772">
        <ele>659</ele>
        <time>2022-09-08T14:08:33Z</time>
      </trkpt>
      <trkpt lat="42.9837" lon="0.67762">
        <ele>658</ele>
        <time>2022-09-08T14:08:40Z</time>
      </trkpt>
      <trkpt lat="42.98367" lon="0.67754">
        <ele>657</ele>
        <time>2022-09-08T14:08:43Z</time>
      </trkpt>
      <trkpt lat="42.98366" lon="0.67751">
        <ele>657</ele>
        <time>2022-09-08T14:08:45Z</time>
      </trkpt>
      <trkpt lat="42.98366" lon="0.67748">
        <ele>657</ele>
        <time>2022-09-08T14:08:48Z</time>
      </trkpt>
      <trkpt lat="42.98365" lon="0.67745">
        <ele>657</ele>
        <time>2022-09-08T14:08:49Z</time>
      </trkpt>
      <trkpt lat="42.98366" lon="0.67742">
        <ele>657</ele>
        <time>2022-09-08T14:08:51Z</time>
      </trkpt>
      <trkpt lat="42.98366" lon="0.67739">
        <ele>655</ele>
        <time>2022-09-08T14:08:54Z</time>
      </trkpt>
      <trkpt lat="42.98367" lon="0.67737">
        <ele>655</ele>
        <time>2022-09-08T14:08:56Z</time>
      </trkpt>
      <trkpt lat="42.98367" lon="0.67734">
        <ele>655</ele>
        <time>2022-09-08T14:08:57Z</time>
      </trkpt>
      <trkpt lat="42.98368" lon="0.67732">
        <ele>655</ele>
        <time>2022-09-08T14:08:59Z</time>
      </trkpt>
      <trkpt lat="42.98374" lon="0.67722">
        <ele>653</ele>
        <time>2022-09-08T14:09:09Z</time>
      </trkpt>
      <trkpt lat="42.98378" lon="0.67715">
        <ele>653</ele>
        <time>2022-09-08T14:09:16Z</time>
      </trkpt>
      <trkpt lat="42.98379" lon="0.67712">
        <ele>653</ele>
        <time>2022-09-08T14:09:18Z</time>
      </trkpt>
      <trkpt lat="42.98379" lon="0.67706">
        <ele>653</ele>
        <time>2022-09-08T14:09:22Z</time>
      </trkpt>
      <trkpt lat="42.9838" lon="0.67704">
        <ele>650</ele>
        <time>2022-09-08T14:09:25Z</time>
      </trkpt>
      <trkpt lat="42.98386" lon="0.67693">
        <ele>649</ele>
        <time>2022-09-08T14:09:35Z</time>
      </trkpt>
      <trkpt lat="42.98387" lon="0.6769">
        <ele>649</ele>
        <time>2022-09-08T14:09:38Z</time>
      </trkpt>
      <trkpt lat="42.98389" lon="0.67688">
        <ele>649</ele>
        <time>2022-09-08T14:09:42Z</time>
      </trkpt>
      <trkpt lat="42.9839" lon="0.67686">
        <ele>647</ele>
        <time>2022-09-08T14:09:43Z</time>
      </trkpt>
      <trkpt lat="42.98391" lon="0.67683">
        <ele>647</ele>
        <time>2022-09-08T14:09:47Z</time>
      </trkpt>
      <trkpt lat="42.98392" lon="0.6768">
        <ele>647</ele>
        <time>2022-09-08T14:09:49Z</time>
      </trkpt>
      <trkpt lat="42.98393" lon="0.67678">
        <ele>647</ele>
        <time>2022-09-08T14:09:50Z</time>
      </trkpt>
      <trkpt lat="42.98394" lon="0.67675">
        <ele>647</ele>
        <time>2022-09-08T14:09:52Z</time>
      </trkpt>
      <trkpt lat="42.98395" lon="0.67672">
        <ele>645</ele>
        <time>2022-09-08T14:09:56Z</time>
      </trkpt>
      <trkpt lat="42.98397" lon="0.6767">
        <ele>645</ele>
        <time>2022-09-08T14:09:57Z</time>
      </trkpt>
      <trkpt lat="42.98398" lon="0.67668">
        <ele>645</ele>
        <time>2022-09-08T14:10:00Z</time>
      </trkpt>
      <trkpt lat="42.98398" lon="0.67664">
        <ele>642</ele>
        <time>2022-09-08T14:10:04Z</time>
      </trkpt>
      <trkpt lat="42.98398" lon="0.67662">
        <ele>642</ele>
        <time>2022-09-08T14:10:08Z</time>
      </trkpt>
      <trkpt lat="42.98399" lon="0.67659">
        <ele>642</ele>
        <time>2022-09-08T14:10:11Z</time>
      </trkpt>
      <trkpt lat="42.984" lon="0.67657">
        <ele>642</ele>
        <time>2022-09-08T14:10:15Z</time>
      </trkpt>
      <trkpt lat="42.98402" lon="0.67655">
        <ele>642</ele>
        <time>2022-09-08T14:10:18Z</time>
      </trkpt>
      <trkpt lat="42.98404" lon="0.67653">
        <ele>642</ele>
        <time>2022-09-08T14:10:21Z</time>
      </trkpt>
      <trkpt lat="42.98405" lon="0.67651">
        <ele>642</ele>
        <time>2022-09-08T14:10:23Z</time>
      </trkpt>
      <trkpt lat="42.98407" lon="0.67649">
        <ele>642</ele>
        <time>2022-09-08T14:10:25Z</time>
      </trkpt>
      <trkpt lat="42.98409" lon="0.67648">
        <ele>642</ele>
        <time>2022-09-08T14:10:27Z</time>
      </trkpt>
      <trkpt lat="42.98411" lon="0.67645">
        <ele>642</ele>
        <time>2022-09-08T14:10:30Z</time>
      </trkpt>
      <trkpt lat="42.98411" lon="0.67642">
        <ele>642</ele>
        <time>2022-09-08T14:10:33Z</time>
      </trkpt>
      <trkpt lat="42.98412" lon="0.6764">
        <ele>641</ele>
        <time>2022-09-08T14:10:34Z</time>
      </trkpt>
      <trkpt lat="42.98413" lon="0.67637">
        <ele>641</ele>
        <time>2022-09-08T14:10:38Z</time>
      </trkpt>
      <trkpt lat="42.98414" lon="0.67634">
        <ele>639</ele>
        <time>2022-09-08T14:10:45Z</time>
      </trkpt>
      <trkpt lat="42.98414" lon="0.67631">
        <ele>639</ele>
        <time>2022-09-08T14:10:50Z</time>
      </trkpt>
      <trkpt lat="42.98414" lon="0.67629">
        <ele>637</ele>
        <time>2022-09-08T14:11:00Z</time>
      </trkpt>
      <trkpt lat="42.98415" lon="0.6763">
        <ele>637</ele>
        <time>2022-09-08T14:11:52Z</time>
      </trkpt>
      <trkpt lat="42.98414" lon="0.67629">
        <ele>637</ele>
        <time>2022-09-08T14:12:03Z</time>
      </trkpt>
      <trkpt lat="42.98414" lon="0.67626">
        <ele>637</ele>
        <time>2022-09-08T14:12:07Z</time>
      </trkpt>
      <trkpt lat="42.98414" lon="0.67623">
        <ele>637</ele>
        <time>2022-09-08T14:12:11Z</time>
      </trkpt>
      <trkpt lat="42.98416" lon="0.6762">
        <ele>637</ele>
        <time>2022-09-08T14:12:14Z</time>
      </trkpt>
      <trkpt lat="42.98416" lon="0.67617">
        <ele>637</ele>
        <time>2022-09-08T14:12:17Z</time>
      </trkpt>
      <trkpt lat="42.98417" lon="0.67614">
        <ele>637</ele>
        <time>2022-09-08T14:12:19Z</time>
      </trkpt>
      <trkpt lat="42.98417" lon="0.67611">
        <ele>637</ele>
        <time>2022-09-08T14:12:22Z</time>
      </trkpt>
      <trkpt lat="42.98418" lon="0.67608">
        <ele>636</ele>
        <time>2022-09-08T14:12:24Z</time>
      </trkpt>
      <trkpt lat="42.98417" lon="0.67605">
        <ele>636</ele>
        <time>2022-09-08T14:12:27Z</time>
      </trkpt>
      <trkpt lat="42.98418" lon="0.67601">
        <ele>636</ele>
        <time>2022-09-08T14:12:30Z</time>
      </trkpt>
      <trkpt lat="42.98418" lon="0.67599">
        <ele>636</ele>
        <time>2022-09-08T14:12:33Z</time>
      </trkpt>
      <trkpt lat="42.98419" lon="0.67596">
        <ele>633</ele>
        <time>2022-09-08T14:14:17Z</time>
      </trkpt>
      <trkpt lat="42.98421" lon="0.67597">
        <ele>633</ele>
        <time>2022-09-08T14:15:11Z</time>
      </trkpt>
      <trkpt lat="42.98422" lon="0.67584">
        <ele>632</ele>
        <time>2022-09-08T14:15:34Z</time>
      </trkpt>
      <trkpt lat="42.98426" lon="0.67572">
        <ele>631</ele>
        <time>2022-09-08T14:15:43Z</time>
      </trkpt>
      <trkpt lat="42.98423" lon="0.67559">
        <ele>631</ele>
        <time>2022-09-08T14:15:47Z</time>
      </trkpt>
      <trkpt lat="42.98424" lon="0.67552">
        <ele>631</ele>
        <time>2022-09-08T14:15:51Z</time>
      </trkpt>
      <trkpt lat="42.98424" lon="0.67549">
        <ele>628</ele>
        <time>2022-09-08T14:15:54Z</time>
      </trkpt>
      <trkpt lat="42.98425" lon="0.67546">
        <ele>628</ele>
        <time>2022-09-08T14:15:55Z</time>
      </trkpt>
      <trkpt lat="42.98427" lon="0.67542">
        <ele>628</ele>
        <time>2022-09-08T14:15:59Z</time>
      </trkpt>
      <trkpt lat="42.98429" lon="0.67543">
        <ele>626</ele>
        <time>2022-09-08T14:16:04Z</time>
      </trkpt>
      <trkpt lat="42.98429" lon="0.6754">
        <ele>627</ele>
        <time>2022-09-08T14:16:59Z</time>
      </trkpt>
      <trkpt lat="42.98428" lon="0.67539">
        <ele>628</ele>
        <time>2022-09-08T14:17:08Z</time>
      </trkpt>
      <trkpt lat="42.98428" lon="0.67536">
        <ele>628</ele>
        <time>2022-09-08T14:17:11Z</time>
      </trkpt>
      <trkpt lat="42.98429" lon="0.67533">
        <ele>627</ele>
        <time>2022-09-08T14:17:15Z</time>
      </trkpt>
      <trkpt lat="42.9843" lon="0.6753">
        <ele>627</ele>
        <time>2022-09-08T14:17:18Z</time>
      </trkpt>
      <trkpt lat="42.98431" lon="0.67527">
        <ele>627</ele>
        <time>2022-09-08T14:17:21Z</time>
      </trkpt>
      <trkpt lat="42.98431" lon="0.67524">
        <ele>627</ele>
        <time>2022-09-08T14:17:22Z</time>
      </trkpt>
      <trkpt lat="42.98432" lon="0.67521">
        <ele>627</ele>
        <time>2022-09-08T14:17:25Z</time>
      </trkpt>
      <trkpt lat="42.98433" lon="0.67517">
        <ele>627</ele>
        <time>2022-09-08T14:17:29Z</time>
      </trkpt>
      <trkpt lat="42.98434" lon="0.67515">
        <ele>627</ele>
        <time>2022-09-08T14:17:31Z</time>
      </trkpt>
      <trkpt lat="42.98434" lon="0.67511">
        <ele>627</ele>
        <time>2022-09-08T14:17:32Z</time>
      </trkpt>
      <trkpt lat="42.98435" lon="0.67508">
        <ele>625</ele>
        <time>2022-09-08T14:17:35Z</time>
      </trkpt>
      <trkpt lat="42.98436" lon="0.67506">
        <ele>625</ele>
        <time>2022-09-08T14:17:37Z</time>
      </trkpt>
      <trkpt lat="42.98436" lon="0.67503">
        <ele>625</ele>
        <time>2022-09-08T14:17:38Z</time>
      </trkpt>
      <trkpt lat="42.98437" lon="0.67501">
        <ele>625</ele>
        <time>2022-09-08T14:17:41Z</time>
      </trkpt>
      <trkpt lat="42.98437" lon="0.67498">
        <ele>625</ele>
        <time>2022-09-08T14:17:42Z</time>
      </trkpt>
      <trkpt lat="42.98438" lon="0.67495">
        <ele>623</ele>
        <time>2022-09-08T14:17:45Z</time>
      </trkpt>
      <trkpt lat="42.98438" lon="0.67491">
        <ele>623</ele>
        <time>2022-09-08T14:17:47Z</time>
      </trkpt>
      <trkpt lat="42.98437" lon="0.67487">
        <ele>623</ele>
        <time>2022-09-08T14:17:49Z</time>
      </trkpt>
      <trkpt lat="42.98438" lon="0.67484">
        <ele>623</ele>
        <time>2022-09-08T14:17:50Z</time>
      </trkpt>
      <trkpt lat="42.98438" lon="0.67482">
        <ele>623</ele>
        <time>2022-09-08T14:17:53Z</time>
      </trkpt>
      <trkpt lat="42.98438" lon="0.67479">
        <ele>621</ele>
        <time>2022-09-08T14:17:55Z</time>
      </trkpt>
      <trkpt lat="42.98438" lon="0.67476">
        <ele>621</ele>
        <time>2022-09-08T14:17:57Z</time>
      </trkpt>
      <trkpt lat="42.98438" lon="0.67474">
        <ele>621</ele>
        <time>2022-09-08T14:17:59Z</time>
      </trkpt>
      <trkpt lat="42.98438" lon="0.67471">
        <ele>621</ele>
        <time>2022-09-08T14:18:00Z</time>
      </trkpt>
      <trkpt lat="42.98438" lon="0.67468">
        <ele>621</ele>
        <time>2022-09-08T14:18:03Z</time>
      </trkpt>
      <trkpt lat="42.98438" lon="0.67465">
        <ele>620</ele>
        <time>2022-09-08T14:18:04Z</time>
      </trkpt>
      <trkpt lat="42.98438" lon="0.67462">
        <ele>620</ele>
        <time>2022-09-08T14:18:07Z</time>
      </trkpt>
      <trkpt lat="42.98438" lon="0.67459">
        <ele>620</ele>
        <time>2022-09-08T14:18:08Z</time>
      </trkpt>
      <trkpt lat="42.98438" lon="0.67457">
        <ele>620</ele>
        <time>2022-09-08T14:18:11Z</time>
      </trkpt>
      <trkpt lat="42.98439" lon="0.67453">
        <ele>618</ele>
        <time>2022-09-08T14:18:13Z</time>
      </trkpt>
      <trkpt lat="42.98439" lon="0.6745">
        <ele>618</ele>
        <time>2022-09-08T14:18:16Z</time>
      </trkpt>
      <trkpt lat="42.98439" lon="0.67447">
        <ele>618</ele>
        <time>2022-09-08T14:18:19Z</time>
      </trkpt>
      <trkpt lat="42.98439" lon="0.67444">
        <ele>618</ele>
        <time>2022-09-08T14:18:22Z</time>
      </trkpt>
      <trkpt lat="42.98438" lon="0.6744">
        <ele>616</ele>
        <time>2022-09-08T14:18:25Z</time>
      </trkpt>
      <trkpt lat="42.98438" lon="0.67438">
        <ele>616</ele>
        <time>2022-09-08T14:18:27Z</time>
      </trkpt>
      <trkpt lat="42.98438" lon="0.67434">
        <ele>616</ele>
        <time>2022-09-08T14:18:29Z</time>
      </trkpt>
      <trkpt lat="42.98438" lon="0.67431">
        <ele>616</ele>
        <time>2022-09-08T14:18:31Z</time>
      </trkpt>
      <trkpt lat="42.98437" lon="0.67428">
        <ele>616</ele>
        <time>2022-09-08T14:18:33Z</time>
      </trkpt>
      <trkpt lat="42.98437" lon="0.67424">
        <ele>615</ele>
        <time>2022-09-08T14:18:34Z</time>
      </trkpt>
      <trkpt lat="42.98438" lon="0.67421">
        <ele>615</ele>
        <time>2022-09-08T14:18:36Z</time>
      </trkpt>
      <trkpt lat="42.98437" lon="0.67417">
        <ele>615</ele>
        <time>2022-09-08T14:18:38Z</time>
      </trkpt>
      <trkpt lat="42.98438" lon="0.67414">
        <ele>615</ele>
        <time>2022-09-08T14:18:40Z</time>
      </trkpt>
      <trkpt lat="42.98438" lon="0.67411">
        <ele>615</ele>
        <time>2022-09-08T14:18:42Z</time>
      </trkpt>
      <trkpt lat="42.98438" lon="0.67408">
        <ele>614</ele>
        <time>2022-09-08T14:18:45Z</time>
      </trkpt>
      <trkpt lat="42.98439" lon="0.67405">
        <ele>614</ele>
        <time>2022-09-08T14:18:47Z</time>
      </trkpt>
      <trkpt lat="42.98439" lon="0.67402">
        <ele>614</ele>
        <time>2022-09-08T14:18:48Z</time>
      </trkpt>
      <trkpt lat="42.9844" lon="0.67399">
        <ele>614</ele>
        <time>2022-09-08T14:18:50Z</time>
      </trkpt>
      <trkpt lat="42.9844" lon="0.67396">
        <ele>614</ele>
        <time>2022-09-08T14:18:52Z</time>
      </trkpt>
      <trkpt lat="42.9844" lon="0.67392">
        <ele>613</ele>
        <time>2022-09-08T14:18:55Z</time>
      </trkpt>
      <trkpt lat="42.9844" lon="0.67389">
        <ele>613</ele>
        <time>2022-09-08T14:18:57Z</time>
      </trkpt>
      <trkpt lat="42.98441" lon="0.67386">
        <ele>613</ele>
        <time>2022-09-08T14:18:59Z</time>
      </trkpt>
      <trkpt lat="42.98441" lon="0.67383">
        <ele>613</ele>
        <time>2022-09-08T14:19:01Z</time>
      </trkpt>
      <trkpt lat="42.98441" lon="0.6738">
        <ele>613</ele>
        <time>2022-09-08T14:19:03Z</time>
      </trkpt>
      <trkpt lat="42.98441" lon="0.67376">
        <ele>612</ele>
        <time>2022-09-08T14:19:05Z</time>
      </trkpt>
      <trkpt lat="42.98442" lon="0.67373">
        <ele>612</ele>
        <time>2022-09-08T14:19:07Z</time>
      </trkpt>
      <trkpt lat="42.98442" lon="0.6737">
        <ele>612</ele>
        <time>2022-09-08T14:19:08Z</time>
      </trkpt>
      <trkpt lat="42.98442" lon="0.67366">
        <ele>612</ele>
        <time>2022-09-08T14:19:10Z</time>
      </trkpt>
      <trkpt lat="42.98443" lon="0.67363">
        <ele>612</ele>
        <time>2022-09-08T14:19:12Z</time>
      </trkpt>
      <trkpt lat="42.98443" lon="0.6736">
        <ele>612</ele>
        <time>2022-09-08T14:19:15Z</time>
      </trkpt>
      <trkpt lat="42.98444" lon="0.67356">
        <ele>612</ele>
        <time>2022-09-08T14:19:17Z</time>
      </trkpt>
      <trkpt lat="42.98444" lon="0.67352">
        <ele>612</ele>
        <time>2022-09-08T14:19:19Z</time>
      </trkpt>
      <trkpt lat="42.98444" lon="0.67348">
        <ele>612</ele>
        <time>2022-09-08T14:19:21Z</time>
      </trkpt>
      <trkpt lat="42.98444" lon="0.67345">
        <ele>612</ele>
        <time>2022-09-08T14:19:23Z</time>
      </trkpt>
      <trkpt lat="42.98444" lon="0.67342">
        <ele>611</ele>
        <time>2022-09-08T14:19:25Z</time>
      </trkpt>
      <trkpt lat="42.98444" lon="0.67338">
        <ele>611</ele>
        <time>2022-09-08T14:19:27Z</time>
      </trkpt>
      <trkpt lat="42.98445" lon="0.67335">
        <ele>611</ele>
        <time>2022-09-08T14:19:29Z</time>
      </trkpt>
      <trkpt lat="42.98445" lon="0.67332">
        <ele>611</ele>
        <time>2022-09-08T14:19:30Z</time>
      </trkpt>
      <trkpt lat="42.98445" lon="0.67329">
        <ele>611</ele>
        <time>2022-09-08T14:19:33Z</time>
      </trkpt>
      <trkpt lat="42.98446" lon="0.67326">
        <ele>611</ele>
        <time>2022-09-08T14:19:35Z</time>
      </trkpt>
      <trkpt lat="42.98446" lon="0.67323">
        <ele>611</ele>
        <time>2022-09-08T14:19:37Z</time>
      </trkpt>
      <trkpt lat="42.98446" lon="0.6732">
        <ele>611</ele>
        <time>2022-09-08T14:19:39Z</time>
      </trkpt>
      <trkpt lat="42.98446" lon="0.67316">
        <ele>611</ele>
        <time>2022-09-08T14:19:41Z</time>
      </trkpt>
      <trkpt lat="42.98447" lon="0.67313">
        <ele>611</ele>
        <time>2022-09-08T14:19:43Z</time>
      </trkpt>
      <trkpt lat="42.98447" lon="0.67311">
        <ele>610</ele>
        <time>2022-09-08T14:19:45Z</time>
      </trkpt>
      <trkpt lat="42.98448" lon="0.67308">
        <ele>610</ele>
        <time>2022-09-08T14:19:47Z</time>
      </trkpt>
      <trkpt lat="42.98448" lon="0.67304">
        <ele>610</ele>
        <time>2022-09-08T14:19:49Z</time>
      </trkpt>
      <trkpt lat="42.98448" lon="0.67301">
        <ele>610</ele>
        <time>2022-09-08T14:19:51Z</time>
      </trkpt>
      <trkpt lat="42.98448" lon="0.67298">
        <ele>610</ele>
        <time>2022-09-08T14:19:53Z</time>
      </trkpt>
      <trkpt lat="42.98449" lon="0.67294">
        <ele>609</ele>
        <time>2022-09-08T14:19:55Z</time>
      </trkpt>
      <trkpt lat="42.98449" lon="0.67291">
        <ele>609</ele>
        <time>2022-09-08T14:19:57Z</time>
      </trkpt>
      <trkpt lat="42.98449" lon="0.67287">
        <ele>609</ele>
        <time>2022-09-08T14:19:59Z</time>
      </trkpt>
      <trkpt lat="42.98449" lon="0.67284">
        <ele>609</ele>
        <time>2022-09-08T14:20:01Z</time>
      </trkpt>
      <trkpt lat="42.9845" lon="0.67281">
        <ele>609</ele>
        <time>2022-09-08T14:20:03Z</time>
      </trkpt>
      <trkpt lat="42.9845" lon="0.67277">
        <ele>608</ele>
        <time>2022-09-08T14:20:05Z</time>
      </trkpt>
      <trkpt lat="42.9845" lon="0.67273">
        <ele>608</ele>
        <time>2022-09-08T14:20:07Z</time>
      </trkpt>
      <trkpt lat="42.98451" lon="0.6727">
        <ele>608</ele>
        <time>2022-09-08T14:20:09Z</time>
      </trkpt>
      <trkpt lat="42.98452" lon="0.67266">
        <ele>608</ele>
        <time>2022-09-08T14:20:11Z</time>
      </trkpt>
      <trkpt lat="42.98453" lon="0.67264">
        <ele>608</ele>
        <time>2022-09-08T14:20:12Z</time>
      </trkpt>
      <trkpt lat="42.98453" lon="0.6726">
        <ele>607</ele>
        <time>2022-09-08T14:20:15Z</time>
      </trkpt>
      <trkpt lat="42.98454" lon="0.67257">
        <ele>607</ele>
        <time>2022-09-08T14:20:17Z</time>
      </trkpt>
      <trkpt lat="42.98455" lon="0.67253">
        <ele>607</ele>
        <time>2022-09-08T14:20:19Z</time>
      </trkpt>
      <trkpt lat="42.98455" lon="0.6725">
        <ele>607</ele>
        <time>2022-09-08T14:20:21Z</time>
      </trkpt>
      <trkpt lat="42.98456" lon="0.67247">
        <ele>607</ele>
        <time>2022-09-08T14:20:23Z</time>
      </trkpt>
      <trkpt lat="42.98456" lon="0.67243">
        <ele>607</ele>
        <time>2022-09-08T14:20:25Z</time>
      </trkpt>
      <trkpt lat="42.98457" lon="0.6724">
        <ele>607</ele>
        <time>2022-09-08T14:20:27Z</time>
      </trkpt>
      <trkpt lat="42.98458" lon="0.67237">
        <ele>607</ele>
        <time>2022-09-08T14:20:29Z</time>
      </trkpt>
      <trkpt lat="42.98458" lon="0.67234">
        <ele>607</ele>
        <time>2022-09-08T14:20:31Z</time>
      </trkpt>
      <trkpt lat="42.98459" lon="0.67231">
        <ele>606</ele>
        <time>2022-09-08T14:20:34Z</time>
      </trkpt>
      <trkpt lat="42.98459" lon="0.67229">
        <ele>605</ele>
        <time>2022-09-08T14:20:55Z</time>
      </trkpt>
      <trkpt lat="42.9846" lon="0.6723">
        <ele>605</ele>
        <time>2022-09-08T14:21:10Z</time>
      </trkpt>
      <trkpt lat="42.98461" lon="0.67228">
        <ele>605</ele>
        <time>2022-09-08T14:21:24Z</time>
      </trkpt>
      <trkpt lat="42.98461" lon="0.67225">
        <ele>605</ele>
        <time>2022-09-08T14:21:25Z</time>
      </trkpt>
      <trkpt lat="42.98461" lon="0.67222">
        <ele>605</ele>
        <time>2022-09-08T14:21:28Z</time>
      </trkpt>
      <trkpt lat="42.98461" lon="0.67218">
        <ele>605</ele>
        <time>2022-09-08T14:21:29Z</time>
      </trkpt>
      <trkpt lat="42.98461" lon="0.67214">
        <ele>605</ele>
        <time>2022-09-08T14:21:31Z</time>
      </trkpt>
      <trkpt lat="42.98461" lon="0.6721">
        <ele>604</ele>
        <time>2022-09-08T14:21:33Z</time>
      </trkpt>
      <trkpt lat="42.98461" lon="0.67207">
        <ele>604</ele>
        <time>2022-09-08T14:21:35Z</time>
      </trkpt>
      <trkpt lat="42.98461" lon="0.67204">
        <ele>604</ele>
        <time>2022-09-08T14:21:37Z</time>
      </trkpt>
      <trkpt lat="42.98461" lon="0.67201">
        <ele>604</ele>
        <time>2022-09-08T14:21:39Z</time>
      </trkpt>
      <trkpt lat="42.98461" lon="0.67198">
        <ele>604</ele>
        <time>2022-09-08T14:21:41Z</time>
      </trkpt>
      <trkpt lat="42.98461" lon="0.67195">
        <ele>604</ele>
        <time>2022-09-08T14:21:43Z</time>
      </trkpt>
      <trkpt lat="42.98461" lon="0.67192">
        <ele>604</ele>
        <time>2022-09-08T14:21:45Z</time>
      </trkpt>
      <trkpt lat="42.98461" lon="0.6719">
        <ele>604</ele>
        <time>2022-09-08T14:21:47Z</time>
      </trkpt>
      <trkpt lat="42.9846" lon="0.67186">
        <ele>604</ele>
        <time>2022-09-08T14:21:55Z</time>
      </trkpt>
      <trkpt lat="42.98459" lon="0.67183">
        <ele>604</ele>
        <time>2022-09-08T14:21:57Z</time>
      </trkpt>
      <trkpt lat="42.98458" lon="0.6718">
        <ele>604</ele>
        <time>2022-09-08T14:22:03Z</time>
      </trkpt>
      <trkpt lat="42.98456" lon="0.67177">
        <ele>602</ele>
        <time>2022-09-08T14:22:06Z</time>
      </trkpt>
      <trkpt lat="42.98456" lon="0.67174">
        <ele>602</ele>
        <time>2022-09-08T14:22:08Z</time>
      </trkpt>
      <trkpt lat="42.98455" lon="0.67171">
        <ele>602</ele>
        <time>2022-09-08T14:22:10Z</time>
      </trkpt>
      <trkpt lat="42.98454" lon="0.67169">
        <ele>602</ele>
        <time>2022-09-08T14:22:12Z</time>
      </trkpt>
      <trkpt lat="42.98453" lon="0.67166">
        <ele>602</ele>
        <time>2022-09-08T14:22:14Z</time>
      </trkpt>
      <trkpt lat="42.98452" lon="0.67163">
        <ele>602</ele>
        <time>2022-09-08T14:22:18Z</time>
      </trkpt>
      <trkpt lat="42.9845" lon="0.67161">
        <ele>602</ele>
        <time>2022-09-08T14:22:26Z</time>
      </trkpt>
      <trkpt lat="42.9845" lon="0.67159">
        <ele>602</ele>
        <time>2022-09-08T14:22:29Z</time>
      </trkpt>
      <trkpt lat="42.98448" lon="0.67156">
        <ele>602</ele>
        <time>2022-09-08T14:22:31Z</time>
      </trkpt>
      <trkpt lat="42.98447" lon="0.67154">
        <ele>602</ele>
        <time>2022-09-08T14:22:35Z</time>
      </trkpt>
      <trkpt lat="42.98445" lon="0.67152">
        <ele>602</ele>
        <time>2022-09-08T14:22:39Z</time>
      </trkpt>
      <trkpt lat="42.98443" lon="0.6715">
        <ele>602</ele>
        <time>2022-09-08T14:22:41Z</time>
      </trkpt>
      <trkpt lat="42.98437" lon="0.6714">
        <ele>603</ele>
        <time>2022-09-08T14:22:47Z</time>
      </trkpt>
      <trkpt lat="42.98431" lon="0.6713">
        <ele>603</ele>
        <time>2022-09-08T14:22:55Z</time>
      </trkpt>
      <trkpt lat="42.98423" lon="0.67123">
        <ele>603</ele>
        <time>2022-09-08T14:23:01Z</time>
      </trkpt>
      <trkpt lat="42.98421" lon="0.67121">
        <ele>603</ele>
        <time>2022-09-08T14:23:03Z</time>
      </trkpt>
      <trkpt lat="42.98417" lon="0.67119">
        <ele>603</ele>
        <time>2022-09-08T14:23:07Z</time>
      </trkpt>
      <trkpt lat="42.98415" lon="0.67116">
        <ele>603</ele>
        <time>2022-09-08T14:23:09Z</time>
      </trkpt>
      <trkpt lat="42.98414" lon="0.67115">
        <ele>603</ele>
        <time>2022-09-08T14:23:10Z</time>
      </trkpt>
      <trkpt lat="42.98412" lon="0.67113">
        <ele>603</ele>
        <time>2022-09-08T14:23:13Z</time>
      </trkpt>
      <trkpt lat="42.9841" lon="0.67112">
        <ele>603</ele>
        <time>2022-09-08T14:23:15Z</time>
      </trkpt>
      <trkpt lat="42.98408" lon="0.6711">
        <ele>603</ele>
        <time>2022-09-08T14:23:17Z</time>
      </trkpt>
      <trkpt lat="42.98407" lon="0.67108">
        <ele>603</ele>
        <time>2022-09-08T14:23:18Z</time>
      </trkpt>
      <trkpt lat="42.98405" lon="0.67106">
        <ele>603</ele>
        <time>2022-09-08T14:23:21Z</time>
      </trkpt>
      <trkpt lat="42.98404" lon="0.67105">
        <ele>603</ele>
        <time>2022-09-08T14:23:23Z</time>
      </trkpt>
      <trkpt lat="42.98402" lon="0.67102">
        <ele>604</ele>
        <time>2022-09-08T14:23:28Z</time>
      </trkpt>
      <trkpt lat="42.98401" lon="0.67099">
        <ele>604</ele>
        <time>2022-09-08T14:23:31Z</time>
      </trkpt>
      <trkpt lat="42.98399" lon="0.67096">
        <ele>604</ele>
        <time>2022-09-08T14:23:33Z</time>
      </trkpt>
      <trkpt lat="42.98397" lon="0.67092">
        <ele>604</ele>
        <time>2022-09-08T14:23:34Z</time>
      </trkpt>
      <trkpt lat="42.98395" lon="0.67089">
        <ele>604</ele>
        <time>2022-09-08T14:23:37Z</time>
      </trkpt>
      <trkpt lat="42.98394" lon="0.67086">
        <ele>604</ele>
        <time>2022-09-08T14:23:39Z</time>
      </trkpt>
      <trkpt lat="42.98393" lon="0.67083">
        <ele>604</ele>
        <time>2022-09-08T14:23:41Z</time>
      </trkpt>
      <trkpt lat="42.98391" lon="0.67082">
        <ele>604</ele>
        <time>2022-09-08T14:23:42Z</time>
      </trkpt>
      <trkpt lat="42.98389" lon="0.67081">
        <ele>606</ele>
        <time>2022-09-08T14:23:44Z</time>
      </trkpt>
      <trkpt lat="42.98387" lon="0.67079">
        <ele>606</ele>
        <time>2022-09-08T14:23:47Z</time>
      </trkpt>
      <trkpt lat="42.98387" lon="0.67075">
        <ele>606</ele>
        <time>2022-09-08T14:23:49Z</time>
      </trkpt>
      <trkpt lat="42.98387" lon="0.67071">
        <ele>606</ele>
        <time>2022-09-08T14:23:51Z</time>
      </trkpt>
      <trkpt lat="42.98388" lon="0.67067">
        <ele>606</ele>
        <time>2022-09-08T14:23:53Z</time>
      </trkpt>
      <trkpt lat="42.98388" lon="0.67064">
        <ele>607</ele>
        <time>2022-09-08T14:23:55Z</time>
      </trkpt>
      <trkpt lat="42.98388" lon="0.67061">
        <ele>607</ele>
        <time>2022-09-08T14:23:57Z</time>
      </trkpt>
      <trkpt lat="42.98389" lon="0.67058">
        <ele>607</ele>
        <time>2022-09-08T14:23:59Z</time>
      </trkpt>
      <trkpt lat="42.98389" lon="0.67053">
        <ele>607</ele>
        <time>2022-09-08T14:24:00Z</time>
      </trkpt>
      <trkpt lat="42.98389" lon="0.6705">
        <ele>607</ele>
        <time>2022-09-08T14:24:03Z</time>
      </trkpt>
      <trkpt lat="42.9839" lon="0.67047">
        <ele>607</ele>
        <time>2022-09-08T14:24:05Z</time>
      </trkpt>
      <trkpt lat="42.98391" lon="0.67045">
        <ele>607</ele>
        <time>2022-09-08T14:24:07Z</time>
      </trkpt>
      <trkpt lat="42.98392" lon="0.67042">
        <ele>607</ele>
        <time>2022-09-08T14:24:08Z</time>
      </trkpt>
      <trkpt lat="42.98393" lon="0.67039">
        <ele>607</ele>
        <time>2022-09-08T14:24:11Z</time>
      </trkpt>
      <trkpt lat="42.98394" lon="0.67037">
        <ele>607</ele>
        <time>2022-09-08T14:24:13Z</time>
      </trkpt>
      <trkpt lat="42.98395" lon="0.67035">
        <ele>609</ele>
        <time>2022-09-08T14:24:15Z</time>
      </trkpt>
      <trkpt lat="42.98397" lon="0.67033">
        <ele>609</ele>
        <time>2022-09-08T14:24:17Z</time>
      </trkpt>
      <trkpt lat="42.98398" lon="0.6703">
        <ele>609</ele>
        <time>2022-09-08T14:24:19Z</time>
      </trkpt>
      <trkpt lat="42.98401" lon="0.67029">
        <ele>609</ele>
        <time>2022-09-08T14:24:22Z</time>
      </trkpt>
      <trkpt lat="42.98402" lon="0.67027">
        <ele>610</ele>
        <time>2022-09-08T14:24:24Z</time>
      </trkpt>
      <trkpt lat="42.98404" lon="0.67024">
        <ele>610</ele>
        <time>2022-09-08T14:24:26Z</time>
      </trkpt>
      <trkpt lat="42.98406" lon="0.67022">
        <ele>610</ele>
        <time>2022-09-08T14:24:28Z</time>
      </trkpt>
      <trkpt lat="42.98408" lon="0.6702">
        <ele>610</ele>
        <time>2022-09-08T14:24:30Z</time>
      </trkpt>
      <trkpt lat="42.9841" lon="0.67018">
        <ele>610</ele>
        <time>2022-09-08T14:24:32Z</time>
      </trkpt>
      <trkpt lat="42.98411" lon="0.67017">
        <ele>610</ele>
        <time>2022-09-08T14:24:35Z</time>
      </trkpt>
      <trkpt lat="42.98413" lon="0.67016">
        <ele>610</ele>
        <time>2022-09-08T14:24:43Z</time>
      </trkpt>
      <trkpt lat="42.98415" lon="0.67013">
        <ele>610</ele>
        <time>2022-09-08T14:24:45Z</time>
      </trkpt>
      <trkpt lat="42.98417" lon="0.67011">
        <ele>610</ele>
        <time>2022-09-08T14:24:47Z</time>
      </trkpt>
      <trkpt lat="42.98418" lon="0.67009">
        <ele>610</ele>
        <time>2022-09-08T14:24:49Z</time>
      </trkpt>
      <trkpt lat="42.9842" lon="0.67007">
        <ele>610</ele>
        <time>2022-09-08T14:24:50Z</time>
      </trkpt>
      <trkpt lat="42.98422" lon="0.67006">
        <ele>610</ele>
        <time>2022-09-08T14:24:53Z</time>
      </trkpt>
      <trkpt lat="42.98424" lon="0.67004">
        <ele>611</ele>
        <time>2022-09-08T14:24:54Z</time>
      </trkpt>
      <trkpt lat="42.98425" lon="0.67002">
        <ele>611</ele>
        <time>2022-09-08T14:24:56Z</time>
      </trkpt>
      <trkpt lat="42.98427" lon="0.66999">
        <ele>611</ele>
        <time>2022-09-08T14:24:58Z</time>
      </trkpt>
      <trkpt lat="42.98428" lon="0.66996">
        <ele>611</ele>
        <time>2022-09-08T14:25:00Z</time>
      </trkpt>
      <trkpt lat="42.98429" lon="0.66993">
        <ele>611</ele>
        <time>2022-09-08T14:25:02Z</time>
      </trkpt>
      <trkpt lat="42.9843" lon="0.66991">
        <ele>611</ele>
        <time>2022-09-08T14:25:05Z</time>
      </trkpt>
      <trkpt lat="42.98431" lon="0.66988">
        <ele>611</ele>
        <time>2022-09-08T14:25:07Z</time>
      </trkpt>
      <trkpt lat="42.98432" lon="0.66986">
        <ele>611</ele>
        <time>2022-09-08T14:25:09Z</time>
      </trkpt>
      <trkpt lat="42.98433" lon="0.66983">
        <ele>611</ele>
        <time>2022-09-08T14:25:10Z</time>
      </trkpt>
      <trkpt lat="42.98434" lon="0.66981">
        <ele>611</ele>
        <time>2022-09-08T14:25:13Z</time>
      </trkpt>
      <trkpt lat="42.98435" lon="0.66979">
        <ele>610</ele>
        <time>2022-09-08T14:25:16Z</time>
      </trkpt>
      <trkpt lat="42.98436" lon="0.66976">
        <ele>610</ele>
        <time>2022-09-08T14:25:18Z</time>
      </trkpt>
      <trkpt lat="42.98437" lon="0.66973">
        <ele>610</ele>
        <time>2022-09-08T14:25:21Z</time>
      </trkpt>
      <trkpt lat="42.98439" lon="0.6697">
        <ele>609</ele>
        <time>2022-09-08T14:25:24Z</time>
      </trkpt>
      <trkpt lat="42.9844" lon="0.66968">
        <ele>609</ele>
        <time>2022-09-08T14:25:26Z</time>
      </trkpt>
      <trkpt lat="42.98441" lon="0.66965">
        <ele>609</ele>
        <time>2022-09-08T14:25:28Z</time>
      </trkpt>
      <trkpt lat="42.98442" lon="0.66963">
        <ele>609</ele>
        <time>2022-09-08T14:25:30Z</time>
      </trkpt>
      <trkpt lat="42.98444" lon="0.66961">
        <ele>609</ele>
        <time>2022-09-08T14:25:32Z</time>
      </trkpt>
      <trkpt lat="42.98445" lon="0.66963">
        <ele>607</ele>
        <time>2022-09-08T14:25:56Z</time>
      </trkpt>
      <trkpt lat="42.98447" lon="0.66965">
        <ele>608</ele>
        <time>2022-09-08T14:26:13Z</time>
      </trkpt>
      <trkpt lat="42.98449" lon="0.66968">
        <ele>608</ele>
        <time>2022-09-08T14:26:15Z</time>
      </trkpt>
      <trkpt lat="42.98451" lon="0.6697">
        <ele>608</ele>
        <time>2022-09-08T14:26:17Z</time>
      </trkpt>
      <trkpt lat="42.98453" lon="0.66973">
        <ele>608</ele>
        <time>2022-09-08T14:26:19Z</time>
      </trkpt>
      <trkpt lat="42.98454" lon="0.66975">
        <ele>608</ele>
        <time>2022-09-08T14:26:21Z</time>
      </trkpt>
      <trkpt lat="42.98455" lon="0.66977">
        <ele>608</ele>
        <time>2022-09-08T14:26:23Z</time>
      </trkpt>
      <trkpt lat="42.98456" lon="0.6698">
        <ele>607</ele>
        <time>2022-09-08T14:26:25Z</time>
      </trkpt>
      <trkpt lat="42.98458" lon="0.66982">
        <ele>607</ele>
        <time>2022-09-08T14:26:27Z</time>
      </trkpt>
      <trkpt lat="42.9846" lon="0.66984">
        <ele>607</ele>
        <time>2022-09-08T14:26:28Z</time>
      </trkpt>
      <trkpt lat="42.98462" lon="0.66986">
        <ele>607</ele>
        <time>2022-09-08T14:26:30Z</time>
      </trkpt>
      <trkpt lat="42.98464" lon="0.66988">
        <ele>607</ele>
        <time>2022-09-08T14:26:33Z</time>
      </trkpt>
      <trkpt lat="42.98467" lon="0.6699">
        <ele>607</ele>
        <time>2022-09-08T14:26:35Z</time>
      </trkpt>
      <trkpt lat="42.98469" lon="0.66992">
        <ele>607</ele>
        <time>2022-09-08T14:26:37Z</time>
      </trkpt>
      <trkpt lat="42.98471" lon="0.66994">
        <ele>607</ele>
        <time>2022-09-08T14:26:39Z</time>
      </trkpt>
      <trkpt lat="42.98473" lon="0.66996">
        <ele>607</ele>
        <time>2022-09-08T14:26:42Z</time>
      </trkpt>
      <trkpt lat="42.98475" lon="0.66997">
        <ele>608</ele>
        <time>2022-09-08T14:26:44Z</time>
      </trkpt>
      <trkpt lat="42.98477" lon="0.66997">
        <ele>608</ele>
        <time>2022-09-08T14:26:47Z</time>
      </trkpt>
      <trkpt lat="42.98486" lon="0.66998">
        <ele>608</ele>
        <time>2022-09-08T14:27:06Z</time>
      </trkpt>
      <trkpt lat="42.98487" lon="0.66995">
        <ele>608</ele>
        <time>2022-09-08T14:27:12Z</time>
      </trkpt>
      <trkpt lat="42.98488" lon="0.66997">
        <ele>607</ele>
        <time>2022-09-08T14:27:16Z</time>
      </trkpt>
      <trkpt lat="42.9849" lon="0.67">
        <ele>607</ele>
        <time>2022-09-08T14:27:18Z</time>
      </trkpt>
      <trkpt lat="42.98491" lon="0.67003">
        <ele>607</ele>
        <time>2022-09-08T14:27:20Z</time>
      </trkpt>
      <trkpt lat="42.98493" lon="0.67005">
        <ele>607</ele>
        <time>2022-09-08T14:27:22Z</time>
      </trkpt>
      <trkpt lat="42.98495" lon="0.67008">
        <ele>607</ele>
        <time>2022-09-08T14:27:23Z</time>
      </trkpt>
      <trkpt lat="42.98497" lon="0.67011">
        <ele>607</ele>
        <time>2022-09-08T14:27:26Z</time>
      </trkpt>
      <trkpt lat="42.98498" lon="0.67014">
        <ele>607</ele>
        <time>2022-09-08T14:27:27Z</time>
      </trkpt>
      <trkpt lat="42.985" lon="0.67016">
        <ele>607</ele>
        <time>2022-09-08T14:27:29Z</time>
      </trkpt>
      <trkpt lat="42.98502" lon="0.67019">
        <ele>607</ele>
        <time>2022-09-08T14:27:32Z</time>
      </trkpt>
      <trkpt lat="42.98503" lon="0.67021">
        <ele>608</ele>
        <time>2022-09-08T14:27:34Z</time>
      </trkpt>
      <trkpt lat="42.98505" lon="0.67024">
        <ele>608</ele>
        <time>2022-09-08T14:27:35Z</time>
      </trkpt>
      <trkpt lat="42.98507" lon="0.67026">
        <ele>608</ele>
        <time>2022-09-08T14:27:38Z</time>
      </trkpt>
      <trkpt lat="42.98509" lon="0.67029">
        <ele>608</ele>
        <time>2022-09-08T14:27:40Z</time>
      </trkpt>
      <trkpt lat="42.9851" lon="0.67031">
        <ele>608</ele>
        <time>2022-09-08T14:27:41Z</time>
      </trkpt>
      <trkpt lat="42.98511" lon="0.67033">
        <ele>609</ele>
        <time>2022-09-08T14:27:44Z</time>
      </trkpt>
      <trkpt lat="42.98513" lon="0.67035">
        <ele>609</ele>
        <time>2022-09-08T14:27:46Z</time>
      </trkpt>
      <trkpt lat="42.98514" lon="0.67037">
        <ele>609</ele>
        <time>2022-09-08T14:27:48Z</time>
      </trkpt>
      <trkpt lat="42.98516" lon="0.67039">
        <ele>609</ele>
        <time>2022-09-08T14:27:50Z</time>
      </trkpt>
      <trkpt lat="42.98517" lon="0.67041">
        <ele>609</ele>
        <time>2022-09-08T14:27:54Z</time>
      </trkpt>
      <trkpt lat="42.98519" lon="0.67044">
        <ele>609</ele>
        <time>2022-09-08T14:27:56Z</time>
      </trkpt>
      <trkpt lat="42.9852" lon="0.67046">
        <ele>609</ele>
        <time>2022-09-08T14:27:57Z</time>
      </trkpt>
      <trkpt lat="42.98521" lon="0.67048">
        <ele>609</ele>
        <time>2022-09-08T14:27:59Z</time>
      </trkpt>
      <trkpt lat="42.98523" lon="0.6705">
        <ele>609</ele>
        <time>2022-09-08T14:28:01Z</time>
      </trkpt>
      <trkpt lat="42.98524" lon="0.67053">
        <ele>610</ele>
        <time>2022-09-08T14:28:04Z</time>
      </trkpt>
      <trkpt lat="42.98526" lon="0.67055">
        <ele>610</ele>
        <time>2022-09-08T14:28:05Z</time>
      </trkpt>
      <trkpt lat="42.98527" lon="0.67058">
        <ele>610</ele>
        <time>2022-09-08T14:28:07Z</time>
      </trkpt>
      <trkpt lat="42.98528" lon="0.67061">
        <ele>610</ele>
        <time>2022-09-08T14:28:09Z</time>
      </trkpt>
      <trkpt lat="42.9853" lon="0.67063">
        <ele>610</ele>
        <time>2022-09-08T14:28:11Z</time>
      </trkpt>
      <trkpt lat="42.98531" lon="0.67066">
        <ele>610</ele>
        <time>2022-09-08T14:28:14Z</time>
      </trkpt>
      <trkpt lat="42.98532" lon="0.67068">
        <ele>610</ele>
        <time>2022-09-08T14:28:16Z</time>
      </trkpt>
      <trkpt lat="42.98533" lon="0.67071">
        <ele>610</ele>
        <time>2022-09-08T14:28:18Z</time>
      </trkpt>
      <trkpt lat="42.98534" lon="0.67073">
        <ele>610</ele>
        <time>2022-09-08T14:28:20Z</time>
      </trkpt>
      <trkpt lat="42.98535" lon="0.67076">
        <ele>610</ele>
        <time>2022-09-08T14:28:22Z</time>
      </trkpt>
      <trkpt lat="42.98537" lon="0.67078">
        <ele>611</ele>
        <time>2022-09-08T14:28:23Z</time>
      </trkpt>
      <trkpt lat="42.98538" lon="0.6708">
        <ele>611</ele>
        <time>2022-09-08T14:28:25Z</time>
      </trkpt>
      <trkpt lat="42.9854" lon="0.67083">
        <ele>611</ele>
        <time>2022-09-08T14:28:27Z</time>
      </trkpt>
      <trkpt lat="42.98542" lon="0.67085">
        <ele>611</ele>
        <time>2022-09-08T14:28:29Z</time>
      </trkpt>
      <trkpt lat="42.98543" lon="0.67087">
        <ele>611</ele>
        <time>2022-09-08T14:28:31Z</time>
      </trkpt>
      <trkpt lat="42.98545" lon="0.67088">
        <ele>611</ele>
        <time>2022-09-08T14:28:42Z</time>
      </trkpt>
      <trkpt lat="42.98546" lon="0.6709">
        <ele>611</ele>
        <time>2022-09-08T14:28:54Z</time>
      </trkpt>
      <trkpt lat="42.98548" lon="0.67093">
        <ele>611</ele>
        <time>2022-09-08T14:29:00Z</time>
      </trkpt>
      <trkpt lat="42.98549" lon="0.67095">
        <ele>611</ele>
        <time>2022-09-08T14:29:02Z</time>
      </trkpt>
      <trkpt lat="42.98551" lon="0.67097">
        <ele>611</ele>
        <time>2022-09-08T14:29:04Z</time>
      </trkpt>
      <trkpt lat="42.98553" lon="0.67098">
        <ele>611</ele>
        <time>2022-09-08T14:29:06Z</time>
      </trkpt>
      <trkpt lat="42.98555" lon="0.67099">
        <ele>611</ele>
        <time>2022-09-08T14:29:08Z</time>
      </trkpt>
      <trkpt lat="42.98556" lon="0.67101">
        <ele>611</ele>
        <time>2022-09-08T14:29:10Z</time>
      </trkpt>
      <trkpt lat="42.98558" lon="0.67102">
        <ele>611</ele>
        <time>2022-09-08T14:29:12Z</time>
      </trkpt>
      <trkpt lat="42.98561" lon="0.67103">
        <ele>610</ele>
        <time>2022-09-08T14:29:15Z</time>
      </trkpt>
      <trkpt lat="42.98563" lon="0.67104">
        <ele>610</ele>
        <time>2022-09-08T14:29:17Z</time>
      </trkpt>
      <trkpt lat="42.98565" lon="0.67106">
        <ele>610</ele>
        <time>2022-09-08T14:29:19Z</time>
      </trkpt>
      <trkpt lat="42.98567" lon="0.67107">
        <ele>610</ele>
        <time>2022-09-08T14:29:20Z</time>
      </trkpt>
      <trkpt lat="42.9857" lon="0.67108">
        <ele>610</ele>
        <time>2022-09-08T14:29:23Z</time>
      </trkpt>
      <trkpt lat="42.98572" lon="0.67109">
        <ele>610</ele>
        <time>2022-09-08T14:29:25Z</time>
      </trkpt>
      <trkpt lat="42.98574" lon="0.67111">
        <ele>610</ele>
        <time>2022-09-08T14:29:27Z</time>
      </trkpt>
      <trkpt lat="42.98576" lon="0.67111">
        <ele>610</ele>
        <time>2022-09-08T14:29:29Z</time>
      </trkpt>
      <trkpt lat="42.98578" lon="0.67112">
        <ele>610</ele>
        <time>2022-09-08T14:29:31Z</time>
      </trkpt>
      <trkpt lat="42.98581" lon="0.67113">
        <ele>610</ele>
        <time>2022-09-08T14:29:33Z</time>
      </trkpt>
      <trkpt lat="42.98583" lon="0.67114">
        <ele>609</ele>
        <time>2022-09-08T14:29:35Z</time>
      </trkpt>
      <trkpt lat="42.98585" lon="0.67116">
        <ele>609</ele>
        <time>2022-09-08T14:29:37Z</time>
      </trkpt>
      <trkpt lat="42.98587" lon="0.67117">
        <ele>609</ele>
        <time>2022-09-08T14:29:39Z</time>
      </trkpt>
      <trkpt lat="42.98589" lon="0.67118">
        <ele>609</ele>
        <time>2022-09-08T14:29:40Z</time>
      </trkpt>
      <trkpt lat="42.98592" lon="0.6712">
        <ele>609</ele>
        <time>2022-09-08T14:29:43Z</time>
      </trkpt>
      <trkpt lat="42.98595" lon="0.67122">
        <ele>608</ele>
        <time>2022-09-08T14:29:45Z</time>
      </trkpt>
      <trkpt lat="42.98597" lon="0.67122">
        <ele>608</ele>
        <time>2022-09-08T14:29:47Z</time>
      </trkpt>
      <trkpt lat="42.98599" lon="0.67123">
        <ele>608</ele>
        <time>2022-09-08T14:29:48Z</time>
      </trkpt>
      <trkpt lat="42.98601" lon="0.67124">
        <ele>608</ele>
        <time>2022-09-08T14:29:51Z</time>
      </trkpt>
      <trkpt lat="42.98604" lon="0.67125">
        <ele>608</ele>
        <time>2022-09-08T14:29:53Z</time>
      </trkpt>
      <trkpt lat="42.98606" lon="0.67125">
        <ele>608</ele>
        <time>2022-09-08T14:29:55Z</time>
      </trkpt>
      <trkpt lat="42.98608" lon="0.67126">
        <ele>608</ele>
        <time>2022-09-08T14:29:57Z</time>
      </trkpt>
      <trkpt lat="42.98611" lon="0.67128">
        <ele>608</ele>
        <time>2022-09-08T14:29:58Z</time>
      </trkpt>
      <trkpt lat="42.98613" lon="0.67129">
        <ele>608</ele>
        <time>2022-09-08T14:30:00Z</time>
      </trkpt>
      <trkpt lat="42.98615" lon="0.67131">
        <ele>608</ele>
        <time>2022-09-08T14:30:03Z</time>
      </trkpt>
      <trkpt lat="42.98617" lon="0.67133">
        <ele>608</ele>
        <time>2022-09-08T14:30:05Z</time>
      </trkpt>
      <trkpt lat="42.98619" lon="0.67135">
        <ele>608</ele>
        <time>2022-09-08T14:30:07Z</time>
      </trkpt>
      <trkpt lat="42.98621" lon="0.67137">
        <ele>608</ele>
        <time>2022-09-08T14:30:09Z</time>
      </trkpt>
      <trkpt lat="42.98623" lon="0.67139">
        <ele>608</ele>
        <time>2022-09-08T14:30:11Z</time>
      </trkpt>
      <trkpt lat="42.98625" lon="0.6714">
        <ele>608</ele>
        <time>2022-09-08T14:30:13Z</time>
      </trkpt>
      <trkpt lat="42.98627" lon="0.67141">
        <ele>608</ele>
        <time>2022-09-08T14:30:15Z</time>
      </trkpt>
      <trkpt lat="42.98629" lon="0.67144">
        <ele>608</ele>
        <time>2022-09-08T14:30:18Z</time>
      </trkpt>
      <trkpt lat="42.9863" lon="0.67146">
        <ele>608</ele>
        <time>2022-09-08T14:30:20Z</time>
      </trkpt>
      <trkpt lat="42.98632" lon="0.67148">
        <ele>608</ele>
        <time>2022-09-08T14:30:22Z</time>
      </trkpt>
      <trkpt lat="42.98634" lon="0.6715">
        <ele>608</ele>
        <time>2022-09-08T14:30:24Z</time>
      </trkpt>
      <trkpt lat="42.98635" lon="0.67153">
        <ele>608</ele>
        <time>2022-09-08T14:30:26Z</time>
      </trkpt>
      <trkpt lat="42.98636" lon="0.67155">
        <ele>608</ele>
        <time>2022-09-08T14:30:28Z</time>
      </trkpt>
      <trkpt lat="42.98637" lon="0.67158">
        <ele>608</ele>
        <time>2022-09-08T14:30:30Z</time>
      </trkpt>
      <trkpt lat="42.98639" lon="0.67161">
        <ele>608</ele>
        <time>2022-09-08T14:30:31Z</time>
      </trkpt>
      <trkpt lat="42.9864" lon="0.67163">
        <ele>608</ele>
        <time>2022-09-08T14:30:32Z</time>
      </trkpt>
      <trkpt lat="42.98642" lon="0.67165">
        <ele>608</ele>
        <time>2022-09-08T14:30:34Z</time>
      </trkpt>
      <trkpt lat="42.98643" lon="0.67168">
        <ele>608</ele>
        <time>2022-09-08T14:30:36Z</time>
      </trkpt>
      <trkpt lat="42.98644" lon="0.67171">
        <ele>608</ele>
        <time>2022-09-08T14:30:38Z</time>
      </trkpt>
      <trkpt lat="42.98646" lon="0.67174">
        <ele>608</ele>
        <time>2022-09-08T14:30:41Z</time>
      </trkpt>
      <trkpt lat="42.98647" lon="0.67176">
        <ele>608</ele>
        <time>2022-09-08T14:30:43Z</time>
      </trkpt>
      <trkpt lat="42.98649" lon="0.67179">
        <ele>608</ele>
        <time>2022-09-08T14:30:44Z</time>
      </trkpt>
      <trkpt lat="42.98651" lon="0.67181">
        <ele>608</ele>
        <time>2022-09-08T14:30:47Z</time>
      </trkpt>
      <trkpt lat="42.98652" lon="0.67184">
        <ele>608</ele>
        <time>2022-09-08T14:30:48Z</time>
      </trkpt>
      <trkpt lat="42.98653" lon="0.67187">
        <ele>608</ele>
        <time>2022-09-08T14:30:50Z</time>
      </trkpt>
      <trkpt lat="42.98655" lon="0.6719">
        <ele>608</ele>
        <time>2022-09-08T14:30:52Z</time>
      </trkpt>
      <trkpt lat="42.98656" lon="0.67193">
        <ele>608</ele>
        <time>2022-09-08T14:30:54Z</time>
      </trkpt>
      <trkpt lat="42.98657" lon="0.67195">
        <ele>608</ele>
        <time>2022-09-08T14:30:56Z</time>
      </trkpt>
      <trkpt lat="42.98659" lon="0.67197">
        <ele>608</ele>
        <time>2022-09-08T14:30:58Z</time>
      </trkpt>
      <trkpt lat="42.9866" lon="0.672">
        <ele>608</ele>
        <time>2022-09-08T14:31:00Z</time>
      </trkpt>
      <trkpt lat="42.98661" lon="0.67202">
        <ele>608</ele>
        <time>2022-09-08T14:31:03Z</time>
      </trkpt>
      <trkpt lat="42.98663" lon="0.67204">
        <ele>608</ele>
        <time>2022-09-08T14:31:04Z</time>
      </trkpt>
      <trkpt lat="42.98665" lon="0.67207">
        <ele>608</ele>
        <time>2022-09-08T14:31:07Z</time>
      </trkpt>
      <trkpt lat="42.98667" lon="0.67208">
        <ele>608</ele>
        <time>2022-09-08T14:31:09Z</time>
      </trkpt>
      <trkpt lat="42.98669" lon="0.6721">
        <ele>608</ele>
        <time>2022-09-08T14:31:11Z</time>
      </trkpt>
      <trkpt lat="42.98672" lon="0.67211">
        <ele>608</ele>
        <time>2022-09-08T14:31:13Z</time>
      </trkpt>
      <trkpt lat="42.98674" lon="0.67213">
        <ele>607</ele>
        <time>2022-09-08T14:31:14Z</time>
      </trkpt>
      <trkpt lat="42.98676" lon="0.67214">
        <ele>607</ele>
        <time>2022-09-08T14:31:23Z</time>
      </trkpt>
      <trkpt lat="42.98677" lon="0.67215">
        <ele>607</ele>
        <time>2022-09-08T14:31:25Z</time>
      </trkpt>
      <trkpt lat="42.98679" lon="0.67216">
        <ele>607</ele>
        <time>2022-09-08T14:31:27Z</time>
      </trkpt>
      <trkpt lat="42.98681" lon="0.67218">
        <ele>607</ele>
        <time>2022-09-08T14:31:29Z</time>
      </trkpt>
      <trkpt lat="42.98683" lon="0.67219">
        <ele>607</ele>
        <time>2022-09-08T14:31:31Z</time>
      </trkpt>
      <trkpt lat="42.98685" lon="0.6722">
        <ele>607</ele>
        <time>2022-09-08T14:31:33Z</time>
      </trkpt>
      <trkpt lat="42.98687" lon="0.67222">
        <ele>607</ele>
        <time>2022-09-08T14:31:39Z</time>
      </trkpt>
      <trkpt lat="42.98689" lon="0.67223">
        <ele>607</ele>
        <time>2022-09-08T14:31:50Z</time>
      </trkpt>
      <trkpt lat="42.98691" lon="0.67225">
        <ele>607</ele>
        <time>2022-09-08T14:31:53Z</time>
      </trkpt>
      <trkpt lat="42.98693" lon="0.67227">
        <ele>606</ele>
        <time>2022-09-08T14:31:55Z</time>
      </trkpt>
      <trkpt lat="42.98694" lon="0.67228">
        <ele>606</ele>
        <time>2022-09-08T14:31:57Z</time>
      </trkpt>
      <trkpt lat="42.98697" lon="0.6723">
        <ele>606</ele>
        <time>2022-09-08T14:32:00Z</time>
      </trkpt>
      <trkpt lat="42.98699" lon="0.6723">
        <ele>605</ele>
        <time>2022-09-08T14:32:08Z</time>
      </trkpt>
      <trkpt lat="42.987" lon="0.67233">
        <ele>604</ele>
        <time>2022-09-08T14:32:26Z</time>
      </trkpt>
      <trkpt lat="42.98702" lon="0.67233">
        <ele>604</ele>
        <time>2022-09-08T14:32:35Z</time>
      </trkpt>
      <trkpt lat="42.98704" lon="0.67233">
        <ele>604</ele>
        <time>2022-09-08T14:32:38Z</time>
      </trkpt>
      <trkpt lat="42.98706" lon="0.67234">
        <ele>604</ele>
        <time>2022-09-08T14:32:40Z</time>
      </trkpt>
      <trkpt lat="42.98708" lon="0.67233">
        <ele>604</ele>
        <time>2022-09-08T14:32:42Z</time>
      </trkpt>
      <trkpt lat="42.98711" lon="0.67231">
        <ele>604</ele>
        <time>2022-09-08T14:32:45Z</time>
      </trkpt>
      <trkpt lat="42.98714" lon="0.67231">
        <ele>604</ele>
        <time>2022-09-08T14:32:47Z</time>
      </trkpt>
      <trkpt lat="42.98716" lon="0.67231">
        <ele>604</ele>
        <time>2022-09-08T14:32:48Z</time>
      </trkpt>
      <trkpt lat="42.98719" lon="0.6723">
        <ele>604</ele>
        <time>2022-09-08T14:32:51Z</time>
      </trkpt>
      <trkpt lat="42.9872" lon="0.67229">
        <ele>604</ele>
        <time>2022-09-08T14:32:52Z</time>
      </trkpt>
      <trkpt lat="42.98723" lon="0.67228">
        <ele>604</ele>
        <time>2022-09-08T14:32:53Z</time>
      </trkpt>
      <trkpt lat="42.98725" lon="0.67227">
        <ele>604</ele>
        <time>2022-09-08T14:32:56Z</time>
      </trkpt>
      <trkpt lat="42.98728" lon="0.67227">
        <ele>604</ele>
        <time>2022-09-08T14:32:58Z</time>
      </trkpt>
      <trkpt lat="42.98731" lon="0.67227">
        <ele>604</ele>
        <time>2022-09-08T14:32:59Z</time>
      </trkpt>
      <trkpt lat="42.98733" lon="0.67227">
        <ele>604</ele>
        <time>2022-09-08T14:33:02Z</time>
      </trkpt>
      <trkpt lat="42.98736" lon="0.67225">
        <ele>602</ele>
        <time>2022-09-08T14:33:04Z</time>
      </trkpt>
      <trkpt lat="42.9874" lon="0.67224">
        <ele>602</ele>
        <time>2022-09-08T14:33:07Z</time>
      </trkpt>
      <trkpt lat="42.98742" lon="0.67222">
        <ele>602</ele>
        <time>2022-09-08T14:33:09Z</time>
      </trkpt>
      <trkpt lat="42.98745" lon="0.67221">
        <ele>602</ele>
        <time>2022-09-08T14:33:11Z</time>
      </trkpt>
      <trkpt lat="42.98747" lon="0.6722">
        <ele>602</ele>
        <time>2022-09-08T14:33:12Z</time>
      </trkpt>
      <trkpt lat="42.98749" lon="0.6722">
        <ele>603</ele>
        <time>2022-09-08T14:33:15Z</time>
      </trkpt>
      <trkpt lat="42.98751" lon="0.6722">
        <ele>603</ele>
        <time>2022-09-08T14:33:17Z</time>
      </trkpt>
      <trkpt lat="42.98754" lon="0.6722">
        <ele>603</ele>
        <time>2022-09-08T14:33:19Z</time>
      </trkpt>
      <trkpt lat="42.98755" lon="0.6722">
        <ele>603</ele>
        <time>2022-09-08T14:33:21Z</time>
      </trkpt>
      <trkpt lat="42.98758" lon="0.6722">
        <ele>603</ele>
        <time>2022-09-08T14:33:24Z</time>
      </trkpt>
      <trkpt lat="42.9876" lon="0.6722">
        <ele>603</ele>
        <time>2022-09-08T14:33:26Z</time>
      </trkpt>
      <trkpt lat="42.98762" lon="0.6722">
        <ele>603</ele>
        <time>2022-09-08T14:33:28Z</time>
      </trkpt>
      <trkpt lat="42.98765" lon="0.67219">
        <ele>603</ele>
        <time>2022-09-08T14:33:31Z</time>
      </trkpt>
      <trkpt lat="42.98767" lon="0.67219">
        <ele>603</ele>
        <time>2022-09-08T14:33:32Z</time>
      </trkpt>
      <trkpt lat="42.98769" lon="0.67219">
        <ele>602</ele>
        <time>2022-09-08T14:33:35Z</time>
      </trkpt>
      <trkpt lat="42.98772" lon="0.67218">
        <ele>602</ele>
        <time>2022-09-08T14:33:37Z</time>
      </trkpt>
      <trkpt lat="42.98775" lon="0.67217">
        <ele>602</ele>
        <time>2022-09-08T14:33:39Z</time>
      </trkpt>
      <trkpt lat="42.98777" lon="0.67217">
        <ele>602</ele>
        <time>2022-09-08T14:33:41Z</time>
      </trkpt>
      <trkpt lat="42.9878" lon="0.67216">
        <ele>602</ele>
        <time>2022-09-08T14:33:43Z</time>
      </trkpt>
      <trkpt lat="42.98783" lon="0.67216">
        <ele>602</ele>
        <time>2022-09-08T14:33:45Z</time>
      </trkpt>
      <trkpt lat="42.98785" lon="0.67215">
        <ele>602</ele>
        <time>2022-09-08T14:33:46Z</time>
      </trkpt>
      <trkpt lat="42.98788" lon="0.67215">
        <ele>602</ele>
        <time>2022-09-08T14:33:48Z</time>
      </trkpt>
      <trkpt lat="42.9879" lon="0.67215">
        <ele>602</ele>
        <time>2022-09-08T14:33:51Z</time>
      </trkpt>
      <trkpt lat="42.98792" lon="0.67217">
        <ele>602</ele>
        <time>2022-09-08T14:33:52Z</time>
      </trkpt>
      <trkpt lat="42.98794" lon="0.67218">
        <ele>601</ele>
        <time>2022-09-08T14:33:55Z</time>
      </trkpt>
      <trkpt lat="42.98796" lon="0.67219">
        <ele>601</ele>
        <time>2022-09-08T14:33:57Z</time>
      </trkpt>
      <trkpt lat="42.98798" lon="0.67219">
        <ele>601</ele>
        <time>2022-09-08T14:33:59Z</time>
      </trkpt>
      <trkpt lat="42.98801" lon="0.67219">
        <ele>601</ele>
        <time>2022-09-08T14:34:01Z</time>
      </trkpt>
      <trkpt lat="42.98804" lon="0.67219">
        <ele>601</ele>
        <time>2022-09-08T14:34:03Z</time>
      </trkpt>
      <trkpt lat="42.98806" lon="0.67219">
        <ele>601</ele>
        <time>2022-09-08T14:34:05Z</time>
      </trkpt>
      <trkpt lat="42.98808" lon="0.67219">
        <ele>601</ele>
        <time>2022-09-08T14:34:06Z</time>
      </trkpt>
      <trkpt lat="42.98811" lon="0.67219">
        <ele>601</ele>
        <time>2022-09-08T14:34:09Z</time>
      </trkpt>
      <trkpt lat="42.98813" lon="0.67218">
        <ele>601</ele>
        <time>2022-09-08T14:34:10Z</time>
      </trkpt>
      <trkpt lat="42.98815" lon="0.67218">
        <ele>601</ele>
        <time>2022-09-08T14:34:12Z</time>
      </trkpt>
      <trkpt lat="42.98818" lon="0.67218">
        <ele>601</ele>
        <time>2022-09-08T14:34:15Z</time>
      </trkpt>
      <trkpt lat="42.9882" lon="0.67217">
        <ele>601</ele>
        <time>2022-09-08T14:34:17Z</time>
      </trkpt>
      <trkpt lat="42.98822" lon="0.67216">
        <ele>601</ele>
        <time>2022-09-08T14:34:19Z</time>
      </trkpt>
      <trkpt lat="42.98825" lon="0.67216">
        <ele>601</ele>
        <time>2022-09-08T14:34:20Z</time>
      </trkpt>
      <trkpt lat="42.98827" lon="0.67215">
        <ele>601</ele>
        <time>2022-09-08T14:34:22Z</time>
      </trkpt>
      <trkpt lat="42.9883" lon="0.67215">
        <ele>601</ele>
        <time>2022-09-08T14:34:24Z</time>
      </trkpt>
      <trkpt lat="42.98832" lon="0.67214">
        <ele>601</ele>
        <time>2022-09-08T14:34:26Z</time>
      </trkpt>
      <trkpt lat="42.98835" lon="0.67213">
        <ele>601</ele>
        <time>2022-09-08T14:34:28Z</time>
      </trkpt>
      <trkpt lat="42.98837" lon="0.67213">
        <ele>601</ele>
        <time>2022-09-08T14:34:30Z</time>
      </trkpt>
      <trkpt lat="42.9884" lon="0.67212">
        <ele>601</ele>
        <time>2022-09-08T14:34:32Z</time>
      </trkpt>
      <trkpt lat="42.98842" lon="0.67212">
        <ele>602</ele>
        <time>2022-09-08T14:34:35Z</time>
      </trkpt>
      <trkpt lat="42.98844" lon="0.67211">
        <ele>602</ele>
        <time>2022-09-08T14:34:37Z</time>
      </trkpt>
      <trkpt lat="42.98846" lon="0.6721">
        <ele>602</ele>
        <time>2022-09-08T14:34:39Z</time>
      </trkpt>
      <trkpt lat="42.98849" lon="0.6721">
        <ele>602</ele>
        <time>2022-09-08T14:34:41Z</time>
      </trkpt>
      <trkpt lat="42.98852" lon="0.6721">
        <ele>602</ele>
        <time>2022-09-08T14:34:43Z</time>
      </trkpt>
      <trkpt lat="42.98854" lon="0.67209">
        <ele>602</ele>
        <time>2022-09-08T14:34:44Z</time>
      </trkpt>
      <trkpt lat="42.98856" lon="0.6721">
        <ele>602</ele>
        <time>2022-09-08T14:34:47Z</time>
      </trkpt>
      <trkpt lat="42.98865" lon="0.6721">
        <ele>602</ele>
        <time>2022-09-08T14:34:54Z</time>
      </trkpt>
      <trkpt lat="42.98875" lon="0.6721">
        <ele>602</ele>
        <time>2022-09-08T14:35:04Z</time>
      </trkpt>
      <trkpt lat="42.98885" lon="0.67209">
        <ele>602</ele>
        <time>2022-09-08T14:35:10Z</time>
      </trkpt>
      <trkpt lat="42.98895" lon="0.67207">
        <ele>603</ele>
        <time>2022-09-08T14:35:17Z</time>
      </trkpt>
      <trkpt lat="42.98897" lon="0.67206">
        <ele>603</ele>
        <time>2022-09-08T14:35:20Z</time>
      </trkpt>
      <trkpt lat="42.989" lon="0.67205">
        <ele>603</ele>
        <time>2022-09-08T14:35:23Z</time>
      </trkpt>
      <trkpt lat="42.98904" lon="0.67206">
        <ele>602</ele>
        <time>2022-09-08T14:35:26Z</time>
      </trkpt>
      <trkpt lat="42.98907" lon="0.67206">
        <ele>602</ele>
        <time>2022-09-08T14:35:28Z</time>
      </trkpt>
      <trkpt lat="42.9891" lon="0.67206">
        <ele>602</ele>
        <time>2022-09-08T14:35:30Z</time>
      </trkpt>
      <trkpt lat="42.98912" lon="0.67206">
        <ele>602</ele>
        <time>2022-09-08T14:35:31Z</time>
      </trkpt>
      <trkpt lat="42.98915" lon="0.67206">
        <ele>602</ele>
        <time>2022-09-08T14:35:33Z</time>
      </trkpt>
      <trkpt lat="42.98917" lon="0.67206">
        <ele>602</ele>
        <time>2022-09-08T14:35:36Z</time>
      </trkpt>
      <trkpt lat="42.98921" lon="0.67208">
        <ele>602</ele>
        <time>2022-09-08T14:35:40Z</time>
      </trkpt>
      <trkpt lat="42.98924" lon="0.67206">
        <ele>602</ele>
        <time>2022-09-08T14:35:42Z</time>
      </trkpt>
      <trkpt lat="42.98927" lon="0.67207">
        <ele>602</ele>
        <time>2022-09-08T14:35:45Z</time>
      </trkpt>
      <trkpt lat="42.98929" lon="0.67209">
        <ele>602</ele>
        <time>2022-09-08T14:35:48Z</time>
      </trkpt>
      <trkpt lat="42.98934" lon="0.67213">
        <ele>602</ele>
        <time>2022-09-08T14:35:52Z</time>
      </trkpt>
      <trkpt lat="42.98936" lon="0.67215">
        <ele>604</ele>
        <time>2022-09-08T14:35:53Z</time>
      </trkpt>
      <trkpt lat="42.98939" lon="0.6722">
        <ele>604</ele>
        <time>2022-09-08T14:35:57Z</time>
      </trkpt>
      <trkpt lat="42.98941" lon="0.67222">
        <ele>604</ele>
        <time>2022-09-08T14:35:59Z</time>
      </trkpt>
      <trkpt lat="42.98943" lon="0.67223">
        <ele>604</ele>
        <time>2022-09-08T14:36:00Z</time>
      </trkpt>
      <trkpt lat="42.9895" lon="0.67232">
        <ele>603</ele>
        <time>2022-09-08T14:36:09Z</time>
      </trkpt>
      <trkpt lat="42.98957" lon="0.67241">
        <ele>603</ele>
        <time>2022-09-08T14:36:15Z</time>
      </trkpt>
      <trkpt lat="42.98965" lon="0.6725">
        <ele>603</ele>
        <time>2022-09-08T14:36:23Z</time>
      </trkpt>
      <trkpt lat="42.9897" lon="0.67261">
        <ele>603</ele>
        <time>2022-09-08T14:36:28Z</time>
      </trkpt>
      <trkpt lat="42.9897" lon="0.67264">
        <ele>603</ele>
        <time>2022-09-08T14:36:31Z</time>
      </trkpt>
      <trkpt lat="42.98968" lon="0.67266">
        <ele>603</ele>
        <time>2022-09-08T14:36:33Z</time>
      </trkpt>
      <trkpt lat="42.9897" lon="0.67268">
        <ele>603</ele>
        <time>2022-09-08T14:36:37Z</time>
      </trkpt>
      <trkpt lat="42.98972" lon="0.67269">
        <ele>603</ele>
        <time>2022-09-08T14:36:39Z</time>
      </trkpt>
      <trkpt lat="42.98974" lon="0.67271">
        <ele>603</ele>
        <time>2022-09-08T14:36:41Z</time>
      </trkpt>
      <trkpt lat="42.98975" lon="0.67273">
        <ele>603</ele>
        <time>2022-09-08T14:36:43Z</time>
      </trkpt>
      <trkpt lat="42.98977" lon="0.67276">
        <ele>603</ele>
        <time>2022-09-08T14:36:45Z</time>
      </trkpt>
      <trkpt lat="42.98978" lon="0.67279">
        <ele>603</ele>
        <time>2022-09-08T14:36:46Z</time>
      </trkpt>
      <trkpt lat="42.9898" lon="0.67282">
        <ele>603</ele>
        <time>2022-09-08T14:36:49Z</time>
      </trkpt>
      <trkpt lat="42.98982" lon="0.67284">
        <ele>603</ele>
        <time>2022-09-08T14:36:51Z</time>
      </trkpt>
      <trkpt lat="42.98984" lon="0.67287">
        <ele>603</ele>
        <time>2022-09-08T14:36:53Z</time>
      </trkpt>
      <trkpt lat="42.98986" lon="0.6729">
        <ele>603</ele>
        <time>2022-09-08T14:36:56Z</time>
      </trkpt>
      <trkpt lat="42.98987" lon="0.67292">
        <ele>603</ele>
        <time>2022-09-08T14:36:58Z</time>
      </trkpt>
      <trkpt lat="42.9899" lon="0.67295">
        <ele>603</ele>
        <time>2022-09-08T14:37:00Z</time>
      </trkpt>
      <trkpt lat="42.98991" lon="0.67297">
        <ele>603</ele>
        <time>2022-09-08T14:37:02Z</time>
      </trkpt>
      <trkpt lat="42.98992" lon="0.673">
        <ele>603</ele>
        <time>2022-09-08T14:37:04Z</time>
      </trkpt>
      <trkpt lat="42.98993" lon="0.67304">
        <ele>603</ele>
        <time>2022-09-08T14:37:07Z</time>
      </trkpt>
      <trkpt lat="42.98994" lon="0.67306">
        <ele>603</ele>
        <time>2022-09-08T14:37:09Z</time>
      </trkpt>
      <trkpt lat="42.98997" lon="0.6731">
        <ele>603</ele>
        <time>2022-09-08T14:37:11Z</time>
      </trkpt>
      <trkpt lat="42.98999" lon="0.67313">
        <ele>603</ele>
        <time>2022-09-08T14:37:14Z</time>
      </trkpt>
      <trkpt lat="42.99002" lon="0.67316">
        <ele>603</ele>
        <time>2022-09-08T14:37:15Z</time>
      </trkpt>
      <trkpt lat="42.99004" lon="0.67319">
        <ele>603</ele>
        <time>2022-09-08T14:37:17Z</time>
      </trkpt>
      <trkpt lat="42.99005" lon="0.67322">
        <ele>603</ele>
        <time>2022-09-08T14:37:20Z</time>
      </trkpt>
      <trkpt lat="42.99006" lon="0.67324">
        <ele>603</ele>
        <time>2022-09-08T14:37:22Z</time>
      </trkpt>
      <trkpt lat="42.99007" lon="0.67328">
        <ele>603</ele>
        <time>2022-09-08T14:37:24Z</time>
      </trkpt>
      <trkpt lat="42.99008" lon="0.6733">
        <ele>603</ele>
        <time>2022-09-08T14:37:26Z</time>
      </trkpt>
      <trkpt lat="42.99009" lon="0.67333">
        <ele>603</ele>
        <time>2022-09-08T14:37:27Z</time>
      </trkpt>
      <trkpt lat="42.9901" lon="0.67335">
        <ele>603</ele>
        <time>2022-09-08T14:37:29Z</time>
      </trkpt>
      <trkpt lat="42.99012" lon="0.67337">
        <ele>603</ele>
        <time>2022-09-08T14:37:32Z</time>
      </trkpt>
      <trkpt lat="42.99013" lon="0.6734">
        <ele>604</ele>
        <time>2022-09-08T14:37:33Z</time>
      </trkpt>
      <trkpt lat="42.99015" lon="0.67342">
        <ele>604</ele>
        <time>2022-09-08T14:37:35Z</time>
      </trkpt>
      <trkpt lat="42.99016" lon="0.67345">
        <ele>604</ele>
        <time>2022-09-08T14:37:37Z</time>
      </trkpt>
      <trkpt lat="42.99017" lon="0.67348">
        <ele>604</ele>
        <time>2022-09-08T14:37:39Z</time>
      </trkpt>
      <trkpt lat="42.99018" lon="0.67351">
        <ele>604</ele>
        <time>2022-09-08T14:37:41Z</time>
      </trkpt>
      <trkpt lat="42.99019" lon="0.67354">
        <ele>604</ele>
        <time>2022-09-08T14:37:43Z</time>
      </trkpt>
      <trkpt lat="42.9902" lon="0.67356">
        <ele>604</ele>
        <time>2022-09-08T14:37:46Z</time>
      </trkpt>
      <trkpt lat="42.99021" lon="0.67359">
        <ele>604</ele>
        <time>2022-09-08T14:37:47Z</time>
      </trkpt>
      <trkpt lat="42.99022" lon="0.67361">
        <ele>604</ele>
        <time>2022-09-08T14:37:50Z</time>
      </trkpt>
      <trkpt lat="42.99029" lon="0.67367">
        <ele>603</ele>
        <time>2022-09-08T14:37:56Z</time>
      </trkpt>
      <trkpt lat="42.99037" lon="0.67373">
        <ele>605</ele>
        <time>2022-09-08T14:38:40Z</time>
      </trkpt>
      <trkpt lat="42.99034" lon="0.67387">
        <ele>604</ele>
        <time>2022-09-08T14:38:45Z</time>
      </trkpt>
      <trkpt lat="42.9904" lon="0.67396">
        <ele>604</ele>
        <time>2022-09-08T14:39:16Z</time>
      </trkpt>
      <trkpt lat="42.99046" lon="0.67406">
        <ele>604</ele>
        <time>2022-09-08T14:39:25Z</time>
      </trkpt>
      <trkpt lat="42.99048" lon="0.67408">
        <ele>604</ele>
        <time>2022-09-08T14:39:27Z</time>
      </trkpt>
      <trkpt lat="42.99053" lon="0.6741">
        <ele>604</ele>
        <time>2022-09-08T14:39:29Z</time>
      </trkpt>
      <trkpt lat="42.99054" lon="0.67412">
        <ele>604</ele>
        <time>2022-09-08T14:39:33Z</time>
      </trkpt>
      <trkpt lat="42.99057" lon="0.67412">
        <ele>606</ele>
        <time>2022-09-08T14:39:35Z</time>
      </trkpt>
      <trkpt lat="42.99059" lon="0.67412">
        <ele>606</ele>
        <time>2022-09-08T14:39:37Z</time>
      </trkpt>
      <trkpt lat="42.99062" lon="0.67412">
        <ele>606</ele>
        <time>2022-09-08T14:39:39Z</time>
      </trkpt>
      <trkpt lat="42.99063" lon="0.67412">
        <ele>606</ele>
        <time>2022-09-08T14:39:41Z</time>
      </trkpt>
      <trkpt lat="42.99066" lon="0.67411">
        <ele>607</ele>
        <time>2022-09-08T14:39:44Z</time>
      </trkpt>
      <trkpt lat="42.99068" lon="0.67411">
        <ele>607</ele>
        <time>2022-09-08T14:39:46Z</time>
      </trkpt>
      <trkpt lat="42.99071" lon="0.67412">
        <ele>607</ele>
        <time>2022-09-08T14:39:49Z</time>
      </trkpt>
      <trkpt lat="42.99074" lon="0.67412">
        <ele>607</ele>
        <time>2022-09-08T14:39:52Z</time>
      </trkpt>
      <trkpt lat="42.99076" lon="0.67413">
        <ele>607</ele>
        <time>2022-09-08T14:39:54Z</time>
      </trkpt>
      <trkpt lat="42.99079" lon="0.67414">
        <ele>607</ele>
        <time>2022-09-08T14:39:55Z</time>
      </trkpt>
      <trkpt lat="42.99081" lon="0.67414">
        <ele>607</ele>
        <time>2022-09-08T14:39:57Z</time>
      </trkpt>
      <trkpt lat="42.99083" lon="0.67414">
        <ele>607</ele>
        <time>2022-09-08T14:39:59Z</time>
      </trkpt>
      <trkpt lat="42.99086" lon="0.67415">
        <ele>607</ele>
        <time>2022-09-08T14:40:02Z</time>
      </trkpt>
      <trkpt lat="42.99088" lon="0.67415">
        <ele>607</ele>
        <time>2022-09-08T14:40:04Z</time>
      </trkpt>
      <trkpt lat="42.99091" lon="0.67415">
        <ele>607</ele>
        <time>2022-09-08T14:40:05Z</time>
      </trkpt>
      <trkpt lat="42.99093" lon="0.67416">
        <ele>607</ele>
        <time>2022-09-08T14:40:08Z</time>
      </trkpt>
      <trkpt lat="42.99095" lon="0.67416">
        <ele>607</ele>
        <time>2022-09-08T14:40:10Z</time>
      </trkpt>
      <trkpt lat="42.99097" lon="0.67416">
        <ele>607</ele>
        <time>2022-09-08T14:40:12Z</time>
      </trkpt>
      <trkpt lat="42.99099" lon="0.67417">
        <ele>608</ele>
        <time>2022-09-08T14:40:13Z</time>
      </trkpt>
      <trkpt lat="42.99101" lon="0.67418">
        <ele>608</ele>
        <time>2022-09-08T14:40:16Z</time>
      </trkpt>
      <trkpt lat="42.99104" lon="0.67419">
        <ele>608</ele>
        <time>2022-09-08T14:40:18Z</time>
      </trkpt>
      <trkpt lat="42.99107" lon="0.6742">
        <ele>608</ele>
        <time>2022-09-08T14:40:20Z</time>
      </trkpt>
      <trkpt lat="42.9911" lon="0.67423">
        <ele>609</ele>
        <time>2022-09-08T14:40:24Z</time>
      </trkpt>
      <trkpt lat="42.99112" lon="0.67424">
        <ele>609</ele>
        <time>2022-09-08T14:40:27Z</time>
      </trkpt>
      <trkpt lat="42.99113" lon="0.67426">
        <ele>610</ele>
        <time>2022-09-08T14:40:42Z</time>
      </trkpt>
      <trkpt lat="42.99112" lon="0.67423">
        <ele>611</ele>
        <time>2022-09-08T14:41:14Z</time>
      </trkpt>
      <trkpt lat="42.99114" lon="0.67424">
        <ele>611</ele>
        <time>2022-09-08T14:41:17Z</time>
      </trkpt>
      <trkpt lat="42.99116" lon="0.67426">
        <ele>611</ele>
        <time>2022-09-08T14:41:20Z</time>
      </trkpt>
      <trkpt lat="42.99117" lon="0.67427">
        <ele>611</ele>
        <time>2022-09-08T14:41:23Z</time>
      </trkpt>
      <trkpt lat="42.99116" lon="0.67429">
        <ele>611</ele>
        <time>2022-09-08T14:41:28Z</time>
      </trkpt>
      <trkpt lat="42.99113" lon="0.67427">
        <ele>611</ele>
        <time>2022-09-08T14:41:31Z</time>
      </trkpt>
      <trkpt lat="42.99111" lon="0.67427">
        <ele>611</ele>
        <time>2022-09-08T14:41:33Z</time>
      </trkpt>
      <trkpt lat="42.99113" lon="0.67428">
        <ele>611</ele>
        <time>2022-09-08T14:41:43Z</time>
      </trkpt>
      <trkpt lat="42.99115" lon="0.67429">
        <ele>611</ele>
        <time>2022-09-08T14:41:45Z</time>
      </trkpt>
      <trkpt lat="42.99117" lon="0.6743">
        <ele>611</ele>
        <time>2022-09-08T14:41:47Z</time>
      </trkpt>
      <trkpt lat="42.99119" lon="0.6743">
        <ele>611</ele>
        <time>2022-09-08T14:41:49Z</time>
      </trkpt>
      <trkpt lat="42.99121" lon="0.67431">
        <ele>611</ele>
        <time>2022-09-08T14:41:51Z</time>
      </trkpt>
      <trkpt lat="42.99123" lon="0.67432">
        <ele>611</ele>
        <time>2022-09-08T14:41:54Z</time>
      </trkpt>
      <trkpt lat="42.99126" lon="0.67433">
        <ele>611</ele>
        <time>2022-09-08T14:41:56Z</time>
      </trkpt>
      <trkpt lat="42.99129" lon="0.67434">
        <ele>611</ele>
        <time>2022-09-08T14:41:59Z</time>
      </trkpt>
      <trkpt lat="42.99131" lon="0.67435">
        <ele>611</ele>
        <time>2022-09-08T14:42:01Z</time>
      </trkpt>
      <trkpt lat="42.99132" lon="0.67436">
        <ele>612</ele>
        <time>2022-09-08T14:42:03Z</time>
      </trkpt>
      <trkpt lat="42.99134" lon="0.67436">
        <ele>612</ele>
        <time>2022-09-08T14:42:17Z</time>
      </trkpt>
      <trkpt lat="42.99133" lon="0.67434">
        <ele>613</ele>
        <time>2022-09-08T14:42:44Z</time>
      </trkpt>
      <trkpt lat="42.99131" lon="0.67432">
        <ele>613</ele>
        <time>2022-09-08T14:43:03Z</time>
      </trkpt>
      <trkpt lat="42.99133" lon="0.67431">
        <ele>613</ele>
        <time>2022-09-08T14:44:08Z</time>
      </trkpt>
      <trkpt lat="42.99135" lon="0.67431">
        <ele>613</ele>
        <time>2022-09-08T14:44:12Z</time>
      </trkpt>
      <trkpt lat="42.99137" lon="0.67431">
        <ele>613</ele>
        <time>2022-09-08T14:44:14Z</time>
      </trkpt>
      <trkpt lat="42.99139" lon="0.67429">
        <ele>613</ele>
        <time>2022-09-08T14:44:17Z</time>
      </trkpt>
      <trkpt lat="42.99141" lon="0.67427">
        <ele>613</ele>
        <time>2022-09-08T14:44:19Z</time>
      </trkpt>
      <trkpt lat="42.99143" lon="0.67427">
        <ele>613</ele>
        <time>2022-09-08T14:44:21Z</time>
      </trkpt>
      <trkpt lat="42.99145" lon="0.67427">
        <ele>614</ele>
        <time>2022-09-08T14:44:24Z</time>
      </trkpt>
      <trkpt lat="42.99148" lon="0.67427">
        <ele>614</ele>
        <time>2022-09-08T14:44:26Z</time>
      </trkpt>
      <trkpt lat="42.9915" lon="0.67427">
        <ele>614</ele>
        <time>2022-09-08T14:44:27Z</time>
      </trkpt>
      <trkpt lat="42.99152" lon="0.67427">
        <ele>614</ele>
        <time>2022-09-08T14:44:29Z</time>
      </trkpt>
      <trkpt lat="42.99154" lon="0.67427">
        <ele>614</ele>
        <time>2022-09-08T14:44:32Z</time>
      </trkpt>
      <trkpt lat="42.99156" lon="0.67427">
        <ele>614</ele>
        <time>2022-09-08T14:44:35Z</time>
      </trkpt>
      <trkpt lat="42.99158" lon="0.67427">
        <ele>613</ele>
        <time>2022-09-08T14:44:43Z</time>
      </trkpt>
      <trkpt lat="42.9916" lon="0.67428">
        <ele>613</ele>
        <time>2022-09-08T14:44:48Z</time>
      </trkpt>
      <trkpt lat="42.99162" lon="0.6743">
        <ele>613</ele>
        <time>2022-09-08T14:44:50Z</time>
      </trkpt>
      <trkpt lat="42.99167" lon="0.67431">
        <ele>613</ele>
        <time>2022-09-08T14:44:55Z</time>
      </trkpt>
      <trkpt lat="42.99169" lon="0.67431">
        <ele>613</ele>
        <time>2022-09-08T14:44:58Z</time>
      </trkpt>
      <trkpt lat="42.99171" lon="0.67431">
        <ele>613</ele>
        <time>2022-09-08T14:45:01Z</time>
      </trkpt>
      <trkpt lat="42.99173" lon="0.67433">
        <ele>609</ele>
        <time>2022-09-08T14:45:07Z</time>
      </trkpt>
      <trkpt lat="42.99173" lon="0.67436">
        <ele>609</ele>
        <time>2022-09-08T14:45:20Z</time>
      </trkpt>
      <trkpt lat="42.99174" lon="0.67433">
        <ele>610</ele>
        <time>2022-09-08T14:45:54Z</time>
      </trkpt>
      <trkpt lat="42.99174" lon="0.67431">
        <ele>610</ele>
        <time>2022-09-08T14:46:07Z</time>
      </trkpt>
      <trkpt lat="42.99176" lon="0.67431">
        <ele>610</ele>
        <time>2022-09-08T14:46:17Z</time>
      </trkpt>
      <trkpt lat="42.99179" lon="0.67432">
        <ele>610</ele>
        <time>2022-09-08T14:46:20Z</time>
      </trkpt>
      <trkpt lat="42.99181" lon="0.67433">
        <ele>610</ele>
        <time>2022-09-08T14:46:22Z</time>
      </trkpt>
      <trkpt lat="42.99183" lon="0.67435">
        <ele>610</ele>
        <time>2022-09-08T14:46:24Z</time>
      </trkpt>
      <trkpt lat="42.99184" lon="0.67437">
        <ele>610</ele>
        <time>2022-09-08T14:46:25Z</time>
      </trkpt>
      <trkpt lat="42.99186" lon="0.67439">
        <ele>610</ele>
        <time>2022-09-08T14:46:28Z</time>
      </trkpt>
      <trkpt lat="42.99188" lon="0.6744">
        <ele>610</ele>
        <time>2022-09-08T14:46:30Z</time>
      </trkpt>
      <trkpt lat="42.9919" lon="0.6744">
        <ele>610</ele>
        <time>2022-09-08T14:46:32Z</time>
      </trkpt>
      <trkpt lat="42.99192" lon="0.6744">
        <ele>609</ele>
        <time>2022-09-08T14:46:35Z</time>
      </trkpt>
      <trkpt lat="42.99195" lon="0.67439">
        <ele>609</ele>
        <time>2022-09-08T14:46:37Z</time>
      </trkpt>
      <trkpt lat="42.99201" lon="0.67435">
        <ele>609</ele>
        <time>2022-09-08T14:46:42Z</time>
      </trkpt>
      <trkpt lat="42.99208" lon="0.67425">
        <ele>604</ele>
        <time>2022-09-08T14:46:50Z</time>
      </trkpt>
      <trkpt lat="42.99213" lon="0.67414">
        <ele>603</ele>
        <time>2022-09-08T14:46:59Z</time>
      </trkpt>
      <trkpt lat="42.99217" lon="0.67403">
        <ele>600</ele>
        <time>2022-09-08T14:47:07Z</time>
      </trkpt>
      <trkpt lat="42.9922" lon="0.67395">
        <ele>600</ele>
        <time>2022-09-08T14:47:12Z</time>
      </trkpt>
      <trkpt lat="42.99222" lon="0.67392">
        <ele>600</ele>
        <time>2022-09-08T14:47:15Z</time>
      </trkpt>
      <trkpt lat="42.99224" lon="0.67389">
        <ele>600</ele>
        <time>2022-09-08T14:47:17Z</time>
      </trkpt>
      <trkpt lat="42.99226" lon="0.67387">
        <ele>600</ele>
        <time>2022-09-08T14:47:19Z</time>
      </trkpt>
      <trkpt lat="42.99227" lon="0.67384">
        <ele>600</ele>
        <time>2022-09-08T14:47:20Z</time>
      </trkpt>
      <trkpt lat="42.9923" lon="0.67383">
        <ele>598</ele>
        <time>2022-09-08T14:47:23Z</time>
      </trkpt>
      <trkpt lat="42.99233" lon="0.67384">
        <ele>598</ele>
        <time>2022-09-08T14:47:25Z</time>
      </trkpt>
      <trkpt lat="42.99235" lon="0.67384">
        <ele>598</ele>
        <time>2022-09-08T14:47:27Z</time>
      </trkpt>
      <trkpt lat="42.99236" lon="0.67386">
        <ele>598</ele>
        <time>2022-09-08T14:47:29Z</time>
      </trkpt>
      <trkpt lat="42.99233" lon="0.67399">
        <ele>597</ele>
        <time>2022-09-08T14:47:38Z</time>
      </trkpt>
      <trkpt lat="42.99233" lon="0.67405">
        <ele>594</ele>
        <time>2022-09-08T14:47:45Z</time>
      </trkpt>
      <trkpt lat="42.99235" lon="0.67405">
        <ele>594</ele>
        <time>2022-09-08T14:47:49Z</time>
      </trkpt>
      <trkpt lat="42.99237" lon="0.67405">
        <ele>594</ele>
        <time>2022-09-08T14:47:54Z</time>
      </trkpt>
      <trkpt lat="42.99236" lon="0.67408">
        <ele>594</ele>
        <time>2022-09-08T14:47:59Z</time>
      </trkpt>
      <trkpt lat="42.99236" lon="0.6741">
        <ele>593</ele>
        <time>2022-09-08T14:48:05Z</time>
      </trkpt>
      <trkpt lat="42.99234" lon="0.67411">
        <ele>593</ele>
        <time>2022-09-08T14:48:10Z</time>
      </trkpt>
      <trkpt lat="42.99234" lon="0.67408">
        <ele>593</ele>
        <time>2022-09-08T14:48:12Z</time>
      </trkpt>
      <trkpt lat="42.99233" lon="0.67404">
        <ele>593</ele>
        <time>2022-09-08T14:48:20Z</time>
      </trkpt>
      <trkpt lat="42.99232" lon="0.67402">
        <ele>594</ele>
        <time>2022-09-08T14:48:25Z</time>
      </trkpt>
      <trkpt lat="42.99229" lon="0.67396">
        <ele>594</ele>
        <time>2022-09-08T14:48:31Z</time>
      </trkpt>
      <trkpt lat="42.9923" lon="0.67399">
        <ele>593</ele>
        <time>2022-09-08T14:48:58Z</time>
      </trkpt>
      <trkpt lat="42.9923" lon="0.67403">
        <ele>595</ele>
        <time>2022-09-08T14:49:06Z</time>
      </trkpt>
      <trkpt lat="42.9923" lon="0.67416">
        <ele>595</ele>
        <time>2022-09-08T14:49:12Z</time>
      </trkpt>
      <trkpt lat="42.99239" lon="0.67422">
        <ele>592</ele>
        <time>2022-09-08T14:49:23Z</time>
      </trkpt>
      <trkpt lat="42.99246" lon="0.67418">
        <ele>592</ele>
        <time>2022-09-08T14:49:28Z</time>
      </trkpt>
      <trkpt lat="42.99247" lon="0.67416">
        <ele>592</ele>
        <time>2022-09-08T14:49:30Z</time>
      </trkpt>
      <trkpt lat="42.99249" lon="0.67414">
        <ele>592</ele>
        <time>2022-09-08T14:49:32Z</time>
      </trkpt>
      <trkpt lat="42.99251" lon="0.67412">
        <ele>589</ele>
        <time>2022-09-08T14:49:34Z</time>
      </trkpt>
      <trkpt lat="42.99253" lon="0.6741">
        <ele>589</ele>
        <time>2022-09-08T14:49:36Z</time>
      </trkpt>
      <trkpt lat="42.99263" lon="0.67412">
        <ele>587</ele>
        <time>2022-09-08T14:49:45Z</time>
      </trkpt>
      <trkpt lat="42.9927" lon="0.6742">
        <ele>586</ele>
        <time>2022-09-08T14:49:56Z</time>
      </trkpt>
      <trkpt lat="42.99281" lon="0.67416">
        <ele>582</ele>
        <time>2022-09-08T14:50:05Z</time>
      </trkpt>
      <trkpt lat="42.99289" lon="0.67412">
        <ele>582</ele>
        <time>2022-09-08T14:50:11Z</time>
      </trkpt>
      <trkpt lat="42.99298" lon="0.67405">
        <ele>579</ele>
        <time>2022-09-08T14:50:22Z</time>
      </trkpt>
      <trkpt lat="42.99307" lon="0.67399">
        <ele>576</ele>
        <time>2022-09-08T14:50:29Z</time>
      </trkpt>
      <trkpt lat="42.99316" lon="0.67394">
        <ele>573</ele>
        <time>2022-09-08T14:50:35Z</time>
      </trkpt>
      <trkpt lat="42.99325" lon="0.67387">
        <ele>573</ele>
        <time>2022-09-08T14:50:42Z</time>
      </trkpt>
      <trkpt lat="42.99334" lon="0.6738">
        <ele>570</ele>
        <time>2022-09-08T14:50:52Z</time>
      </trkpt>
      <trkpt lat="42.99343" lon="0.67376">
        <ele>569</ele>
        <time>2022-09-08T14:50:59Z</time>
      </trkpt>
      <trkpt lat="42.99346" lon="0.67375">
        <ele>563</ele>
        <time>2022-09-08T14:51:05Z</time>
      </trkpt>
      <trkpt lat="42.99348" lon="0.67374">
        <ele>563</ele>
        <time>2022-09-08T14:51:09Z</time>
      </trkpt>
      <trkpt lat="42.9935" lon="0.67373">
        <ele>563</ele>
        <time>2022-09-08T14:51:15Z</time>
      </trkpt>
      <trkpt lat="42.9935" lon="0.67376">
        <ele>563</ele>
        <time>2022-09-08T14:51:19Z</time>
      </trkpt>
      <trkpt lat="42.99351" lon="0.67378">
        <ele>562</ele>
        <time>2022-09-08T14:51:47Z</time>
      </trkpt>
      <trkpt lat="42.9935" lon="0.67381">
        <ele>563</ele>
        <time>2022-09-08T14:51:54Z</time>
      </trkpt>
      <trkpt lat="42.99348" lon="0.67381">
        <ele>563</ele>
        <time>2022-09-08T14:52:08Z</time>
      </trkpt>
      <trkpt lat="42.99347" lon="0.67378">
        <ele>563</ele>
        <time>2022-09-08T14:52:12Z</time>
      </trkpt>
      <trkpt lat="42.99351" lon="0.67378">
        <ele>563</ele>
        <time>2022-09-08T14:52:17Z</time>
      </trkpt>
      <trkpt lat="42.99353" lon="0.67378">
        <ele>563</ele>
        <time>2022-09-08T14:52:19Z</time>
      </trkpt>
      <trkpt lat="42.99355" lon="0.67376">
        <ele>563</ele>
        <time>2022-09-08T14:52:22Z</time>
      </trkpt>
      <trkpt lat="42.99358" lon="0.67376">
        <ele>563</ele>
        <time>2022-09-08T14:52:24Z</time>
      </trkpt>
      <trkpt lat="42.9936" lon="0.67375">
        <ele>563</ele>
        <time>2022-09-08T14:52:27Z</time>
      </trkpt>
      <trkpt lat="42.99362" lon="0.67376">
        <ele>563</ele>
        <time>2022-09-08T14:52:28Z</time>
      </trkpt>
      <trkpt lat="42.99364" lon="0.67377">
        <ele>563</ele>
        <time>2022-09-08T14:52:32Z</time>
      </trkpt>
      <trkpt lat="42.99366" lon="0.67377">
        <ele>561</ele>
        <time>2022-09-08T14:52:34Z</time>
      </trkpt>
      <trkpt lat="42.99368" lon="0.67377">
        <ele>561</ele>
        <time>2022-09-08T14:52:36Z</time>
      </trkpt>
      <trkpt lat="42.9937" lon="0.67376">
        <ele>561</ele>
        <time>2022-09-08T14:52:37Z</time>
      </trkpt>
      <trkpt lat="42.99373" lon="0.67376">
        <ele>561</ele>
        <time>2022-09-08T14:52:40Z</time>
      </trkpt>
      <trkpt lat="42.99375" lon="0.67375">
        <ele>561</ele>
        <time>2022-09-08T14:52:41Z</time>
      </trkpt>
      <trkpt lat="42.99377" lon="0.67374">
        <ele>561</ele>
        <time>2022-09-08T14:52:43Z</time>
      </trkpt>
      <trkpt lat="42.99379" lon="0.67374">
        <ele>561</ele>
        <time>2022-09-08T14:52:46Z</time>
      </trkpt>
      <trkpt lat="42.99388" lon="0.67372">
        <ele>561</ele>
        <time>2022-09-08T14:52:52Z</time>
      </trkpt>
      <trkpt lat="42.99398" lon="0.67371">
        <ele>558</ele>
        <time>2022-09-08T14:52:59Z</time>
      </trkpt>
      <trkpt lat="42.99407" lon="0.67372">
        <ele>557</ele>
        <time>2022-09-08T14:53:07Z</time>
      </trkpt>
      <trkpt lat="42.99416" lon="0.6737">
        <ele>556</ele>
        <time>2022-09-08T14:53:14Z</time>
      </trkpt>
      <trkpt lat="42.99426" lon="0.6737">
        <ele>556</ele>
        <time>2022-09-08T14:53:23Z</time>
      </trkpt>
      <trkpt lat="42.99435" lon="0.67366">
        <ele>555</ele>
        <time>2022-09-08T14:53:30Z</time>
      </trkpt>
      <trkpt lat="42.99437" lon="0.67366">
        <ele>555</ele>
        <time>2022-09-08T14:53:32Z</time>
      </trkpt>
      <trkpt lat="42.99439" lon="0.67366">
        <ele>555</ele>
        <time>2022-09-08T14:53:35Z</time>
      </trkpt>
      <trkpt lat="42.99448" lon="0.67367">
        <ele>555</ele>
        <time>2022-09-08T14:53:41Z</time>
      </trkpt>
      <trkpt lat="42.99451" lon="0.67368">
        <ele>555</ele>
        <time>2022-09-08T14:53:43Z</time>
      </trkpt>
      <trkpt lat="42.99452" lon="0.67369">
        <ele>554</ele>
        <time>2022-09-08T14:53:45Z</time>
      </trkpt>
      <trkpt lat="42.99455" lon="0.67368">
        <ele>554</ele>
        <time>2022-09-08T14:53:49Z</time>
      </trkpt>
      <trkpt lat="42.99458" lon="0.67369">
        <ele>554</ele>
        <time>2022-09-08T14:53:52Z</time>
      </trkpt>
      <trkpt lat="42.9946" lon="0.6737">
        <ele>553</ele>
        <time>2022-09-08T14:53:54Z</time>
      </trkpt>
      <trkpt lat="42.99462" lon="0.67371">
        <ele>553</ele>
        <time>2022-09-08T14:53:57Z</time>
      </trkpt>
      <trkpt lat="42.99464" lon="0.67372">
        <ele>553</ele>
        <time>2022-09-08T14:53:59Z</time>
      </trkpt>
      <trkpt lat="42.99466" lon="0.67373">
        <ele>553</ele>
        <time>2022-09-08T14:54:01Z</time>
      </trkpt>
      <trkpt lat="42.99468" lon="0.67374">
        <ele>553</ele>
        <time>2022-09-08T14:54:02Z</time>
      </trkpt>
      <trkpt lat="42.9947" lon="0.67374">
        <ele>552</ele>
        <time>2022-09-08T14:54:05Z</time>
      </trkpt>
      <trkpt lat="42.99474" lon="0.67374">
        <ele>552</ele>
        <time>2022-09-08T14:54:08Z</time>
      </trkpt>
      <trkpt lat="42.99477" lon="0.67374">
        <ele>552</ele>
        <time>2022-09-08T14:54:10Z</time>
      </trkpt>
      <trkpt lat="42.9948" lon="0.67374">
        <ele>552</ele>
        <time>2022-09-08T14:54:12Z</time>
      </trkpt>
      <trkpt lat="42.99481" lon="0.67375">
        <ele>552</ele>
        <time>2022-09-08T14:54:13Z</time>
      </trkpt>
      <trkpt lat="42.99483" lon="0.67374">
        <ele>552</ele>
        <time>2022-09-08T14:54:16Z</time>
      </trkpt>
      <trkpt lat="42.99486" lon="0.67375">
        <ele>552</ele>
        <time>2022-09-08T14:54:18Z</time>
      </trkpt>
      <trkpt lat="42.99488" lon="0.67375">
        <ele>552</ele>
        <time>2022-09-08T14:54:20Z</time>
      </trkpt>
      <trkpt lat="42.9949" lon="0.67376">
        <ele>552</ele>
        <time>2022-09-08T14:54:22Z</time>
      </trkpt>
      <trkpt lat="42.99492" lon="0.67377">
        <ele>552</ele>
        <time>2022-09-08T14:54:24Z</time>
      </trkpt>
      <trkpt lat="42.99495" lon="0.67377">
        <ele>552</ele>
        <time>2022-09-08T14:54:26Z</time>
      </trkpt>
      <trkpt lat="42.99497" lon="0.67377">
        <ele>552</ele>
        <time>2022-09-08T14:54:28Z</time>
      </trkpt>
      <trkpt lat="42.99499" lon="0.67378">
        <ele>552</ele>
        <time>2022-09-08T14:54:31Z</time>
      </trkpt>
      <trkpt lat="42.99502" lon="0.67379">
        <ele>551</ele>
        <time>2022-09-08T14:54:33Z</time>
      </trkpt>
      <trkpt lat="42.99503" lon="0.6738">
        <ele>551</ele>
        <time>2022-09-08T14:54:38Z</time>
      </trkpt>
      <trkpt lat="42.99505" lon="0.6738">
        <ele>551</ele>
        <time>2022-09-08T14:54:41Z</time>
      </trkpt>
      <trkpt lat="42.99507" lon="0.67381">
        <ele>551</ele>
        <time>2022-09-08T14:54:45Z</time>
      </trkpt>
      <trkpt lat="42.9951" lon="0.6738">
        <ele>551</ele>
        <time>2022-09-08T14:54:47Z</time>
      </trkpt>
      <trkpt lat="42.99512" lon="0.6738">
        <ele>551</ele>
        <time>2022-09-08T14:54:50Z</time>
      </trkpt>
      <trkpt lat="42.99514" lon="0.67381">
        <ele>551</ele>
        <time>2022-09-08T14:54:52Z</time>
      </trkpt>
      <trkpt lat="42.99516" lon="0.67382">
        <ele>551</ele>
        <time>2022-09-08T14:54:54Z</time>
      </trkpt>
      <trkpt lat="42.99518" lon="0.67384">
        <ele>551</ele>
        <time>2022-09-08T14:54:57Z</time>
      </trkpt>
      <trkpt lat="42.9952" lon="0.67385">
        <ele>551</ele>
        <time>2022-09-08T14:54:59Z</time>
      </trkpt>
      <trkpt lat="42.99522" lon="0.67386">
        <ele>551</ele>
        <time>2022-09-08T14:55:01Z</time>
      </trkpt>
      <trkpt lat="42.99524" lon="0.67387">
        <ele>551</ele>
        <time>2022-09-08T14:55:03Z</time>
      </trkpt>
      <trkpt lat="42.99526" lon="0.67388">
        <ele>550</ele>
        <time>2022-09-08T14:55:05Z</time>
      </trkpt>
      <trkpt lat="42.99528" lon="0.67389">
        <ele>550</ele>
        <time>2022-09-08T14:55:08Z</time>
      </trkpt>
      <trkpt lat="42.99529" lon="0.67391">
        <ele>550</ele>
        <time>2022-09-08T14:55:11Z</time>
      </trkpt>
      <trkpt lat="42.99532" lon="0.67392">
        <ele>549</ele>
        <time>2022-09-08T14:55:14Z</time>
      </trkpt>
      <trkpt lat="42.99534" lon="0.67394">
        <ele>549</ele>
        <time>2022-09-08T14:55:16Z</time>
      </trkpt>
      <trkpt lat="42.99535" lon="0.67395">
        <ele>549</ele>
        <time>2022-09-08T14:55:18Z</time>
      </trkpt>
      <trkpt lat="42.99537" lon="0.67397">
        <ele>549</ele>
        <time>2022-09-08T14:55:20Z</time>
      </trkpt>
      <trkpt lat="42.99539" lon="0.67398">
        <ele>549</ele>
        <time>2022-09-08T14:55:22Z</time>
      </trkpt>
      <trkpt lat="42.99541" lon="0.67399">
        <ele>549</ele>
        <time>2022-09-08T14:55:24Z</time>
      </trkpt>
      <trkpt lat="42.99543" lon="0.674">
        <ele>549</ele>
        <time>2022-09-08T14:55:26Z</time>
      </trkpt>
      <trkpt lat="42.99547" lon="0.67401">
        <ele>549</ele>
        <time>2022-09-08T14:55:29Z</time>
      </trkpt>
      <trkpt lat="42.99549" lon="0.674">
        <ele>545</ele>
        <time>2022-09-08T14:55:33Z</time>
      </trkpt>
      <trkpt lat="42.99551" lon="0.67399">
        <ele>545</ele>
        <time>2022-09-08T14:55:37Z</time>
      </trkpt>
      <trkpt lat="42.99553" lon="0.674">
        <ele>545</ele>
        <time>2022-09-08T14:55:39Z</time>
      </trkpt>
      <trkpt lat="42.99556" lon="0.674">
        <ele>545</ele>
        <time>2022-09-08T14:55:44Z</time>
      </trkpt>
      <trkpt lat="42.99554" lon="0.67398">
        <ele>545</ele>
        <time>2022-09-08T14:55:51Z</time>
      </trkpt>
      <trkpt lat="42.99555" lon="0.67401">
        <ele>544</ele>
        <time>2022-09-08T14:56:48Z</time>
      </trkpt>
      <trkpt lat="42.99556" lon="0.67403">
        <ele>544</ele>
        <time>2022-09-08T14:56:51Z</time>
      </trkpt>
      <trkpt lat="42.99559" lon="0.67404">
        <ele>544</ele>
        <time>2022-09-08T14:56:53Z</time>
      </trkpt>
      <trkpt lat="42.99561" lon="0.67406">
        <ele>545</ele>
        <time>2022-09-08T14:56:54Z</time>
      </trkpt>
      <trkpt lat="42.99565" lon="0.67408">
        <ele>545</ele>
        <time>2022-09-08T14:56:57Z</time>
      </trkpt>
      <trkpt lat="42.99567" lon="0.6741">
        <ele>545</ele>
        <time>2022-09-08T14:56:58Z</time>
      </trkpt>
      <trkpt lat="42.9957" lon="0.67412">
        <ele>545</ele>
        <time>2022-09-08T14:57:01Z</time>
      </trkpt>
      <trkpt lat="42.9958" lon="0.67412">
        <ele>543</ele>
        <time>2022-09-08T14:57:06Z</time>
      </trkpt>
      <trkpt lat="42.99588" lon="0.67422">
        <ele>543</ele>
        <time>2022-09-08T14:57:11Z</time>
      </trkpt>
      <trkpt lat="42.9959" lon="0.67426">
        <ele>542</ele>
        <time>2022-09-08T14:57:14Z</time>
      </trkpt>
      <trkpt lat="42.99591" lon="0.6743">
        <ele>542</ele>
        <time>2022-09-08T14:57:15Z</time>
      </trkpt>
      <trkpt lat="42.99592" lon="0.67433">
        <ele>542</ele>
        <time>2022-09-08T14:57:18Z</time>
      </trkpt>
      <trkpt lat="42.99594" lon="0.67436">
        <ele>542</ele>
        <time>2022-09-08T14:57:20Z</time>
      </trkpt>
      <trkpt lat="42.99595" lon="0.67439">
        <ele>542</ele>
        <time>2022-09-08T14:57:22Z</time>
      </trkpt>
      <trkpt lat="42.99597" lon="0.67442">
        <ele>541</ele>
        <time>2022-09-08T14:57:24Z</time>
      </trkpt>
      <trkpt lat="42.99598" lon="0.67445">
        <ele>541</ele>
        <time>2022-09-08T14:57:26Z</time>
      </trkpt>
      <trkpt lat="42.996" lon="0.67447">
        <ele>541</ele>
        <time>2022-09-08T14:57:28Z</time>
      </trkpt>
      <trkpt lat="42.99601" lon="0.67449">
        <ele>541</ele>
        <time>2022-09-08T14:57:30Z</time>
      </trkpt>
      <trkpt lat="42.99603" lon="0.67453">
        <ele>541</ele>
        <time>2022-09-08T14:57:31Z</time>
      </trkpt>
      <trkpt lat="42.99604" lon="0.67456">
        <ele>541</ele>
        <time>2022-09-08T14:57:34Z</time>
      </trkpt>
      <trkpt lat="42.99606" lon="0.67457">
        <ele>541</ele>
        <time>2022-09-08T14:57:36Z</time>
      </trkpt>
      <trkpt lat="42.99609" lon="0.67459">
        <ele>541</ele>
        <time>2022-09-08T14:57:37Z</time>
      </trkpt>
      <trkpt lat="42.99611" lon="0.67461">
        <ele>541</ele>
        <time>2022-09-08T14:57:40Z</time>
      </trkpt>
      <trkpt lat="42.99613" lon="0.67463">
        <ele>541</ele>
        <time>2022-09-08T14:57:42Z</time>
      </trkpt>
      <trkpt lat="42.99615" lon="0.67463">
        <ele>540</ele>
        <time>2022-09-08T14:57:47Z</time>
      </trkpt>
      <trkpt lat="42.99617" lon="0.67462">
        <ele>540</ele>
        <time>2022-09-08T14:57:49Z</time>
      </trkpt>
      <trkpt lat="42.99619" lon="0.67458">
        <ele>540</ele>
        <time>2022-09-08T14:57:58Z</time>
      </trkpt>
      <trkpt lat="42.9962" lon="0.67456">
        <ele>539</ele>
        <time>2022-09-08T14:58:05Z</time>
      </trkpt>
      <trkpt lat="42.99619" lon="0.67458">
        <ele>539</ele>
        <time>2022-09-08T14:58:10Z</time>
      </trkpt>
      <trkpt lat="42.99618" lon="0.67459">
        <ele>539</ele>
        <time>2022-09-08T14:58:15Z</time>
      </trkpt>
      <trkpt lat="42.99616" lon="0.67461">
        <ele>539</ele>
        <time>2022-09-08T14:58:18Z</time>
      </trkpt>
      <trkpt lat="42.99614" lon="0.67461">
        <ele>539</ele>
        <time>2022-09-08T14:58:21Z</time>
      </trkpt>
      <trkpt lat="42.99616" lon="0.6746">
        <ele>540</ele>
        <time>2022-09-08T14:58:34Z</time>
      </trkpt>
      <trkpt lat="42.99617" lon="0.67458">
        <ele>539</ele>
        <time>2022-09-08T14:59:58Z</time>
      </trkpt>
      <trkpt lat="42.99619" lon="0.67455">
        <ele>540</ele>
        <time>2022-09-08T15:00:08Z</time>
      </trkpt>
      <trkpt lat="42.99621" lon="0.67454">
        <ele>540</ele>
        <time>2022-09-08T15:00:11Z</time>
      </trkpt>
      <trkpt lat="42.99623" lon="0.67451">
        <ele>540</ele>
        <time>2022-09-08T15:00:15Z</time>
      </trkpt>
      <trkpt lat="42.99625" lon="0.67449">
        <ele>540</ele>
        <time>2022-09-08T15:00:17Z</time>
      </trkpt>
      <trkpt lat="42.99626" lon="0.67448">
        <ele>540</ele>
        <time>2022-09-08T15:00:19Z</time>
      </trkpt>
      <trkpt lat="42.99628" lon="0.67446">
        <ele>540</ele>
        <time>2022-09-08T15:00:21Z</time>
      </trkpt>
      <trkpt lat="42.9963" lon="0.67444">
        <ele>540</ele>
        <time>2022-09-08T15:00:23Z</time>
      </trkpt>
      <trkpt lat="42.99632" lon="0.67442">
        <ele>540</ele>
        <time>2022-09-08T15:00:24Z</time>
      </trkpt>
      <trkpt lat="42.99634" lon="0.6744">
        <ele>540</ele>
        <time>2022-09-08T15:00:27Z</time>
      </trkpt>
      <trkpt lat="42.99637" lon="0.67438">
        <ele>540</ele>
        <time>2022-09-08T15:00:29Z</time>
      </trkpt>
      <trkpt lat="42.99649" lon="0.67426">
        <ele>540</ele>
        <time>2022-09-08T15:00:38Z</time>
      </trkpt>
      <trkpt lat="42.99657" lon="0.67418">
        <ele>540</ele>
        <time>2022-09-08T15:00:49Z</time>
      </trkpt>
      <trkpt lat="42.99658" lon="0.67416">
        <ele>540</ele>
        <time>2022-09-08T15:00:51Z</time>
      </trkpt>
      <trkpt lat="42.99659" lon="0.67413">
        <ele>540</ele>
        <time>2022-09-08T15:00:54Z</time>
      </trkpt>
      <trkpt lat="42.99662" lon="0.67411">
        <ele>540</ele>
        <time>2022-09-08T15:00:56Z</time>
      </trkpt>
      <trkpt lat="42.99664" lon="0.67407">
        <ele>540</ele>
        <time>2022-09-08T15:00:58Z</time>
      </trkpt>
      <trkpt lat="42.99666" lon="0.67406">
        <ele>540</ele>
        <time>2022-09-08T15:00:59Z</time>
      </trkpt>
      <trkpt lat="42.99668" lon="0.67403">
        <ele>540</ele>
        <time>2022-09-08T15:01:01Z</time>
      </trkpt>
      <trkpt lat="42.9967" lon="0.674">
        <ele>540</ele>
        <time>2022-09-08T15:01:03Z</time>
      </trkpt>
      <trkpt lat="42.99671" lon="0.67397">
        <ele>540</ele>
        <time>2022-09-08T15:01:05Z</time>
      </trkpt>
      <trkpt lat="42.99674" lon="0.67394">
        <ele>540</ele>
        <time>2022-09-08T15:01:07Z</time>
      </trkpt>
      <trkpt lat="42.99677" lon="0.6739">
        <ele>540</ele>
        <time>2022-09-08T15:01:09Z</time>
      </trkpt>
      <trkpt lat="42.99679" lon="0.67388">
        <ele>540</ele>
        <time>2022-09-08T15:01:11Z</time>
      </trkpt>
      <trkpt lat="42.99681" lon="0.67386">
        <ele>540</ele>
        <time>2022-09-08T15:01:13Z</time>
      </trkpt>
      <trkpt lat="42.99683" lon="0.67384">
        <ele>539</ele>
        <time>2022-09-08T15:01:15Z</time>
      </trkpt>
      <trkpt lat="42.99685" lon="0.67382">
        <ele>539</ele>
        <time>2022-09-08T15:01:17Z</time>
      </trkpt>
      <trkpt lat="42.99687" lon="0.6738">
        <ele>539</ele>
        <time>2022-09-08T15:01:18Z</time>
      </trkpt>
      <trkpt lat="42.99688" lon="0.67379">
        <ele>539</ele>
        <time>2022-09-08T15:01:19Z</time>
      </trkpt>
      <trkpt lat="42.99691" lon="0.67376">
        <ele>539</ele>
        <time>2022-09-08T15:01:21Z</time>
      </trkpt>
      <trkpt lat="42.99693" lon="0.67373">
        <ele>539</ele>
        <time>2022-09-08T15:01:23Z</time>
      </trkpt>
      <trkpt lat="42.99694" lon="0.67371">
        <ele>538</ele>
        <time>2022-09-08T15:01:24Z</time>
      </trkpt>
      <trkpt lat="42.99695" lon="0.67369">
        <ele>538</ele>
        <time>2022-09-08T15:01:26Z</time>
      </trkpt>
      <trkpt lat="42.99696" lon="0.67367">
        <ele>538</ele>
        <time>2022-09-08T15:01:31Z</time>
      </trkpt>
      <trkpt lat="42.99697" lon="0.67365">
        <ele>538</ele>
        <time>2022-09-08T15:01:39Z</time>
      </trkpt>
      <trkpt lat="42.99699" lon="0.67367">
        <ele>540</ele>
        <time>2022-09-08T15:02:29Z</time>
      </trkpt>
      <trkpt lat="42.99701" lon="0.67366">
        <ele>539</ele>
        <time>2022-09-08T15:02:35Z</time>
      </trkpt>
      <trkpt lat="42.99703" lon="0.67363">
        <ele>539</ele>
        <time>2022-09-08T15:02:38Z</time>
      </trkpt>
      <trkpt lat="42.99705" lon="0.67361">
        <ele>539</ele>
        <time>2022-09-08T15:02:41Z</time>
      </trkpt>
      <trkpt lat="42.99706" lon="0.67359">
        <ele>539</ele>
        <time>2022-09-08T15:02:43Z</time>
      </trkpt>
      <trkpt lat="42.99708" lon="0.67356">
        <ele>539</ele>
        <time>2022-09-08T15:02:45Z</time>
      </trkpt>
      <trkpt lat="42.99709" lon="0.67353">
        <ele>539</ele>
        <time>2022-09-08T15:02:47Z</time>
      </trkpt>
      <trkpt lat="42.99711" lon="0.6735">
        <ele>539</ele>
        <time>2022-09-08T15:02:49Z</time>
      </trkpt>
      <trkpt lat="42.99712" lon="0.67348">
        <ele>539</ele>
        <time>2022-09-08T15:02:51Z</time>
      </trkpt>
      <trkpt lat="42.99714" lon="0.67345">
        <ele>539</ele>
        <time>2022-09-08T15:02:53Z</time>
      </trkpt>
      <trkpt lat="42.99716" lon="0.67342">
        <ele>539</ele>
        <time>2022-09-08T15:02:55Z</time>
      </trkpt>
      <trkpt lat="42.99719" lon="0.67341">
        <ele>539</ele>
        <time>2022-09-08T15:02:57Z</time>
      </trkpt>
      <trkpt lat="42.99722" lon="0.67339">
        <ele>539</ele>
        <time>2022-09-08T15:02:59Z</time>
      </trkpt>
      <trkpt lat="42.99725" lon="0.67339">
        <ele>539</ele>
        <time>2022-09-08T15:03:01Z</time>
      </trkpt>
      <trkpt lat="42.99728" lon="0.67338">
        <ele>539</ele>
        <time>2022-09-08T15:03:03Z</time>
      </trkpt>
      <trkpt lat="42.9973" lon="0.67337">
        <ele>538</ele>
        <time>2022-09-08T15:03:05Z</time>
      </trkpt>
      <trkpt lat="42.99732" lon="0.67335">
        <ele>538</ele>
        <time>2022-09-08T15:03:07Z</time>
      </trkpt>
      <trkpt lat="42.99735" lon="0.67334">
        <ele>538</ele>
        <time>2022-09-08T15:03:09Z</time>
      </trkpt>
      <trkpt lat="42.99737" lon="0.67333">
        <ele>538</ele>
        <time>2022-09-08T15:03:12Z</time>
      </trkpt>
      <trkpt lat="42.99739" lon="0.67331">
        <ele>538</ele>
        <time>2022-09-08T15:03:14Z</time>
      </trkpt>
      <trkpt lat="42.99742" lon="0.6733">
        <ele>538</ele>
        <time>2022-09-08T15:03:15Z</time>
      </trkpt>
      <trkpt lat="42.99744" lon="0.67329">
        <ele>538</ele>
        <time>2022-09-08T15:03:16Z</time>
      </trkpt>
      <trkpt lat="42.99747" lon="0.67328">
        <ele>538</ele>
        <time>2022-09-08T15:03:18Z</time>
      </trkpt>
      <trkpt lat="42.99749" lon="0.67326">
        <ele>538</ele>
        <time>2022-09-08T15:03:20Z</time>
      </trkpt>
      <trkpt lat="42.99752" lon="0.67325">
        <ele>538</ele>
        <time>2022-09-08T15:03:22Z</time>
      </trkpt>
      <trkpt lat="42.99754" lon="0.67323">
        <ele>537</ele>
        <time>2022-09-08T15:03:24Z</time>
      </trkpt>
      <trkpt lat="42.99757" lon="0.67321">
        <ele>537</ele>
        <time>2022-09-08T15:03:26Z</time>
      </trkpt>
      <trkpt lat="42.99759" lon="0.6732">
        <ele>537</ele>
        <time>2022-09-08T15:03:28Z</time>
      </trkpt>
      <trkpt lat="42.99762" lon="0.67319">
        <ele>537</ele>
        <time>2022-09-08T15:03:30Z</time>
      </trkpt>
      <trkpt lat="42.99765" lon="0.67317">
        <ele>537</ele>
        <time>2022-09-08T15:03:32Z</time>
      </trkpt>
      <trkpt lat="42.99767" lon="0.67317">
        <ele>537</ele>
        <time>2022-09-08T15:03:34Z</time>
      </trkpt>
      <trkpt lat="42.9977" lon="0.67315">
        <ele>537</ele>
        <time>2022-09-08T15:03:36Z</time>
      </trkpt>
      <trkpt lat="42.99772" lon="0.67313">
        <ele>537</ele>
        <time>2022-09-08T15:03:38Z</time>
      </trkpt>
      <trkpt lat="42.99774" lon="0.67312">
        <ele>537</ele>
        <time>2022-09-08T15:03:40Z</time>
      </trkpt>
      <trkpt lat="42.99777" lon="0.67311">
        <ele>537</ele>
        <time>2022-09-08T15:03:42Z</time>
      </trkpt>
      <trkpt lat="42.9978" lon="0.67309">
        <ele>538</ele>
        <time>2022-09-08T15:03:44Z</time>
      </trkpt>
      <trkpt lat="42.99782" lon="0.67308">
        <ele>538</ele>
        <time>2022-09-08T15:03:46Z</time>
      </trkpt>
      <trkpt lat="42.99785" lon="0.67307">
        <ele>538</ele>
        <time>2022-09-08T15:03:48Z</time>
      </trkpt>
      <trkpt lat="42.99788" lon="0.67307">
        <ele>538</ele>
        <time>2022-09-08T15:03:50Z</time>
      </trkpt>
      <trkpt lat="42.99791" lon="0.67306">
        <ele>538</ele>
        <time>2022-09-08T15:03:52Z</time>
      </trkpt>
      <trkpt lat="42.99793" lon="0.67304">
        <ele>538</ele>
        <time>2022-09-08T15:03:54Z</time>
      </trkpt>
      <trkpt lat="42.99796" lon="0.67303">
        <ele>538</ele>
        <time>2022-09-08T15:03:56Z</time>
      </trkpt>
      <trkpt lat="42.99798" lon="0.67301">
        <ele>538</ele>
        <time>2022-09-08T15:03:58Z</time>
      </trkpt>
      <trkpt lat="42.998" lon="0.673">
        <ele>538</ele>
        <time>2022-09-08T15:04:00Z</time>
      </trkpt>
      <trkpt lat="42.99803" lon="0.67299">
        <ele>538</ele>
        <time>2022-09-08T15:04:02Z</time>
      </trkpt>
      <trkpt lat="42.99806" lon="0.67298">
        <ele>538</ele>
        <time>2022-09-08T15:04:04Z</time>
      </trkpt>
      <trkpt lat="42.99808" lon="0.67297">
        <ele>538</ele>
        <time>2022-09-08T15:04:06Z</time>
      </trkpt>
      <trkpt lat="42.9981" lon="0.67296">
        <ele>538</ele>
        <time>2022-09-08T15:04:08Z</time>
      </trkpt>
      <trkpt lat="42.99813" lon="0.67295">
        <ele>538</ele>
        <time>2022-09-08T15:04:10Z</time>
      </trkpt>
      <trkpt lat="42.99815" lon="0.67294">
        <ele>538</ele>
        <time>2022-09-08T15:04:12Z</time>
      </trkpt>
      <trkpt lat="42.99818" lon="0.67293">
        <ele>538</ele>
        <time>2022-09-08T15:04:14Z</time>
      </trkpt>
      <trkpt lat="42.9982" lon="0.67293">
        <ele>538</ele>
        <time>2022-09-08T15:04:21Z</time>
      </trkpt>
      <trkpt lat="42.99822" lon="0.67292">
        <ele>538</ele>
        <time>2022-09-08T15:04:23Z</time>
      </trkpt>
      <trkpt lat="42.99824" lon="0.67292">
        <ele>537</ele>
        <time>2022-09-08T15:04:29Z</time>
      </trkpt>
      <trkpt lat="42.99827" lon="0.67292">
        <ele>537</ele>
        <time>2022-09-08T15:04:32Z</time>
      </trkpt>
      <trkpt lat="42.9983" lon="0.67291">
        <ele>537</ele>
        <time>2022-09-08T15:04:34Z</time>
      </trkpt>
      <trkpt lat="42.99832" lon="0.67291">
        <ele>537</ele>
        <time>2022-09-08T15:04:36Z</time>
      </trkpt>
      <trkpt lat="42.99834" lon="0.6729">
        <ele>537</ele>
        <time>2022-09-08T15:04:38Z</time>
      </trkpt>
      <trkpt lat="42.99836" lon="0.67289">
        <ele>537</ele>
        <time>2022-09-08T15:04:40Z</time>
      </trkpt>
      <trkpt lat="42.99838" lon="0.67287">
        <ele>537</ele>
        <time>2022-09-08T15:04:42Z</time>
      </trkpt>
      <trkpt lat="42.9984" lon="0.67286">
        <ele>537</ele>
        <time>2022-09-08T15:04:44Z</time>
      </trkpt>
      <trkpt lat="42.99842" lon="0.67285">
        <ele>537</ele>
        <time>2022-09-08T15:04:46Z</time>
      </trkpt>
      <trkpt lat="42.99844" lon="0.67284">
        <ele>537</ele>
        <time>2022-09-08T15:04:48Z</time>
      </trkpt>
      <trkpt lat="42.99846" lon="0.67282">
        <ele>537</ele>
        <time>2022-09-08T15:04:51Z</time>
      </trkpt>
      <trkpt lat="42.99849" lon="0.67282">
        <ele>537</ele>
        <time>2022-09-08T15:04:54Z</time>
      </trkpt>
      <trkpt lat="42.99851" lon="0.67281">
        <ele>537</ele>
        <time>2022-09-08T15:05:08Z</time>
      </trkpt>
      <trkpt lat="42.99852" lon="0.67279">
        <ele>537</ele>
        <time>2022-09-08T15:05:54Z</time>
      </trkpt>
      <trkpt lat="42.99854" lon="0.67278">
        <ele>537</ele>
        <time>2022-09-08T15:06:02Z</time>
      </trkpt>
      <trkpt lat="42.99857" lon="0.67277">
        <ele>537</ele>
        <time>2022-09-08T15:06:05Z</time>
      </trkpt>
      <trkpt lat="42.99859" lon="0.67277">
        <ele>537</ele>
        <time>2022-09-08T15:06:07Z</time>
      </trkpt>
      <trkpt lat="42.99861" lon="0.67276">
        <ele>537</ele>
        <time>2022-09-08T15:06:09Z</time>
      </trkpt>
      <trkpt lat="42.99864" lon="0.67276">
        <ele>537</ele>
        <time>2022-09-08T15:06:11Z</time>
      </trkpt>
      <trkpt lat="42.99867" lon="0.67276">
        <ele>537</ele>
        <time>2022-09-08T15:06:13Z</time>
      </trkpt>
      <trkpt lat="42.99869" lon="0.67275">
        <ele>537</ele>
        <time>2022-09-08T15:06:15Z</time>
      </trkpt>
      <trkpt lat="42.99872" lon="0.67274">
        <ele>537</ele>
        <time>2022-09-08T15:06:17Z</time>
      </trkpt>
      <trkpt lat="42.99874" lon="0.67274">
        <ele>537</ele>
        <time>2022-09-08T15:06:19Z</time>
      </trkpt>
      <trkpt lat="42.99877" lon="0.67273">
        <ele>537</ele>
        <time>2022-09-08T15:06:21Z</time>
      </trkpt>
      <trkpt lat="42.99879" lon="0.67272">
        <ele>537</ele>
        <time>2022-09-08T15:06:23Z</time>
      </trkpt>
      <trkpt lat="42.99881" lon="0.67272">
        <ele>537</ele>
        <time>2022-09-08T15:06:25Z</time>
      </trkpt>
      <trkpt lat="42.99883" lon="0.67272">
        <ele>537</ele>
        <time>2022-09-08T15:07:30Z</time>
      </trkpt>
      <trkpt lat="42.99885" lon="0.67271">
        <ele>536</ele>
        <time>2022-09-08T15:08:00Z</time>
      </trkpt>
      <trkpt lat="42.99888" lon="0.6727">
        <ele>536</ele>
        <time>2022-09-08T15:08:03Z</time>
      </trkpt>
      <trkpt lat="42.99889" lon="0.67269">
        <ele>536</ele>
        <time>2022-09-08T15:08:05Z</time>
      </trkpt>
      <trkpt lat="42.99892" lon="0.67267">
        <ele>536</ele>
        <time>2022-09-08T15:08:08Z</time>
      </trkpt>
      <trkpt lat="42.99893" lon="0.67266">
        <ele>536</ele>
        <time>2022-09-08T15:08:10Z</time>
      </trkpt>
      <trkpt lat="42.99895" lon="0.67265">
        <ele>536</ele>
        <time>2022-09-08T15:08:12Z</time>
      </trkpt>
      <trkpt lat="42.99897" lon="0.67264">
        <ele>536</ele>
        <time>2022-09-08T15:08:14Z</time>
      </trkpt>
      <trkpt lat="42.99899" lon="0.67264">
        <ele>536</ele>
        <time>2022-09-08T15:08:16Z</time>
      </trkpt>
      <trkpt lat="42.99901" lon="0.67263">
        <ele>536</ele>
        <time>2022-09-08T15:08:18Z</time>
      </trkpt>
      <trkpt lat="42.99904" lon="0.67262">
        <ele>536</ele>
        <time>2022-09-08T15:08:20Z</time>
      </trkpt>
      <trkpt lat="42.99906" lon="0.67261">
        <ele>536</ele>
        <time>2022-09-08T15:08:22Z</time>
      </trkpt>
      <trkpt lat="42.99908" lon="0.67261">
        <ele>536</ele>
        <time>2022-09-08T15:08:27Z</time>
      </trkpt>
      <trkpt lat="42.9991" lon="0.67259">
        <ele>536</ele>
        <time>2022-09-08T15:08:32Z</time>
      </trkpt>
      <trkpt lat="42.99912" lon="0.67259">
        <ele>537</ele>
        <time>2022-09-08T15:08:35Z</time>
      </trkpt>
      <trkpt lat="42.9991" lon="0.67258">
        <ele>537</ele>
        <time>2022-09-08T15:08:45Z</time>
      </trkpt>
      <trkpt lat="42.99908" lon="0.67258">
        <ele>537</ele>
        <time>2022-09-08T15:08:48Z</time>
      </trkpt>
      <trkpt lat="42.99906" lon="0.67257">
        <ele>537</ele>
        <time>2022-09-08T15:08:52Z</time>
      </trkpt>
      <trkpt lat="42.99904" lon="0.67254">
        <ele>537</ele>
        <time>2022-09-08T15:08:55Z</time>
      </trkpt>
      <trkpt lat="42.99903" lon="0.67253">
        <ele>538</ele>
        <time>2022-09-08T15:09:17Z</time>
      </trkpt>
      <trkpt lat="42.99903" lon="0.6725">
        <ele>538</ele>
        <time>2022-09-08T15:13:02Z</time>
      </trkpt>
      <trkpt lat="42.99904" lon="0.67248">
        <ele>537</ele>
        <time>2022-09-08T15:13:05Z</time>
      </trkpt>
      <trkpt lat="42.99906" lon="0.67245">
        <ele>537</ele>
        <time>2022-09-08T15:13:08Z</time>
      </trkpt>
      <trkpt lat="42.99908" lon="0.67243">
        <ele>537</ele>
        <time>2022-09-08T15:13:11Z</time>
      </trkpt>
      <trkpt lat="42.9991" lon="0.67242">
        <ele>537</ele>
        <time>2022-09-08T15:13:14Z</time>
      </trkpt>
      <trkpt lat="42.99912" lon="0.6724">
        <ele>537</ele>
        <time>2022-09-08T15:13:18Z</time>
      </trkpt>
      <trkpt lat="42.99913" lon="0.67238">
        <ele>537</ele>
        <time>2022-09-08T15:13:33Z</time>
      </trkpt>
      <trkpt lat="42.99915" lon="0.67237">
        <ele>538</ele>
        <time>2022-09-08T15:13:49Z</time>
      </trkpt>
      <trkpt lat="42.99916" lon="0.67235">
        <ele>538</ele>
        <time>2022-09-08T15:13:52Z</time>
      </trkpt>
      <trkpt lat="42.99915" lon="0.67237">
        <ele>539</ele>
        <time>2022-09-08T15:14:06Z</time>
      </trkpt>
      <trkpt lat="42.99914" lon="0.67239">
        <ele>538</ele>
        <time>2022-09-08T15:15:22Z</time>
      </trkpt>
      <trkpt lat="42.99913" lon="0.67242">
        <ele>538</ele>
        <time>2022-09-08T15:15:25Z</time>
      </trkpt>
      <trkpt lat="42.99912" lon="0.67244">
        <ele>538</ele>
        <time>2022-09-08T15:15:32Z</time>
      </trkpt>
      <trkpt lat="42.99911" lon="0.67246">
        <ele>538</ele>
        <time>2022-09-08T15:15:34Z</time>
      </trkpt>
      <trkpt lat="42.9991" lon="0.67248">
        <ele>538</ele>
        <time>2022-09-08T15:15:37Z</time>
      </trkpt>
      <trkpt lat="42.99909" lon="0.67251">
        <ele>538</ele>
        <time>2022-09-08T15:15:40Z</time>
      </trkpt>
      <trkpt lat="42.9991" lon="0.67253">
        <ele>538</ele>
        <time>2022-09-08T15:15:44Z</time>
      </trkpt>
      <trkpt lat="42.99911" lon="0.67255">
        <ele>538</ele>
        <time>2022-09-08T15:15:46Z</time>
      </trkpt>
      <trkpt lat="42.99912" lon="0.67256">
        <ele>538</ele>
        <time>2022-09-08T15:15:48Z</time>
      </trkpt>
      <trkpt lat="42.99914" lon="0.67257">
        <ele>538</ele>
        <time>2022-09-08T15:15:50Z</time>
      </trkpt>
      <trkpt lat="42.99916" lon="0.67258">
        <ele>538</ele>
        <time>2022-09-08T15:15:52Z</time>
      </trkpt>
      <trkpt lat="42.99918" lon="0.6726">
        <ele>537</ele>
        <time>2022-09-08T15:15:53Z</time>
      </trkpt>
      <trkpt lat="42.9992" lon="0.67261">
        <ele>537</ele>
        <time>2022-09-08T15:15:55Z</time>
      </trkpt>
      <trkpt lat="42.99922" lon="0.67262">
        <ele>537</ele>
        <time>2022-09-08T15:15:57Z</time>
      </trkpt>
      <trkpt lat="42.99924" lon="0.67264">
        <ele>537</ele>
        <time>2022-09-08T15:15:59Z</time>
      </trkpt>
      <trkpt lat="42.99926" lon="0.67265">
        <ele>537</ele>
        <time>2022-09-08T15:16:01Z</time>
      </trkpt>
      <trkpt lat="42.99928" lon="0.67266">
        <ele>536</ele>
        <time>2022-09-08T15:16:04Z</time>
      </trkpt>
      <trkpt lat="42.9993" lon="0.67267">
        <ele>536</ele>
        <time>2022-09-08T15:16:06Z</time>
      </trkpt>
      <trkpt lat="42.99931" lon="0.67268">
        <ele>535</ele>
        <time>2022-09-08T15:16:28Z</time>
      </trkpt>
      <trkpt lat="42.99933" lon="0.67269">
        <ele>537</ele>
        <time>2022-09-08T15:19:25Z</time>
      </trkpt>
      <trkpt lat="42.99935" lon="0.67269">
        <ele>537</ele>
        <time>2022-09-08T15:19:27Z</time>
      </trkpt>
      <trkpt lat="42.99937" lon="0.6727">
        <ele>537</ele>
        <time>2022-09-08T15:19:30Z</time>
      </trkpt>
      <trkpt lat="42.99939" lon="0.67271">
        <ele>538</ele>
        <time>2022-09-08T15:19:33Z</time>
      </trkpt>
      <trkpt lat="42.99942" lon="0.67271">
        <ele>538</ele>
        <time>2022-09-08T15:19:35Z</time>
      </trkpt>
      <trkpt lat="42.99944" lon="0.67271">
        <ele>538</ele>
        <time>2022-09-08T15:19:37Z</time>
      </trkpt>
      <trkpt lat="42.99946" lon="0.67272">
        <ele>538</ele>
        <time>2022-09-08T15:19:40Z</time>
      </trkpt>
      <trkpt lat="42.99948" lon="0.67273">
        <ele>538</ele>
        <time>2022-09-08T15:19:43Z</time>
      </trkpt>
      <trkpt lat="42.99951" lon="0.67273">
        <ele>538</ele>
        <time>2022-09-08T15:19:45Z</time>
      </trkpt>
      <trkpt lat="42.99953" lon="0.67273">
        <ele>538</ele>
        <time>2022-09-08T15:19:47Z</time>
      </trkpt>
      <trkpt lat="42.99955" lon="0.67274">
        <ele>538</ele>
        <time>2022-09-08T15:19:49Z</time>
      </trkpt>
      <trkpt lat="42.99958" lon="0.67275">
        <ele>538</ele>
        <time>2022-09-08T15:19:51Z</time>
      </trkpt>
      <trkpt lat="42.9996" lon="0.67276">
        <ele>538</ele>
        <time>2022-09-08T15:19:53Z</time>
      </trkpt>
      <trkpt lat="42.99963" lon="0.67277">
        <ele>538</ele>
        <time>2022-09-08T15:19:55Z</time>
      </trkpt>
      <trkpt lat="42.99965" lon="0.67278">
        <ele>538</ele>
        <time>2022-09-08T15:19:57Z</time>
      </trkpt>
      <trkpt lat="42.99967" lon="0.67279">
        <ele>538</ele>
        <time>2022-09-08T15:19:59Z</time>
      </trkpt>
      <trkpt lat="42.99968" lon="0.67281">
        <ele>538</ele>
        <time>2022-09-08T15:20:02Z</time>
      </trkpt>
      <trkpt lat="42.9997" lon="0.67282">
        <ele>538</ele>
        <time>2022-09-08T15:20:08Z</time>
      </trkpt>
      <trkpt lat="42.99972" lon="0.67283">
        <ele>538</ele>
        <time>2022-09-08T15:20:11Z</time>
      </trkpt>
      <trkpt lat="42.99974" lon="0.67285">
        <ele>538</ele>
        <time>2022-09-08T15:20:14Z</time>
      </trkpt>
      <trkpt lat="42.99976" lon="0.67286">
        <ele>538</ele>
        <time>2022-09-08T15:20:17Z</time>
      </trkpt>
      <trkpt lat="42.99979" lon="0.67288">
        <ele>538</ele>
        <time>2022-09-08T15:20:20Z</time>
      </trkpt>
      <trkpt lat="42.99981" lon="0.6729">
        <ele>538</ele>
        <time>2022-09-08T15:20:23Z</time>
      </trkpt>
      <trkpt lat="42.99982" lon="0.67292">
        <ele>538</ele>
        <time>2022-09-08T15:20:27Z</time>
      </trkpt>
      <trkpt lat="42.99983" lon="0.67295">
        <ele>538</ele>
        <time>2022-09-08T15:20:33Z</time>
      </trkpt>
      <trkpt lat="42.99985" lon="0.67293">
        <ele>537</ele>
        <time>2022-09-08T15:20:37Z</time>
      </trkpt>
      <trkpt lat="42.99987" lon="0.67294">
        <ele>537</ele>
        <time>2022-09-08T15:20:56Z</time>
      </trkpt>
      <trkpt lat="42.99989" lon="0.67296">
        <ele>537</ele>
        <time>2022-09-08T15:21:17Z</time>
      </trkpt>
      <trkpt lat="42.99988" lon="0.67293">
        <ele>537</ele>
        <time>2022-09-08T15:21:25Z</time>
      </trkpt>
      <trkpt lat="42.99987" lon="0.67291">
        <ele>537</ele>
        <time>2022-09-08T15:21:38Z</time>
      </trkpt>
      <trkpt lat="42.99986" lon="0.67293">
        <ele>537</ele>
        <time>2022-09-08T15:27:33Z</time>
      </trkpt>
      <trkpt lat="42.99986" lon="0.67295">
        <ele>537</ele>
        <time>2022-09-08T15:27:35Z</time>
      </trkpt>
      <trkpt lat="42.99986" lon="0.67299">
        <ele>537</ele>
        <time>2022-09-08T15:27:38Z</time>
      </trkpt>
      <trkpt lat="42.99988" lon="0.673">
        <ele>537</ele>
        <time>2022-09-08T15:27:40Z</time>
      </trkpt>
      <trkpt lat="42.99989" lon="0.67303">
        <ele>537</ele>
        <time>2022-09-08T15:27:43Z</time>
      </trkpt>
      <trkpt lat="42.99989" lon="0.67306">
        <ele>536</ele>
        <time>2022-09-08T15:27:47Z</time>
      </trkpt>
      <trkpt lat="42.99988" lon="0.67309">
        <ele>536</ele>
        <time>2022-09-08T15:27:50Z</time>
      </trkpt>
      <trkpt lat="42.9999" lon="0.67312">
        <ele>536</ele>
        <time>2022-09-08T15:27:54Z</time>
      </trkpt>
      <trkpt lat="42.9999" lon="0.67314">
        <ele>535</ele>
        <time>2022-09-08T15:28:35Z</time>
      </trkpt>
      <trkpt lat="42.99992" lon="0.67314">
        <ele>536</ele>
        <time>2022-09-08T15:28:44Z</time>
      </trkpt>
      <trkpt lat="42.99995" lon="0.67314">
        <ele>536</ele>
        <time>2022-09-08T15:28:47Z</time>
      </trkpt>
      <trkpt lat="42.99996" lon="0.67316">
        <ele>536</ele>
        <time>2022-09-08T15:28:53Z</time>
      </trkpt>
      <trkpt lat="42.99995" lon="0.67319">
        <ele>535</ele>
        <time>2022-09-08T15:29:07Z</time>
      </trkpt>
    </trkseg>
  </trk>
</gpx>